<?xml version="1.0" encoding="UTF-8" standalone="no" ?>
<gpx xmlns="http://www.topografix.com/GPX/1/1" xmlns:xsi="http://www.w3.org/2001/XMLSchema-instance" xsi:schemaLocation="http://www.topografix.com/GPX/1/1 http://www.topografix.com/GPX/1/1/gpx.xsd" version="1.1" creator="VisuGPX - https://www.visugpx.com">
  <metadata>
    <name>2017-08-05 Bike ride VTT-Amberieux Les Cheres O</name>
    <desc><![CDATA[2017-08-05 Bike ride VTT-Amberieux Les Cheres O]]></desc>
  </metadata>
  <wpt lat="45.92467" lon="4.73659">
    <ele>174</ele>
    <name><![CDATA[2017-08-05 15:01 (Start)]]></name>
  </wpt>
  <wpt lat="45.92459" lon="4.73703">
    <ele>174</ele>
    <name><![CDATA[2017-08-05 15:01 (End)]]></name>
    <desc><![CDATA[Created by Google My Tracks on Android  Name: 2017-08-05 15:01 Activity type: biking Description: - Total distance: 22.81 km (14.2 mi) Total time: 1:33:15 Moving time: 1:29:46 Average speed: 14.68 km/h (9.1 mi/h) Average moving speed: 15.25 km/h (9.5 mi/h) Max speed: 35.16 km/h (21.8 mi/h) Average pace: 4:05 min/km (6:35 min/mi) Average moving pace: 3:56 min/km (6:20 min/mi) Fastest pace: 1:42 min/km (2:45 min/mi) Max elevation: 200 m (658 ft) Min elevation: 156 m (511 ft) Elevation gain: 428 m (1404 ft) Max grade: 15 % Min grade: -12 % Recorded: 05/08/2017 15:01]]></desc>
  </wpt>
  <trk>
    <name><![CDATA[2017-08-05 15:01]]></name>
    <trkseg>
      <trkpt lat="45.92467" lon="4.73659">
        <ele>174</ele>
        <time>2017-08-05T13:01:51.763Z</time>
      </trkpt>
      <trkpt lat="45.92469" lon="4.73652">
        <ele>174</ele>
        <time>2017-08-05T13:03:06Z</time>
      </trkpt>
      <trkpt lat="45.9247" lon="4.73646">
        <ele>174</ele>
        <time>2017-08-05T13:03:07Z</time>
      </trkpt>
      <trkpt lat="45.92473" lon="4.73637">
        <ele>174</ele>
        <time>2017-08-05T13:03:09Z</time>
      </trkpt>
      <trkpt lat="45.92475" lon="4.73634">
        <ele>174</ele>
        <time>2017-08-05T13:03:10Z</time>
      </trkpt>
      <trkpt lat="45.92481" lon="4.7363">
        <ele>174</ele>
        <time>2017-08-05T13:03:12Z</time>
      </trkpt>
      <trkpt lat="45.92485" lon="4.73634">
        <ele>174</ele>
        <time>2017-08-05T13:03:13Z</time>
      </trkpt>
      <trkpt lat="45.92488" lon="4.73634">
        <ele>174</ele>
        <time>2017-08-05T13:03:14Z</time>
      </trkpt>
      <trkpt lat="45.92494" lon="4.7364">
        <ele>174</ele>
        <time>2017-08-05T13:03:15Z</time>
      </trkpt>
      <trkpt lat="45.92498" lon="4.7364">
        <ele>174</ele>
        <time>2017-08-05T13:03:16Z</time>
      </trkpt>
      <trkpt lat="45.92504" lon="4.73641">
        <ele>174</ele>
        <time>2017-08-05T13:03:17Z</time>
      </trkpt>
      <trkpt lat="45.92512" lon="4.73642">
        <ele>174</ele>
        <time>2017-08-05T13:03:19Z</time>
      </trkpt>
      <trkpt lat="45.92516" lon="4.73642">
        <ele>174</ele>
        <time>2017-08-05T13:03:20Z</time>
      </trkpt>
      <trkpt lat="45.92524" lon="4.7364">
        <ele>173</ele>
        <time>2017-08-05T13:03:22Z</time>
      </trkpt>
      <trkpt lat="45.92529" lon="4.7364">
        <ele>173</ele>
        <time>2017-08-05T13:03:23Z</time>
      </trkpt>
      <trkpt lat="45.92536" lon="4.7364">
        <ele>173</ele>
        <time>2017-08-05T13:03:25Z</time>
      </trkpt>
      <trkpt lat="45.9254" lon="4.73639">
        <ele>173</ele>
        <time>2017-08-05T13:03:26Z</time>
      </trkpt>
      <trkpt lat="45.92547" lon="4.73639">
        <ele>173</ele>
        <time>2017-08-05T13:03:28Z</time>
      </trkpt>
      <trkpt lat="45.92551" lon="4.73638">
        <ele>173</ele>
        <time>2017-08-05T13:03:29Z</time>
      </trkpt>
      <trkpt lat="45.9256" lon="4.73636">
        <ele>173</ele>
        <time>2017-08-05T13:03:31Z</time>
      </trkpt>
      <trkpt lat="45.92564" lon="4.73635">
        <ele>173</ele>
        <time>2017-08-05T13:03:32Z</time>
      </trkpt>
      <trkpt lat="45.92571" lon="4.73632">
        <ele>173</ele>
        <time>2017-08-05T13:03:34Z</time>
      </trkpt>
      <trkpt lat="45.92575" lon="4.73631">
        <ele>173</ele>
        <time>2017-08-05T13:03:35Z</time>
      </trkpt>
      <trkpt lat="45.92582" lon="4.73628">
        <ele>173</ele>
        <time>2017-08-05T13:03:37Z</time>
      </trkpt>
      <trkpt lat="45.92586" lon="4.73627">
        <ele>172</ele>
        <time>2017-08-05T13:03:38Z</time>
      </trkpt>
      <trkpt lat="45.92594" lon="4.73625">
        <ele>173</ele>
        <time>2017-08-05T13:03:40Z</time>
      </trkpt>
      <trkpt lat="45.92599" lon="4.73625">
        <ele>173</ele>
        <time>2017-08-05T13:03:41Z</time>
      </trkpt>
      <trkpt lat="45.92603" lon="4.73627">
        <ele>173</ele>
        <time>2017-08-05T13:03:42Z</time>
      </trkpt>
      <trkpt lat="45.92609" lon="4.73631">
        <ele>173</ele>
        <time>2017-08-05T13:03:43Z</time>
      </trkpt>
      <trkpt lat="45.92614" lon="4.73635">
        <ele>173</ele>
        <time>2017-08-05T13:03:44Z</time>
      </trkpt>
      <trkpt lat="45.92618" lon="4.73637">
        <ele>173</ele>
        <time>2017-08-05T13:03:45Z</time>
      </trkpt>
      <trkpt lat="45.92614" lon="4.73625">
        <ele>173</ele>
        <time>2017-08-05T13:03:46Z</time>
      </trkpt>
      <trkpt lat="45.9262" lon="4.73633">
        <ele>173</ele>
        <time>2017-08-05T13:03:49Z</time>
      </trkpt>
      <trkpt lat="45.92623" lon="4.73638">
        <ele>173</ele>
        <time>2017-08-05T13:03:50Z</time>
      </trkpt>
      <trkpt lat="45.92625" lon="4.73645">
        <ele>173</ele>
        <time>2017-08-05T13:03:51Z</time>
      </trkpt>
      <trkpt lat="45.92627" lon="4.73651">
        <ele>173</ele>
        <time>2017-08-05T13:03:52Z</time>
      </trkpt>
      <trkpt lat="45.9263" lon="4.73657">
        <ele>173</ele>
        <time>2017-08-05T13:03:53Z</time>
      </trkpt>
      <trkpt lat="45.92633" lon="4.73663">
        <ele>173</ele>
        <time>2017-08-05T13:03:54Z</time>
      </trkpt>
      <trkpt lat="45.92637" lon="4.73667">
        <ele>173</ele>
        <time>2017-08-05T13:03:55Z</time>
      </trkpt>
      <trkpt lat="45.92641" lon="4.73672">
        <ele>173</ele>
        <time>2017-08-05T13:03:56Z</time>
      </trkpt>
      <trkpt lat="45.92646" lon="4.73672">
        <ele>173</ele>
        <time>2017-08-05T13:03:57Z</time>
      </trkpt>
      <trkpt lat="45.9265" lon="4.73675">
        <ele>173</ele>
        <time>2017-08-05T13:03:58Z</time>
      </trkpt>
      <trkpt lat="45.92658" lon="4.73681">
        <ele>173</ele>
        <time>2017-08-05T13:04:00Z</time>
      </trkpt>
      <trkpt lat="45.92661" lon="4.73683">
        <ele>173</ele>
        <time>2017-08-05T13:04:01Z</time>
      </trkpt>
      <trkpt lat="45.92667" lon="4.73689">
        <ele>174</ele>
        <time>2017-08-05T13:04:03Z</time>
      </trkpt>
      <trkpt lat="45.92671" lon="4.73691">
        <ele>174</ele>
        <time>2017-08-05T13:04:04Z</time>
      </trkpt>
      <trkpt lat="45.92677" lon="4.73698">
        <ele>174</ele>
        <time>2017-08-05T13:04:06Z</time>
      </trkpt>
      <trkpt lat="45.92681" lon="4.73701">
        <ele>173</ele>
        <time>2017-08-05T13:04:07Z</time>
      </trkpt>
      <trkpt lat="45.92689" lon="4.73706">
        <ele>173</ele>
        <time>2017-08-05T13:04:09Z</time>
      </trkpt>
      <trkpt lat="45.92693" lon="4.73709">
        <ele>173</ele>
        <time>2017-08-05T13:04:10Z</time>
      </trkpt>
      <trkpt lat="45.92697" lon="4.73711">
        <ele>173</ele>
        <time>2017-08-05T13:04:11Z</time>
      </trkpt>
      <trkpt lat="45.92702" lon="4.73712">
        <ele>173</ele>
        <time>2017-08-05T13:04:12Z</time>
      </trkpt>
      <trkpt lat="45.92706" lon="4.73713">
        <ele>173</ele>
        <time>2017-08-05T13:04:13Z</time>
      </trkpt>
      <trkpt lat="45.92712" lon="4.73713">
        <ele>173</ele>
        <time>2017-08-05T13:04:14Z</time>
      </trkpt>
      <trkpt lat="45.9272" lon="4.73716">
        <ele>173</ele>
        <time>2017-08-05T13:04:16Z</time>
      </trkpt>
      <trkpt lat="45.92723" lon="4.73717">
        <ele>173</ele>
        <time>2017-08-05T13:04:17Z</time>
      </trkpt>
      <trkpt lat="45.9273" lon="4.73721">
        <ele>173</ele>
        <time>2017-08-05T13:04:19Z</time>
      </trkpt>
      <trkpt lat="45.92735" lon="4.73722">
        <ele>173</ele>
        <time>2017-08-05T13:04:20Z</time>
      </trkpt>
      <trkpt lat="45.92739" lon="4.73725">
        <ele>173</ele>
        <time>2017-08-05T13:04:21Z</time>
      </trkpt>
      <trkpt lat="45.92744" lon="4.73726">
        <ele>173</ele>
        <time>2017-08-05T13:04:22Z</time>
      </trkpt>
      <trkpt lat="45.92749" lon="4.7373">
        <ele>173</ele>
        <time>2017-08-05T13:04:23Z</time>
      </trkpt>
      <trkpt lat="45.92754" lon="4.73732">
        <ele>172</ele>
        <time>2017-08-05T13:04:24Z</time>
      </trkpt>
      <trkpt lat="45.92762" lon="4.73736">
        <ele>172</ele>
        <time>2017-08-05T13:04:25Z</time>
      </trkpt>
      <trkpt lat="45.92769" lon="4.73737">
        <ele>172</ele>
        <time>2017-08-05T13:04:26Z</time>
      </trkpt>
      <trkpt lat="45.92773" lon="4.73736">
        <ele>172</ele>
        <time>2017-08-05T13:04:27Z</time>
      </trkpt>
      <trkpt lat="45.92782" lon="4.73739">
        <ele>172</ele>
        <time>2017-08-05T13:04:30Z</time>
      </trkpt>
      <trkpt lat="45.92786" lon="4.73744">
        <ele>172</ele>
        <time>2017-08-05T13:04:31Z</time>
      </trkpt>
      <trkpt lat="45.92788" lon="4.73754">
        <ele>173</ele>
        <time>2017-08-05T13:04:34Z</time>
      </trkpt>
      <trkpt lat="45.92791" lon="4.73758">
        <ele>173</ele>
        <time>2017-08-05T13:04:35Z</time>
      </trkpt>
      <trkpt lat="45.92798" lon="4.73763">
        <ele>173</ele>
        <time>2017-08-05T13:04:37Z</time>
      </trkpt>
      <trkpt lat="45.92803" lon="4.73765">
        <ele>173</ele>
        <time>2017-08-05T13:04:38Z</time>
      </trkpt>
      <trkpt lat="45.92811" lon="4.7377">
        <ele>173</ele>
        <time>2017-08-05T13:04:40Z</time>
      </trkpt>
      <trkpt lat="45.92815" lon="4.73773">
        <ele>173</ele>
        <time>2017-08-05T13:04:41Z</time>
      </trkpt>
      <trkpt lat="45.92819" lon="4.73775">
        <ele>173</ele>
        <time>2017-08-05T13:04:42Z</time>
      </trkpt>
      <trkpt lat="45.92824" lon="4.73776">
        <ele>173</ele>
        <time>2017-08-05T13:04:43Z</time>
      </trkpt>
      <trkpt lat="45.92828" lon="4.73779">
        <ele>173</ele>
        <time>2017-08-05T13:04:44Z</time>
      </trkpt>
      <trkpt lat="45.92832" lon="4.73783">
        <ele>173</ele>
        <time>2017-08-05T13:04:45Z</time>
      </trkpt>
      <trkpt lat="45.92839" lon="4.7379">
        <ele>173</ele>
        <time>2017-08-05T13:04:47Z</time>
      </trkpt>
      <trkpt lat="45.92844" lon="4.73791">
        <ele>173</ele>
        <time>2017-08-05T13:04:48Z</time>
      </trkpt>
      <trkpt lat="45.92852" lon="4.73796">
        <ele>173</ele>
        <time>2017-08-05T13:04:50Z</time>
      </trkpt>
      <trkpt lat="45.92855" lon="4.73801">
        <ele>173</ele>
        <time>2017-08-05T13:04:51Z</time>
      </trkpt>
      <trkpt lat="45.9286" lon="4.73811">
        <ele>173</ele>
        <time>2017-08-05T13:04:53Z</time>
      </trkpt>
      <trkpt lat="45.92862" lon="4.73816">
        <ele>173</ele>
        <time>2017-08-05T13:04:54Z</time>
      </trkpt>
      <trkpt lat="45.92865" lon="4.73828">
        <ele>173</ele>
        <time>2017-08-05T13:04:56Z</time>
      </trkpt>
      <trkpt lat="45.92867" lon="4.73834">
        <ele>173</ele>
        <time>2017-08-05T13:04:57Z</time>
      </trkpt>
      <trkpt lat="45.92868" lon="4.73841">
        <ele>173</ele>
        <time>2017-08-05T13:04:58Z</time>
      </trkpt>
      <trkpt lat="45.92869" lon="4.73847">
        <ele>173</ele>
        <time>2017-08-05T13:04:59Z</time>
      </trkpt>
      <trkpt lat="45.92871" lon="4.73856">
        <ele>173</ele>
        <time>2017-08-05T13:05:00Z</time>
      </trkpt>
      <trkpt lat="45.92872" lon="4.73863">
        <ele>173</ele>
        <time>2017-08-05T13:05:01Z</time>
      </trkpt>
      <trkpt lat="45.92873" lon="4.73872">
        <ele>173</ele>
        <time>2017-08-05T13:05:02Z</time>
      </trkpt>
      <trkpt lat="45.92874" lon="4.73879">
        <ele>173</ele>
        <time>2017-08-05T13:05:03Z</time>
      </trkpt>
      <trkpt lat="45.92878" lon="4.7389">
        <ele>173</ele>
        <time>2017-08-05T13:05:05Z</time>
      </trkpt>
      <trkpt lat="45.92878" lon="4.73896">
        <ele>173</ele>
        <time>2017-08-05T13:05:06Z</time>
      </trkpt>
      <trkpt lat="45.92879" lon="4.73904">
        <ele>173</ele>
        <time>2017-08-05T13:05:07Z</time>
      </trkpt>
      <trkpt lat="45.9288" lon="4.73911">
        <ele>173</ele>
        <time>2017-08-05T13:05:08Z</time>
      </trkpt>
      <trkpt lat="45.92881" lon="4.73918">
        <ele>172</ele>
        <time>2017-08-05T13:05:09Z</time>
      </trkpt>
      <trkpt lat="45.92882" lon="4.73925">
        <ele>172</ele>
        <time>2017-08-05T13:05:10Z</time>
      </trkpt>
      <trkpt lat="45.92884" lon="4.73932">
        <ele>172</ele>
        <time>2017-08-05T13:05:11Z</time>
      </trkpt>
      <trkpt lat="45.92886" lon="4.73939">
        <ele>172</ele>
        <time>2017-08-05T13:05:12Z</time>
      </trkpt>
      <trkpt lat="45.92886" lon="4.73946">
        <ele>172</ele>
        <time>2017-08-05T13:05:13Z</time>
      </trkpt>
      <trkpt lat="45.92886" lon="4.73953">
        <ele>172</ele>
        <time>2017-08-05T13:05:14Z</time>
      </trkpt>
      <trkpt lat="45.92885" lon="4.73962">
        <ele>172</ele>
        <time>2017-08-05T13:05:15Z</time>
      </trkpt>
      <trkpt lat="45.92884" lon="4.73969">
        <ele>172</ele>
        <time>2017-08-05T13:05:16Z</time>
      </trkpt>
      <trkpt lat="45.92883" lon="4.73977">
        <ele>172</ele>
        <time>2017-08-05T13:05:17Z</time>
      </trkpt>
      <trkpt lat="45.92882" lon="4.73984">
        <ele>172</ele>
        <time>2017-08-05T13:05:18Z</time>
      </trkpt>
      <trkpt lat="45.92881" lon="4.73992">
        <ele>172</ele>
        <time>2017-08-05T13:05:19Z</time>
      </trkpt>
      <trkpt lat="45.92879" lon="4.73999">
        <ele>172</ele>
        <time>2017-08-05T13:05:20Z</time>
      </trkpt>
      <trkpt lat="45.92878" lon="4.74005">
        <ele>172</ele>
        <time>2017-08-05T13:05:21Z</time>
      </trkpt>
      <trkpt lat="45.92877" lon="4.74012">
        <ele>172</ele>
        <time>2017-08-05T13:05:22Z</time>
      </trkpt>
      <trkpt lat="45.92877" lon="4.74019">
        <ele>172</ele>
        <time>2017-08-05T13:05:23Z</time>
      </trkpt>
      <trkpt lat="45.92877" lon="4.74025">
        <ele>172</ele>
        <time>2017-08-05T13:05:24Z</time>
      </trkpt>
      <trkpt lat="45.92879" lon="4.74031">
        <ele>172</ele>
        <time>2017-08-05T13:05:25Z</time>
      </trkpt>
      <trkpt lat="45.92882" lon="4.74036">
        <ele>172</ele>
        <time>2017-08-05T13:05:26Z</time>
      </trkpt>
      <trkpt lat="45.92885" lon="4.74041">
        <ele>172</ele>
        <time>2017-08-05T13:05:27Z</time>
      </trkpt>
      <trkpt lat="45.92889" lon="4.74045">
        <ele>172</ele>
        <time>2017-08-05T13:05:28Z</time>
      </trkpt>
      <trkpt lat="45.92894" lon="4.74048">
        <ele>172</ele>
        <time>2017-08-05T13:05:29Z</time>
      </trkpt>
      <trkpt lat="45.92899" lon="4.74051">
        <ele>172</ele>
        <time>2017-08-05T13:05:30Z</time>
      </trkpt>
      <trkpt lat="45.92903" lon="4.74055">
        <ele>172</ele>
        <time>2017-08-05T13:05:31Z</time>
      </trkpt>
      <trkpt lat="45.92906" lon="4.7406">
        <ele>172</ele>
        <time>2017-08-05T13:05:32Z</time>
      </trkpt>
      <trkpt lat="45.92911" lon="4.7407">
        <ele>173</ele>
        <time>2017-08-05T13:05:34Z</time>
      </trkpt>
      <trkpt lat="45.92912" lon="4.74076">
        <ele>173</ele>
        <time>2017-08-05T13:05:35Z</time>
      </trkpt>
      <trkpt lat="45.92911" lon="4.74088">
        <ele>173</ele>
        <time>2017-08-05T13:05:37Z</time>
      </trkpt>
      <trkpt lat="45.9291" lon="4.74093">
        <ele>173</ele>
        <time>2017-08-05T13:05:38Z</time>
      </trkpt>
      <trkpt lat="45.92905" lon="4.74101">
        <ele>172</ele>
        <time>2017-08-05T13:05:40Z</time>
      </trkpt>
      <trkpt lat="45.92904" lon="4.74105">
        <ele>172</ele>
        <time>2017-08-05T13:05:41Z</time>
      </trkpt>
      <trkpt lat="45.92896" lon="4.74112">
        <ele>172</ele>
        <time>2017-08-05T13:05:44Z</time>
      </trkpt>
      <trkpt lat="45.92894" lon="4.74116">
        <ele>172</ele>
        <time>2017-08-05T13:05:45Z</time>
      </trkpt>
      <trkpt lat="45.92888" lon="4.74122">
        <ele>172</ele>
        <time>2017-08-05T13:05:47Z</time>
      </trkpt>
      <trkpt lat="45.92885" lon="4.74126">
        <ele>172</ele>
        <time>2017-08-05T13:05:48Z</time>
      </trkpt>
      <trkpt lat="45.92882" lon="4.74135">
        <ele>172</ele>
        <time>2017-08-05T13:05:50Z</time>
      </trkpt>
      <trkpt lat="45.92881" lon="4.7414">
        <ele>172</ele>
        <time>2017-08-05T13:05:51Z</time>
      </trkpt>
      <trkpt lat="45.92881" lon="4.74149">
        <ele>172</ele>
        <time>2017-08-05T13:05:53Z</time>
      </trkpt>
      <trkpt lat="45.92882" lon="4.74154">
        <ele>172</ele>
        <time>2017-08-05T13:05:54Z</time>
      </trkpt>
      <trkpt lat="45.92886" lon="4.74165">
        <ele>172</ele>
        <time>2017-08-05T13:05:56Z</time>
      </trkpt>
      <trkpt lat="45.92888" lon="4.74169">
        <ele>171</ele>
        <time>2017-08-05T13:05:57Z</time>
      </trkpt>
      <trkpt lat="45.92895" lon="4.74174">
        <ele>171</ele>
        <time>2017-08-05T13:05:59Z</time>
      </trkpt>
      <trkpt lat="45.92898" lon="4.74177">
        <ele>172</ele>
        <time>2017-08-05T13:06:00Z</time>
      </trkpt>
      <trkpt lat="45.92905" lon="4.74181">
        <ele>172</ele>
        <time>2017-08-05T13:06:02Z</time>
      </trkpt>
      <trkpt lat="45.92909" lon="4.74183">
        <ele>172</ele>
        <time>2017-08-05T13:06:03Z</time>
      </trkpt>
      <trkpt lat="45.92916" lon="4.74188">
        <ele>171</ele>
        <time>2017-08-05T13:06:05Z</time>
      </trkpt>
      <trkpt lat="45.92919" lon="4.74191">
        <ele>171</ele>
        <time>2017-08-05T13:06:06Z</time>
      </trkpt>
      <trkpt lat="45.92926" lon="4.74195">
        <ele>170</ele>
        <time>2017-08-05T13:06:08Z</time>
      </trkpt>
      <trkpt lat="45.92928" lon="4.74197">
        <ele>170</ele>
        <time>2017-08-05T13:06:09Z</time>
      </trkpt>
      <trkpt lat="45.92935" lon="4.74201">
        <ele>170</ele>
        <time>2017-08-05T13:06:11Z</time>
      </trkpt>
      <trkpt lat="45.92937" lon="4.74204">
        <ele>170</ele>
        <time>2017-08-05T13:06:12Z</time>
      </trkpt>
      <trkpt lat="45.92945" lon="4.74207">
        <ele>170</ele>
        <time>2017-08-05T13:06:14Z</time>
      </trkpt>
      <trkpt lat="45.92949" lon="4.74209">
        <ele>170</ele>
        <time>2017-08-05T13:06:15Z</time>
      </trkpt>
      <trkpt lat="45.92957" lon="4.74211">
        <ele>170</ele>
        <time>2017-08-05T13:06:17Z</time>
      </trkpt>
      <trkpt lat="45.92961" lon="4.7421">
        <ele>170</ele>
        <time>2017-08-05T13:06:18Z</time>
      </trkpt>
      <trkpt lat="45.92968" lon="4.74205">
        <ele>170</ele>
        <time>2017-08-05T13:06:20Z</time>
      </trkpt>
      <trkpt lat="45.92972" lon="4.74202">
        <ele>170</ele>
        <time>2017-08-05T13:06:21Z</time>
      </trkpt>
      <trkpt lat="45.92975" lon="4.74197">
        <ele>170</ele>
        <time>2017-08-05T13:06:22Z</time>
      </trkpt>
      <trkpt lat="45.92977" lon="4.74191">
        <ele>170</ele>
        <time>2017-08-05T13:06:23Z</time>
      </trkpt>
      <trkpt lat="45.9298" lon="4.74184">
        <ele>170</ele>
        <time>2017-08-05T13:06:24Z</time>
      </trkpt>
      <trkpt lat="45.92982" lon="4.74177">
        <ele>169</ele>
        <time>2017-08-05T13:06:25Z</time>
      </trkpt>
      <trkpt lat="45.92984" lon="4.7417">
        <ele>169</ele>
        <time>2017-08-05T13:06:26Z</time>
      </trkpt>
      <trkpt lat="45.92988" lon="4.74162">
        <ele>170</ele>
        <time>2017-08-05T13:06:27Z</time>
      </trkpt>
      <trkpt lat="45.92991" lon="4.74154">
        <ele>170</ele>
        <time>2017-08-05T13:06:28Z</time>
      </trkpt>
      <trkpt lat="45.92994" lon="4.74146">
        <ele>170</ele>
        <time>2017-08-05T13:06:29Z</time>
      </trkpt>
      <trkpt lat="45.92997" lon="4.74137">
        <ele>171</ele>
        <time>2017-08-05T13:06:30Z</time>
      </trkpt>
      <trkpt lat="45.92999" lon="4.74128">
        <ele>171</ele>
        <time>2017-08-05T13:06:31Z</time>
      </trkpt>
      <trkpt lat="45.93002" lon="4.74117">
        <ele>170</ele>
        <time>2017-08-05T13:06:32Z</time>
      </trkpt>
      <trkpt lat="45.93003" lon="4.74106">
        <ele>170</ele>
        <time>2017-08-05T13:06:33Z</time>
      </trkpt>
      <trkpt lat="45.93004" lon="4.74095">
        <ele>170</ele>
        <time>2017-08-05T13:06:34Z</time>
      </trkpt>
      <trkpt lat="45.93004" lon="4.74085">
        <ele>171</ele>
        <time>2017-08-05T13:06:35Z</time>
      </trkpt>
      <trkpt lat="45.93003" lon="4.74074">
        <ele>171</ele>
        <time>2017-08-05T13:06:36Z</time>
      </trkpt>
      <trkpt lat="45.93003" lon="4.74064">
        <ele>170</ele>
        <time>2017-08-05T13:06:37Z</time>
      </trkpt>
      <trkpt lat="45.93002" lon="4.74054">
        <ele>170</ele>
        <time>2017-08-05T13:06:38Z</time>
      </trkpt>
      <trkpt lat="45.93002" lon="4.74044">
        <ele>170</ele>
        <time>2017-08-05T13:06:39Z</time>
      </trkpt>
      <trkpt lat="45.93003" lon="4.74035">
        <ele>170</ele>
        <time>2017-08-05T13:06:40Z</time>
      </trkpt>
      <trkpt lat="45.93005" lon="4.74027">
        <ele>170</ele>
        <time>2017-08-05T13:06:41Z</time>
      </trkpt>
      <trkpt lat="45.93007" lon="4.7402">
        <ele>170</ele>
        <time>2017-08-05T13:06:42Z</time>
      </trkpt>
      <trkpt lat="45.9301" lon="4.74014">
        <ele>170</ele>
        <time>2017-08-05T13:06:43Z</time>
      </trkpt>
      <trkpt lat="45.93014" lon="4.74009">
        <ele>170</ele>
        <time>2017-08-05T13:06:44Z</time>
      </trkpt>
      <trkpt lat="45.9302" lon="4.74004">
        <ele>170</ele>
        <time>2017-08-05T13:06:45Z</time>
      </trkpt>
      <trkpt lat="45.93025" lon="4.74001">
        <ele>170</ele>
        <time>2017-08-05T13:06:46Z</time>
      </trkpt>
      <trkpt lat="45.9303" lon="4.74001">
        <ele>170</ele>
        <time>2017-08-05T13:06:47Z</time>
      </trkpt>
      <trkpt lat="45.93034" lon="4.74002">
        <ele>169</ele>
        <time>2017-08-05T13:06:48Z</time>
      </trkpt>
      <trkpt lat="45.93039" lon="4.74004">
        <ele>169</ele>
        <time>2017-08-05T13:06:49Z</time>
      </trkpt>
      <trkpt lat="45.93043" lon="4.74006">
        <ele>169</ele>
        <time>2017-08-05T13:06:50Z</time>
      </trkpt>
      <trkpt lat="45.93048" lon="4.74008">
        <ele>169</ele>
        <time>2017-08-05T13:06:51Z</time>
      </trkpt>
      <trkpt lat="45.93052" lon="4.7401">
        <ele>169</ele>
        <time>2017-08-05T13:06:52Z</time>
      </trkpt>
      <trkpt lat="45.93058" lon="4.74012">
        <ele>169</ele>
        <time>2017-08-05T13:06:53Z</time>
      </trkpt>
      <trkpt lat="45.93063" lon="4.74014">
        <ele>169</ele>
        <time>2017-08-05T13:06:54Z</time>
      </trkpt>
      <trkpt lat="45.93068" lon="4.74016">
        <ele>169</ele>
        <time>2017-08-05T13:06:55Z</time>
      </trkpt>
      <trkpt lat="45.93073" lon="4.74018">
        <ele>169</ele>
        <time>2017-08-05T13:06:56Z</time>
      </trkpt>
      <trkpt lat="45.93078" lon="4.7402">
        <ele>169</ele>
        <time>2017-08-05T13:06:57Z</time>
      </trkpt>
      <trkpt lat="45.93083" lon="4.74021">
        <ele>169</ele>
        <time>2017-08-05T13:06:58Z</time>
      </trkpt>
      <trkpt lat="45.93088" lon="4.74022">
        <ele>168</ele>
        <time>2017-08-05T13:06:59Z</time>
      </trkpt>
      <trkpt lat="45.93093" lon="4.74023">
        <ele>168</ele>
        <time>2017-08-05T13:07:00Z</time>
      </trkpt>
      <trkpt lat="45.93098" lon="4.74024">
        <ele>168</ele>
        <time>2017-08-05T13:07:01Z</time>
      </trkpt>
      <trkpt lat="45.93103" lon="4.74024">
        <ele>168</ele>
        <time>2017-08-05T13:07:02Z</time>
      </trkpt>
      <trkpt lat="45.93108" lon="4.74026">
        <ele>168</ele>
        <time>2017-08-05T13:07:03Z</time>
      </trkpt>
      <trkpt lat="45.93113" lon="4.74027">
        <ele>168</ele>
        <time>2017-08-05T13:07:04Z</time>
      </trkpt>
      <trkpt lat="45.93118" lon="4.74028">
        <ele>168</ele>
        <time>2017-08-05T13:07:05Z</time>
      </trkpt>
      <trkpt lat="45.93122" lon="4.7403">
        <ele>168</ele>
        <time>2017-08-05T13:07:06Z</time>
      </trkpt>
      <trkpt lat="45.93126" lon="4.74032">
        <ele>168</ele>
        <time>2017-08-05T13:07:07Z</time>
      </trkpt>
      <trkpt lat="45.93131" lon="4.74034">
        <ele>168</ele>
        <time>2017-08-05T13:07:08Z</time>
      </trkpt>
      <trkpt lat="45.93136" lon="4.74036">
        <ele>168</ele>
        <time>2017-08-05T13:07:09Z</time>
      </trkpt>
      <trkpt lat="45.93141" lon="4.74039">
        <ele>168</ele>
        <time>2017-08-05T13:07:10Z</time>
      </trkpt>
      <trkpt lat="45.93146" lon="4.74042">
        <ele>168</ele>
        <time>2017-08-05T13:07:11Z</time>
      </trkpt>
      <trkpt lat="45.93151" lon="4.74045">
        <ele>168</ele>
        <time>2017-08-05T13:07:12Z</time>
      </trkpt>
      <trkpt lat="45.93155" lon="4.7405">
        <ele>168</ele>
        <time>2017-08-05T13:07:13Z</time>
      </trkpt>
      <trkpt lat="45.9316" lon="4.74054">
        <ele>168</ele>
        <time>2017-08-05T13:07:14Z</time>
      </trkpt>
      <trkpt lat="45.93164" lon="4.74058">
        <ele>168</ele>
        <time>2017-08-05T13:07:15Z</time>
      </trkpt>
      <trkpt lat="45.93168" lon="4.74063">
        <ele>168</ele>
        <time>2017-08-05T13:07:16Z</time>
      </trkpt>
      <trkpt lat="45.93173" lon="4.74068">
        <ele>168</ele>
        <time>2017-08-05T13:07:17Z</time>
      </trkpt>
      <trkpt lat="45.93176" lon="4.74073">
        <ele>168</ele>
        <time>2017-08-05T13:07:18Z</time>
      </trkpt>
      <trkpt lat="45.9318" lon="4.74077">
        <ele>168</ele>
        <time>2017-08-05T13:07:19Z</time>
      </trkpt>
      <trkpt lat="45.93184" lon="4.74082">
        <ele>168</ele>
        <time>2017-08-05T13:07:20Z</time>
      </trkpt>
      <trkpt lat="45.93189" lon="4.74086">
        <ele>168</ele>
        <time>2017-08-05T13:07:21Z</time>
      </trkpt>
      <trkpt lat="45.93193" lon="4.74089">
        <ele>167</ele>
        <time>2017-08-05T13:07:22Z</time>
      </trkpt>
      <trkpt lat="45.93197" lon="4.74093">
        <ele>167</ele>
        <time>2017-08-05T13:07:23Z</time>
      </trkpt>
      <trkpt lat="45.93202" lon="4.74097">
        <ele>167</ele>
        <time>2017-08-05T13:07:24Z</time>
      </trkpt>
      <trkpt lat="45.93206" lon="4.741">
        <ele>167</ele>
        <time>2017-08-05T13:07:25Z</time>
      </trkpt>
      <trkpt lat="45.9321" lon="4.74104">
        <ele>167</ele>
        <time>2017-08-05T13:07:26Z</time>
      </trkpt>
      <trkpt lat="45.93214" lon="4.74108">
        <ele>167</ele>
        <time>2017-08-05T13:07:27Z</time>
      </trkpt>
      <trkpt lat="45.93223" lon="4.74112">
        <ele>167</ele>
        <time>2017-08-05T13:07:29Z</time>
      </trkpt>
      <trkpt lat="45.93226" lon="4.74113">
        <ele>167</ele>
        <time>2017-08-05T13:07:30Z</time>
      </trkpt>
      <trkpt lat="45.93233" lon="4.74115">
        <ele>167</ele>
        <time>2017-08-05T13:07:32Z</time>
      </trkpt>
      <trkpt lat="45.93237" lon="4.74114">
        <ele>167</ele>
        <time>2017-08-05T13:07:33Z</time>
      </trkpt>
      <trkpt lat="45.93244" lon="4.74108">
        <ele>167</ele>
        <time>2017-08-05T13:07:35Z</time>
      </trkpt>
      <trkpt lat="45.93248" lon="4.74103">
        <ele>167</ele>
        <time>2017-08-05T13:07:36Z</time>
      </trkpt>
      <trkpt lat="45.93251" lon="4.74099">
        <ele>167</ele>
        <time>2017-08-05T13:07:37Z</time>
      </trkpt>
      <trkpt lat="45.93254" lon="4.74093">
        <ele>167</ele>
        <time>2017-08-05T13:07:38Z</time>
      </trkpt>
      <trkpt lat="45.93257" lon="4.74087">
        <ele>167</ele>
        <time>2017-08-05T13:07:39Z</time>
      </trkpt>
      <trkpt lat="45.9326" lon="4.74081">
        <ele>167</ele>
        <time>2017-08-05T13:07:40Z</time>
      </trkpt>
      <trkpt lat="45.93263" lon="4.74075">
        <ele>167</ele>
        <time>2017-08-05T13:07:41Z</time>
      </trkpt>
      <trkpt lat="45.93265" lon="4.74069">
        <ele>167</ele>
        <time>2017-08-05T13:07:42Z</time>
      </trkpt>
      <trkpt lat="45.93269" lon="4.74059">
        <ele>168</ele>
        <time>2017-08-05T13:07:44Z</time>
      </trkpt>
      <trkpt lat="45.93272" lon="4.74054">
        <ele>168</ele>
        <time>2017-08-05T13:07:45Z</time>
      </trkpt>
      <trkpt lat="45.93277" lon="4.74044">
        <ele>168</ele>
        <time>2017-08-05T13:07:47Z</time>
      </trkpt>
      <trkpt lat="45.9328" lon="4.7404">
        <ele>168</ele>
        <time>2017-08-05T13:07:48Z</time>
      </trkpt>
      <trkpt lat="45.93283" lon="4.74035">
        <ele>168</ele>
        <time>2017-08-05T13:07:49Z</time>
      </trkpt>
      <trkpt lat="45.93286" lon="4.74029">
        <ele>168</ele>
        <time>2017-08-05T13:07:50Z</time>
      </trkpt>
      <trkpt lat="45.93289" lon="4.74023">
        <ele>168</ele>
        <time>2017-08-05T13:07:51Z</time>
      </trkpt>
      <trkpt lat="45.93291" lon="4.74017">
        <ele>168</ele>
        <time>2017-08-05T13:07:52Z</time>
      </trkpt>
      <trkpt lat="45.93296" lon="4.74008">
        <ele>168</ele>
        <time>2017-08-05T13:07:54Z</time>
      </trkpt>
      <trkpt lat="45.93299" lon="4.74003">
        <ele>168</ele>
        <time>2017-08-05T13:07:55Z</time>
      </trkpt>
      <trkpt lat="45.93303" lon="4.73994">
        <ele>168</ele>
        <time>2017-08-05T13:07:57Z</time>
      </trkpt>
      <trkpt lat="45.93305" lon="4.7399">
        <ele>168</ele>
        <time>2017-08-05T13:07:58Z</time>
      </trkpt>
      <trkpt lat="45.9331" lon="4.7398">
        <ele>168</ele>
        <time>2017-08-05T13:08:00Z</time>
      </trkpt>
      <trkpt lat="45.93313" lon="4.73974">
        <ele>168</ele>
        <time>2017-08-05T13:08:01Z</time>
      </trkpt>
      <trkpt lat="45.93316" lon="4.73969">
        <ele>168</ele>
        <time>2017-08-05T13:08:02Z</time>
      </trkpt>
      <trkpt lat="45.93318" lon="4.73963">
        <ele>168</ele>
        <time>2017-08-05T13:08:03Z</time>
      </trkpt>
      <trkpt lat="45.93321" lon="4.73958">
        <ele>168</ele>
        <time>2017-08-05T13:08:04Z</time>
      </trkpt>
      <trkpt lat="45.93325" lon="4.73952">
        <ele>168</ele>
        <time>2017-08-05T13:08:05Z</time>
      </trkpt>
      <trkpt lat="45.93328" lon="4.73946">
        <ele>168</ele>
        <time>2017-08-05T13:08:06Z</time>
      </trkpt>
      <trkpt lat="45.9333" lon="4.73941">
        <ele>168</ele>
        <time>2017-08-05T13:08:07Z</time>
      </trkpt>
      <trkpt lat="45.93336" lon="4.73931">
        <ele>168</ele>
        <time>2017-08-05T13:08:09Z</time>
      </trkpt>
      <trkpt lat="45.93339" lon="4.73927">
        <ele>168</ele>
        <time>2017-08-05T13:08:10Z</time>
      </trkpt>
      <trkpt lat="45.93344" lon="4.73917">
        <ele>168</ele>
        <time>2017-08-05T13:08:12Z</time>
      </trkpt>
      <trkpt lat="45.93347" lon="4.73912">
        <ele>168</ele>
        <time>2017-08-05T13:08:13Z</time>
      </trkpt>
      <trkpt lat="45.93351" lon="4.73907">
        <ele>168</ele>
        <time>2017-08-05T13:08:14Z</time>
      </trkpt>
      <trkpt lat="45.93354" lon="4.73901">
        <ele>168</ele>
        <time>2017-08-05T13:08:15Z</time>
      </trkpt>
      <trkpt lat="45.93357" lon="4.73895">
        <ele>168</ele>
        <time>2017-08-05T13:08:16Z</time>
      </trkpt>
      <trkpt lat="45.93361" lon="4.73891">
        <ele>168</ele>
        <time>2017-08-05T13:08:17Z</time>
      </trkpt>
      <trkpt lat="45.93368" lon="4.73884">
        <ele>168</ele>
        <time>2017-08-05T13:08:19Z</time>
      </trkpt>
      <trkpt lat="45.93371" lon="4.73881">
        <ele>168</ele>
        <time>2017-08-05T13:08:20Z</time>
      </trkpt>
      <trkpt lat="45.93378" lon="4.73874">
        <ele>169</ele>
        <time>2017-08-05T13:08:22Z</time>
      </trkpt>
      <trkpt lat="45.93382" lon="4.7387">
        <ele>169</ele>
        <time>2017-08-05T13:08:23Z</time>
      </trkpt>
      <trkpt lat="45.93389" lon="4.73866">
        <ele>169</ele>
        <time>2017-08-05T13:08:25Z</time>
      </trkpt>
      <trkpt lat="45.93392" lon="4.73865">
        <ele>169</ele>
        <time>2017-08-05T13:08:26Z</time>
      </trkpt>
      <trkpt lat="45.93399" lon="4.73861">
        <ele>169</ele>
        <time>2017-08-05T13:08:28Z</time>
      </trkpt>
      <trkpt lat="45.93403" lon="4.73859">
        <ele>169</ele>
        <time>2017-08-05T13:08:29Z</time>
      </trkpt>
      <trkpt lat="45.93407" lon="4.73856">
        <ele>169</ele>
        <time>2017-08-05T13:08:30Z</time>
      </trkpt>
      <trkpt lat="45.93411" lon="4.73853">
        <ele>169</ele>
        <time>2017-08-05T13:08:31Z</time>
      </trkpt>
      <trkpt lat="45.93416" lon="4.7385">
        <ele>169</ele>
        <time>2017-08-05T13:08:32Z</time>
      </trkpt>
      <trkpt lat="45.9342" lon="4.73847">
        <ele>169</ele>
        <time>2017-08-05T13:08:33Z</time>
      </trkpt>
      <trkpt lat="45.93428" lon="4.73843">
        <ele>169</ele>
        <time>2017-08-05T13:08:35Z</time>
      </trkpt>
      <trkpt lat="45.93431" lon="4.73841">
        <ele>169</ele>
        <time>2017-08-05T13:08:36Z</time>
      </trkpt>
      <trkpt lat="45.93439" lon="4.73838">
        <ele>169</ele>
        <time>2017-08-05T13:08:38Z</time>
      </trkpt>
      <trkpt lat="45.93443" lon="4.73835">
        <ele>169</ele>
        <time>2017-08-05T13:08:39Z</time>
      </trkpt>
      <trkpt lat="45.93448" lon="4.73833">
        <ele>169</ele>
        <time>2017-08-05T13:08:40Z</time>
      </trkpt>
      <trkpt lat="45.93452" lon="4.73832">
        <ele>169</ele>
        <time>2017-08-05T13:08:41Z</time>
      </trkpt>
      <trkpt lat="45.93457" lon="4.73829">
        <ele>169</ele>
        <time>2017-08-05T13:08:42Z</time>
      </trkpt>
      <trkpt lat="45.93462" lon="4.73827">
        <ele>169</ele>
        <time>2017-08-05T13:08:43Z</time>
      </trkpt>
      <trkpt lat="45.93466" lon="4.73825">
        <ele>169</ele>
        <time>2017-08-05T13:08:44Z</time>
      </trkpt>
      <trkpt lat="45.9347" lon="4.73823">
        <ele>169</ele>
        <time>2017-08-05T13:08:45Z</time>
      </trkpt>
      <trkpt lat="45.93478" lon="4.7382">
        <ele>169</ele>
        <time>2017-08-05T13:08:47Z</time>
      </trkpt>
      <trkpt lat="45.93482" lon="4.73818">
        <ele>169</ele>
        <time>2017-08-05T13:08:48Z</time>
      </trkpt>
      <trkpt lat="45.9349" lon="4.73814">
        <ele>169</ele>
        <time>2017-08-05T13:08:50Z</time>
      </trkpt>
      <trkpt lat="45.93494" lon="4.73812">
        <ele>169</ele>
        <time>2017-08-05T13:08:51Z</time>
      </trkpt>
      <trkpt lat="45.93498" lon="4.73809">
        <ele>169</ele>
        <time>2017-08-05T13:08:52Z</time>
      </trkpt>
      <trkpt lat="45.93502" lon="4.73806">
        <ele>169</ele>
        <time>2017-08-05T13:08:53Z</time>
      </trkpt>
      <trkpt lat="45.93507" lon="4.73802">
        <ele>169</ele>
        <time>2017-08-05T13:08:54Z</time>
      </trkpt>
      <trkpt lat="45.93511" lon="4.73798">
        <ele>169</ele>
        <time>2017-08-05T13:08:55Z</time>
      </trkpt>
      <trkpt lat="45.93515" lon="4.73794">
        <ele>169</ele>
        <time>2017-08-05T13:08:56Z</time>
      </trkpt>
      <trkpt lat="45.93519" lon="4.7379">
        <ele>169</ele>
        <time>2017-08-05T13:08:57Z</time>
      </trkpt>
      <trkpt lat="45.93523" lon="4.73785">
        <ele>169</ele>
        <time>2017-08-05T13:08:58Z</time>
      </trkpt>
      <trkpt lat="45.93526" lon="4.73782">
        <ele>169</ele>
        <time>2017-08-05T13:08:59Z</time>
      </trkpt>
      <trkpt lat="45.93533" lon="4.73774">
        <ele>169</ele>
        <time>2017-08-05T13:09:01Z</time>
      </trkpt>
      <trkpt lat="45.93536" lon="4.7377">
        <ele>169</ele>
        <time>2017-08-05T13:09:02Z</time>
      </trkpt>
      <trkpt lat="45.9354" lon="4.73767">
        <ele>169</ele>
        <time>2017-08-05T13:09:03Z</time>
      </trkpt>
      <trkpt lat="45.93544" lon="4.73762">
        <ele>169</ele>
        <time>2017-08-05T13:09:04Z</time>
      </trkpt>
      <trkpt lat="45.93548" lon="4.73758">
        <ele>169</ele>
        <time>2017-08-05T13:09:05Z</time>
      </trkpt>
      <trkpt lat="45.93552" lon="4.73754">
        <ele>169</ele>
        <time>2017-08-05T13:09:06Z</time>
      </trkpt>
      <trkpt lat="45.93556" lon="4.73749">
        <ele>169</ele>
        <time>2017-08-05T13:09:07Z</time>
      </trkpt>
      <trkpt lat="45.9356" lon="4.73744">
        <ele>169</ele>
        <time>2017-08-05T13:09:08Z</time>
      </trkpt>
      <trkpt lat="45.93563" lon="4.7374">
        <ele>169</ele>
        <time>2017-08-05T13:09:09Z</time>
      </trkpt>
      <trkpt lat="45.93567" lon="4.73736">
        <ele>169</ele>
        <time>2017-08-05T13:09:10Z</time>
      </trkpt>
      <trkpt lat="45.93573" lon="4.73729">
        <ele>169</ele>
        <time>2017-08-05T13:09:12Z</time>
      </trkpt>
      <trkpt lat="45.93577" lon="4.73726">
        <ele>169</ele>
        <time>2017-08-05T13:09:13Z</time>
      </trkpt>
      <trkpt lat="45.93583" lon="4.73719">
        <ele>169</ele>
        <time>2017-08-05T13:09:15Z</time>
      </trkpt>
      <trkpt lat="45.93585" lon="4.73713">
        <ele>169</ele>
        <time>2017-08-05T13:09:16Z</time>
      </trkpt>
      <trkpt lat="45.93587" lon="4.73706">
        <ele>169</ele>
        <time>2017-08-05T13:09:17Z</time>
      </trkpt>
      <trkpt lat="45.93589" lon="4.73699">
        <ele>169</ele>
        <time>2017-08-05T13:09:18Z</time>
      </trkpt>
      <trkpt lat="45.93589" lon="4.73691">
        <ele>169</ele>
        <time>2017-08-05T13:09:19Z</time>
      </trkpt>
      <trkpt lat="45.9359" lon="4.73682">
        <ele>169</ele>
        <time>2017-08-05T13:09:20Z</time>
      </trkpt>
      <trkpt lat="45.9359" lon="4.73674">
        <ele>168</ele>
        <time>2017-08-05T13:09:21Z</time>
      </trkpt>
      <trkpt lat="45.93589" lon="4.73668">
        <ele>168</ele>
        <time>2017-08-05T13:09:22Z</time>
      </trkpt>
      <trkpt lat="45.93588" lon="4.73661">
        <ele>168</ele>
        <time>2017-08-05T13:09:23Z</time>
      </trkpt>
      <trkpt lat="45.93588" lon="4.73655">
        <ele>168</ele>
        <time>2017-08-05T13:09:24Z</time>
      </trkpt>
      <trkpt lat="45.93586" lon="4.73643">
        <ele>168</ele>
        <time>2017-08-05T13:09:26Z</time>
      </trkpt>
      <trkpt lat="45.93585" lon="4.73636">
        <ele>168</ele>
        <time>2017-08-05T13:09:27Z</time>
      </trkpt>
      <trkpt lat="45.93584" lon="4.73624">
        <ele>168</ele>
        <time>2017-08-05T13:09:29Z</time>
      </trkpt>
      <trkpt lat="45.93584" lon="4.73618">
        <ele>168</ele>
        <time>2017-08-05T13:09:30Z</time>
      </trkpt>
      <trkpt lat="45.93583" lon="4.73611">
        <ele>168</ele>
        <time>2017-08-05T13:09:31Z</time>
      </trkpt>
      <trkpt lat="45.93582" lon="4.73603">
        <ele>168</ele>
        <time>2017-08-05T13:09:32Z</time>
      </trkpt>
      <trkpt lat="45.93581" lon="4.73595">
        <ele>168</ele>
        <time>2017-08-05T13:09:33Z</time>
      </trkpt>
      <trkpt lat="45.9358" lon="4.73588">
        <ele>168</ele>
        <time>2017-08-05T13:09:34Z</time>
      </trkpt>
      <trkpt lat="45.93579" lon="4.7358">
        <ele>168</ele>
        <time>2017-08-05T13:09:35Z</time>
      </trkpt>
      <trkpt lat="45.93578" lon="4.73573">
        <ele>168</ele>
        <time>2017-08-05T13:09:36Z</time>
      </trkpt>
      <trkpt lat="45.93577" lon="4.73566">
        <ele>168</ele>
        <time>2017-08-05T13:09:37Z</time>
      </trkpt>
      <trkpt lat="45.93576" lon="4.7356">
        <ele>168</ele>
        <time>2017-08-05T13:09:38Z</time>
      </trkpt>
      <trkpt lat="45.93574" lon="4.73548">
        <ele>168</ele>
        <time>2017-08-05T13:09:40Z</time>
      </trkpt>
      <trkpt lat="45.93572" lon="4.73542">
        <ele>169</ele>
        <time>2017-08-05T13:09:41Z</time>
      </trkpt>
      <trkpt lat="45.93571" lon="4.73536">
        <ele>169</ele>
        <time>2017-08-05T13:09:42Z</time>
      </trkpt>
      <trkpt lat="45.93569" lon="4.73529">
        <ele>169</ele>
        <time>2017-08-05T13:09:43Z</time>
      </trkpt>
      <trkpt lat="45.93566" lon="4.73522">
        <ele>169</ele>
        <time>2017-08-05T13:09:44Z</time>
      </trkpt>
      <trkpt lat="45.93565" lon="4.73516">
        <ele>168</ele>
        <time>2017-08-05T13:09:45Z</time>
      </trkpt>
      <trkpt lat="45.93564" lon="4.73509">
        <ele>168</ele>
        <time>2017-08-05T13:09:46Z</time>
      </trkpt>
      <trkpt lat="45.93562" lon="4.73502">
        <ele>169</ele>
        <time>2017-08-05T13:09:47Z</time>
      </trkpt>
      <trkpt lat="45.9356" lon="4.73495">
        <ele>169</ele>
        <time>2017-08-05T13:09:48Z</time>
      </trkpt>
      <trkpt lat="45.93558" lon="4.73489">
        <ele>169</ele>
        <time>2017-08-05T13:09:49Z</time>
      </trkpt>
      <trkpt lat="45.93556" lon="4.73477">
        <ele>169</ele>
        <time>2017-08-05T13:09:51Z</time>
      </trkpt>
      <trkpt lat="45.93554" lon="4.73471">
        <ele>169</ele>
        <time>2017-08-05T13:09:52Z</time>
      </trkpt>
      <trkpt lat="45.9355" lon="4.73461">
        <ele>169</ele>
        <time>2017-08-05T13:09:54Z</time>
      </trkpt>
      <trkpt lat="45.93549" lon="4.73456">
        <ele>169</ele>
        <time>2017-08-05T13:09:55Z</time>
      </trkpt>
      <trkpt lat="45.93546" lon="4.73444">
        <ele>169</ele>
        <time>2017-08-05T13:09:57Z</time>
      </trkpt>
      <trkpt lat="45.93545" lon="4.73438">
        <ele>169</ele>
        <time>2017-08-05T13:09:58Z</time>
      </trkpt>
      <trkpt lat="45.93542" lon="4.73426">
        <ele>169</ele>
        <time>2017-08-05T13:10:00Z</time>
      </trkpt>
      <trkpt lat="45.93542" lon="4.73419">
        <ele>169</ele>
        <time>2017-08-05T13:10:01Z</time>
      </trkpt>
      <trkpt lat="45.93541" lon="4.73413">
        <ele>169</ele>
        <time>2017-08-05T13:10:02Z</time>
      </trkpt>
      <trkpt lat="45.93539" lon="4.73406">
        <ele>169</ele>
        <time>2017-08-05T13:10:03Z</time>
      </trkpt>
      <trkpt lat="45.9354" lon="4.73394">
        <ele>169</ele>
        <time>2017-08-05T13:10:05Z</time>
      </trkpt>
      <trkpt lat="45.93539" lon="4.73388">
        <ele>169</ele>
        <time>2017-08-05T13:10:06Z</time>
      </trkpt>
      <trkpt lat="45.93536" lon="4.73378">
        <ele>169</ele>
        <time>2017-08-05T13:10:08Z</time>
      </trkpt>
      <trkpt lat="45.93534" lon="4.73373">
        <ele>169</ele>
        <time>2017-08-05T13:10:09Z</time>
      </trkpt>
      <trkpt lat="45.93533" lon="4.73366">
        <ele>169</ele>
        <time>2017-08-05T13:10:10Z</time>
      </trkpt>
      <trkpt lat="45.93532" lon="4.7336">
        <ele>169</ele>
        <time>2017-08-05T13:10:11Z</time>
      </trkpt>
      <trkpt lat="45.93531" lon="4.73353">
        <ele>169</ele>
        <time>2017-08-05T13:10:12Z</time>
      </trkpt>
      <trkpt lat="45.93529" lon="4.73346">
        <ele>169</ele>
        <time>2017-08-05T13:10:13Z</time>
      </trkpt>
      <trkpt lat="45.93527" lon="4.73338">
        <ele>169</ele>
        <time>2017-08-05T13:10:14Z</time>
      </trkpt>
      <trkpt lat="45.93526" lon="4.73331">
        <ele>169</ele>
        <time>2017-08-05T13:10:15Z</time>
      </trkpt>
      <trkpt lat="45.93525" lon="4.73324">
        <ele>169</ele>
        <time>2017-08-05T13:10:16Z</time>
      </trkpt>
      <trkpt lat="45.93523" lon="4.73317">
        <ele>169</ele>
        <time>2017-08-05T13:10:17Z</time>
      </trkpt>
      <trkpt lat="45.93521" lon="4.73311">
        <ele>169</ele>
        <time>2017-08-05T13:10:18Z</time>
      </trkpt>
      <trkpt lat="45.9352" lon="4.73304">
        <ele>169</ele>
        <time>2017-08-05T13:10:19Z</time>
      </trkpt>
      <trkpt lat="45.93519" lon="4.73298">
        <ele>169</ele>
        <time>2017-08-05T13:10:20Z</time>
      </trkpt>
      <trkpt lat="45.93518" lon="4.73292">
        <ele>169</ele>
        <time>2017-08-05T13:10:21Z</time>
      </trkpt>
      <trkpt lat="45.93515" lon="4.7328">
        <ele>169</ele>
        <time>2017-08-05T13:10:23Z</time>
      </trkpt>
      <trkpt lat="45.93515" lon="4.73274">
        <ele>169</ele>
        <time>2017-08-05T13:10:24Z</time>
      </trkpt>
      <trkpt lat="45.93513" lon="4.73262">
        <ele>169</ele>
        <time>2017-08-05T13:10:26Z</time>
      </trkpt>
      <trkpt lat="45.93512" lon="4.73256">
        <ele>169</ele>
        <time>2017-08-05T13:10:27Z</time>
      </trkpt>
      <trkpt lat="45.93511" lon="4.73249">
        <ele>169</ele>
        <time>2017-08-05T13:10:28Z</time>
      </trkpt>
      <trkpt lat="45.93509" lon="4.73241">
        <ele>169</ele>
        <time>2017-08-05T13:10:29Z</time>
      </trkpt>
      <trkpt lat="45.93509" lon="4.73233">
        <ele>169</ele>
        <time>2017-08-05T13:10:30Z</time>
      </trkpt>
      <trkpt lat="45.93507" lon="4.73226">
        <ele>169</ele>
        <time>2017-08-05T13:10:31Z</time>
      </trkpt>
      <trkpt lat="45.93505" lon="4.73218">
        <ele>169</ele>
        <time>2017-08-05T13:10:32Z</time>
      </trkpt>
      <trkpt lat="45.93503" lon="4.7321">
        <ele>169</ele>
        <time>2017-08-05T13:10:33Z</time>
      </trkpt>
      <trkpt lat="45.93502" lon="4.73203">
        <ele>169</ele>
        <time>2017-08-05T13:10:34Z</time>
      </trkpt>
      <trkpt lat="45.93501" lon="4.73196">
        <ele>169</ele>
        <time>2017-08-05T13:10:35Z</time>
      </trkpt>
      <trkpt lat="45.935" lon="4.7319">
        <ele>169</ele>
        <time>2017-08-05T13:10:36Z</time>
      </trkpt>
      <trkpt lat="45.93498" lon="4.73183">
        <ele>169</ele>
        <time>2017-08-05T13:10:37Z</time>
      </trkpt>
      <trkpt lat="45.93496" lon="4.73177">
        <ele>169</ele>
        <time>2017-08-05T13:10:38Z</time>
      </trkpt>
      <trkpt lat="45.93494" lon="4.73172">
        <ele>170</ele>
        <time>2017-08-05T13:10:39Z</time>
      </trkpt>
      <trkpt lat="45.93491" lon="4.73161">
        <ele>170</ele>
        <time>2017-08-05T13:10:41Z</time>
      </trkpt>
      <trkpt lat="45.93489" lon="4.73156">
        <ele>170</ele>
        <time>2017-08-05T13:10:42Z</time>
      </trkpt>
      <trkpt lat="45.93488" lon="4.73144">
        <ele>170</ele>
        <time>2017-08-05T13:10:44Z</time>
      </trkpt>
      <trkpt lat="45.93486" lon="4.73137">
        <ele>170</ele>
        <time>2017-08-05T13:10:45Z</time>
      </trkpt>
      <trkpt lat="45.93486" lon="4.7313">
        <ele>170</ele>
        <time>2017-08-05T13:10:46Z</time>
      </trkpt>
      <trkpt lat="45.93485" lon="4.73123">
        <ele>170</ele>
        <time>2017-08-05T13:10:47Z</time>
      </trkpt>
      <trkpt lat="45.93485" lon="4.73115">
        <ele>170</ele>
        <time>2017-08-05T13:10:48Z</time>
      </trkpt>
      <trkpt lat="45.93484" lon="4.73109">
        <ele>170</ele>
        <time>2017-08-05T13:10:49Z</time>
      </trkpt>
      <trkpt lat="45.93484" lon="4.73097">
        <ele>170</ele>
        <time>2017-08-05T13:10:51Z</time>
      </trkpt>
      <trkpt lat="45.93485" lon="4.73091">
        <ele>170</ele>
        <time>2017-08-05T13:10:52Z</time>
      </trkpt>
      <trkpt lat="45.93487" lon="4.7308">
        <ele>170</ele>
        <time>2017-08-05T13:10:54Z</time>
      </trkpt>
      <trkpt lat="45.93487" lon="4.73074">
        <ele>170</ele>
        <time>2017-08-05T13:10:55Z</time>
      </trkpt>
      <trkpt lat="45.93487" lon="4.73061">
        <ele>170</ele>
        <time>2017-08-05T13:10:57Z</time>
      </trkpt>
      <trkpt lat="45.93487" lon="4.73054">
        <ele>170</ele>
        <time>2017-08-05T13:10:58Z</time>
      </trkpt>
      <trkpt lat="45.93487" lon="4.73047">
        <ele>170</ele>
        <time>2017-08-05T13:10:59Z</time>
      </trkpt>
      <trkpt lat="45.93486" lon="4.73039">
        <ele>170</ele>
        <time>2017-08-05T13:11:00Z</time>
      </trkpt>
      <trkpt lat="45.93487" lon="4.73031">
        <ele>170</ele>
        <time>2017-08-05T13:11:01Z</time>
      </trkpt>
      <trkpt lat="45.93487" lon="4.73024">
        <ele>170</ele>
        <time>2017-08-05T13:11:02Z</time>
      </trkpt>
      <trkpt lat="45.93488" lon="4.73017">
        <ele>170</ele>
        <time>2017-08-05T13:11:03Z</time>
      </trkpt>
      <trkpt lat="45.93488" lon="4.73011">
        <ele>170</ele>
        <time>2017-08-05T13:11:04Z</time>
      </trkpt>
      <trkpt lat="45.93488" lon="4.72999">
        <ele>170</ele>
        <time>2017-08-05T13:11:06Z</time>
      </trkpt>
      <trkpt lat="45.93489" lon="4.72993">
        <ele>170</ele>
        <time>2017-08-05T13:11:07Z</time>
      </trkpt>
      <trkpt lat="45.9349" lon="4.72981">
        <ele>170</ele>
        <time>2017-08-05T13:11:09Z</time>
      </trkpt>
      <trkpt lat="45.93492" lon="4.72974">
        <ele>171</ele>
        <time>2017-08-05T13:11:10Z</time>
      </trkpt>
      <trkpt lat="45.93494" lon="4.72967">
        <ele>171</ele>
        <time>2017-08-05T13:11:11Z</time>
      </trkpt>
      <trkpt lat="45.93495" lon="4.72961">
        <ele>171</ele>
        <time>2017-08-05T13:11:12Z</time>
      </trkpt>
      <trkpt lat="45.93498" lon="4.72949">
        <ele>171</ele>
        <time>2017-08-05T13:11:14Z</time>
      </trkpt>
      <trkpt lat="45.93499" lon="4.72942">
        <ele>171</ele>
        <time>2017-08-05T13:11:15Z</time>
      </trkpt>
      <trkpt lat="45.93502" lon="4.72936">
        <ele>171</ele>
        <time>2017-08-05T13:11:16Z</time>
      </trkpt>
      <trkpt lat="45.93505" lon="4.7293">
        <ele>171</ele>
        <time>2017-08-05T13:11:17Z</time>
      </trkpt>
      <trkpt lat="45.93509" lon="4.72924">
        <ele>171</ele>
        <time>2017-08-05T13:11:18Z</time>
      </trkpt>
      <trkpt lat="45.93512" lon="4.72919">
        <ele>171</ele>
        <time>2017-08-05T13:11:19Z</time>
      </trkpt>
      <trkpt lat="45.93518" lon="4.72911">
        <ele>172</ele>
        <time>2017-08-05T13:11:21Z</time>
      </trkpt>
      <trkpt lat="45.93521" lon="4.72907">
        <ele>172</ele>
        <time>2017-08-05T13:11:22Z</time>
      </trkpt>
      <trkpt lat="45.93527" lon="4.72898">
        <ele>172</ele>
        <time>2017-08-05T13:11:24Z</time>
      </trkpt>
      <trkpt lat="45.93531" lon="4.72894">
        <ele>172</ele>
        <time>2017-08-05T13:11:25Z</time>
      </trkpt>
      <trkpt lat="45.93534" lon="4.72889">
        <ele>172</ele>
        <time>2017-08-05T13:11:26Z</time>
      </trkpt>
      <trkpt lat="45.93538" lon="4.72885">
        <ele>172</ele>
        <time>2017-08-05T13:11:27Z</time>
      </trkpt>
      <trkpt lat="45.93542" lon="4.72881">
        <ele>172</ele>
        <time>2017-08-05T13:11:28Z</time>
      </trkpt>
      <trkpt lat="45.93546" lon="4.72876">
        <ele>172</ele>
        <time>2017-08-05T13:11:29Z</time>
      </trkpt>
      <trkpt lat="45.9355" lon="4.72871">
        <ele>172</ele>
        <time>2017-08-05T13:11:30Z</time>
      </trkpt>
      <trkpt lat="45.93554" lon="4.72867">
        <ele>172</ele>
        <time>2017-08-05T13:11:31Z</time>
      </trkpt>
      <trkpt lat="45.93559" lon="4.72862">
        <ele>172</ele>
        <time>2017-08-05T13:11:32Z</time>
      </trkpt>
      <trkpt lat="45.93564" lon="4.72857">
        <ele>172</ele>
        <time>2017-08-05T13:11:33Z</time>
      </trkpt>
      <trkpt lat="45.93568" lon="4.72852">
        <ele>172</ele>
        <time>2017-08-05T13:11:34Z</time>
      </trkpt>
      <trkpt lat="45.93572" lon="4.72848">
        <ele>172</ele>
        <time>2017-08-05T13:11:35Z</time>
      </trkpt>
      <trkpt lat="45.93576" lon="4.72844">
        <ele>172</ele>
        <time>2017-08-05T13:11:36Z</time>
      </trkpt>
      <trkpt lat="45.9358" lon="4.7284">
        <ele>172</ele>
        <time>2017-08-05T13:11:37Z</time>
      </trkpt>
      <trkpt lat="45.93584" lon="4.72837">
        <ele>172</ele>
        <time>2017-08-05T13:11:38Z</time>
      </trkpt>
      <trkpt lat="45.93588" lon="4.72834">
        <ele>172</ele>
        <time>2017-08-05T13:11:39Z</time>
      </trkpt>
      <trkpt lat="45.93595" lon="4.72829">
        <ele>173</ele>
        <time>2017-08-05T13:11:41Z</time>
      </trkpt>
      <trkpt lat="45.93599" lon="4.72825">
        <ele>173</ele>
        <time>2017-08-05T13:11:42Z</time>
      </trkpt>
      <trkpt lat="45.93607" lon="4.7282">
        <ele>173</ele>
        <time>2017-08-05T13:11:44Z</time>
      </trkpt>
      <trkpt lat="45.93611" lon="4.72816">
        <ele>173</ele>
        <time>2017-08-05T13:11:45Z</time>
      </trkpt>
      <trkpt lat="45.93615" lon="4.72812">
        <ele>173</ele>
        <time>2017-08-05T13:11:46Z</time>
      </trkpt>
      <trkpt lat="45.93619" lon="4.72809">
        <ele>173</ele>
        <time>2017-08-05T13:11:47Z</time>
      </trkpt>
      <trkpt lat="45.93626" lon="4.72804">
        <ele>173</ele>
        <time>2017-08-05T13:11:49Z</time>
      </trkpt>
      <trkpt lat="45.9363" lon="4.72801">
        <ele>173</ele>
        <time>2017-08-05T13:11:50Z</time>
      </trkpt>
      <trkpt lat="45.93638" lon="4.72796">
        <ele>173</ele>
        <time>2017-08-05T13:11:52Z</time>
      </trkpt>
      <trkpt lat="45.93642" lon="4.72793">
        <ele>173</ele>
        <time>2017-08-05T13:11:53Z</time>
      </trkpt>
      <trkpt lat="45.93646" lon="4.7279">
        <ele>173</ele>
        <time>2017-08-05T13:11:54Z</time>
      </trkpt>
      <trkpt lat="45.9365" lon="4.72787">
        <ele>173</ele>
        <time>2017-08-05T13:11:55Z</time>
      </trkpt>
      <trkpt lat="45.93655" lon="4.72783">
        <ele>173</ele>
        <time>2017-08-05T13:11:56Z</time>
      </trkpt>
      <trkpt lat="45.93659" lon="4.7278">
        <ele>174</ele>
        <time>2017-08-05T13:11:57Z</time>
      </trkpt>
      <trkpt lat="45.93664" lon="4.72777">
        <ele>174</ele>
        <time>2017-08-05T13:11:58Z</time>
      </trkpt>
      <trkpt lat="45.93668" lon="4.72774">
        <ele>173</ele>
        <time>2017-08-05T13:11:59Z</time>
      </trkpt>
      <trkpt lat="45.93675" lon="4.72768">
        <ele>173</ele>
        <time>2017-08-05T13:12:01Z</time>
      </trkpt>
      <trkpt lat="45.93679" lon="4.72766">
        <ele>173</ele>
        <time>2017-08-05T13:12:02Z</time>
      </trkpt>
      <trkpt lat="45.93683" lon="4.72762">
        <ele>173</ele>
        <time>2017-08-05T13:12:03Z</time>
      </trkpt>
      <trkpt lat="45.93687" lon="4.72759">
        <ele>172</ele>
        <time>2017-08-05T13:12:04Z</time>
      </trkpt>
      <trkpt lat="45.93691" lon="4.72755">
        <ele>172</ele>
        <time>2017-08-05T13:12:05Z</time>
      </trkpt>
      <trkpt lat="45.93695" lon="4.72751">
        <ele>172</ele>
        <time>2017-08-05T13:12:06Z</time>
      </trkpt>
      <trkpt lat="45.93699" lon="4.72747">
        <ele>173</ele>
        <time>2017-08-05T13:12:07Z</time>
      </trkpt>
      <trkpt lat="45.93702" lon="4.72743">
        <ele>173</ele>
        <time>2017-08-05T13:12:08Z</time>
      </trkpt>
      <trkpt lat="45.9371" lon="4.72737">
        <ele>173</ele>
        <time>2017-08-05T13:12:10Z</time>
      </trkpt>
      <trkpt lat="45.93714" lon="4.72734">
        <ele>173</ele>
        <time>2017-08-05T13:12:11Z</time>
      </trkpt>
      <trkpt lat="45.93721" lon="4.72728">
        <ele>173</ele>
        <time>2017-08-05T13:12:13Z</time>
      </trkpt>
      <trkpt lat="45.93724" lon="4.72725">
        <ele>173</ele>
        <time>2017-08-05T13:12:14Z</time>
      </trkpt>
      <trkpt lat="45.9373" lon="4.72719">
        <ele>173</ele>
        <time>2017-08-05T13:12:16Z</time>
      </trkpt>
      <trkpt lat="45.93733" lon="4.72716">
        <ele>173</ele>
        <time>2017-08-05T13:12:17Z</time>
      </trkpt>
      <trkpt lat="45.93739" lon="4.7271">
        <ele>173</ele>
        <time>2017-08-05T13:12:19Z</time>
      </trkpt>
      <trkpt lat="45.93743" lon="4.72706">
        <ele>173</ele>
        <time>2017-08-05T13:12:20Z</time>
      </trkpt>
      <trkpt lat="45.93747" lon="4.72702">
        <ele>173</ele>
        <time>2017-08-05T13:12:21Z</time>
      </trkpt>
      <trkpt lat="45.93751" lon="4.72698">
        <ele>172</ele>
        <time>2017-08-05T13:12:22Z</time>
      </trkpt>
      <trkpt lat="45.93754" lon="4.72693">
        <ele>172</ele>
        <time>2017-08-05T13:12:23Z</time>
      </trkpt>
      <trkpt lat="45.93758" lon="4.72689">
        <ele>172</ele>
        <time>2017-08-05T13:12:24Z</time>
      </trkpt>
      <trkpt lat="45.93764" lon="4.72681">
        <ele>173</ele>
        <time>2017-08-05T13:12:26Z</time>
      </trkpt>
      <trkpt lat="45.93767" lon="4.72678">
        <ele>173</ele>
        <time>2017-08-05T13:12:27Z</time>
      </trkpt>
      <trkpt lat="45.93773" lon="4.7267">
        <ele>172</ele>
        <time>2017-08-05T13:12:29Z</time>
      </trkpt>
      <trkpt lat="45.93777" lon="4.72666">
        <ele>173</ele>
        <time>2017-08-05T13:12:30Z</time>
      </trkpt>
      <trkpt lat="45.9378" lon="4.72661">
        <ele>173</ele>
        <time>2017-08-05T13:12:31Z</time>
      </trkpt>
      <trkpt lat="45.93784" lon="4.72657">
        <ele>173</ele>
        <time>2017-08-05T13:12:32Z</time>
      </trkpt>
      <trkpt lat="45.93788" lon="4.72653">
        <ele>173</ele>
        <time>2017-08-05T13:12:33Z</time>
      </trkpt>
      <trkpt lat="45.93791" lon="4.72648">
        <ele>173</ele>
        <time>2017-08-05T13:12:34Z</time>
      </trkpt>
      <trkpt lat="45.93795" lon="4.72644">
        <ele>173</ele>
        <time>2017-08-05T13:12:35Z</time>
      </trkpt>
      <trkpt lat="45.93798" lon="4.72639">
        <ele>173</ele>
        <time>2017-08-05T13:12:36Z</time>
      </trkpt>
      <trkpt lat="45.93804" lon="4.7263">
        <ele>173</ele>
        <time>2017-08-05T13:12:38Z</time>
      </trkpt>
      <trkpt lat="45.93807" lon="4.72625">
        <ele>173</ele>
        <time>2017-08-05T13:12:39Z</time>
      </trkpt>
      <trkpt lat="45.93813" lon="4.72617">
        <ele>173</ele>
        <time>2017-08-05T13:12:41Z</time>
      </trkpt>
      <trkpt lat="45.93815" lon="4.72613">
        <ele>173</ele>
        <time>2017-08-05T13:12:42Z</time>
      </trkpt>
      <trkpt lat="45.93818" lon="4.72603">
        <ele>173</ele>
        <time>2017-08-05T13:12:44Z</time>
      </trkpt>
      <trkpt lat="45.93817" lon="4.72596">
        <ele>174</ele>
        <time>2017-08-05T13:12:45Z</time>
      </trkpt>
      <trkpt lat="45.93812" lon="4.72587">
        <ele>174</ele>
        <time>2017-08-05T13:12:47Z</time>
      </trkpt>
      <trkpt lat="45.93809" lon="4.72582">
        <ele>174</ele>
        <time>2017-08-05T13:12:48Z</time>
      </trkpt>
      <trkpt lat="45.93803" lon="4.72574">
        <ele>174</ele>
        <time>2017-08-05T13:12:50Z</time>
      </trkpt>
      <trkpt lat="45.938" lon="4.72572">
        <ele>174</ele>
        <time>2017-08-05T13:12:51Z</time>
      </trkpt>
      <trkpt lat="45.93792" lon="4.72565">
        <ele>174</ele>
        <time>2017-08-05T13:12:53Z</time>
      </trkpt>
      <trkpt lat="45.93789" lon="4.72561">
        <ele>174</ele>
        <time>2017-08-05T13:12:54Z</time>
      </trkpt>
      <trkpt lat="45.93785" lon="4.72557">
        <ele>173</ele>
        <time>2017-08-05T13:12:55Z</time>
      </trkpt>
      <trkpt lat="45.93782" lon="4.72552">
        <ele>173</ele>
        <time>2017-08-05T13:12:56Z</time>
      </trkpt>
      <trkpt lat="45.93775" lon="4.72544">
        <ele>173</ele>
        <time>2017-08-05T13:12:58Z</time>
      </trkpt>
      <trkpt lat="45.93771" lon="4.72541">
        <ele>173</ele>
        <time>2017-08-05T13:12:59Z</time>
      </trkpt>
      <trkpt lat="45.93767" lon="4.72538">
        <ele>173</ele>
        <time>2017-08-05T13:13:00Z</time>
      </trkpt>
      <trkpt lat="45.93763" lon="4.72535">
        <ele>173</ele>
        <time>2017-08-05T13:13:01Z</time>
      </trkpt>
      <trkpt lat="45.93758" lon="4.72533">
        <ele>173</ele>
        <time>2017-08-05T13:13:02Z</time>
      </trkpt>
      <trkpt lat="45.93754" lon="4.7253">
        <ele>172</ele>
        <time>2017-08-05T13:13:03Z</time>
      </trkpt>
      <trkpt lat="45.93747" lon="4.72522">
        <ele>171</ele>
        <time>2017-08-05T13:13:05Z</time>
      </trkpt>
      <trkpt lat="45.93744" lon="4.72517">
        <ele>171</ele>
        <time>2017-08-05T13:13:06Z</time>
      </trkpt>
      <trkpt lat="45.93741" lon="4.72512">
        <ele>171</ele>
        <time>2017-08-05T13:13:07Z</time>
      </trkpt>
      <trkpt lat="45.93736" lon="4.72508">
        <ele>171</ele>
        <time>2017-08-05T13:13:08Z</time>
      </trkpt>
      <trkpt lat="45.93732" lon="4.72504">
        <ele>171</ele>
        <time>2017-08-05T13:13:09Z</time>
      </trkpt>
      <trkpt lat="45.93724" lon="4.725">
        <ele>171</ele>
        <time>2017-08-05T13:13:10Z</time>
      </trkpt>
      <trkpt lat="45.93719" lon="4.72497">
        <ele>171</ele>
        <time>2017-08-05T13:13:11Z</time>
      </trkpt>
      <trkpt lat="45.93715" lon="4.72495">
        <ele>171</ele>
        <time>2017-08-05T13:13:12Z</time>
      </trkpt>
      <trkpt lat="45.93709" lon="4.72489">
        <ele>171</ele>
        <time>2017-08-05T13:13:14Z</time>
      </trkpt>
      <trkpt lat="45.93707" lon="4.72485">
        <ele>171</ele>
        <time>2017-08-05T13:13:15Z</time>
      </trkpt>
      <trkpt lat="45.937" lon="4.72479">
        <ele>171</ele>
        <time>2017-08-05T13:13:17Z</time>
      </trkpt>
      <trkpt lat="45.93697" lon="4.72475">
        <ele>171</ele>
        <time>2017-08-05T13:13:18Z</time>
      </trkpt>
      <trkpt lat="45.93693" lon="4.72472">
        <ele>171</ele>
        <time>2017-08-05T13:13:19Z</time>
      </trkpt>
      <trkpt lat="45.93689" lon="4.72468">
        <ele>171</ele>
        <time>2017-08-05T13:13:20Z</time>
      </trkpt>
      <trkpt lat="45.93685" lon="4.72465">
        <ele>171</ele>
        <time>2017-08-05T13:13:21Z</time>
      </trkpt>
      <trkpt lat="45.93681" lon="4.72461">
        <ele>171</ele>
        <time>2017-08-05T13:13:22Z</time>
      </trkpt>
      <trkpt lat="45.93678" lon="4.72458">
        <ele>171</ele>
        <time>2017-08-05T13:13:23Z</time>
      </trkpt>
      <trkpt lat="45.93673" lon="4.72455">
        <ele>171</ele>
        <time>2017-08-05T13:13:24Z</time>
      </trkpt>
      <trkpt lat="45.93665" lon="4.72456">
        <ele>172</ele>
        <time>2017-08-05T13:13:26Z</time>
      </trkpt>
      <trkpt lat="45.93661" lon="4.72458">
        <ele>172</ele>
        <time>2017-08-05T13:13:27Z</time>
      </trkpt>
      <trkpt lat="45.93655" lon="4.72467">
        <ele>172</ele>
        <time>2017-08-05T13:13:29Z</time>
      </trkpt>
      <trkpt lat="45.93652" lon="4.72471">
        <ele>172</ele>
        <time>2017-08-05T13:13:30Z</time>
      </trkpt>
      <trkpt lat="45.93648" lon="4.72477">
        <ele>172</ele>
        <time>2017-08-05T13:13:31Z</time>
      </trkpt>
      <trkpt lat="45.93645" lon="4.72483">
        <ele>172</ele>
        <time>2017-08-05T13:13:32Z</time>
      </trkpt>
      <trkpt lat="45.93643" lon="4.72489">
        <ele>172</ele>
        <time>2017-08-05T13:13:33Z</time>
      </trkpt>
      <trkpt lat="45.93639" lon="4.72495">
        <ele>172</ele>
        <time>2017-08-05T13:13:34Z</time>
      </trkpt>
      <trkpt lat="45.93635" lon="4.72501">
        <ele>172</ele>
        <time>2017-08-05T13:13:35Z</time>
      </trkpt>
      <trkpt lat="45.93632" lon="4.72506">
        <ele>172</ele>
        <time>2017-08-05T13:13:36Z</time>
      </trkpt>
      <trkpt lat="45.93629" lon="4.72512">
        <ele>172</ele>
        <time>2017-08-05T13:13:37Z</time>
      </trkpt>
      <trkpt lat="45.93626" lon="4.72518">
        <ele>172</ele>
        <time>2017-08-05T13:13:38Z</time>
      </trkpt>
      <trkpt lat="45.9362" lon="4.72527">
        <ele>172</ele>
        <time>2017-08-05T13:13:40Z</time>
      </trkpt>
      <trkpt lat="45.93618" lon="4.72531">
        <ele>172</ele>
        <time>2017-08-05T13:13:41Z</time>
      </trkpt>
      <trkpt lat="45.93613" lon="4.72541">
        <ele>172</ele>
        <time>2017-08-05T13:13:43Z</time>
      </trkpt>
      <trkpt lat="45.9361" lon="4.72546">
        <ele>172</ele>
        <time>2017-08-05T13:13:44Z</time>
      </trkpt>
      <trkpt lat="45.93603" lon="4.72554">
        <ele>172</ele>
        <time>2017-08-05T13:13:46Z</time>
      </trkpt>
      <trkpt lat="45.93598" lon="4.72556">
        <ele>172</ele>
        <time>2017-08-05T13:13:47Z</time>
      </trkpt>
      <trkpt lat="45.9359" lon="4.72555">
        <ele>172</ele>
        <time>2017-08-05T13:13:49Z</time>
      </trkpt>
      <trkpt lat="45.93586" lon="4.72554">
        <ele>172</ele>
        <time>2017-08-05T13:13:50Z</time>
      </trkpt>
      <trkpt lat="45.93578" lon="4.72547">
        <ele>173</ele>
        <time>2017-08-05T13:13:53Z</time>
      </trkpt>
      <trkpt lat="45.93577" lon="4.7254">
        <ele>172</ele>
        <time>2017-08-05T13:13:54Z</time>
      </trkpt>
      <trkpt lat="45.93575" lon="4.72533">
        <ele>172</ele>
        <time>2017-08-05T13:13:55Z</time>
      </trkpt>
      <trkpt lat="45.93573" lon="4.72525">
        <ele>172</ele>
        <time>2017-08-05T13:13:56Z</time>
      </trkpt>
      <trkpt lat="45.93571" lon="4.72518">
        <ele>172</ele>
        <time>2017-08-05T13:13:57Z</time>
      </trkpt>
      <trkpt lat="45.93568" lon="4.72511">
        <ele>172</ele>
        <time>2017-08-05T13:13:58Z</time>
      </trkpt>
      <trkpt lat="45.93566" lon="4.72505">
        <ele>172</ele>
        <time>2017-08-05T13:13:59Z</time>
      </trkpt>
      <trkpt lat="45.93563" lon="4.72499">
        <ele>172</ele>
        <time>2017-08-05T13:14:00Z</time>
      </trkpt>
      <trkpt lat="45.93561" lon="4.72493">
        <ele>172</ele>
        <time>2017-08-05T13:14:01Z</time>
      </trkpt>
      <trkpt lat="45.93558" lon="4.72487">
        <ele>172</ele>
        <time>2017-08-05T13:14:02Z</time>
      </trkpt>
      <trkpt lat="45.93554" lon="4.72477">
        <ele>172</ele>
        <time>2017-08-05T13:14:04Z</time>
      </trkpt>
      <trkpt lat="45.93551" lon="4.72472">
        <ele>172</ele>
        <time>2017-08-05T13:14:05Z</time>
      </trkpt>
      <trkpt lat="45.93548" lon="4.72463">
        <ele>172</ele>
        <time>2017-08-05T13:14:07Z</time>
      </trkpt>
      <trkpt lat="45.93547" lon="4.72457">
        <ele>172</ele>
        <time>2017-08-05T13:14:08Z</time>
      </trkpt>
      <trkpt lat="45.93548" lon="4.72445">
        <ele>172</ele>
        <time>2017-08-05T13:14:10Z</time>
      </trkpt>
      <trkpt lat="45.93549" lon="4.72438">
        <ele>172</ele>
        <time>2017-08-05T13:14:11Z</time>
      </trkpt>
      <trkpt lat="45.93549" lon="4.72431">
        <ele>172</ele>
        <time>2017-08-05T13:14:12Z</time>
      </trkpt>
      <trkpt lat="45.9355" lon="4.72424">
        <ele>172</ele>
        <time>2017-08-05T13:14:13Z</time>
      </trkpt>
      <trkpt lat="45.93549" lon="4.72417">
        <ele>172</ele>
        <time>2017-08-05T13:14:14Z</time>
      </trkpt>
      <trkpt lat="45.93548" lon="4.7241">
        <ele>173</ele>
        <time>2017-08-05T13:14:15Z</time>
      </trkpt>
      <trkpt lat="45.93545" lon="4.72399">
        <ele>173</ele>
        <time>2017-08-05T13:14:17Z</time>
      </trkpt>
      <trkpt lat="45.93542" lon="4.72393">
        <ele>173</ele>
        <time>2017-08-05T13:14:18Z</time>
      </trkpt>
      <trkpt lat="45.9354" lon="4.72386">
        <ele>173</ele>
        <time>2017-08-05T13:14:19Z</time>
      </trkpt>
      <trkpt lat="45.93537" lon="4.7238">
        <ele>173</ele>
        <time>2017-08-05T13:14:20Z</time>
      </trkpt>
      <trkpt lat="45.93534" lon="4.72374">
        <ele>173</ele>
        <time>2017-08-05T13:14:21Z</time>
      </trkpt>
      <trkpt lat="45.93532" lon="4.72368">
        <ele>173</ele>
        <time>2017-08-05T13:14:22Z</time>
      </trkpt>
      <trkpt lat="45.93529" lon="4.72362">
        <ele>173</ele>
        <time>2017-08-05T13:14:23Z</time>
      </trkpt>
      <trkpt lat="45.93526" lon="4.72356">
        <ele>173</ele>
        <time>2017-08-05T13:14:24Z</time>
      </trkpt>
      <trkpt lat="45.93523" lon="4.7235">
        <ele>173</ele>
        <time>2017-08-05T13:14:25Z</time>
      </trkpt>
      <trkpt lat="45.93521" lon="4.72345">
        <ele>173</ele>
        <time>2017-08-05T13:14:26Z</time>
      </trkpt>
      <trkpt lat="45.93518" lon="4.72335">
        <ele>173</ele>
        <time>2017-08-05T13:14:28Z</time>
      </trkpt>
      <trkpt lat="45.93517" lon="4.72331">
        <ele>173</ele>
        <time>2017-08-05T13:14:29Z</time>
      </trkpt>
      <trkpt lat="45.93516" lon="4.72321">
        <ele>173</ele>
        <time>2017-08-05T13:14:32Z</time>
      </trkpt>
      <trkpt lat="45.93521" lon="4.72317">
        <ele>173</ele>
        <time>2017-08-05T13:14:33Z</time>
      </trkpt>
      <trkpt lat="45.93526" lon="4.72309">
        <ele>173</ele>
        <time>2017-08-05T13:14:36Z</time>
      </trkpt>
      <trkpt lat="45.93527" lon="4.72305">
        <ele>173</ele>
        <time>2017-08-05T13:14:37Z</time>
      </trkpt>
      <trkpt lat="45.93531" lon="4.72296">
        <ele>172</ele>
        <time>2017-08-05T13:14:39Z</time>
      </trkpt>
      <trkpt lat="45.93532" lon="4.7229">
        <ele>172</ele>
        <time>2017-08-05T13:14:40Z</time>
      </trkpt>
      <trkpt lat="45.93534" lon="4.72285">
        <ele>172</ele>
        <time>2017-08-05T13:14:41Z</time>
      </trkpt>
      <trkpt lat="45.93536" lon="4.72279">
        <ele>172</ele>
        <time>2017-08-05T13:14:42Z</time>
      </trkpt>
      <trkpt lat="45.9354" lon="4.72268">
        <ele>172</ele>
        <time>2017-08-05T13:14:44Z</time>
      </trkpt>
      <trkpt lat="45.93542" lon="4.72262">
        <ele>172</ele>
        <time>2017-08-05T13:14:45Z</time>
      </trkpt>
      <trkpt lat="45.93545" lon="4.7225">
        <ele>172</ele>
        <time>2017-08-05T13:14:47Z</time>
      </trkpt>
      <trkpt lat="45.93547" lon="4.72244">
        <ele>172</ele>
        <time>2017-08-05T13:14:48Z</time>
      </trkpt>
      <trkpt lat="45.93551" lon="4.72234">
        <ele>172</ele>
        <time>2017-08-05T13:14:50Z</time>
      </trkpt>
      <trkpt lat="45.93553" lon="4.72228">
        <ele>173</ele>
        <time>2017-08-05T13:14:51Z</time>
      </trkpt>
      <trkpt lat="45.93556" lon="4.72218">
        <ele>173</ele>
        <time>2017-08-05T13:14:53Z</time>
      </trkpt>
      <trkpt lat="45.93556" lon="4.72213">
        <ele>173</ele>
        <time>2017-08-05T13:14:54Z</time>
      </trkpt>
      <trkpt lat="45.93549" lon="4.7221">
        <ele>173</ele>
        <time>2017-08-05T13:14:56Z</time>
      </trkpt>
      <trkpt lat="45.93545" lon="4.7221">
        <ele>173</ele>
        <time>2017-08-05T13:14:57Z</time>
      </trkpt>
      <trkpt lat="45.9354" lon="4.7221">
        <ele>172</ele>
        <time>2017-08-05T13:14:58Z</time>
      </trkpt>
      <trkpt lat="45.93535" lon="4.72209">
        <ele>172</ele>
        <time>2017-08-05T13:14:59Z</time>
      </trkpt>
      <trkpt lat="45.93531" lon="4.72208">
        <ele>172</ele>
        <time>2017-08-05T13:15:00Z</time>
      </trkpt>
      <trkpt lat="45.93526" lon="4.72207">
        <ele>172</ele>
        <time>2017-08-05T13:15:01Z</time>
      </trkpt>
      <trkpt lat="45.93522" lon="4.72204">
        <ele>172</ele>
        <time>2017-08-05T13:15:02Z</time>
      </trkpt>
      <trkpt lat="45.93517" lon="4.72201">
        <ele>172</ele>
        <time>2017-08-05T13:15:03Z</time>
      </trkpt>
      <trkpt lat="45.93513" lon="4.72199">
        <ele>172</ele>
        <time>2017-08-05T13:15:04Z</time>
      </trkpt>
      <trkpt lat="45.93508" lon="4.72196">
        <ele>173</ele>
        <time>2017-08-05T13:15:05Z</time>
      </trkpt>
      <trkpt lat="45.93505" lon="4.72192">
        <ele>173</ele>
        <time>2017-08-05T13:15:06Z</time>
      </trkpt>
      <trkpt lat="45.93499" lon="4.72193">
        <ele>173</ele>
        <time>2017-08-05T13:15:07Z</time>
      </trkpt>
      <trkpt lat="45.93493" lon="4.72193">
        <ele>173</ele>
        <time>2017-08-05T13:15:08Z</time>
      </trkpt>
      <trkpt lat="45.93488" lon="4.72194">
        <ele>173</ele>
        <time>2017-08-05T13:15:09Z</time>
      </trkpt>
      <trkpt lat="45.93484" lon="4.7219">
        <ele>173</ele>
        <time>2017-08-05T13:15:10Z</time>
      </trkpt>
      <trkpt lat="45.9348" lon="4.72188">
        <ele>173</ele>
        <time>2017-08-05T13:15:11Z</time>
      </trkpt>
      <trkpt lat="45.93476" lon="4.72192">
        <ele>173</ele>
        <time>2017-08-05T13:15:12Z</time>
      </trkpt>
      <trkpt lat="45.93472" lon="4.72195">
        <ele>173</ele>
        <time>2017-08-05T13:15:13Z</time>
      </trkpt>
      <trkpt lat="45.93466" lon="4.72199">
        <ele>174</ele>
        <time>2017-08-05T13:15:14Z</time>
      </trkpt>
      <trkpt lat="45.93463" lon="4.72197">
        <ele>174</ele>
        <time>2017-08-05T13:15:15Z</time>
      </trkpt>
      <trkpt lat="45.93456" lon="4.72197">
        <ele>174</ele>
        <time>2017-08-05T13:15:17Z</time>
      </trkpt>
      <trkpt lat="45.9345" lon="4.72189">
        <ele>174</ele>
        <time>2017-08-05T13:15:18Z</time>
      </trkpt>
      <trkpt lat="45.93445" lon="4.72189">
        <ele>174</ele>
        <time>2017-08-05T13:15:19Z</time>
      </trkpt>
      <trkpt lat="45.9344" lon="4.72189">
        <ele>174</ele>
        <time>2017-08-05T13:15:20Z</time>
      </trkpt>
      <trkpt lat="45.93434" lon="4.72194">
        <ele>174</ele>
        <time>2017-08-05T13:15:21Z</time>
      </trkpt>
      <trkpt lat="45.9343" lon="4.72197">
        <ele>174</ele>
        <time>2017-08-05T13:15:22Z</time>
      </trkpt>
      <trkpt lat="45.93426" lon="4.722">
        <ele>174</ele>
        <time>2017-08-05T13:15:23Z</time>
      </trkpt>
      <trkpt lat="45.93422" lon="4.72203">
        <ele>174</ele>
        <time>2017-08-05T13:15:24Z</time>
      </trkpt>
      <trkpt lat="45.93415" lon="4.72207">
        <ele>176</ele>
        <time>2017-08-05T13:15:26Z</time>
      </trkpt>
      <trkpt lat="45.93411" lon="4.72209">
        <ele>176</ele>
        <time>2017-08-05T13:15:27Z</time>
      </trkpt>
      <trkpt lat="45.93407" lon="4.72211">
        <ele>176</ele>
        <time>2017-08-05T13:15:28Z</time>
      </trkpt>
      <trkpt lat="45.93402" lon="4.72212">
        <ele>176</ele>
        <time>2017-08-05T13:15:29Z</time>
      </trkpt>
      <trkpt lat="45.93397" lon="4.72212">
        <ele>176</ele>
        <time>2017-08-05T13:15:30Z</time>
      </trkpt>
      <trkpt lat="45.93392" lon="4.72213">
        <ele>176</ele>
        <time>2017-08-05T13:15:31Z</time>
      </trkpt>
      <trkpt lat="45.93384" lon="4.72213">
        <ele>176</ele>
        <time>2017-08-05T13:15:33Z</time>
      </trkpt>
      <trkpt lat="45.93381" lon="4.72213">
        <ele>176</ele>
        <time>2017-08-05T13:15:34Z</time>
      </trkpt>
      <trkpt lat="45.93373" lon="4.72214">
        <ele>176</ele>
        <time>2017-08-05T13:15:36Z</time>
      </trkpt>
      <trkpt lat="45.93369" lon="4.72217">
        <ele>176</ele>
        <time>2017-08-05T13:15:37Z</time>
      </trkpt>
      <trkpt lat="45.9336" lon="4.72219">
        <ele>176</ele>
        <time>2017-08-05T13:15:39Z</time>
      </trkpt>
      <trkpt lat="45.93356" lon="4.72222">
        <ele>176</ele>
        <time>2017-08-05T13:15:40Z</time>
      </trkpt>
      <trkpt lat="45.93349" lon="4.72222">
        <ele>176</ele>
        <time>2017-08-05T13:15:42Z</time>
      </trkpt>
      <trkpt lat="45.93345" lon="4.72222">
        <ele>176</ele>
        <time>2017-08-05T13:15:43Z</time>
      </trkpt>
      <trkpt lat="45.93336" lon="4.72222">
        <ele>176</ele>
        <time>2017-08-05T13:15:45Z</time>
      </trkpt>
      <trkpt lat="45.93332" lon="4.72222">
        <ele>175</ele>
        <time>2017-08-05T13:15:46Z</time>
      </trkpt>
      <trkpt lat="45.93327" lon="4.72221">
        <ele>175</ele>
        <time>2017-08-05T13:15:47Z</time>
      </trkpt>
      <trkpt lat="45.93323" lon="4.7222">
        <ele>175</ele>
        <time>2017-08-05T13:15:48Z</time>
      </trkpt>
      <trkpt lat="45.93316" lon="4.7222">
        <ele>175</ele>
        <time>2017-08-05T13:15:50Z</time>
      </trkpt>
      <trkpt lat="45.93312" lon="4.7222">
        <ele>175</ele>
        <time>2017-08-05T13:15:51Z</time>
      </trkpt>
      <trkpt lat="45.93303" lon="4.72221">
        <ele>175</ele>
        <time>2017-08-05T13:15:53Z</time>
      </trkpt>
      <trkpt lat="45.93298" lon="4.72221">
        <ele>175</ele>
        <time>2017-08-05T13:15:54Z</time>
      </trkpt>
      <trkpt lat="45.93289" lon="4.72221">
        <ele>174</ele>
        <time>2017-08-05T13:15:55Z</time>
      </trkpt>
      <trkpt lat="45.93282" lon="4.72221">
        <ele>174</ele>
        <time>2017-08-05T13:15:56Z</time>
      </trkpt>
      <trkpt lat="45.93276" lon="4.72219">
        <ele>174</ele>
        <time>2017-08-05T13:15:57Z</time>
      </trkpt>
      <trkpt lat="45.93269" lon="4.72217">
        <ele>174</ele>
        <time>2017-08-05T13:15:58Z</time>
      </trkpt>
      <trkpt lat="45.93263" lon="4.72216">
        <ele>174</ele>
        <time>2017-08-05T13:15:59Z</time>
      </trkpt>
      <trkpt lat="45.93257" lon="4.72215">
        <ele>174</ele>
        <time>2017-08-05T13:16:00Z</time>
      </trkpt>
      <trkpt lat="45.93251" lon="4.72214">
        <ele>174</ele>
        <time>2017-08-05T13:16:01Z</time>
      </trkpt>
      <trkpt lat="45.93245" lon="4.72214">
        <ele>171</ele>
        <time>2017-08-05T13:16:02Z</time>
      </trkpt>
      <trkpt lat="45.9324" lon="4.72214">
        <ele>171</ele>
        <time>2017-08-05T13:16:03Z</time>
      </trkpt>
      <trkpt lat="45.93236" lon="4.72214">
        <ele>171</ele>
        <time>2017-08-05T13:16:04Z</time>
      </trkpt>
      <trkpt lat="45.93231" lon="4.72214">
        <ele>171</ele>
        <time>2017-08-05T13:16:05Z</time>
      </trkpt>
      <trkpt lat="45.93226" lon="4.72215">
        <ele>171</ele>
        <time>2017-08-05T13:16:06Z</time>
      </trkpt>
      <trkpt lat="45.93221" lon="4.72215">
        <ele>171</ele>
        <time>2017-08-05T13:16:07Z</time>
      </trkpt>
      <trkpt lat="45.93216" lon="4.72216">
        <ele>171</ele>
        <time>2017-08-05T13:16:08Z</time>
      </trkpt>
      <trkpt lat="45.93212" lon="4.72217">
        <ele>171</ele>
        <time>2017-08-05T13:16:09Z</time>
      </trkpt>
      <trkpt lat="45.93206" lon="4.72218">
        <ele>171</ele>
        <time>2017-08-05T13:16:10Z</time>
      </trkpt>
      <trkpt lat="45.93198" lon="4.72219">
        <ele>171</ele>
        <time>2017-08-05T13:16:12Z</time>
      </trkpt>
      <trkpt lat="45.93195" lon="4.72221">
        <ele>171</ele>
        <time>2017-08-05T13:16:13Z</time>
      </trkpt>
      <trkpt lat="45.93187" lon="4.72223">
        <ele>170</ele>
        <time>2017-08-05T13:16:15Z</time>
      </trkpt>
      <trkpt lat="45.93184" lon="4.72224">
        <ele>170</ele>
        <time>2017-08-05T13:16:16Z</time>
      </trkpt>
      <trkpt lat="45.93176" lon="4.72222">
        <ele>170</ele>
        <time>2017-08-05T13:16:18Z</time>
      </trkpt>
      <trkpt lat="45.93173" lon="4.72219">
        <ele>170</ele>
        <time>2017-08-05T13:16:19Z</time>
      </trkpt>
      <trkpt lat="45.93168" lon="4.7221">
        <ele>170</ele>
        <time>2017-08-05T13:16:21Z</time>
      </trkpt>
      <trkpt lat="45.93168" lon="4.72204">
        <ele>170</ele>
        <time>2017-08-05T13:16:22Z</time>
      </trkpt>
      <trkpt lat="45.93168" lon="4.72197">
        <ele>170</ele>
        <time>2017-08-05T13:16:23Z</time>
      </trkpt>
      <trkpt lat="45.93169" lon="4.7219">
        <ele>170</ele>
        <time>2017-08-05T13:16:24Z</time>
      </trkpt>
      <trkpt lat="45.93169" lon="4.72182">
        <ele>170</ele>
        <time>2017-08-05T13:16:25Z</time>
      </trkpt>
      <trkpt lat="45.9317" lon="4.72175">
        <ele>170</ele>
        <time>2017-08-05T13:16:26Z</time>
      </trkpt>
      <trkpt lat="45.93171" lon="4.72166">
        <ele>169</ele>
        <time>2017-08-05T13:16:27Z</time>
      </trkpt>
      <trkpt lat="45.93171" lon="4.72159">
        <ele>169</ele>
        <time>2017-08-05T13:16:28Z</time>
      </trkpt>
      <trkpt lat="45.93172" lon="4.72152">
        <ele>169</ele>
        <time>2017-08-05T13:16:29Z</time>
      </trkpt>
      <trkpt lat="45.93173" lon="4.72145">
        <ele>170</ele>
        <time>2017-08-05T13:16:30Z</time>
      </trkpt>
      <trkpt lat="45.93174" lon="4.72138">
        <ele>170</ele>
        <time>2017-08-05T13:16:31Z</time>
      </trkpt>
      <trkpt lat="45.93174" lon="4.72131">
        <ele>170</ele>
        <time>2017-08-05T13:16:32Z</time>
      </trkpt>
      <trkpt lat="45.93176" lon="4.72119">
        <ele>170</ele>
        <time>2017-08-05T13:16:34Z</time>
      </trkpt>
      <trkpt lat="45.93177" lon="4.72113">
        <ele>170</ele>
        <time>2017-08-05T13:16:35Z</time>
      </trkpt>
      <trkpt lat="45.93177" lon="4.72106">
        <ele>170</ele>
        <time>2017-08-05T13:16:36Z</time>
      </trkpt>
      <trkpt lat="45.93178" lon="4.72099">
        <ele>169</ele>
        <time>2017-08-05T13:16:37Z</time>
      </trkpt>
      <trkpt lat="45.93178" lon="4.72092">
        <ele>169</ele>
        <time>2017-08-05T13:16:38Z</time>
      </trkpt>
      <trkpt lat="45.93179" lon="4.72086">
        <ele>169</ele>
        <time>2017-08-05T13:16:39Z</time>
      </trkpt>
      <trkpt lat="45.93179" lon="4.72079">
        <ele>169</ele>
        <time>2017-08-05T13:16:40Z</time>
      </trkpt>
      <trkpt lat="45.9318" lon="4.72072">
        <ele>169</ele>
        <time>2017-08-05T13:16:41Z</time>
      </trkpt>
      <trkpt lat="45.93181" lon="4.72065">
        <ele>170</ele>
        <time>2017-08-05T13:16:42Z</time>
      </trkpt>
      <trkpt lat="45.93181" lon="4.72059">
        <ele>170</ele>
        <time>2017-08-05T13:16:43Z</time>
      </trkpt>
      <trkpt lat="45.93183" lon="4.72046">
        <ele>170</ele>
        <time>2017-08-05T13:16:45Z</time>
      </trkpt>
      <trkpt lat="45.93182" lon="4.7204">
        <ele>170</ele>
        <time>2017-08-05T13:16:46Z</time>
      </trkpt>
      <trkpt lat="45.93177" lon="4.72032">
        <ele>170</ele>
        <time>2017-08-05T13:16:48Z</time>
      </trkpt>
      <trkpt lat="45.93173" lon="4.72031">
        <ele>170</ele>
        <time>2017-08-05T13:16:49Z</time>
      </trkpt>
      <trkpt lat="45.93165" lon="4.72029">
        <ele>169</ele>
        <time>2017-08-05T13:16:51Z</time>
      </trkpt>
      <trkpt lat="45.93161" lon="4.72028">
        <ele>169</ele>
        <time>2017-08-05T13:16:52Z</time>
      </trkpt>
      <trkpt lat="45.93156" lon="4.72026">
        <ele>169</ele>
        <time>2017-08-05T13:16:53Z</time>
      </trkpt>
      <trkpt lat="45.93152" lon="4.72025">
        <ele>169</ele>
        <time>2017-08-05T13:16:54Z</time>
      </trkpt>
      <trkpt lat="45.93144" lon="4.72021">
        <ele>169</ele>
        <time>2017-08-05T13:16:56Z</time>
      </trkpt>
      <trkpt lat="45.9314" lon="4.72018">
        <ele>169</ele>
        <time>2017-08-05T13:16:57Z</time>
      </trkpt>
      <trkpt lat="45.93135" lon="4.72017">
        <ele>169</ele>
        <time>2017-08-05T13:16:58Z</time>
      </trkpt>
      <trkpt lat="45.9313" lon="4.72016">
        <ele>169</ele>
        <time>2017-08-05T13:16:59Z</time>
      </trkpt>
      <trkpt lat="45.93125" lon="4.72015">
        <ele>169</ele>
        <time>2017-08-05T13:17:00Z</time>
      </trkpt>
      <trkpt lat="45.9312" lon="4.72013">
        <ele>169</ele>
        <time>2017-08-05T13:17:01Z</time>
      </trkpt>
      <trkpt lat="45.93111" lon="4.7201">
        <ele>169</ele>
        <time>2017-08-05T13:17:03Z</time>
      </trkpt>
      <trkpt lat="45.93107" lon="4.72009">
        <ele>169</ele>
        <time>2017-08-05T13:17:04Z</time>
      </trkpt>
      <trkpt lat="45.93099" lon="4.72006">
        <ele>169</ele>
        <time>2017-08-05T13:17:06Z</time>
      </trkpt>
      <trkpt lat="45.93094" lon="4.72004">
        <ele>169</ele>
        <time>2017-08-05T13:17:07Z</time>
      </trkpt>
      <trkpt lat="45.9309" lon="4.72002">
        <ele>169</ele>
        <time>2017-08-05T13:17:08Z</time>
      </trkpt>
      <trkpt lat="45.93084" lon="4.72">
        <ele>169</ele>
        <time>2017-08-05T13:17:09Z</time>
      </trkpt>
      <trkpt lat="45.9308" lon="4.71999">
        <ele>169</ele>
        <time>2017-08-05T13:17:10Z</time>
      </trkpt>
      <trkpt lat="45.93074" lon="4.71997">
        <ele>169</ele>
        <time>2017-08-05T13:17:11Z</time>
      </trkpt>
      <trkpt lat="45.9307" lon="4.71995">
        <ele>169</ele>
        <time>2017-08-05T13:17:12Z</time>
      </trkpt>
      <trkpt lat="45.93065" lon="4.71993">
        <ele>169</ele>
        <time>2017-08-05T13:17:13Z</time>
      </trkpt>
      <trkpt lat="45.9306" lon="4.71991">
        <ele>169</ele>
        <time>2017-08-05T13:17:14Z</time>
      </trkpt>
      <trkpt lat="45.93055" lon="4.71989">
        <ele>169</ele>
        <time>2017-08-05T13:17:15Z</time>
      </trkpt>
      <trkpt lat="45.93051" lon="4.71987">
        <ele>169</ele>
        <time>2017-08-05T13:17:16Z</time>
      </trkpt>
      <trkpt lat="45.93046" lon="4.71986">
        <ele>169</ele>
        <time>2017-08-05T13:17:17Z</time>
      </trkpt>
      <trkpt lat="45.93041" lon="4.71985">
        <ele>169</ele>
        <time>2017-08-05T13:17:18Z</time>
      </trkpt>
      <trkpt lat="45.93036" lon="4.71983">
        <ele>169</ele>
        <time>2017-08-05T13:17:19Z</time>
      </trkpt>
      <trkpt lat="45.93031" lon="4.71981">
        <ele>169</ele>
        <time>2017-08-05T13:17:20Z</time>
      </trkpt>
      <trkpt lat="45.93026" lon="4.71979">
        <ele>169</ele>
        <time>2017-08-05T13:17:21Z</time>
      </trkpt>
      <trkpt lat="45.93021" lon="4.71978">
        <ele>169</ele>
        <time>2017-08-05T13:17:22Z</time>
      </trkpt>
      <trkpt lat="45.93017" lon="4.71976">
        <ele>169</ele>
        <time>2017-08-05T13:17:23Z</time>
      </trkpt>
      <trkpt lat="45.93012" lon="4.71974">
        <ele>169</ele>
        <time>2017-08-05T13:17:24Z</time>
      </trkpt>
      <trkpt lat="45.93008" lon="4.71973">
        <ele>169</ele>
        <time>2017-08-05T13:17:25Z</time>
      </trkpt>
      <trkpt lat="45.93" lon="4.71969">
        <ele>169</ele>
        <time>2017-08-05T13:17:27Z</time>
      </trkpt>
      <trkpt lat="45.92996" lon="4.71967">
        <ele>169</ele>
        <time>2017-08-05T13:17:28Z</time>
      </trkpt>
      <trkpt lat="45.92991" lon="4.71966">
        <ele>169</ele>
        <time>2017-08-05T13:17:29Z</time>
      </trkpt>
      <trkpt lat="45.92986" lon="4.71964">
        <ele>169</ele>
        <time>2017-08-05T13:17:30Z</time>
      </trkpt>
      <trkpt lat="45.92981" lon="4.71963">
        <ele>169</ele>
        <time>2017-08-05T13:17:31Z</time>
      </trkpt>
      <trkpt lat="45.92976" lon="4.71961">
        <ele>169</ele>
        <time>2017-08-05T13:17:32Z</time>
      </trkpt>
      <trkpt lat="45.92971" lon="4.71959">
        <ele>169</ele>
        <time>2017-08-05T13:17:33Z</time>
      </trkpt>
      <trkpt lat="45.92966" lon="4.71957">
        <ele>169</ele>
        <time>2017-08-05T13:17:34Z</time>
      </trkpt>
      <trkpt lat="45.92962" lon="4.71956">
        <ele>169</ele>
        <time>2017-08-05T13:17:35Z</time>
      </trkpt>
      <trkpt lat="45.92957" lon="4.71955">
        <ele>169</ele>
        <time>2017-08-05T13:17:36Z</time>
      </trkpt>
      <trkpt lat="45.92949" lon="4.71952">
        <ele>169</ele>
        <time>2017-08-05T13:17:38Z</time>
      </trkpt>
      <trkpt lat="45.92944" lon="4.7195">
        <ele>169</ele>
        <time>2017-08-05T13:17:39Z</time>
      </trkpt>
      <trkpt lat="45.92938" lon="4.71949">
        <ele>170</ele>
        <time>2017-08-05T13:17:40Z</time>
      </trkpt>
      <trkpt lat="45.92934" lon="4.71948">
        <ele>170</ele>
        <time>2017-08-05T13:17:41Z</time>
      </trkpt>
      <trkpt lat="45.92929" lon="4.71947">
        <ele>170</ele>
        <time>2017-08-05T13:17:42Z</time>
      </trkpt>
      <trkpt lat="45.92925" lon="4.71946">
        <ele>170</ele>
        <time>2017-08-05T13:17:43Z</time>
      </trkpt>
      <trkpt lat="45.9292" lon="4.71944">
        <ele>170</ele>
        <time>2017-08-05T13:17:44Z</time>
      </trkpt>
      <trkpt lat="45.92916" lon="4.71943">
        <ele>170</ele>
        <time>2017-08-05T13:17:45Z</time>
      </trkpt>
      <trkpt lat="45.92911" lon="4.7194">
        <ele>170</ele>
        <time>2017-08-05T13:17:46Z</time>
      </trkpt>
      <trkpt lat="45.92906" lon="4.71937">
        <ele>170</ele>
        <time>2017-08-05T13:17:47Z</time>
      </trkpt>
      <trkpt lat="45.92902" lon="4.71934">
        <ele>170</ele>
        <time>2017-08-05T13:17:48Z</time>
      </trkpt>
      <trkpt lat="45.92898" lon="4.71932">
        <ele>170</ele>
        <time>2017-08-05T13:17:49Z</time>
      </trkpt>
      <trkpt lat="45.92891" lon="4.71927">
        <ele>170</ele>
        <time>2017-08-05T13:17:51Z</time>
      </trkpt>
      <trkpt lat="45.92887" lon="4.71924">
        <ele>170</ele>
        <time>2017-08-05T13:17:52Z</time>
      </trkpt>
      <trkpt lat="45.92883" lon="4.71922">
        <ele>170</ele>
        <time>2017-08-05T13:17:53Z</time>
      </trkpt>
      <trkpt lat="45.92878" lon="4.71919">
        <ele>170</ele>
        <time>2017-08-05T13:17:54Z</time>
      </trkpt>
      <trkpt lat="45.92873" lon="4.71916">
        <ele>171</ele>
        <time>2017-08-05T13:17:55Z</time>
      </trkpt>
      <trkpt lat="45.92868" lon="4.71913">
        <ele>171</ele>
        <time>2017-08-05T13:17:56Z</time>
      </trkpt>
      <trkpt lat="45.92862" lon="4.7191">
        <ele>171</ele>
        <time>2017-08-05T13:17:57Z</time>
      </trkpt>
      <trkpt lat="45.92857" lon="4.71906">
        <ele>171</ele>
        <time>2017-08-05T13:17:58Z</time>
      </trkpt>
      <trkpt lat="45.92852" lon="4.71903">
        <ele>171</ele>
        <time>2017-08-05T13:17:59Z</time>
      </trkpt>
      <trkpt lat="45.92848" lon="4.719">
        <ele>171</ele>
        <time>2017-08-05T13:18:00Z</time>
      </trkpt>
      <trkpt lat="45.92843" lon="4.71897">
        <ele>171</ele>
        <time>2017-08-05T13:18:01Z</time>
      </trkpt>
      <trkpt lat="45.92839" lon="4.71895">
        <ele>171</ele>
        <time>2017-08-05T13:18:02Z</time>
      </trkpt>
      <trkpt lat="45.92831" lon="4.7189">
        <ele>171</ele>
        <time>2017-08-05T13:18:04Z</time>
      </trkpt>
      <trkpt lat="45.92827" lon="4.71888">
        <ele>171</ele>
        <time>2017-08-05T13:18:05Z</time>
      </trkpt>
      <trkpt lat="45.92823" lon="4.71885">
        <ele>171</ele>
        <time>2017-08-05T13:18:06Z</time>
      </trkpt>
      <trkpt lat="45.92818" lon="4.71882">
        <ele>171</ele>
        <time>2017-08-05T13:18:07Z</time>
      </trkpt>
      <trkpt lat="45.92814" lon="4.71878">
        <ele>171</ele>
        <time>2017-08-05T13:18:08Z</time>
      </trkpt>
      <trkpt lat="45.92809" lon="4.71876">
        <ele>171</ele>
        <time>2017-08-05T13:18:09Z</time>
      </trkpt>
      <trkpt lat="45.92805" lon="4.71873">
        <ele>172</ele>
        <time>2017-08-05T13:18:10Z</time>
      </trkpt>
      <trkpt lat="45.928" lon="4.71871">
        <ele>172</ele>
        <time>2017-08-05T13:18:11Z</time>
      </trkpt>
      <trkpt lat="45.92792" lon="4.71867">
        <ele>172</ele>
        <time>2017-08-05T13:18:13Z</time>
      </trkpt>
      <trkpt lat="45.92788" lon="4.71865">
        <ele>172</ele>
        <time>2017-08-05T13:18:14Z</time>
      </trkpt>
      <trkpt lat="45.92782" lon="4.71859">
        <ele>172</ele>
        <time>2017-08-05T13:18:16Z</time>
      </trkpt>
      <trkpt lat="45.92778" lon="4.71856">
        <ele>172</ele>
        <time>2017-08-05T13:18:17Z</time>
      </trkpt>
      <trkpt lat="45.92773" lon="4.71854">
        <ele>172</ele>
        <time>2017-08-05T13:18:18Z</time>
      </trkpt>
      <trkpt lat="45.92769" lon="4.71851">
        <ele>172</ele>
        <time>2017-08-05T13:18:19Z</time>
      </trkpt>
      <trkpt lat="45.92761" lon="4.71845">
        <ele>172</ele>
        <time>2017-08-05T13:18:21Z</time>
      </trkpt>
      <trkpt lat="45.92757" lon="4.71842">
        <ele>172</ele>
        <time>2017-08-05T13:18:22Z</time>
      </trkpt>
      <trkpt lat="45.9275" lon="4.71836">
        <ele>173</ele>
        <time>2017-08-05T13:18:24Z</time>
      </trkpt>
      <trkpt lat="45.92746" lon="4.71834">
        <ele>173</ele>
        <time>2017-08-05T13:18:25Z</time>
      </trkpt>
      <trkpt lat="45.92742" lon="4.71831">
        <ele>173</ele>
        <time>2017-08-05T13:18:26Z</time>
      </trkpt>
      <trkpt lat="45.92737" lon="4.71828">
        <ele>173</ele>
        <time>2017-08-05T13:18:27Z</time>
      </trkpt>
      <trkpt lat="45.92729" lon="4.71824">
        <ele>174</ele>
        <time>2017-08-05T13:18:29Z</time>
      </trkpt>
      <trkpt lat="45.92725" lon="4.71823">
        <ele>174</ele>
        <time>2017-08-05T13:18:30Z</time>
      </trkpt>
      <trkpt lat="45.92718" lon="4.71818">
        <ele>174</ele>
        <time>2017-08-05T13:18:32Z</time>
      </trkpt>
      <trkpt lat="45.92715" lon="4.71816">
        <ele>174</ele>
        <time>2017-08-05T13:18:33Z</time>
      </trkpt>
      <trkpt lat="45.92711" lon="4.71809">
        <ele>174</ele>
        <time>2017-08-05T13:18:35Z</time>
      </trkpt>
      <trkpt lat="45.92713" lon="4.71803">
        <ele>174</ele>
        <time>2017-08-05T13:18:36Z</time>
      </trkpt>
      <trkpt lat="45.92713" lon="4.71794">
        <ele>174</ele>
        <time>2017-08-05T13:18:38Z</time>
      </trkpt>
      <trkpt lat="45.92713" lon="4.71789">
        <ele>174</ele>
        <time>2017-08-05T13:18:39Z</time>
      </trkpt>
      <trkpt lat="45.92711" lon="4.71776">
        <ele>174</ele>
        <time>2017-08-05T13:18:41Z</time>
      </trkpt>
      <trkpt lat="45.92711" lon="4.71771">
        <ele>175</ele>
        <time>2017-08-05T13:18:42Z</time>
      </trkpt>
      <trkpt lat="45.9271" lon="4.71764">
        <ele>175</ele>
        <time>2017-08-05T13:18:43Z</time>
      </trkpt>
      <trkpt lat="45.9271" lon="4.71756">
        <ele>175</ele>
        <time>2017-08-05T13:18:44Z</time>
      </trkpt>
      <trkpt lat="45.9271" lon="4.71749">
        <ele>175</ele>
        <time>2017-08-05T13:18:45Z</time>
      </trkpt>
      <trkpt lat="45.9271" lon="4.71742">
        <ele>175</ele>
        <time>2017-08-05T13:18:46Z</time>
      </trkpt>
      <trkpt lat="45.92711" lon="4.71734">
        <ele>175</ele>
        <time>2017-08-05T13:18:47Z</time>
      </trkpt>
      <trkpt lat="45.92712" lon="4.71728">
        <ele>175</ele>
        <time>2017-08-05T13:18:48Z</time>
      </trkpt>
      <trkpt lat="45.92715" lon="4.71717">
        <ele>174</ele>
        <time>2017-08-05T13:18:50Z</time>
      </trkpt>
      <trkpt lat="45.92716" lon="4.71711">
        <ele>174</ele>
        <time>2017-08-05T13:18:51Z</time>
      </trkpt>
      <trkpt lat="45.92718" lon="4.71705">
        <ele>174</ele>
        <time>2017-08-05T13:18:52Z</time>
      </trkpt>
      <trkpt lat="45.92721" lon="4.71698">
        <ele>174</ele>
        <time>2017-08-05T13:18:53Z</time>
      </trkpt>
      <trkpt lat="45.92725" lon="4.71693">
        <ele>174</ele>
        <time>2017-08-05T13:18:54Z</time>
      </trkpt>
      <trkpt lat="45.92729" lon="4.71687">
        <ele>174</ele>
        <time>2017-08-05T13:18:55Z</time>
      </trkpt>
      <trkpt lat="45.92732" lon="4.71682">
        <ele>173</ele>
        <time>2017-08-05T13:18:56Z</time>
      </trkpt>
      <trkpt lat="45.92735" lon="4.71677">
        <ele>173</ele>
        <time>2017-08-05T13:18:57Z</time>
      </trkpt>
      <trkpt lat="45.92738" lon="4.71671">
        <ele>173</ele>
        <time>2017-08-05T13:18:58Z</time>
      </trkpt>
      <trkpt lat="45.92741" lon="4.71665">
        <ele>172</ele>
        <time>2017-08-05T13:18:59Z</time>
      </trkpt>
      <trkpt lat="45.92744" lon="4.7166">
        <ele>172</ele>
        <time>2017-08-05T13:19:00Z</time>
      </trkpt>
      <trkpt lat="45.92747" lon="4.71655">
        <ele>172</ele>
        <time>2017-08-05T13:19:01Z</time>
      </trkpt>
      <trkpt lat="45.92753" lon="4.71646">
        <ele>171</ele>
        <time>2017-08-05T13:19:03Z</time>
      </trkpt>
      <trkpt lat="45.92756" lon="4.71641">
        <ele>171</ele>
        <time>2017-08-05T13:19:04Z</time>
      </trkpt>
      <trkpt lat="45.92759" lon="4.71636">
        <ele>171</ele>
        <time>2017-08-05T13:19:05Z</time>
      </trkpt>
      <trkpt lat="45.92762" lon="4.71631">
        <ele>171</ele>
        <time>2017-08-05T13:19:06Z</time>
      </trkpt>
      <trkpt lat="45.92766" lon="4.71625">
        <ele>171</ele>
        <time>2017-08-05T13:19:07Z</time>
      </trkpt>
      <trkpt lat="45.92769" lon="4.71619">
        <ele>171</ele>
        <time>2017-08-05T13:19:08Z</time>
      </trkpt>
      <trkpt lat="45.92773" lon="4.71613">
        <ele>171</ele>
        <time>2017-08-05T13:19:09Z</time>
      </trkpt>
      <trkpt lat="45.92776" lon="4.71607">
        <ele>171</ele>
        <time>2017-08-05T13:19:10Z</time>
      </trkpt>
      <trkpt lat="45.92782" lon="4.71598">
        <ele>171</ele>
        <time>2017-08-05T13:19:12Z</time>
      </trkpt>
      <trkpt lat="45.92785" lon="4.71593">
        <ele>171</ele>
        <time>2017-08-05T13:19:13Z</time>
      </trkpt>
      <trkpt lat="45.92789" lon="4.71583">
        <ele>172</ele>
        <time>2017-08-05T13:19:15Z</time>
      </trkpt>
      <trkpt lat="45.92792" lon="4.71577">
        <ele>172</ele>
        <time>2017-08-05T13:19:16Z</time>
      </trkpt>
      <trkpt lat="45.92795" lon="4.71571">
        <ele>172</ele>
        <time>2017-08-05T13:19:17Z</time>
      </trkpt>
      <trkpt lat="45.92797" lon="4.71565">
        <ele>172</ele>
        <time>2017-08-05T13:19:18Z</time>
      </trkpt>
      <trkpt lat="45.928" lon="4.71559">
        <ele>172</ele>
        <time>2017-08-05T13:19:19Z</time>
      </trkpt>
      <trkpt lat="45.92802" lon="4.71554">
        <ele>172</ele>
        <time>2017-08-05T13:19:20Z</time>
      </trkpt>
      <trkpt lat="45.92806" lon="4.71544">
        <ele>173</ele>
        <time>2017-08-05T13:19:22Z</time>
      </trkpt>
      <trkpt lat="45.92808" lon="4.7154">
        <ele>173</ele>
        <time>2017-08-05T13:19:23Z</time>
      </trkpt>
      <trkpt lat="45.92811" lon="4.71531">
        <ele>173</ele>
        <time>2017-08-05T13:19:25Z</time>
      </trkpt>
      <trkpt lat="45.92813" lon="4.71527">
        <ele>174</ele>
        <time>2017-08-05T13:19:26Z</time>
      </trkpt>
      <trkpt lat="45.92814" lon="4.71517">
        <ele>174</ele>
        <time>2017-08-05T13:19:29Z</time>
      </trkpt>
      <trkpt lat="45.92815" lon="4.71514">
        <ele>174</ele>
        <time>2017-08-05T13:19:30Z</time>
      </trkpt>
      <trkpt lat="45.92818" lon="4.71503">
        <ele>175</ele>
        <time>2017-08-05T13:19:34Z</time>
      </trkpt>
      <trkpt lat="45.92819" lon="4.715">
        <ele>175</ele>
        <time>2017-08-05T13:19:35Z</time>
      </trkpt>
      <trkpt lat="45.92823" lon="4.71491">
        <ele>178</ele>
        <time>2017-08-05T13:19:39Z</time>
      </trkpt>
      <trkpt lat="45.92823" lon="4.71488">
        <ele>178</ele>
        <time>2017-08-05T13:19:40Z</time>
      </trkpt>
      <trkpt lat="45.92828" lon="4.7148">
        <ele>178</ele>
        <time>2017-08-05T13:19:44Z</time>
      </trkpt>
      <trkpt lat="45.92829" lon="4.71478">
        <ele>179</ele>
        <time>2017-08-05T13:19:45Z</time>
      </trkpt>
      <trkpt lat="45.92832" lon="4.71467">
        <ele>180</ele>
        <time>2017-08-05T13:19:50Z</time>
      </trkpt>
      <trkpt lat="45.92833" lon="4.71464">
        <ele>180</ele>
        <time>2017-08-05T13:19:51Z</time>
      </trkpt>
      <trkpt lat="45.92835" lon="4.71453">
        <ele>182</ele>
        <time>2017-08-05T13:19:56Z</time>
      </trkpt>
      <trkpt lat="45.92836" lon="4.7145">
        <ele>182</ele>
        <time>2017-08-05T13:19:57Z</time>
      </trkpt>
      <trkpt lat="45.92838" lon="4.7144">
        <ele>183</ele>
        <time>2017-08-05T13:20:02Z</time>
      </trkpt>
      <trkpt lat="45.92838" lon="4.71438">
        <ele>183</ele>
        <time>2017-08-05T13:20:03Z</time>
      </trkpt>
      <trkpt lat="45.92841" lon="4.71426">
        <ele>184</ele>
        <time>2017-08-05T13:20:08Z</time>
      </trkpt>
      <trkpt lat="45.92842" lon="4.71423">
        <ele>184</ele>
        <time>2017-08-05T13:20:09Z</time>
      </trkpt>
      <trkpt lat="45.92845" lon="4.71412">
        <ele>187</ele>
        <time>2017-08-05T13:20:13Z</time>
      </trkpt>
      <trkpt lat="45.92846" lon="4.71409">
        <ele>187</ele>
        <time>2017-08-05T13:20:14Z</time>
      </trkpt>
      <trkpt lat="45.92845" lon="4.71396">
        <ele>187</ele>
        <time>2017-08-05T13:20:19Z</time>
      </trkpt>
      <trkpt lat="45.92845" lon="4.71395">
        <ele>187</ele>
        <time>2017-08-05T13:20:20Z</time>
      </trkpt>
      <trkpt lat="45.92841" lon="4.71387">
        <ele>188</ele>
        <time>2017-08-05T13:20:23Z</time>
      </trkpt>
      <trkpt lat="45.92839" lon="4.71385">
        <ele>188</ele>
        <time>2017-08-05T13:20:24Z</time>
      </trkpt>
      <trkpt lat="45.92834" lon="4.71375">
        <ele>188</ele>
        <time>2017-08-05T13:20:28Z</time>
      </trkpt>
      <trkpt lat="45.92832" lon="4.71372">
        <ele>187</ele>
        <time>2017-08-05T13:20:29Z</time>
      </trkpt>
      <trkpt lat="45.92833" lon="4.71361">
        <ele>188</ele>
        <time>2017-08-05T13:20:33Z</time>
      </trkpt>
      <trkpt lat="45.92831" lon="4.71358">
        <ele>188</ele>
        <time>2017-08-05T13:20:34Z</time>
      </trkpt>
      <trkpt lat="45.92829" lon="4.71348">
        <ele>188</ele>
        <time>2017-08-05T13:20:37Z</time>
      </trkpt>
      <trkpt lat="45.92829" lon="4.71345">
        <ele>189</ele>
        <time>2017-08-05T13:20:38Z</time>
      </trkpt>
      <trkpt lat="45.92828" lon="4.71335">
        <ele>189</ele>
        <time>2017-08-05T13:20:41Z</time>
      </trkpt>
      <trkpt lat="45.92829" lon="4.71332">
        <ele>190</ele>
        <time>2017-08-05T13:20:42Z</time>
      </trkpt>
      <trkpt lat="45.92829" lon="4.71322">
        <ele>190</ele>
        <time>2017-08-05T13:20:45Z</time>
      </trkpt>
      <trkpt lat="45.92829" lon="4.71319">
        <ele>190</ele>
        <time>2017-08-05T13:20:46Z</time>
      </trkpt>
      <trkpt lat="45.92827" lon="4.71308">
        <ele>189</ele>
        <time>2017-08-05T13:20:49Z</time>
      </trkpt>
      <trkpt lat="45.92824" lon="4.71306">
        <ele>189</ele>
        <time>2017-08-05T13:20:50Z</time>
      </trkpt>
      <trkpt lat="45.92816" lon="4.71304">
        <ele>189</ele>
        <time>2017-08-05T13:20:52Z</time>
      </trkpt>
      <trkpt lat="45.92812" lon="4.71304">
        <ele>189</ele>
        <time>2017-08-05T13:20:53Z</time>
      </trkpt>
      <trkpt lat="45.92804" lon="4.71303">
        <ele>189</ele>
        <time>2017-08-05T13:20:56Z</time>
      </trkpt>
      <trkpt lat="45.92802" lon="4.71303">
        <ele>189</ele>
        <time>2017-08-05T13:20:57Z</time>
      </trkpt>
      <trkpt lat="45.92796" lon="4.71297">
        <ele>189</ele>
        <time>2017-08-05T13:21:00Z</time>
      </trkpt>
      <trkpt lat="45.92793" lon="4.71296">
        <ele>189</ele>
        <time>2017-08-05T13:21:01Z</time>
      </trkpt>
      <trkpt lat="45.92785" lon="4.71293">
        <ele>189</ele>
        <time>2017-08-05T13:21:03Z</time>
      </trkpt>
      <trkpt lat="45.92782" lon="4.71293">
        <ele>189</ele>
        <time>2017-08-05T13:21:04Z</time>
      </trkpt>
      <trkpt lat="45.92774" lon="4.71291">
        <ele>189</ele>
        <time>2017-08-05T13:21:07Z</time>
      </trkpt>
      <trkpt lat="45.9277" lon="4.7129">
        <ele>189</ele>
        <time>2017-08-05T13:21:08Z</time>
      </trkpt>
      <trkpt lat="45.92764" lon="4.71289">
        <ele>189</ele>
        <time>2017-08-05T13:21:10Z</time>
      </trkpt>
      <trkpt lat="45.9276" lon="4.71288">
        <ele>189</ele>
        <time>2017-08-05T13:21:11Z</time>
      </trkpt>
      <trkpt lat="45.92756" lon="4.71288">
        <ele>189</ele>
        <time>2017-08-05T13:21:12Z</time>
      </trkpt>
      <trkpt lat="45.9275" lon="4.71287">
        <ele>188</ele>
        <time>2017-08-05T13:21:13Z</time>
      </trkpt>
      <trkpt lat="45.92741" lon="4.71282">
        <ele>188</ele>
        <time>2017-08-05T13:21:15Z</time>
      </trkpt>
      <trkpt lat="45.92737" lon="4.71281">
        <ele>188</ele>
        <time>2017-08-05T13:21:16Z</time>
      </trkpt>
      <trkpt lat="45.92732" lon="4.7128">
        <ele>188</ele>
        <time>2017-08-05T13:21:17Z</time>
      </trkpt>
      <trkpt lat="45.92725" lon="4.71279">
        <ele>188</ele>
        <time>2017-08-05T13:21:18Z</time>
      </trkpt>
      <trkpt lat="45.9272" lon="4.71278">
        <ele>188</ele>
        <time>2017-08-05T13:21:19Z</time>
      </trkpt>
      <trkpt lat="45.92714" lon="4.71275">
        <ele>187</ele>
        <time>2017-08-05T13:21:20Z</time>
      </trkpt>
      <trkpt lat="45.92709" lon="4.71274">
        <ele>187</ele>
        <time>2017-08-05T13:21:21Z</time>
      </trkpt>
      <trkpt lat="45.92704" lon="4.71272">
        <ele>187</ele>
        <time>2017-08-05T13:21:22Z</time>
      </trkpt>
      <trkpt lat="45.927" lon="4.71271">
        <ele>187</ele>
        <time>2017-08-05T13:21:23Z</time>
      </trkpt>
      <trkpt lat="45.92695" lon="4.7127">
        <ele>187</ele>
        <time>2017-08-05T13:21:24Z</time>
      </trkpt>
      <trkpt lat="45.92686" lon="4.71268">
        <ele>187</ele>
        <time>2017-08-05T13:21:26Z</time>
      </trkpt>
      <trkpt lat="45.92681" lon="4.71268">
        <ele>187</ele>
        <time>2017-08-05T13:21:27Z</time>
      </trkpt>
      <trkpt lat="45.92673" lon="4.71264">
        <ele>187</ele>
        <time>2017-08-05T13:21:29Z</time>
      </trkpt>
      <trkpt lat="45.92669" lon="4.71262">
        <ele>187</ele>
        <time>2017-08-05T13:21:30Z</time>
      </trkpt>
      <trkpt lat="45.92662" lon="4.71258">
        <ele>186</ele>
        <time>2017-08-05T13:21:32Z</time>
      </trkpt>
      <trkpt lat="45.92658" lon="4.71257">
        <ele>186</ele>
        <time>2017-08-05T13:21:33Z</time>
      </trkpt>
      <trkpt lat="45.9265" lon="4.71252">
        <ele>186</ele>
        <time>2017-08-05T13:21:36Z</time>
      </trkpt>
      <trkpt lat="45.92649" lon="4.71252">
        <ele>186</ele>
        <time>2017-08-05T13:21:37Z</time>
      </trkpt>
      <trkpt lat="45.92641" lon="4.7125">
        <ele>186</ele>
        <time>2017-08-05T13:21:40Z</time>
      </trkpt>
      <trkpt lat="45.92638" lon="4.71248">
        <ele>186</ele>
        <time>2017-08-05T13:21:41Z</time>
      </trkpt>
      <trkpt lat="45.92631" lon="4.71244">
        <ele>186</ele>
        <time>2017-08-05T13:21:43Z</time>
      </trkpt>
      <trkpt lat="45.92628" lon="4.71242">
        <ele>186</ele>
        <time>2017-08-05T13:21:44Z</time>
      </trkpt>
      <trkpt lat="45.92622" lon="4.71238">
        <ele>186</ele>
        <time>2017-08-05T13:21:46Z</time>
      </trkpt>
      <trkpt lat="45.92619" lon="4.71236">
        <ele>186</ele>
        <time>2017-08-05T13:21:47Z</time>
      </trkpt>
      <trkpt lat="45.92611" lon="4.71231">
        <ele>186</ele>
        <time>2017-08-05T13:21:49Z</time>
      </trkpt>
      <trkpt lat="45.92608" lon="4.71229">
        <ele>186</ele>
        <time>2017-08-05T13:21:50Z</time>
      </trkpt>
      <trkpt lat="45.92602" lon="4.71227">
        <ele>186</ele>
        <time>2017-08-05T13:21:52Z</time>
      </trkpt>
      <trkpt lat="45.92599" lon="4.71225">
        <ele>186</ele>
        <time>2017-08-05T13:21:53Z</time>
      </trkpt>
      <trkpt lat="45.92592" lon="4.71223">
        <ele>186</ele>
        <time>2017-08-05T13:21:55Z</time>
      </trkpt>
      <trkpt lat="45.92588" lon="4.71221">
        <ele>186</ele>
        <time>2017-08-05T13:21:56Z</time>
      </trkpt>
      <trkpt lat="45.92582" lon="4.71218">
        <ele>185</ele>
        <time>2017-08-05T13:21:58Z</time>
      </trkpt>
      <trkpt lat="45.92579" lon="4.71216">
        <ele>185</ele>
        <time>2017-08-05T13:21:59Z</time>
      </trkpt>
      <trkpt lat="45.92571" lon="4.71214">
        <ele>185</ele>
        <time>2017-08-05T13:22:02Z</time>
      </trkpt>
      <trkpt lat="45.92568" lon="4.71213">
        <ele>185</ele>
        <time>2017-08-05T13:22:03Z</time>
      </trkpt>
      <trkpt lat="45.92561" lon="4.7121">
        <ele>185</ele>
        <time>2017-08-05T13:22:05Z</time>
      </trkpt>
      <trkpt lat="45.92558" lon="4.71208">
        <ele>185</ele>
        <time>2017-08-05T13:22:06Z</time>
      </trkpt>
      <trkpt lat="45.92552" lon="4.71206">
        <ele>185</ele>
        <time>2017-08-05T13:22:08Z</time>
      </trkpt>
      <trkpt lat="45.92549" lon="4.71204">
        <ele>185</ele>
        <time>2017-08-05T13:22:09Z</time>
      </trkpt>
      <trkpt lat="45.92544" lon="4.712">
        <ele>185</ele>
        <time>2017-08-05T13:22:11Z</time>
      </trkpt>
      <trkpt lat="45.92541" lon="4.71198">
        <ele>185</ele>
        <time>2017-08-05T13:22:12Z</time>
      </trkpt>
      <trkpt lat="45.92534" lon="4.71195">
        <ele>185</ele>
        <time>2017-08-05T13:22:14Z</time>
      </trkpt>
      <trkpt lat="45.92531" lon="4.71194">
        <ele>185</ele>
        <time>2017-08-05T13:22:15Z</time>
      </trkpt>
      <trkpt lat="45.92523" lon="4.71192">
        <ele>185</ele>
        <time>2017-08-05T13:22:17Z</time>
      </trkpt>
      <trkpt lat="45.92519" lon="4.7119">
        <ele>185</ele>
        <time>2017-08-05T13:22:18Z</time>
      </trkpt>
      <trkpt lat="45.92513" lon="4.71188">
        <ele>185</ele>
        <time>2017-08-05T13:22:20Z</time>
      </trkpt>
      <trkpt lat="45.92509" lon="4.71187">
        <ele>185</ele>
        <time>2017-08-05T13:22:21Z</time>
      </trkpt>
      <trkpt lat="45.92503" lon="4.71184">
        <ele>185</ele>
        <time>2017-08-05T13:22:23Z</time>
      </trkpt>
      <trkpt lat="45.925" lon="4.71183">
        <ele>185</ele>
        <time>2017-08-05T13:22:24Z</time>
      </trkpt>
      <trkpt lat="45.92493" lon="4.7118">
        <ele>185</ele>
        <time>2017-08-05T13:22:26Z</time>
      </trkpt>
      <trkpt lat="45.92489" lon="4.71179">
        <ele>185</ele>
        <time>2017-08-05T13:22:27Z</time>
      </trkpt>
      <trkpt lat="45.92482" lon="4.71175">
        <ele>185</ele>
        <time>2017-08-05T13:22:29Z</time>
      </trkpt>
      <trkpt lat="45.92479" lon="4.71173">
        <ele>184</ele>
        <time>2017-08-05T13:22:30Z</time>
      </trkpt>
      <trkpt lat="45.92471" lon="4.71171">
        <ele>184</ele>
        <time>2017-08-05T13:22:32Z</time>
      </trkpt>
      <trkpt lat="45.92468" lon="4.71169">
        <ele>184</ele>
        <time>2017-08-05T13:22:33Z</time>
      </trkpt>
      <trkpt lat="45.92462" lon="4.71165">
        <ele>186</ele>
        <time>2017-08-05T13:22:35Z</time>
      </trkpt>
      <trkpt lat="45.92458" lon="4.71163">
        <ele>186</ele>
        <time>2017-08-05T13:22:36Z</time>
      </trkpt>
      <trkpt lat="45.9245" lon="4.7116">
        <ele>186</ele>
        <time>2017-08-05T13:22:38Z</time>
      </trkpt>
      <trkpt lat="45.92447" lon="4.71158">
        <ele>186</ele>
        <time>2017-08-05T13:22:39Z</time>
      </trkpt>
      <trkpt lat="45.9244" lon="4.71154">
        <ele>185</ele>
        <time>2017-08-05T13:22:41Z</time>
      </trkpt>
      <trkpt lat="45.92437" lon="4.71152">
        <ele>185</ele>
        <time>2017-08-05T13:22:42Z</time>
      </trkpt>
      <trkpt lat="45.92429" lon="4.71147">
        <ele>185</ele>
        <time>2017-08-05T13:22:45Z</time>
      </trkpt>
      <trkpt lat="45.92426" lon="4.71144">
        <ele>185</ele>
        <time>2017-08-05T13:22:46Z</time>
      </trkpt>
      <trkpt lat="45.92419" lon="4.71138">
        <ele>186</ele>
        <time>2017-08-05T13:22:48Z</time>
      </trkpt>
      <trkpt lat="45.92416" lon="4.71136">
        <ele>184</ele>
        <time>2017-08-05T13:22:49Z</time>
      </trkpt>
      <trkpt lat="45.92411" lon="4.71132">
        <ele>184</ele>
        <time>2017-08-05T13:22:51Z</time>
      </trkpt>
      <trkpt lat="45.92408" lon="4.71131">
        <ele>184</ele>
        <time>2017-08-05T13:22:52Z</time>
      </trkpt>
      <trkpt lat="45.92399" lon="4.71126">
        <ele>184</ele>
        <time>2017-08-05T13:22:54Z</time>
      </trkpt>
      <trkpt lat="45.92396" lon="4.71125">
        <ele>184</ele>
        <time>2017-08-05T13:22:55Z</time>
      </trkpt>
      <trkpt lat="45.92389" lon="4.71121">
        <ele>184</ele>
        <time>2017-08-05T13:22:57Z</time>
      </trkpt>
      <trkpt lat="45.92386" lon="4.71119">
        <ele>184</ele>
        <time>2017-08-05T13:22:58Z</time>
      </trkpt>
      <trkpt lat="45.92378" lon="4.71116">
        <ele>184</ele>
        <time>2017-08-05T13:23:00Z</time>
      </trkpt>
      <trkpt lat="45.92373" lon="4.71114">
        <ele>184</ele>
        <time>2017-08-05T13:23:01Z</time>
      </trkpt>
      <trkpt lat="45.92366" lon="4.71109">
        <ele>184</ele>
        <time>2017-08-05T13:23:03Z</time>
      </trkpt>
      <trkpt lat="45.92362" lon="4.71108">
        <ele>184</ele>
        <time>2017-08-05T13:23:04Z</time>
      </trkpt>
      <trkpt lat="45.92354" lon="4.71104">
        <ele>184</ele>
        <time>2017-08-05T13:23:06Z</time>
      </trkpt>
      <trkpt lat="45.92351" lon="4.71102">
        <ele>184</ele>
        <time>2017-08-05T13:23:07Z</time>
      </trkpt>
      <trkpt lat="45.92344" lon="4.71099">
        <ele>184</ele>
        <time>2017-08-05T13:23:09Z</time>
      </trkpt>
      <trkpt lat="45.92341" lon="4.71097">
        <ele>184</ele>
        <time>2017-08-05T13:23:10Z</time>
      </trkpt>
      <trkpt lat="45.92333" lon="4.71093">
        <ele>183</ele>
        <time>2017-08-05T13:23:12Z</time>
      </trkpt>
      <trkpt lat="45.92328" lon="4.71091">
        <ele>183</ele>
        <time>2017-08-05T13:23:13Z</time>
      </trkpt>
      <trkpt lat="45.9232" lon="4.71086">
        <ele>183</ele>
        <time>2017-08-05T13:23:15Z</time>
      </trkpt>
      <trkpt lat="45.92316" lon="4.71084">
        <ele>182</ele>
        <time>2017-08-05T13:23:16Z</time>
      </trkpt>
      <trkpt lat="45.92312" lon="4.71082">
        <ele>184</ele>
        <time>2017-08-05T13:23:17Z</time>
      </trkpt>
      <trkpt lat="45.92307" lon="4.71079">
        <ele>184</ele>
        <time>2017-08-05T13:23:18Z</time>
      </trkpt>
      <trkpt lat="45.92303" lon="4.71077">
        <ele>184</ele>
        <time>2017-08-05T13:23:19Z</time>
      </trkpt>
      <trkpt lat="45.92298" lon="4.71074">
        <ele>183</ele>
        <time>2017-08-05T13:23:20Z</time>
      </trkpt>
      <trkpt lat="45.92293" lon="4.71072">
        <ele>183</ele>
        <time>2017-08-05T13:23:21Z</time>
      </trkpt>
      <trkpt lat="45.92288" lon="4.71069">
        <ele>183</ele>
        <time>2017-08-05T13:23:22Z</time>
      </trkpt>
      <trkpt lat="45.92284" lon="4.71066">
        <ele>183</ele>
        <time>2017-08-05T13:23:23Z</time>
      </trkpt>
      <trkpt lat="45.9228" lon="4.71064">
        <ele>183</ele>
        <time>2017-08-05T13:23:24Z</time>
      </trkpt>
      <trkpt lat="45.92272" lon="4.7106">
        <ele>183</ele>
        <time>2017-08-05T13:23:26Z</time>
      </trkpt>
      <trkpt lat="45.92268" lon="4.71058">
        <ele>183</ele>
        <time>2017-08-05T13:23:27Z</time>
      </trkpt>
      <trkpt lat="45.92259" lon="4.71054">
        <ele>183</ele>
        <time>2017-08-05T13:23:29Z</time>
      </trkpt>
      <trkpt lat="45.92255" lon="4.71052">
        <ele>183</ele>
        <time>2017-08-05T13:23:30Z</time>
      </trkpt>
      <trkpt lat="45.92248" lon="4.71048">
        <ele>182</ele>
        <time>2017-08-05T13:23:32Z</time>
      </trkpt>
      <trkpt lat="45.92244" lon="4.71046">
        <ele>182</ele>
        <time>2017-08-05T13:23:33Z</time>
      </trkpt>
      <trkpt lat="45.92238" lon="4.71043">
        <ele>182</ele>
        <time>2017-08-05T13:23:35Z</time>
      </trkpt>
      <trkpt lat="45.92234" lon="4.71041">
        <ele>182</ele>
        <time>2017-08-05T13:23:36Z</time>
      </trkpt>
      <trkpt lat="45.92226" lon="4.71036">
        <ele>182</ele>
        <time>2017-08-05T13:23:38Z</time>
      </trkpt>
      <trkpt lat="45.92222" lon="4.71035">
        <ele>182</ele>
        <time>2017-08-05T13:23:39Z</time>
      </trkpt>
      <trkpt lat="45.92214" lon="4.71031">
        <ele>182</ele>
        <time>2017-08-05T13:23:41Z</time>
      </trkpt>
      <trkpt lat="45.9221" lon="4.71029">
        <ele>182</ele>
        <time>2017-08-05T13:23:42Z</time>
      </trkpt>
      <trkpt lat="45.92204" lon="4.71027">
        <ele>182</ele>
        <time>2017-08-05T13:23:44Z</time>
      </trkpt>
      <trkpt lat="45.92201" lon="4.71025">
        <ele>181</ele>
        <time>2017-08-05T13:23:45Z</time>
      </trkpt>
      <trkpt lat="45.92193" lon="4.71022">
        <ele>181</ele>
        <time>2017-08-05T13:23:47Z</time>
      </trkpt>
      <trkpt lat="45.92189" lon="4.71021">
        <ele>181</ele>
        <time>2017-08-05T13:23:48Z</time>
      </trkpt>
      <trkpt lat="45.92184" lon="4.7102">
        <ele>181</ele>
        <time>2017-08-05T13:23:49Z</time>
      </trkpt>
      <trkpt lat="45.92179" lon="4.71019">
        <ele>181</ele>
        <time>2017-08-05T13:23:50Z</time>
      </trkpt>
      <trkpt lat="45.92171" lon="4.71017">
        <ele>181</ele>
        <time>2017-08-05T13:23:52Z</time>
      </trkpt>
      <trkpt lat="45.92167" lon="4.71016">
        <ele>181</ele>
        <time>2017-08-05T13:23:53Z</time>
      </trkpt>
      <trkpt lat="45.9216" lon="4.71018">
        <ele>181</ele>
        <time>2017-08-05T13:23:55Z</time>
      </trkpt>
      <trkpt lat="45.92157" lon="4.71022">
        <ele>181</ele>
        <time>2017-08-05T13:23:56Z</time>
      </trkpt>
      <trkpt lat="45.92153" lon="4.71034">
        <ele>181</ele>
        <time>2017-08-05T13:23:58Z</time>
      </trkpt>
      <trkpt lat="45.92152" lon="4.71039">
        <ele>181</ele>
        <time>2017-08-05T13:23:59Z</time>
      </trkpt>
      <trkpt lat="45.92149" lon="4.71052">
        <ele>181</ele>
        <time>2017-08-05T13:24:01Z</time>
      </trkpt>
      <trkpt lat="45.92147" lon="4.71058">
        <ele>181</ele>
        <time>2017-08-05T13:24:02Z</time>
      </trkpt>
      <trkpt lat="45.92145" lon="4.7107">
        <ele>181</ele>
        <time>2017-08-05T13:24:04Z</time>
      </trkpt>
      <trkpt lat="45.92144" lon="4.71076">
        <ele>181</ele>
        <time>2017-08-05T13:24:05Z</time>
      </trkpt>
      <trkpt lat="45.92141" lon="4.71087">
        <ele>179</ele>
        <time>2017-08-05T13:24:07Z</time>
      </trkpt>
      <trkpt lat="45.92139" lon="4.71094">
        <ele>179</ele>
        <time>2017-08-05T13:24:08Z</time>
      </trkpt>
      <trkpt lat="45.92136" lon="4.71105">
        <ele>179</ele>
        <time>2017-08-05T13:24:10Z</time>
      </trkpt>
      <trkpt lat="45.92136" lon="4.71112">
        <ele>179</ele>
        <time>2017-08-05T13:24:11Z</time>
      </trkpt>
      <trkpt lat="45.92135" lon="4.71121">
        <ele>179</ele>
        <time>2017-08-05T13:24:12Z</time>
      </trkpt>
      <trkpt lat="45.92135" lon="4.71129">
        <ele>178</ele>
        <time>2017-08-05T13:24:13Z</time>
      </trkpt>
      <trkpt lat="45.92133" lon="4.71137">
        <ele>178</ele>
        <time>2017-08-05T13:24:14Z</time>
      </trkpt>
      <trkpt lat="45.92132" lon="4.71145">
        <ele>178</ele>
        <time>2017-08-05T13:24:15Z</time>
      </trkpt>
      <trkpt lat="45.92132" lon="4.71152">
        <ele>178</ele>
        <time>2017-08-05T13:24:16Z</time>
      </trkpt>
      <trkpt lat="45.92131" lon="4.71161">
        <ele>178</ele>
        <time>2017-08-05T13:24:17Z</time>
      </trkpt>
      <trkpt lat="45.92131" lon="4.71171">
        <ele>176</ele>
        <time>2017-08-05T13:24:18Z</time>
      </trkpt>
      <trkpt lat="45.9213" lon="4.71179">
        <ele>176</ele>
        <time>2017-08-05T13:24:19Z</time>
      </trkpt>
      <trkpt lat="45.92129" lon="4.71188">
        <ele>176</ele>
        <time>2017-08-05T13:24:20Z</time>
      </trkpt>
      <trkpt lat="45.92128" lon="4.71196">
        <ele>175</ele>
        <time>2017-08-05T13:24:21Z</time>
      </trkpt>
      <trkpt lat="45.92127" lon="4.71204">
        <ele>175</ele>
        <time>2017-08-05T13:24:22Z</time>
      </trkpt>
      <trkpt lat="45.92127" lon="4.71212">
        <ele>175</ele>
        <time>2017-08-05T13:24:23Z</time>
      </trkpt>
      <trkpt lat="45.92126" lon="4.71221">
        <ele>175</ele>
        <time>2017-08-05T13:24:24Z</time>
      </trkpt>
      <trkpt lat="45.92125" lon="4.71229">
        <ele>175</ele>
        <time>2017-08-05T13:24:25Z</time>
      </trkpt>
      <trkpt lat="45.92124" lon="4.71239">
        <ele>175</ele>
        <time>2017-08-05T13:24:26Z</time>
      </trkpt>
      <trkpt lat="45.92124" lon="4.71248">
        <ele>175</ele>
        <time>2017-08-05T13:24:27Z</time>
      </trkpt>
      <trkpt lat="45.92122" lon="4.71257">
        <ele>174</ele>
        <time>2017-08-05T13:24:28Z</time>
      </trkpt>
      <trkpt lat="45.92122" lon="4.71267">
        <ele>174</ele>
        <time>2017-08-05T13:24:29Z</time>
      </trkpt>
      <trkpt lat="45.92121" lon="4.71276">
        <ele>174</ele>
        <time>2017-08-05T13:24:30Z</time>
      </trkpt>
      <trkpt lat="45.9212" lon="4.71287">
        <ele>174</ele>
        <time>2017-08-05T13:24:31Z</time>
      </trkpt>
      <trkpt lat="45.9212" lon="4.71297">
        <ele>174</ele>
        <time>2017-08-05T13:24:32Z</time>
      </trkpt>
      <trkpt lat="45.92119" lon="4.71307">
        <ele>174</ele>
        <time>2017-08-05T13:24:33Z</time>
      </trkpt>
      <trkpt lat="45.92118" lon="4.71316">
        <ele>174</ele>
        <time>2017-08-05T13:24:34Z</time>
      </trkpt>
      <trkpt lat="45.92117" lon="4.71325">
        <ele>174</ele>
        <time>2017-08-05T13:24:35Z</time>
      </trkpt>
      <trkpt lat="45.92116" lon="4.71334">
        <ele>173</ele>
        <time>2017-08-05T13:24:36Z</time>
      </trkpt>
      <trkpt lat="45.92115" lon="4.71342">
        <ele>173</ele>
        <time>2017-08-05T13:24:37Z</time>
      </trkpt>
      <trkpt lat="45.92114" lon="4.7135">
        <ele>173</ele>
        <time>2017-08-05T13:24:38Z</time>
      </trkpt>
      <trkpt lat="45.92114" lon="4.71359">
        <ele>173</ele>
        <time>2017-08-05T13:24:39Z</time>
      </trkpt>
      <trkpt lat="45.92113" lon="4.71367">
        <ele>173</ele>
        <time>2017-08-05T13:24:40Z</time>
      </trkpt>
      <trkpt lat="45.92112" lon="4.71375">
        <ele>173</ele>
        <time>2017-08-05T13:24:41Z</time>
      </trkpt>
      <trkpt lat="45.9211" lon="4.71383">
        <ele>173</ele>
        <time>2017-08-05T13:24:42Z</time>
      </trkpt>
      <trkpt lat="45.92109" lon="4.7139">
        <ele>173</ele>
        <time>2017-08-05T13:24:43Z</time>
      </trkpt>
      <trkpt lat="45.92108" lon="4.71398">
        <ele>173</ele>
        <time>2017-08-05T13:24:44Z</time>
      </trkpt>
      <trkpt lat="45.92108" lon="4.71405">
        <ele>174</ele>
        <time>2017-08-05T13:24:45Z</time>
      </trkpt>
      <trkpt lat="45.92107" lon="4.71413">
        <ele>174</ele>
        <time>2017-08-05T13:24:46Z</time>
      </trkpt>
      <trkpt lat="45.92106" lon="4.71422">
        <ele>174</ele>
        <time>2017-08-05T13:24:47Z</time>
      </trkpt>
      <trkpt lat="45.92105" lon="4.7143">
        <ele>174</ele>
        <time>2017-08-05T13:24:48Z</time>
      </trkpt>
      <trkpt lat="45.92103" lon="4.71439">
        <ele>174</ele>
        <time>2017-08-05T13:24:49Z</time>
      </trkpt>
      <trkpt lat="45.92102" lon="4.71447">
        <ele>174</ele>
        <time>2017-08-05T13:24:50Z</time>
      </trkpt>
      <trkpt lat="45.921" lon="4.71455">
        <ele>174</ele>
        <time>2017-08-05T13:24:51Z</time>
      </trkpt>
      <trkpt lat="45.92099" lon="4.71463">
        <ele>174</ele>
        <time>2017-08-05T13:24:52Z</time>
      </trkpt>
      <trkpt lat="45.92097" lon="4.71471">
        <ele>174</ele>
        <time>2017-08-05T13:24:53Z</time>
      </trkpt>
      <trkpt lat="45.92096" lon="4.71479">
        <ele>174</ele>
        <time>2017-08-05T13:24:54Z</time>
      </trkpt>
      <trkpt lat="45.92095" lon="4.7149">
        <ele>174</ele>
        <time>2017-08-05T13:24:55Z</time>
      </trkpt>
      <trkpt lat="45.92092" lon="4.71501">
        <ele>174</ele>
        <time>2017-08-05T13:24:56Z</time>
      </trkpt>
      <trkpt lat="45.92089" lon="4.71511">
        <ele>174</ele>
        <time>2017-08-05T13:24:57Z</time>
      </trkpt>
      <trkpt lat="45.92088" lon="4.71519">
        <ele>174</ele>
        <time>2017-08-05T13:24:58Z</time>
      </trkpt>
      <trkpt lat="45.92087" lon="4.71527">
        <ele>174</ele>
        <time>2017-08-05T13:24:59Z</time>
      </trkpt>
      <trkpt lat="45.92085" lon="4.71534">
        <ele>173</ele>
        <time>2017-08-05T13:25:00Z</time>
      </trkpt>
      <trkpt lat="45.92085" lon="4.71541">
        <ele>173</ele>
        <time>2017-08-05T13:25:01Z</time>
      </trkpt>
      <trkpt lat="45.92084" lon="4.71548">
        <ele>173</ele>
        <time>2017-08-05T13:25:02Z</time>
      </trkpt>
      <trkpt lat="45.92083" lon="4.71555">
        <ele>173</ele>
        <time>2017-08-05T13:25:03Z</time>
      </trkpt>
      <trkpt lat="45.92082" lon="4.71562">
        <ele>173</ele>
        <time>2017-08-05T13:25:04Z</time>
      </trkpt>
      <trkpt lat="45.92081" lon="4.71569">
        <ele>173</ele>
        <time>2017-08-05T13:25:05Z</time>
      </trkpt>
      <trkpt lat="45.9208" lon="4.71575">
        <ele>173</ele>
        <time>2017-08-05T13:25:06Z</time>
      </trkpt>
      <trkpt lat="45.92079" lon="4.71581">
        <ele>172</ele>
        <time>2017-08-05T13:25:07Z</time>
      </trkpt>
      <trkpt lat="45.92078" lon="4.71587">
        <ele>172</ele>
        <time>2017-08-05T13:25:08Z</time>
      </trkpt>
      <trkpt lat="45.92077" lon="4.71594">
        <ele>172</ele>
        <time>2017-08-05T13:25:09Z</time>
      </trkpt>
      <trkpt lat="45.92076" lon="4.71601">
        <ele>172</ele>
        <time>2017-08-05T13:25:10Z</time>
      </trkpt>
      <trkpt lat="45.92075" lon="4.71607">
        <ele>172</ele>
        <time>2017-08-05T13:25:11Z</time>
      </trkpt>
      <trkpt lat="45.92071" lon="4.71617">
        <ele>173</ele>
        <time>2017-08-05T13:25:13Z</time>
      </trkpt>
      <trkpt lat="45.92068" lon="4.71622">
        <ele>173</ele>
        <time>2017-08-05T13:25:14Z</time>
      </trkpt>
      <trkpt lat="45.92067" lon="4.71629">
        <ele>173</ele>
        <time>2017-08-05T13:25:15Z</time>
      </trkpt>
      <trkpt lat="45.92067" lon="4.71639">
        <ele>172</ele>
        <time>2017-08-05T13:25:16Z</time>
      </trkpt>
      <trkpt lat="45.92066" lon="4.71646">
        <ele>172</ele>
        <time>2017-08-05T13:25:17Z</time>
      </trkpt>
      <trkpt lat="45.92064" lon="4.71652">
        <ele>172</ele>
        <time>2017-08-05T13:25:18Z</time>
      </trkpt>
      <trkpt lat="45.92063" lon="4.7166">
        <ele>172</ele>
        <time>2017-08-05T13:25:19Z</time>
      </trkpt>
      <trkpt lat="45.92062" lon="4.71667">
        <ele>172</ele>
        <time>2017-08-05T13:25:20Z</time>
      </trkpt>
      <trkpt lat="45.92061" lon="4.71673">
        <ele>173</ele>
        <time>2017-08-05T13:25:21Z</time>
      </trkpt>
      <trkpt lat="45.9206" lon="4.71679">
        <ele>173</ele>
        <time>2017-08-05T13:25:22Z</time>
      </trkpt>
      <trkpt lat="45.9206" lon="4.71686">
        <ele>173</ele>
        <time>2017-08-05T13:25:23Z</time>
      </trkpt>
      <trkpt lat="45.92059" lon="4.71692">
        <ele>173</ele>
        <time>2017-08-05T13:25:24Z</time>
      </trkpt>
      <trkpt lat="45.92057" lon="4.71703">
        <ele>173</ele>
        <time>2017-08-05T13:25:26Z</time>
      </trkpt>
      <trkpt lat="45.92057" lon="4.71709">
        <ele>173</ele>
        <time>2017-08-05T13:25:27Z</time>
      </trkpt>
      <trkpt lat="45.92055" lon="4.71722">
        <ele>173</ele>
        <time>2017-08-05T13:25:29Z</time>
      </trkpt>
      <trkpt lat="45.92054" lon="4.7173">
        <ele>173</ele>
        <time>2017-08-05T13:25:30Z</time>
      </trkpt>
      <trkpt lat="45.92053" lon="4.71738">
        <ele>173</ele>
        <time>2017-08-05T13:25:31Z</time>
      </trkpt>
      <trkpt lat="45.92053" lon="4.71745">
        <ele>173</ele>
        <time>2017-08-05T13:25:32Z</time>
      </trkpt>
      <trkpt lat="45.9205" lon="4.71756">
        <ele>173</ele>
        <time>2017-08-05T13:25:34Z</time>
      </trkpt>
      <trkpt lat="45.92049" lon="4.71762">
        <ele>173</ele>
        <time>2017-08-05T13:25:35Z</time>
      </trkpt>
      <trkpt lat="45.92048" lon="4.71772">
        <ele>173</ele>
        <time>2017-08-05T13:25:37Z</time>
      </trkpt>
      <trkpt lat="45.92047" lon="4.71777">
        <ele>173</ele>
        <time>2017-08-05T13:25:38Z</time>
      </trkpt>
      <trkpt lat="45.92045" lon="4.71786">
        <ele>173</ele>
        <time>2017-08-05T13:25:40Z</time>
      </trkpt>
      <trkpt lat="45.92043" lon="4.71789">
        <ele>173</ele>
        <time>2017-08-05T13:25:41Z</time>
      </trkpt>
      <trkpt lat="45.92038" lon="4.71793">
        <ele>173</ele>
        <time>2017-08-05T13:25:43Z</time>
      </trkpt>
      <trkpt lat="45.92034" lon="4.71794">
        <ele>173</ele>
        <time>2017-08-05T13:25:44Z</time>
      </trkpt>
      <trkpt lat="45.92028" lon="4.71792">
        <ele>173</ele>
        <time>2017-08-05T13:25:46Z</time>
      </trkpt>
      <trkpt lat="45.92024" lon="4.71791">
        <ele>173</ele>
        <time>2017-08-05T13:25:47Z</time>
      </trkpt>
      <trkpt lat="45.92015" lon="4.71791">
        <ele>173</ele>
        <time>2017-08-05T13:25:49Z</time>
      </trkpt>
      <trkpt lat="45.92011" lon="4.71792">
        <ele>173</ele>
        <time>2017-08-05T13:25:50Z</time>
      </trkpt>
      <trkpt lat="45.92005" lon="4.71793">
        <ele>173</ele>
        <time>2017-08-05T13:25:52Z</time>
      </trkpt>
      <trkpt lat="45.92001" lon="4.71792">
        <ele>173</ele>
        <time>2017-08-05T13:25:53Z</time>
      </trkpt>
      <trkpt lat="45.91993" lon="4.71792">
        <ele>173</ele>
        <time>2017-08-05T13:25:55Z</time>
      </trkpt>
      <trkpt lat="45.91989" lon="4.71792">
        <ele>173</ele>
        <time>2017-08-05T13:25:56Z</time>
      </trkpt>
      <trkpt lat="45.91984" lon="4.71791">
        <ele>173</ele>
        <time>2017-08-05T13:25:57Z</time>
      </trkpt>
      <trkpt lat="45.91979" lon="4.7179">
        <ele>173</ele>
        <time>2017-08-05T13:25:58Z</time>
      </trkpt>
      <trkpt lat="45.91974" lon="4.71789">
        <ele>173</ele>
        <time>2017-08-05T13:25:59Z</time>
      </trkpt>
      <trkpt lat="45.9197" lon="4.71787">
        <ele>173</ele>
        <time>2017-08-05T13:26:00Z</time>
      </trkpt>
      <trkpt lat="45.91962" lon="4.71788">
        <ele>173</ele>
        <time>2017-08-05T13:26:02Z</time>
      </trkpt>
      <trkpt lat="45.91959" lon="4.71789">
        <ele>173</ele>
        <time>2017-08-05T13:26:03Z</time>
      </trkpt>
      <trkpt lat="45.91952" lon="4.71788">
        <ele>173</ele>
        <time>2017-08-05T13:26:05Z</time>
      </trkpt>
      <trkpt lat="45.91947" lon="4.71788">
        <ele>173</ele>
        <time>2017-08-05T13:26:06Z</time>
      </trkpt>
      <trkpt lat="45.91942" lon="4.71788">
        <ele>173</ele>
        <time>2017-08-05T13:26:07Z</time>
      </trkpt>
      <trkpt lat="45.91938" lon="4.71788">
        <ele>173</ele>
        <time>2017-08-05T13:26:08Z</time>
      </trkpt>
      <trkpt lat="45.9193" lon="4.71787">
        <ele>173</ele>
        <time>2017-08-05T13:26:10Z</time>
      </trkpt>
      <trkpt lat="45.91926" lon="4.71787">
        <ele>173</ele>
        <time>2017-08-05T13:26:11Z</time>
      </trkpt>
      <trkpt lat="45.91918" lon="4.71786">
        <ele>172</ele>
        <time>2017-08-05T13:26:13Z</time>
      </trkpt>
      <trkpt lat="45.91914" lon="4.71786">
        <ele>172</ele>
        <time>2017-08-05T13:26:14Z</time>
      </trkpt>
      <trkpt lat="45.91907" lon="4.71784">
        <ele>172</ele>
        <time>2017-08-05T13:26:16Z</time>
      </trkpt>
      <trkpt lat="45.91902" lon="4.71783">
        <ele>172</ele>
        <time>2017-08-05T13:26:17Z</time>
      </trkpt>
      <trkpt lat="45.91894" lon="4.71781">
        <ele>172</ele>
        <time>2017-08-05T13:26:19Z</time>
      </trkpt>
      <trkpt lat="45.9189" lon="4.7178">
        <ele>172</ele>
        <time>2017-08-05T13:26:20Z</time>
      </trkpt>
      <trkpt lat="45.91882" lon="4.7178">
        <ele>172</ele>
        <time>2017-08-05T13:26:22Z</time>
      </trkpt>
      <trkpt lat="45.91877" lon="4.71779">
        <ele>172</ele>
        <time>2017-08-05T13:26:23Z</time>
      </trkpt>
      <trkpt lat="45.91873" lon="4.71779">
        <ele>172</ele>
        <time>2017-08-05T13:26:24Z</time>
      </trkpt>
      <trkpt lat="45.91868" lon="4.71778">
        <ele>172</ele>
        <time>2017-08-05T13:26:25Z</time>
      </trkpt>
      <trkpt lat="45.91859" lon="4.71779">
        <ele>172</ele>
        <time>2017-08-05T13:26:27Z</time>
      </trkpt>
      <trkpt lat="45.91855" lon="4.7178">
        <ele>172</ele>
        <time>2017-08-05T13:26:28Z</time>
      </trkpt>
      <trkpt lat="45.9185" lon="4.71781">
        <ele>172</ele>
        <time>2017-08-05T13:26:29Z</time>
      </trkpt>
      <trkpt lat="45.91846" lon="4.71781">
        <ele>172</ele>
        <time>2017-08-05T13:26:30Z</time>
      </trkpt>
      <trkpt lat="45.91838" lon="4.71781">
        <ele>172</ele>
        <time>2017-08-05T13:26:32Z</time>
      </trkpt>
      <trkpt lat="45.91835" lon="4.71782">
        <ele>172</ele>
        <time>2017-08-05T13:26:33Z</time>
      </trkpt>
      <trkpt lat="45.91826" lon="4.71783">
        <ele>172</ele>
        <time>2017-08-05T13:26:35Z</time>
      </trkpt>
      <trkpt lat="45.91822" lon="4.71784">
        <ele>172</ele>
        <time>2017-08-05T13:26:36Z</time>
      </trkpt>
      <trkpt lat="45.91815" lon="4.71785">
        <ele>172</ele>
        <time>2017-08-05T13:26:38Z</time>
      </trkpt>
      <trkpt lat="45.91811" lon="4.71785">
        <ele>172</ele>
        <time>2017-08-05T13:26:39Z</time>
      </trkpt>
      <trkpt lat="45.91802" lon="4.71785">
        <ele>172</ele>
        <time>2017-08-05T13:26:41Z</time>
      </trkpt>
      <trkpt lat="45.91798" lon="4.71785">
        <ele>172</ele>
        <time>2017-08-05T13:26:42Z</time>
      </trkpt>
      <trkpt lat="45.91793" lon="4.71785">
        <ele>172</ele>
        <time>2017-08-05T13:26:43Z</time>
      </trkpt>
      <trkpt lat="45.91789" lon="4.71786">
        <ele>173</ele>
        <time>2017-08-05T13:26:44Z</time>
      </trkpt>
      <trkpt lat="45.91781" lon="4.71786">
        <ele>173</ele>
        <time>2017-08-05T13:26:46Z</time>
      </trkpt>
      <trkpt lat="45.91777" lon="4.71785">
        <ele>173</ele>
        <time>2017-08-05T13:26:47Z</time>
      </trkpt>
      <trkpt lat="45.91769" lon="4.71785">
        <ele>173</ele>
        <time>2017-08-05T13:26:49Z</time>
      </trkpt>
      <trkpt lat="45.91765" lon="4.71785">
        <ele>173</ele>
        <time>2017-08-05T13:26:50Z</time>
      </trkpt>
      <trkpt lat="45.9176" lon="4.71785">
        <ele>173</ele>
        <time>2017-08-05T13:26:51Z</time>
      </trkpt>
      <trkpt lat="45.91755" lon="4.71785">
        <ele>173</ele>
        <time>2017-08-05T13:26:52Z</time>
      </trkpt>
      <trkpt lat="45.9175" lon="4.71784">
        <ele>173</ele>
        <time>2017-08-05T13:26:53Z</time>
      </trkpt>
      <trkpt lat="45.91746" lon="4.71784">
        <ele>173</ele>
        <time>2017-08-05T13:26:54Z</time>
      </trkpt>
      <trkpt lat="45.91741" lon="4.71783">
        <ele>173</ele>
        <time>2017-08-05T13:26:55Z</time>
      </trkpt>
      <trkpt lat="45.91736" lon="4.71783">
        <ele>173</ele>
        <time>2017-08-05T13:26:56Z</time>
      </trkpt>
      <trkpt lat="45.91728" lon="4.71783">
        <ele>173</ele>
        <time>2017-08-05T13:26:58Z</time>
      </trkpt>
      <trkpt lat="45.91724" lon="4.71783">
        <ele>173</ele>
        <time>2017-08-05T13:26:59Z</time>
      </trkpt>
      <trkpt lat="45.91717" lon="4.71781">
        <ele>173</ele>
        <time>2017-08-05T13:27:01Z</time>
      </trkpt>
      <trkpt lat="45.91712" lon="4.7178">
        <ele>173</ele>
        <time>2017-08-05T13:27:02Z</time>
      </trkpt>
      <trkpt lat="45.91707" lon="4.7178">
        <ele>173</ele>
        <time>2017-08-05T13:27:03Z</time>
      </trkpt>
      <trkpt lat="45.91702" lon="4.7178">
        <ele>173</ele>
        <time>2017-08-05T13:27:04Z</time>
      </trkpt>
      <trkpt lat="45.91697" lon="4.71779">
        <ele>173</ele>
        <time>2017-08-05T13:27:05Z</time>
      </trkpt>
      <trkpt lat="45.91693" lon="4.71779">
        <ele>173</ele>
        <time>2017-08-05T13:27:06Z</time>
      </trkpt>
      <trkpt lat="45.91688" lon="4.71778">
        <ele>173</ele>
        <time>2017-08-05T13:27:07Z</time>
      </trkpt>
      <trkpt lat="45.91684" lon="4.71778">
        <ele>173</ele>
        <time>2017-08-05T13:27:08Z</time>
      </trkpt>
      <trkpt lat="45.91675" lon="4.71777">
        <ele>173</ele>
        <time>2017-08-05T13:27:10Z</time>
      </trkpt>
      <trkpt lat="45.91671" lon="4.71777">
        <ele>173</ele>
        <time>2017-08-05T13:27:11Z</time>
      </trkpt>
      <trkpt lat="45.91666" lon="4.71776">
        <ele>174</ele>
        <time>2017-08-05T13:27:12Z</time>
      </trkpt>
      <trkpt lat="45.91662" lon="4.71774">
        <ele>173</ele>
        <time>2017-08-05T13:27:13Z</time>
      </trkpt>
      <trkpt lat="45.91654" lon="4.7177">
        <ele>173</ele>
        <time>2017-08-05T13:27:15Z</time>
      </trkpt>
      <trkpt lat="45.9165" lon="4.71767">
        <ele>173</ele>
        <time>2017-08-05T13:27:16Z</time>
      </trkpt>
      <trkpt lat="45.91644" lon="4.7176">
        <ele>174</ele>
        <time>2017-08-05T13:27:18Z</time>
      </trkpt>
      <trkpt lat="45.91641" lon="4.71757">
        <ele>174</ele>
        <time>2017-08-05T13:27:19Z</time>
      </trkpt>
      <trkpt lat="45.91635" lon="4.71747">
        <ele>173</ele>
        <time>2017-08-05T13:27:21Z</time>
      </trkpt>
      <trkpt lat="45.91634" lon="4.71742">
        <ele>173</ele>
        <time>2017-08-05T13:27:22Z</time>
      </trkpt>
      <trkpt lat="45.91629" lon="4.71732">
        <ele>173</ele>
        <time>2017-08-05T13:27:24Z</time>
      </trkpt>
      <trkpt lat="45.91626" lon="4.71728">
        <ele>173</ele>
        <time>2017-08-05T13:27:25Z</time>
      </trkpt>
      <trkpt lat="45.9162" lon="4.71724">
        <ele>173</ele>
        <time>2017-08-05T13:27:27Z</time>
      </trkpt>
      <trkpt lat="45.91615" lon="4.71723">
        <ele>173</ele>
        <time>2017-08-05T13:27:28Z</time>
      </trkpt>
      <trkpt lat="45.9161" lon="4.71724">
        <ele>173</ele>
        <time>2017-08-05T13:27:29Z</time>
      </trkpt>
      <trkpt lat="45.91606" lon="4.71725">
        <ele>173</ele>
        <time>2017-08-05T13:27:30Z</time>
      </trkpt>
      <trkpt lat="45.91598" lon="4.71728">
        <ele>173</ele>
        <time>2017-08-05T13:27:32Z</time>
      </trkpt>
      <trkpt lat="45.91594" lon="4.7173">
        <ele>173</ele>
        <time>2017-08-05T13:27:33Z</time>
      </trkpt>
      <trkpt lat="45.91587" lon="4.71736">
        <ele>173</ele>
        <time>2017-08-05T13:27:35Z</time>
      </trkpt>
      <trkpt lat="45.91584" lon="4.71739">
        <ele>174</ele>
        <time>2017-08-05T13:27:36Z</time>
      </trkpt>
      <trkpt lat="45.91577" lon="4.71745">
        <ele>174</ele>
        <time>2017-08-05T13:27:38Z</time>
      </trkpt>
      <trkpt lat="45.91573" lon="4.71749">
        <ele>174</ele>
        <time>2017-08-05T13:27:39Z</time>
      </trkpt>
      <trkpt lat="45.91566" lon="4.71755">
        <ele>174</ele>
        <time>2017-08-05T13:27:41Z</time>
      </trkpt>
      <trkpt lat="45.91563" lon="4.71758">
        <ele>174</ele>
        <time>2017-08-05T13:27:42Z</time>
      </trkpt>
      <trkpt lat="45.91558" lon="4.71765">
        <ele>174</ele>
        <time>2017-08-05T13:27:44Z</time>
      </trkpt>
      <trkpt lat="45.91555" lon="4.71768">
        <ele>174</ele>
        <time>2017-08-05T13:27:45Z</time>
      </trkpt>
      <trkpt lat="45.9155" lon="4.71776">
        <ele>174</ele>
        <time>2017-08-05T13:27:47Z</time>
      </trkpt>
      <trkpt lat="45.91547" lon="4.7178">
        <ele>174</ele>
        <time>2017-08-05T13:27:48Z</time>
      </trkpt>
      <trkpt lat="45.91542" lon="4.71788">
        <ele>174</ele>
        <time>2017-08-05T13:27:50Z</time>
      </trkpt>
      <trkpt lat="45.9154" lon="4.71793">
        <ele>174</ele>
        <time>2017-08-05T13:27:51Z</time>
      </trkpt>
      <trkpt lat="45.91536" lon="4.71803">
        <ele>174</ele>
        <time>2017-08-05T13:27:53Z</time>
      </trkpt>
      <trkpt lat="45.91533" lon="4.71808">
        <ele>174</ele>
        <time>2017-08-05T13:27:54Z</time>
      </trkpt>
      <trkpt lat="45.91529" lon="4.71818">
        <ele>174</ele>
        <time>2017-08-05T13:27:56Z</time>
      </trkpt>
      <trkpt lat="45.91527" lon="4.71823">
        <ele>174</ele>
        <time>2017-08-05T13:27:57Z</time>
      </trkpt>
      <trkpt lat="45.91523" lon="4.71832">
        <ele>174</ele>
        <time>2017-08-05T13:27:59Z</time>
      </trkpt>
      <trkpt lat="45.91521" lon="4.71837">
        <ele>174</ele>
        <time>2017-08-05T13:28:00Z</time>
      </trkpt>
      <trkpt lat="45.91518" lon="4.71846">
        <ele>174</ele>
        <time>2017-08-05T13:28:02Z</time>
      </trkpt>
      <trkpt lat="45.91515" lon="4.7185">
        <ele>174</ele>
        <time>2017-08-05T13:28:03Z</time>
      </trkpt>
      <trkpt lat="45.9151" lon="4.71859">
        <ele>174</ele>
        <time>2017-08-05T13:28:05Z</time>
      </trkpt>
      <trkpt lat="45.91508" lon="4.71863">
        <ele>174</ele>
        <time>2017-08-05T13:28:06Z</time>
      </trkpt>
      <trkpt lat="45.91502" lon="4.7187">
        <ele>174</ele>
        <time>2017-08-05T13:28:08Z</time>
      </trkpt>
      <trkpt lat="45.91499" lon="4.71873">
        <ele>173</ele>
        <time>2017-08-05T13:28:09Z</time>
      </trkpt>
      <trkpt lat="45.91495" lon="4.71879">
        <ele>173</ele>
        <time>2017-08-05T13:28:11Z</time>
      </trkpt>
      <trkpt lat="45.91491" lon="4.71882">
        <ele>173</ele>
        <time>2017-08-05T13:28:12Z</time>
      </trkpt>
      <trkpt lat="45.91484" lon="4.71886">
        <ele>173</ele>
        <time>2017-08-05T13:28:14Z</time>
      </trkpt>
      <trkpt lat="45.9148" lon="4.71889">
        <ele>173</ele>
        <time>2017-08-05T13:28:15Z</time>
      </trkpt>
      <trkpt lat="45.91472" lon="4.71894">
        <ele>173</ele>
        <time>2017-08-05T13:28:17Z</time>
      </trkpt>
      <trkpt lat="45.91468" lon="4.71897">
        <ele>173</ele>
        <time>2017-08-05T13:28:18Z</time>
      </trkpt>
      <trkpt lat="45.91461" lon="4.71901">
        <ele>173</ele>
        <time>2017-08-05T13:28:20Z</time>
      </trkpt>
      <trkpt lat="45.91457" lon="4.71904">
        <ele>173</ele>
        <time>2017-08-05T13:28:21Z</time>
      </trkpt>
      <trkpt lat="45.91451" lon="4.7191">
        <ele>173</ele>
        <time>2017-08-05T13:28:23Z</time>
      </trkpt>
      <trkpt lat="45.91448" lon="4.71913">
        <ele>173</ele>
        <time>2017-08-05T13:28:24Z</time>
      </trkpt>
      <trkpt lat="45.91443" lon="4.71917">
        <ele>173</ele>
        <time>2017-08-05T13:28:26Z</time>
      </trkpt>
      <trkpt lat="45.9144" lon="4.71919">
        <ele>173</ele>
        <time>2017-08-05T13:28:27Z</time>
      </trkpt>
      <trkpt lat="45.91434" lon="4.71924">
        <ele>173</ele>
        <time>2017-08-05T13:28:29Z</time>
      </trkpt>
      <trkpt lat="45.91431" lon="4.71926">
        <ele>173</ele>
        <time>2017-08-05T13:28:30Z</time>
      </trkpt>
      <trkpt lat="45.91425" lon="4.71929">
        <ele>173</ele>
        <time>2017-08-05T13:28:32Z</time>
      </trkpt>
      <trkpt lat="45.91423" lon="4.71935">
        <ele>173</ele>
        <time>2017-08-05T13:28:33Z</time>
      </trkpt>
      <trkpt lat="45.91419" lon="4.71939">
        <ele>173</ele>
        <time>2017-08-05T13:28:34Z</time>
      </trkpt>
      <trkpt lat="45.91415" lon="4.71942">
        <ele>173</ele>
        <time>2017-08-05T13:28:35Z</time>
      </trkpt>
      <trkpt lat="45.91407" lon="4.71948">
        <ele>173</ele>
        <time>2017-08-05T13:28:37Z</time>
      </trkpt>
      <trkpt lat="45.91404" lon="4.71952">
        <ele>173</ele>
        <time>2017-08-05T13:28:38Z</time>
      </trkpt>
      <trkpt lat="45.91397" lon="4.71957">
        <ele>173</ele>
        <time>2017-08-05T13:28:40Z</time>
      </trkpt>
      <trkpt lat="45.91393" lon="4.7196">
        <ele>174</ele>
        <time>2017-08-05T13:28:41Z</time>
      </trkpt>
      <trkpt lat="45.91389" lon="4.71962">
        <ele>174</ele>
        <time>2017-08-05T13:28:42Z</time>
      </trkpt>
      <trkpt lat="45.91384" lon="4.71964">
        <ele>174</ele>
        <time>2017-08-05T13:28:43Z</time>
      </trkpt>
      <trkpt lat="45.91379" lon="4.71965">
        <ele>174</ele>
        <time>2017-08-05T13:28:44Z</time>
      </trkpt>
      <trkpt lat="45.91375" lon="4.71965">
        <ele>173</ele>
        <time>2017-08-05T13:28:45Z</time>
      </trkpt>
      <trkpt lat="45.91366" lon="4.71964">
        <ele>173</ele>
        <time>2017-08-05T13:28:47Z</time>
      </trkpt>
      <trkpt lat="45.91362" lon="4.71964">
        <ele>173</ele>
        <time>2017-08-05T13:28:48Z</time>
      </trkpt>
      <trkpt lat="45.91354" lon="4.71967">
        <ele>173</ele>
        <time>2017-08-05T13:28:50Z</time>
      </trkpt>
      <trkpt lat="45.91351" lon="4.71967">
        <ele>173</ele>
        <time>2017-08-05T13:28:51Z</time>
      </trkpt>
      <trkpt lat="45.91344" lon="4.71966">
        <ele>173</ele>
        <time>2017-08-05T13:28:53Z</time>
      </trkpt>
      <trkpt lat="45.9134" lon="4.71965">
        <ele>173</ele>
        <time>2017-08-05T13:28:54Z</time>
      </trkpt>
      <trkpt lat="45.91332" lon="4.71961">
        <ele>174</ele>
        <time>2017-08-05T13:28:56Z</time>
      </trkpt>
      <trkpt lat="45.91328" lon="4.71959">
        <ele>174</ele>
        <time>2017-08-05T13:28:57Z</time>
      </trkpt>
      <trkpt lat="45.91321" lon="4.71956">
        <ele>174</ele>
        <time>2017-08-05T13:28:59Z</time>
      </trkpt>
      <trkpt lat="45.91318" lon="4.71954">
        <ele>174</ele>
        <time>2017-08-05T13:29:00Z</time>
      </trkpt>
      <trkpt lat="45.91311" lon="4.71951">
        <ele>174</ele>
        <time>2017-08-05T13:29:02Z</time>
      </trkpt>
      <trkpt lat="45.91308" lon="4.71949">
        <ele>174</ele>
        <time>2017-08-05T13:29:03Z</time>
      </trkpt>
      <trkpt lat="45.91303" lon="4.71948">
        <ele>174</ele>
        <time>2017-08-05T13:29:04Z</time>
      </trkpt>
      <trkpt lat="45.91299" lon="4.71946">
        <ele>175</ele>
        <time>2017-08-05T13:29:05Z</time>
      </trkpt>
      <trkpt lat="45.91294" lon="4.71944">
        <ele>175</ele>
        <time>2017-08-05T13:29:06Z</time>
      </trkpt>
      <trkpt lat="45.9129" lon="4.71942">
        <ele>175</ele>
        <time>2017-08-05T13:29:07Z</time>
      </trkpt>
      <trkpt lat="45.91282" lon="4.71939">
        <ele>175</ele>
        <time>2017-08-05T13:29:09Z</time>
      </trkpt>
      <trkpt lat="45.91278" lon="4.71937">
        <ele>175</ele>
        <time>2017-08-05T13:29:10Z</time>
      </trkpt>
      <trkpt lat="45.91273" lon="4.71937">
        <ele>175</ele>
        <time>2017-08-05T13:29:11Z</time>
      </trkpt>
      <trkpt lat="45.91268" lon="4.71935">
        <ele>175</ele>
        <time>2017-08-05T13:29:12Z</time>
      </trkpt>
      <trkpt lat="45.91264" lon="4.71933">
        <ele>176</ele>
        <time>2017-08-05T13:29:13Z</time>
      </trkpt>
      <trkpt lat="45.91259" lon="4.71932">
        <ele>176</ele>
        <time>2017-08-05T13:29:14Z</time>
      </trkpt>
      <trkpt lat="45.91251" lon="4.71929">
        <ele>176</ele>
        <time>2017-08-05T13:29:16Z</time>
      </trkpt>
      <trkpt lat="45.91248" lon="4.71927">
        <ele>176</ele>
        <time>2017-08-05T13:29:17Z</time>
      </trkpt>
      <trkpt lat="45.9124" lon="4.71924">
        <ele>176</ele>
        <time>2017-08-05T13:29:19Z</time>
      </trkpt>
      <trkpt lat="45.91237" lon="4.71923">
        <ele>176</ele>
        <time>2017-08-05T13:29:20Z</time>
      </trkpt>
      <trkpt lat="45.91229" lon="4.71921">
        <ele>176</ele>
        <time>2017-08-05T13:29:22Z</time>
      </trkpt>
      <trkpt lat="45.91225" lon="4.7192">
        <ele>176</ele>
        <time>2017-08-05T13:29:23Z</time>
      </trkpt>
      <trkpt lat="45.91217" lon="4.71917">
        <ele>176</ele>
        <time>2017-08-05T13:29:25Z</time>
      </trkpt>
      <trkpt lat="45.91213" lon="4.71916">
        <ele>176</ele>
        <time>2017-08-05T13:29:26Z</time>
      </trkpt>
      <trkpt lat="45.91205" lon="4.71914">
        <ele>176</ele>
        <time>2017-08-05T13:29:28Z</time>
      </trkpt>
      <trkpt lat="45.91202" lon="4.71913">
        <ele>176</ele>
        <time>2017-08-05T13:29:29Z</time>
      </trkpt>
      <trkpt lat="45.91198" lon="4.71912">
        <ele>176</ele>
        <time>2017-08-05T13:29:30Z</time>
      </trkpt>
      <trkpt lat="45.91192" lon="4.71911">
        <ele>176</ele>
        <time>2017-08-05T13:29:31Z</time>
      </trkpt>
      <trkpt lat="45.91187" lon="4.7191">
        <ele>176</ele>
        <time>2017-08-05T13:29:32Z</time>
      </trkpt>
      <trkpt lat="45.91182" lon="4.7191">
        <ele>176</ele>
        <time>2017-08-05T13:29:33Z</time>
      </trkpt>
      <trkpt lat="45.91177" lon="4.7191">
        <ele>176</ele>
        <time>2017-08-05T13:29:34Z</time>
      </trkpt>
      <trkpt lat="45.91172" lon="4.71908">
        <ele>176</ele>
        <time>2017-08-05T13:29:35Z</time>
      </trkpt>
      <trkpt lat="45.91163" lon="4.71905">
        <ele>176</ele>
        <time>2017-08-05T13:29:37Z</time>
      </trkpt>
      <trkpt lat="45.91159" lon="4.71904">
        <ele>176</ele>
        <time>2017-08-05T13:29:38Z</time>
      </trkpt>
      <trkpt lat="45.91151" lon="4.71904">
        <ele>175</ele>
        <time>2017-08-05T13:29:40Z</time>
      </trkpt>
      <trkpt lat="45.91146" lon="4.71904">
        <ele>175</ele>
        <time>2017-08-05T13:29:41Z</time>
      </trkpt>
      <trkpt lat="45.91138" lon="4.71906">
        <ele>175</ele>
        <time>2017-08-05T13:29:43Z</time>
      </trkpt>
      <trkpt lat="45.91134" lon="4.71909">
        <ele>175</ele>
        <time>2017-08-05T13:29:44Z</time>
      </trkpt>
      <trkpt lat="45.91128" lon="4.71912">
        <ele>175</ele>
        <time>2017-08-05T13:29:45Z</time>
      </trkpt>
      <trkpt lat="45.91123" lon="4.71915">
        <ele>175</ele>
        <time>2017-08-05T13:29:46Z</time>
      </trkpt>
      <trkpt lat="45.91118" lon="4.71918">
        <ele>174</ele>
        <time>2017-08-05T13:29:47Z</time>
      </trkpt>
      <trkpt lat="45.91113" lon="4.71921">
        <ele>174</ele>
        <time>2017-08-05T13:29:48Z</time>
      </trkpt>
      <trkpt lat="45.91109" lon="4.71923">
        <ele>174</ele>
        <time>2017-08-05T13:29:49Z</time>
      </trkpt>
      <trkpt lat="45.91105" lon="4.71926">
        <ele>174</ele>
        <time>2017-08-05T13:29:50Z</time>
      </trkpt>
      <trkpt lat="45.91101" lon="4.71929">
        <ele>174</ele>
        <time>2017-08-05T13:29:51Z</time>
      </trkpt>
      <trkpt lat="45.91096" lon="4.71932">
        <ele>174</ele>
        <time>2017-08-05T13:29:52Z</time>
      </trkpt>
      <trkpt lat="45.91091" lon="4.71934">
        <ele>174</ele>
        <time>2017-08-05T13:29:53Z</time>
      </trkpt>
      <trkpt lat="45.91086" lon="4.71936">
        <ele>174</ele>
        <time>2017-08-05T13:29:54Z</time>
      </trkpt>
      <trkpt lat="45.9108" lon="4.71938">
        <ele>174</ele>
        <time>2017-08-05T13:29:55Z</time>
      </trkpt>
      <trkpt lat="45.91075" lon="4.7194">
        <ele>174</ele>
        <time>2017-08-05T13:29:56Z</time>
      </trkpt>
      <trkpt lat="45.9107" lon="4.71941">
        <ele>174</ele>
        <time>2017-08-05T13:29:57Z</time>
      </trkpt>
      <trkpt lat="45.91064" lon="4.71942">
        <ele>174</ele>
        <time>2017-08-05T13:29:58Z</time>
      </trkpt>
      <trkpt lat="45.91058" lon="4.71942">
        <ele>174</ele>
        <time>2017-08-05T13:29:59Z</time>
      </trkpt>
      <trkpt lat="45.91053" lon="4.71942">
        <ele>174</ele>
        <time>2017-08-05T13:30:00Z</time>
      </trkpt>
      <trkpt lat="45.91048" lon="4.71941">
        <ele>174</ele>
        <time>2017-08-05T13:30:01Z</time>
      </trkpt>
      <trkpt lat="45.91043" lon="4.71941">
        <ele>174</ele>
        <time>2017-08-05T13:30:02Z</time>
      </trkpt>
      <trkpt lat="45.91038" lon="4.71939">
        <ele>174</ele>
        <time>2017-08-05T13:30:03Z</time>
      </trkpt>
      <trkpt lat="45.91034" lon="4.71939">
        <ele>174</ele>
        <time>2017-08-05T13:30:04Z</time>
      </trkpt>
      <trkpt lat="45.91029" lon="4.71939">
        <ele>174</ele>
        <time>2017-08-05T13:30:05Z</time>
      </trkpt>
      <trkpt lat="45.91025" lon="4.71939">
        <ele>174</ele>
        <time>2017-08-05T13:30:06Z</time>
      </trkpt>
      <trkpt lat="45.91016" lon="4.71939">
        <ele>174</ele>
        <time>2017-08-05T13:30:08Z</time>
      </trkpt>
      <trkpt lat="45.91013" lon="4.71939">
        <ele>174</ele>
        <time>2017-08-05T13:30:09Z</time>
      </trkpt>
      <trkpt lat="45.91004" lon="4.71941">
        <ele>173</ele>
        <time>2017-08-05T13:30:11Z</time>
      </trkpt>
      <trkpt lat="45.90999" lon="4.71942">
        <ele>173</ele>
        <time>2017-08-05T13:30:12Z</time>
      </trkpt>
      <trkpt lat="45.90994" lon="4.71944">
        <ele>174</ele>
        <time>2017-08-05T13:30:13Z</time>
      </trkpt>
      <trkpt lat="45.9099" lon="4.71945">
        <ele>174</ele>
        <time>2017-08-05T13:30:14Z</time>
      </trkpt>
      <trkpt lat="45.90982" lon="4.71949">
        <ele>174</ele>
        <time>2017-08-05T13:30:16Z</time>
      </trkpt>
      <trkpt lat="45.90978" lon="4.71951">
        <ele>174</ele>
        <time>2017-08-05T13:30:17Z</time>
      </trkpt>
      <trkpt lat="45.90969" lon="4.71954">
        <ele>174</ele>
        <time>2017-08-05T13:30:19Z</time>
      </trkpt>
      <trkpt lat="45.90966" lon="4.71957">
        <ele>174</ele>
        <time>2017-08-05T13:30:20Z</time>
      </trkpt>
      <trkpt lat="45.90959" lon="4.71961">
        <ele>174</ele>
        <time>2017-08-05T13:30:22Z</time>
      </trkpt>
      <trkpt lat="45.90956" lon="4.71963">
        <ele>174</ele>
        <time>2017-08-05T13:30:23Z</time>
      </trkpt>
      <trkpt lat="45.90951" lon="4.71967">
        <ele>174</ele>
        <time>2017-08-05T13:30:25Z</time>
      </trkpt>
      <trkpt lat="45.90948" lon="4.7197">
        <ele>174</ele>
        <time>2017-08-05T13:30:26Z</time>
      </trkpt>
      <trkpt lat="45.90942" lon="4.71975">
        <ele>174</ele>
        <time>2017-08-05T13:30:28Z</time>
      </trkpt>
      <trkpt lat="45.90938" lon="4.71976">
        <ele>174</ele>
        <time>2017-08-05T13:30:29Z</time>
      </trkpt>
      <trkpt lat="45.90934" lon="4.71978">
        <ele>174</ele>
        <time>2017-08-05T13:30:30Z</time>
      </trkpt>
      <trkpt lat="45.90929" lon="4.7198">
        <ele>174</ele>
        <time>2017-08-05T13:30:31Z</time>
      </trkpt>
      <trkpt lat="45.90925" lon="4.71982">
        <ele>174</ele>
        <time>2017-08-05T13:30:32Z</time>
      </trkpt>
      <trkpt lat="45.9092" lon="4.71984">
        <ele>174</ele>
        <time>2017-08-05T13:30:33Z</time>
      </trkpt>
      <trkpt lat="45.90915" lon="4.71985">
        <ele>174</ele>
        <time>2017-08-05T13:30:34Z</time>
      </trkpt>
      <trkpt lat="45.9091" lon="4.71987">
        <ele>174</ele>
        <time>2017-08-05T13:30:35Z</time>
      </trkpt>
      <trkpt lat="45.90906" lon="4.71989">
        <ele>174</ele>
        <time>2017-08-05T13:30:36Z</time>
      </trkpt>
      <trkpt lat="45.90902" lon="4.71992">
        <ele>174</ele>
        <time>2017-08-05T13:30:37Z</time>
      </trkpt>
      <trkpt lat="45.90894" lon="4.71998">
        <ele>174</ele>
        <time>2017-08-05T13:30:39Z</time>
      </trkpt>
      <trkpt lat="45.9089" lon="4.72">
        <ele>174</ele>
        <time>2017-08-05T13:30:40Z</time>
      </trkpt>
      <trkpt lat="45.90882" lon="4.72005">
        <ele>174</ele>
        <time>2017-08-05T13:30:42Z</time>
      </trkpt>
      <trkpt lat="45.90878" lon="4.72007">
        <ele>174</ele>
        <time>2017-08-05T13:30:43Z</time>
      </trkpt>
      <trkpt lat="45.90874" lon="4.72009">
        <ele>174</ele>
        <time>2017-08-05T13:30:44Z</time>
      </trkpt>
      <trkpt lat="45.90869" lon="4.72011">
        <ele>174</ele>
        <time>2017-08-05T13:30:45Z</time>
      </trkpt>
      <trkpt lat="45.90865" lon="4.72014">
        <ele>174</ele>
        <time>2017-08-05T13:30:46Z</time>
      </trkpt>
      <trkpt lat="45.90861" lon="4.72016">
        <ele>174</ele>
        <time>2017-08-05T13:30:47Z</time>
      </trkpt>
      <trkpt lat="45.90852" lon="4.72018">
        <ele>174</ele>
        <time>2017-08-05T13:30:49Z</time>
      </trkpt>
      <trkpt lat="45.90848" lon="4.72019">
        <ele>174</ele>
        <time>2017-08-05T13:30:50Z</time>
      </trkpt>
      <trkpt lat="45.90841" lon="4.72025">
        <ele>174</ele>
        <time>2017-08-05T13:30:52Z</time>
      </trkpt>
      <trkpt lat="45.90836" lon="4.72028">
        <ele>174</ele>
        <time>2017-08-05T13:30:53Z</time>
      </trkpt>
      <trkpt lat="45.90832" lon="4.72034">
        <ele>175</ele>
        <time>2017-08-05T13:30:54Z</time>
      </trkpt>
      <trkpt lat="45.90828" lon="4.7204">
        <ele>175</ele>
        <time>2017-08-05T13:30:55Z</time>
      </trkpt>
      <trkpt lat="45.90824" lon="4.72046">
        <ele>175</ele>
        <time>2017-08-05T13:30:56Z</time>
      </trkpt>
      <trkpt lat="45.90821" lon="4.72054">
        <ele>175</ele>
        <time>2017-08-05T13:30:57Z</time>
      </trkpt>
      <trkpt lat="45.90815" lon="4.72059">
        <ele>175</ele>
        <time>2017-08-05T13:30:59Z</time>
      </trkpt>
      <trkpt lat="45.90813" lon="4.72063">
        <ele>174</ele>
        <time>2017-08-05T13:31:00Z</time>
      </trkpt>
      <trkpt lat="45.90807" lon="4.7207">
        <ele>174</ele>
        <time>2017-08-05T13:31:02Z</time>
      </trkpt>
      <trkpt lat="45.90804" lon="4.72072">
        <ele>174</ele>
        <time>2017-08-05T13:31:03Z</time>
      </trkpt>
      <trkpt lat="45.90795" lon="4.72074">
        <ele>174</ele>
        <time>2017-08-05T13:31:05Z</time>
      </trkpt>
      <trkpt lat="45.9079" lon="4.72075">
        <ele>174</ele>
        <time>2017-08-05T13:31:06Z</time>
      </trkpt>
      <trkpt lat="45.90785" lon="4.72076">
        <ele>174</ele>
        <time>2017-08-05T13:31:07Z</time>
      </trkpt>
      <trkpt lat="45.90781" lon="4.72078">
        <ele>174</ele>
        <time>2017-08-05T13:31:08Z</time>
      </trkpt>
      <trkpt lat="45.90776" lon="4.7208">
        <ele>174</ele>
        <time>2017-08-05T13:31:09Z</time>
      </trkpt>
      <trkpt lat="45.90772" lon="4.72082">
        <ele>174</ele>
        <time>2017-08-05T13:31:10Z</time>
      </trkpt>
      <trkpt lat="45.90767" lon="4.72084">
        <ele>174</ele>
        <time>2017-08-05T13:31:11Z</time>
      </trkpt>
      <trkpt lat="45.90763" lon="4.72086">
        <ele>174</ele>
        <time>2017-08-05T13:31:12Z</time>
      </trkpt>
      <trkpt lat="45.90754" lon="4.72087">
        <ele>174</ele>
        <time>2017-08-05T13:31:14Z</time>
      </trkpt>
      <trkpt lat="45.9075" lon="4.72087">
        <ele>174</ele>
        <time>2017-08-05T13:31:15Z</time>
      </trkpt>
      <trkpt lat="45.90742" lon="4.72091">
        <ele>174</ele>
        <time>2017-08-05T13:31:17Z</time>
      </trkpt>
      <trkpt lat="45.90737" lon="4.72093">
        <ele>174</ele>
        <time>2017-08-05T13:31:18Z</time>
      </trkpt>
      <trkpt lat="45.90733" lon="4.72096">
        <ele>174</ele>
        <time>2017-08-05T13:31:19Z</time>
      </trkpt>
      <trkpt lat="45.90728" lon="4.72098">
        <ele>174</ele>
        <time>2017-08-05T13:31:20Z</time>
      </trkpt>
      <trkpt lat="45.90719" lon="4.72102">
        <ele>174</ele>
        <time>2017-08-05T13:31:22Z</time>
      </trkpt>
      <trkpt lat="45.90715" lon="4.72105">
        <ele>174</ele>
        <time>2017-08-05T13:31:23Z</time>
      </trkpt>
      <trkpt lat="45.90711" lon="4.72108">
        <ele>174</ele>
        <time>2017-08-05T13:31:24Z</time>
      </trkpt>
      <trkpt lat="45.90706" lon="4.72111">
        <ele>174</ele>
        <time>2017-08-05T13:31:25Z</time>
      </trkpt>
      <trkpt lat="45.90701" lon="4.72113">
        <ele>174</ele>
        <time>2017-08-05T13:31:26Z</time>
      </trkpt>
      <trkpt lat="45.90696" lon="4.72116">
        <ele>174</ele>
        <time>2017-08-05T13:31:27Z</time>
      </trkpt>
      <trkpt lat="45.90688" lon="4.72119">
        <ele>174</ele>
        <time>2017-08-05T13:31:29Z</time>
      </trkpt>
      <trkpt lat="45.90684" lon="4.72121">
        <ele>174</ele>
        <time>2017-08-05T13:31:30Z</time>
      </trkpt>
      <trkpt lat="45.90676" lon="4.72122">
        <ele>174</ele>
        <time>2017-08-05T13:31:32Z</time>
      </trkpt>
      <trkpt lat="45.90672" lon="4.72123">
        <ele>174</ele>
        <time>2017-08-05T13:31:33Z</time>
      </trkpt>
      <trkpt lat="45.90665" lon="4.72126">
        <ele>175</ele>
        <time>2017-08-05T13:31:35Z</time>
      </trkpt>
      <trkpt lat="45.90661" lon="4.72128">
        <ele>175</ele>
        <time>2017-08-05T13:31:36Z</time>
      </trkpt>
      <trkpt lat="45.90657" lon="4.72129">
        <ele>175</ele>
        <time>2017-08-05T13:31:37Z</time>
      </trkpt>
      <trkpt lat="45.90652" lon="4.72131">
        <ele>175</ele>
        <time>2017-08-05T13:31:38Z</time>
      </trkpt>
      <trkpt lat="45.90647" lon="4.72132">
        <ele>175</ele>
        <time>2017-08-05T13:31:39Z</time>
      </trkpt>
      <trkpt lat="45.90643" lon="4.72134">
        <ele>175</ele>
        <time>2017-08-05T13:31:40Z</time>
      </trkpt>
      <trkpt lat="45.90635" lon="4.72137">
        <ele>175</ele>
        <time>2017-08-05T13:31:42Z</time>
      </trkpt>
      <trkpt lat="45.90631" lon="4.72138">
        <ele>175</ele>
        <time>2017-08-05T13:31:43Z</time>
      </trkpt>
      <trkpt lat="45.90623" lon="4.72141">
        <ele>175</ele>
        <time>2017-08-05T13:31:45Z</time>
      </trkpt>
      <trkpt lat="45.9062" lon="4.72145">
        <ele>175</ele>
        <time>2017-08-05T13:31:46Z</time>
      </trkpt>
      <trkpt lat="45.90616" lon="4.72149">
        <ele>176</ele>
        <time>2017-08-05T13:31:47Z</time>
      </trkpt>
      <trkpt lat="45.90612" lon="4.72153">
        <ele>176</ele>
        <time>2017-08-05T13:31:48Z</time>
      </trkpt>
      <trkpt lat="45.90605" lon="4.72157">
        <ele>176</ele>
        <time>2017-08-05T13:31:50Z</time>
      </trkpt>
      <trkpt lat="45.90601" lon="4.72158">
        <ele>176</ele>
        <time>2017-08-05T13:31:51Z</time>
      </trkpt>
      <trkpt lat="45.90594" lon="4.72162">
        <ele>176</ele>
        <time>2017-08-05T13:31:53Z</time>
      </trkpt>
      <trkpt lat="45.9059" lon="4.72164">
        <ele>176</ele>
        <time>2017-08-05T13:31:54Z</time>
      </trkpt>
      <trkpt lat="45.90583" lon="4.72166">
        <ele>176</ele>
        <time>2017-08-05T13:31:56Z</time>
      </trkpt>
      <trkpt lat="45.90579" lon="4.72167">
        <ele>176</ele>
        <time>2017-08-05T13:31:57Z</time>
      </trkpt>
      <trkpt lat="45.90572" lon="4.72169">
        <ele>176</ele>
        <time>2017-08-05T13:31:59Z</time>
      </trkpt>
      <trkpt lat="45.90569" lon="4.7217">
        <ele>176</ele>
        <time>2017-08-05T13:32:00Z</time>
      </trkpt>
      <trkpt lat="45.90561" lon="4.72171">
        <ele>177</ele>
        <time>2017-08-05T13:32:02Z</time>
      </trkpt>
      <trkpt lat="45.90557" lon="4.72172">
        <ele>177</ele>
        <time>2017-08-05T13:32:03Z</time>
      </trkpt>
      <trkpt lat="45.9055" lon="4.72176">
        <ele>177</ele>
        <time>2017-08-05T13:32:05Z</time>
      </trkpt>
      <trkpt lat="45.90546" lon="4.72177">
        <ele>177</ele>
        <time>2017-08-05T13:32:06Z</time>
      </trkpt>
      <trkpt lat="45.90539" lon="4.72178">
        <ele>177</ele>
        <time>2017-08-05T13:32:08Z</time>
      </trkpt>
      <trkpt lat="45.90536" lon="4.72178">
        <ele>177</ele>
        <time>2017-08-05T13:32:09Z</time>
      </trkpt>
      <trkpt lat="45.90528" lon="4.7218">
        <ele>177</ele>
        <time>2017-08-05T13:32:11Z</time>
      </trkpt>
      <trkpt lat="45.90524" lon="4.72181">
        <ele>177</ele>
        <time>2017-08-05T13:32:12Z</time>
      </trkpt>
      <trkpt lat="45.90516" lon="4.72185">
        <ele>177</ele>
        <time>2017-08-05T13:32:14Z</time>
      </trkpt>
      <trkpt lat="45.90511" lon="4.72188">
        <ele>177</ele>
        <time>2017-08-05T13:32:15Z</time>
      </trkpt>
      <trkpt lat="45.90504" lon="4.72196">
        <ele>177</ele>
        <time>2017-08-05T13:32:17Z</time>
      </trkpt>
      <trkpt lat="45.905" lon="4.72199">
        <ele>177</ele>
        <time>2017-08-05T13:32:18Z</time>
      </trkpt>
      <trkpt lat="45.90493" lon="4.72201">
        <ele>178</ele>
        <time>2017-08-05T13:32:20Z</time>
      </trkpt>
      <trkpt lat="45.90489" lon="4.72203">
        <ele>178</ele>
        <time>2017-08-05T13:32:21Z</time>
      </trkpt>
      <trkpt lat="45.90481" lon="4.72206">
        <ele>178</ele>
        <time>2017-08-05T13:32:24Z</time>
      </trkpt>
      <trkpt lat="45.90479" lon="4.72207">
        <ele>178</ele>
        <time>2017-08-05T13:32:25Z</time>
      </trkpt>
      <trkpt lat="45.90472" lon="4.72213">
        <ele>179</ele>
        <time>2017-08-05T13:32:28Z</time>
      </trkpt>
      <trkpt lat="45.90469" lon="4.72215">
        <ele>179</ele>
        <time>2017-08-05T13:32:29Z</time>
      </trkpt>
      <trkpt lat="45.90463" lon="4.72219">
        <ele>179</ele>
        <time>2017-08-05T13:32:31Z</time>
      </trkpt>
      <trkpt lat="45.9046" lon="4.72222">
        <ele>179</ele>
        <time>2017-08-05T13:32:32Z</time>
      </trkpt>
      <trkpt lat="45.90453" lon="4.72226">
        <ele>179</ele>
        <time>2017-08-05T13:32:34Z</time>
      </trkpt>
      <trkpt lat="45.9045" lon="4.72228">
        <ele>179</ele>
        <time>2017-08-05T13:32:35Z</time>
      </trkpt>
      <trkpt lat="45.90444" lon="4.72232">
        <ele>179</ele>
        <time>2017-08-05T13:32:37Z</time>
      </trkpt>
      <trkpt lat="45.90442" lon="4.72234">
        <ele>179</ele>
        <time>2017-08-05T13:32:38Z</time>
      </trkpt>
      <trkpt lat="45.90435" lon="4.72237">
        <ele>179</ele>
        <time>2017-08-05T13:32:41Z</time>
      </trkpt>
      <trkpt lat="45.90432" lon="4.72238">
        <ele>179</ele>
        <time>2017-08-05T13:32:42Z</time>
      </trkpt>
      <trkpt lat="45.90426" lon="4.72241">
        <ele>179</ele>
        <time>2017-08-05T13:32:44Z</time>
      </trkpt>
      <trkpt lat="45.90422" lon="4.72243">
        <ele>179</ele>
        <time>2017-08-05T13:32:45Z</time>
      </trkpt>
      <trkpt lat="45.90414" lon="4.72245">
        <ele>179</ele>
        <time>2017-08-05T13:32:47Z</time>
      </trkpt>
      <trkpt lat="45.9041" lon="4.72246">
        <ele>179</ele>
        <time>2017-08-05T13:32:48Z</time>
      </trkpt>
      <trkpt lat="45.90403" lon="4.72251">
        <ele>178</ele>
        <time>2017-08-05T13:32:50Z</time>
      </trkpt>
      <trkpt lat="45.904" lon="4.72252">
        <ele>178</ele>
        <time>2017-08-05T13:32:51Z</time>
      </trkpt>
      <trkpt lat="45.90393" lon="4.72254">
        <ele>178</ele>
        <time>2017-08-05T13:32:53Z</time>
      </trkpt>
      <trkpt lat="45.9039" lon="4.72255">
        <ele>178</ele>
        <time>2017-08-05T13:32:54Z</time>
      </trkpt>
      <trkpt lat="45.90384" lon="4.7226">
        <ele>178</ele>
        <time>2017-08-05T13:32:56Z</time>
      </trkpt>
      <trkpt lat="45.90381" lon="4.72262">
        <ele>178</ele>
        <time>2017-08-05T13:32:57Z</time>
      </trkpt>
      <trkpt lat="45.90375" lon="4.72266">
        <ele>178</ele>
        <time>2017-08-05T13:32:59Z</time>
      </trkpt>
      <trkpt lat="45.90372" lon="4.72267">
        <ele>178</ele>
        <time>2017-08-05T13:33:00Z</time>
      </trkpt>
      <trkpt lat="45.90364" lon="4.72268">
        <ele>178</ele>
        <time>2017-08-05T13:33:03Z</time>
      </trkpt>
      <trkpt lat="45.9036" lon="4.72269">
        <ele>178</ele>
        <time>2017-08-05T13:33:04Z</time>
      </trkpt>
      <trkpt lat="45.90355" lon="4.72273">
        <ele>178</ele>
        <time>2017-08-05T13:33:06Z</time>
      </trkpt>
      <trkpt lat="45.90352" lon="4.72275">
        <ele>178</ele>
        <time>2017-08-05T13:33:07Z</time>
      </trkpt>
      <trkpt lat="45.90345" lon="4.72278">
        <ele>178</ele>
        <time>2017-08-05T13:33:09Z</time>
      </trkpt>
      <trkpt lat="45.90342" lon="4.7228">
        <ele>178</ele>
        <time>2017-08-05T13:33:10Z</time>
      </trkpt>
      <trkpt lat="45.90334" lon="4.72284">
        <ele>178</ele>
        <time>2017-08-05T13:33:12Z</time>
      </trkpt>
      <trkpt lat="45.9033" lon="4.72285">
        <ele>177</ele>
        <time>2017-08-05T13:33:13Z</time>
      </trkpt>
      <trkpt lat="45.90322" lon="4.72288">
        <ele>177</ele>
        <time>2017-08-05T13:33:15Z</time>
      </trkpt>
      <trkpt lat="45.90317" lon="4.72289">
        <ele>177</ele>
        <time>2017-08-05T13:33:16Z</time>
      </trkpt>
      <trkpt lat="45.90309" lon="4.72291">
        <ele>177</ele>
        <time>2017-08-05T13:33:18Z</time>
      </trkpt>
      <trkpt lat="45.90306" lon="4.72292">
        <ele>177</ele>
        <time>2017-08-05T13:33:19Z</time>
      </trkpt>
      <trkpt lat="45.90299" lon="4.72295">
        <ele>177</ele>
        <time>2017-08-05T13:33:21Z</time>
      </trkpt>
      <trkpt lat="45.90296" lon="4.72296">
        <ele>177</ele>
        <time>2017-08-05T13:33:22Z</time>
      </trkpt>
      <trkpt lat="45.90287" lon="4.72298">
        <ele>177</ele>
        <time>2017-08-05T13:33:24Z</time>
      </trkpt>
      <trkpt lat="45.90282" lon="4.72299">
        <ele>177</ele>
        <time>2017-08-05T13:33:25Z</time>
      </trkpt>
      <trkpt lat="45.90275" lon="4.723">
        <ele>177</ele>
        <time>2017-08-05T13:33:27Z</time>
      </trkpt>
      <trkpt lat="45.90272" lon="4.72301">
        <ele>177</ele>
        <time>2017-08-05T13:33:28Z</time>
      </trkpt>
      <trkpt lat="45.90265" lon="4.72302">
        <ele>177</ele>
        <time>2017-08-05T13:33:30Z</time>
      </trkpt>
      <trkpt lat="45.90261" lon="4.72303">
        <ele>177</ele>
        <time>2017-08-05T13:33:31Z</time>
      </trkpt>
      <trkpt lat="45.90256" lon="4.72301">
        <ele>177</ele>
        <time>2017-08-05T13:33:32Z</time>
      </trkpt>
      <trkpt lat="45.90252" lon="4.72301">
        <ele>177</ele>
        <time>2017-08-05T13:33:33Z</time>
      </trkpt>
      <trkpt lat="45.90243" lon="4.72305">
        <ele>177</ele>
        <time>2017-08-05T13:33:35Z</time>
      </trkpt>
      <trkpt lat="45.9024" lon="4.72306">
        <ele>177</ele>
        <time>2017-08-05T13:33:36Z</time>
      </trkpt>
      <trkpt lat="45.90234" lon="4.72308">
        <ele>177</ele>
        <time>2017-08-05T13:33:38Z</time>
      </trkpt>
      <trkpt lat="45.90231" lon="4.72309">
        <ele>177</ele>
        <time>2017-08-05T13:33:39Z</time>
      </trkpt>
      <trkpt lat="45.90224" lon="4.7231">
        <ele>177</ele>
        <time>2017-08-05T13:33:41Z</time>
      </trkpt>
      <trkpt lat="45.9022" lon="4.7231">
        <ele>177</ele>
        <time>2017-08-05T13:33:42Z</time>
      </trkpt>
      <trkpt lat="45.90212" lon="4.7231">
        <ele>177</ele>
        <time>2017-08-05T13:33:44Z</time>
      </trkpt>
      <trkpt lat="45.90209" lon="4.72308">
        <ele>177</ele>
        <time>2017-08-05T13:33:45Z</time>
      </trkpt>
      <trkpt lat="45.90203" lon="4.72303">
        <ele>177</ele>
        <time>2017-08-05T13:33:47Z</time>
      </trkpt>
      <trkpt lat="45.90201" lon="4.72299">
        <ele>177</ele>
        <time>2017-08-05T13:33:48Z</time>
      </trkpt>
      <trkpt lat="45.902" lon="4.72288">
        <ele>177</ele>
        <time>2017-08-05T13:33:50Z</time>
      </trkpt>
      <trkpt lat="45.902" lon="4.72281">
        <ele>177</ele>
        <time>2017-08-05T13:33:51Z</time>
      </trkpt>
      <trkpt lat="45.90199" lon="4.72269">
        <ele>177</ele>
        <time>2017-08-05T13:33:53Z</time>
      </trkpt>
      <trkpt lat="45.90198" lon="4.72264">
        <ele>177</ele>
        <time>2017-08-05T13:33:54Z</time>
      </trkpt>
      <trkpt lat="45.90198" lon="4.72253">
        <ele>177</ele>
        <time>2017-08-05T13:33:56Z</time>
      </trkpt>
      <trkpt lat="45.90198" lon="4.72248">
        <ele>177</ele>
        <time>2017-08-05T13:33:57Z</time>
      </trkpt>
      <trkpt lat="45.90197" lon="4.72237">
        <ele>177</ele>
        <time>2017-08-05T13:33:59Z</time>
      </trkpt>
      <trkpt lat="45.90196" lon="4.72231">
        <ele>177</ele>
        <time>2017-08-05T13:34:00Z</time>
      </trkpt>
      <trkpt lat="45.90195" lon="4.72225">
        <ele>177</ele>
        <time>2017-08-05T13:34:01Z</time>
      </trkpt>
      <trkpt lat="45.90193" lon="4.72218">
        <ele>177</ele>
        <time>2017-08-05T13:34:02Z</time>
      </trkpt>
      <trkpt lat="45.90192" lon="4.72206">
        <ele>177</ele>
        <time>2017-08-05T13:34:04Z</time>
      </trkpt>
      <trkpt lat="45.90191" lon="4.72201">
        <ele>177</ele>
        <time>2017-08-05T13:34:05Z</time>
      </trkpt>
      <trkpt lat="45.90191" lon="4.7219">
        <ele>177</ele>
        <time>2017-08-05T13:34:07Z</time>
      </trkpt>
      <trkpt lat="45.90191" lon="4.72185">
        <ele>177</ele>
        <time>2017-08-05T13:34:08Z</time>
      </trkpt>
      <trkpt lat="45.9019" lon="4.72172">
        <ele>177</ele>
        <time>2017-08-05T13:34:10Z</time>
      </trkpt>
      <trkpt lat="45.9019" lon="4.72166">
        <ele>178</ele>
        <time>2017-08-05T13:34:11Z</time>
      </trkpt>
      <trkpt lat="45.90189" lon="4.72159">
        <ele>178</ele>
        <time>2017-08-05T13:34:12Z</time>
      </trkpt>
      <trkpt lat="45.90189" lon="4.72151">
        <ele>178</ele>
        <time>2017-08-05T13:34:13Z</time>
      </trkpt>
      <trkpt lat="45.90189" lon="4.72144">
        <ele>178</ele>
        <time>2017-08-05T13:34:14Z</time>
      </trkpt>
      <trkpt lat="45.90188" lon="4.72136">
        <ele>178</ele>
        <time>2017-08-05T13:34:15Z</time>
      </trkpt>
      <trkpt lat="45.90187" lon="4.72128">
        <ele>178</ele>
        <time>2017-08-05T13:34:16Z</time>
      </trkpt>
      <trkpt lat="45.90187" lon="4.7212">
        <ele>178</ele>
        <time>2017-08-05T13:34:17Z</time>
      </trkpt>
      <trkpt lat="45.90187" lon="4.72113">
        <ele>178</ele>
        <time>2017-08-05T13:34:18Z</time>
      </trkpt>
      <trkpt lat="45.90187" lon="4.72105">
        <ele>178</ele>
        <time>2017-08-05T13:34:19Z</time>
      </trkpt>
      <trkpt lat="45.90186" lon="4.72098">
        <ele>178</ele>
        <time>2017-08-05T13:34:20Z</time>
      </trkpt>
      <trkpt lat="45.90186" lon="4.72091">
        <ele>178</ele>
        <time>2017-08-05T13:34:21Z</time>
      </trkpt>
      <trkpt lat="45.90185" lon="4.72084">
        <ele>178</ele>
        <time>2017-08-05T13:34:22Z</time>
      </trkpt>
      <trkpt lat="45.90184" lon="4.72078">
        <ele>179</ele>
        <time>2017-08-05T13:34:23Z</time>
      </trkpt>
      <trkpt lat="45.90183" lon="4.72066">
        <ele>179</ele>
        <time>2017-08-05T13:34:25Z</time>
      </trkpt>
      <trkpt lat="45.90183" lon="4.72059">
        <ele>179</ele>
        <time>2017-08-05T13:34:26Z</time>
      </trkpt>
      <trkpt lat="45.90181" lon="4.72053">
        <ele>179</ele>
        <time>2017-08-05T13:34:27Z</time>
      </trkpt>
      <trkpt lat="45.90181" lon="4.72046">
        <ele>179</ele>
        <time>2017-08-05T13:34:28Z</time>
      </trkpt>
      <trkpt lat="45.9018" lon="4.72039">
        <ele>179</ele>
        <time>2017-08-05T13:34:29Z</time>
      </trkpt>
      <trkpt lat="45.90179" lon="4.72032">
        <ele>179</ele>
        <time>2017-08-05T13:34:30Z</time>
      </trkpt>
      <trkpt lat="45.90178" lon="4.72026">
        <ele>179</ele>
        <time>2017-08-05T13:34:31Z</time>
      </trkpt>
      <trkpt lat="45.90178" lon="4.72019">
        <ele>179</ele>
        <time>2017-08-05T13:34:32Z</time>
      </trkpt>
      <trkpt lat="45.90179" lon="4.72007">
        <ele>179</ele>
        <time>2017-08-05T13:34:34Z</time>
      </trkpt>
      <trkpt lat="45.90179" lon="4.72002">
        <ele>179</ele>
        <time>2017-08-05T13:34:35Z</time>
      </trkpt>
      <trkpt lat="45.90179" lon="4.71989">
        <ele>179</ele>
        <time>2017-08-05T13:34:37Z</time>
      </trkpt>
      <trkpt lat="45.9018" lon="4.71982">
        <ele>179</ele>
        <time>2017-08-05T13:34:38Z</time>
      </trkpt>
      <trkpt lat="45.90181" lon="4.71975">
        <ele>179</ele>
        <time>2017-08-05T13:34:39Z</time>
      </trkpt>
      <trkpt lat="45.90181" lon="4.71968">
        <ele>179</ele>
        <time>2017-08-05T13:34:40Z</time>
      </trkpt>
      <trkpt lat="45.90182" lon="4.71961">
        <ele>179</ele>
        <time>2017-08-05T13:34:41Z</time>
      </trkpt>
      <trkpt lat="45.90183" lon="4.71954">
        <ele>179</ele>
        <time>2017-08-05T13:34:42Z</time>
      </trkpt>
      <trkpt lat="45.90184" lon="4.71948">
        <ele>179</ele>
        <time>2017-08-05T13:34:43Z</time>
      </trkpt>
      <trkpt lat="45.90186" lon="4.71941">
        <ele>179</ele>
        <time>2017-08-05T13:34:44Z</time>
      </trkpt>
      <trkpt lat="45.90188" lon="4.7193">
        <ele>178</ele>
        <time>2017-08-05T13:34:46Z</time>
      </trkpt>
      <trkpt lat="45.90189" lon="4.71925">
        <ele>178</ele>
        <time>2017-08-05T13:34:47Z</time>
      </trkpt>
      <trkpt lat="45.90194" lon="4.71914">
        <ele>179</ele>
        <time>2017-08-05T13:34:49Z</time>
      </trkpt>
      <trkpt lat="45.90196" lon="4.71908">
        <ele>179</ele>
        <time>2017-08-05T13:34:50Z</time>
      </trkpt>
      <trkpt lat="45.90199" lon="4.71903">
        <ele>180</ele>
        <time>2017-08-05T13:34:51Z</time>
      </trkpt>
      <trkpt lat="45.90202" lon="4.71897">
        <ele>180</ele>
        <time>2017-08-05T13:34:52Z</time>
      </trkpt>
      <trkpt lat="45.90206" lon="4.71892">
        <ele>180</ele>
        <time>2017-08-05T13:34:53Z</time>
      </trkpt>
      <trkpt lat="45.90209" lon="4.71886">
        <ele>180</ele>
        <time>2017-08-05T13:34:54Z</time>
      </trkpt>
      <trkpt lat="45.90213" lon="4.7188">
        <ele>180</ele>
        <time>2017-08-05T13:34:55Z</time>
      </trkpt>
      <trkpt lat="45.90216" lon="4.71874">
        <ele>180</ele>
        <time>2017-08-05T13:34:56Z</time>
      </trkpt>
      <trkpt lat="45.9022" lon="4.71868">
        <ele>181</ele>
        <time>2017-08-05T13:34:57Z</time>
      </trkpt>
      <trkpt lat="45.90223" lon="4.71863">
        <ele>181</ele>
        <time>2017-08-05T13:34:58Z</time>
      </trkpt>
      <trkpt lat="45.90229" lon="4.71855">
        <ele>181</ele>
        <time>2017-08-05T13:35:00Z</time>
      </trkpt>
      <trkpt lat="45.90232" lon="4.71851">
        <ele>181</ele>
        <time>2017-08-05T13:35:01Z</time>
      </trkpt>
      <trkpt lat="45.90238" lon="4.71841">
        <ele>182</ele>
        <time>2017-08-05T13:35:03Z</time>
      </trkpt>
      <trkpt lat="45.9024" lon="4.71837">
        <ele>182</ele>
        <time>2017-08-05T13:35:04Z</time>
      </trkpt>
      <trkpt lat="45.90246" lon="4.71827">
        <ele>183</ele>
        <time>2017-08-05T13:35:06Z</time>
      </trkpt>
      <trkpt lat="45.90248" lon="4.71821">
        <ele>183</ele>
        <time>2017-08-05T13:35:07Z</time>
      </trkpt>
      <trkpt lat="45.90251" lon="4.7181">
        <ele>182</ele>
        <time>2017-08-05T13:35:09Z</time>
      </trkpt>
      <trkpt lat="45.90252" lon="4.71804">
        <ele>182</ele>
        <time>2017-08-05T13:35:10Z</time>
      </trkpt>
      <trkpt lat="45.90254" lon="4.71793">
        <ele>182</ele>
        <time>2017-08-05T13:35:12Z</time>
      </trkpt>
      <trkpt lat="45.90254" lon="4.71788">
        <ele>182</ele>
        <time>2017-08-05T13:35:13Z</time>
      </trkpt>
      <trkpt lat="45.90255" lon="4.71778">
        <ele>183</ele>
        <time>2017-08-05T13:35:15Z</time>
      </trkpt>
      <trkpt lat="45.90255" lon="4.71773">
        <ele>183</ele>
        <time>2017-08-05T13:35:16Z</time>
      </trkpt>
      <trkpt lat="45.90257" lon="4.71761">
        <ele>184</ele>
        <time>2017-08-05T13:35:19Z</time>
      </trkpt>
      <trkpt lat="45.90256" lon="4.71757">
        <ele>184</ele>
        <time>2017-08-05T13:35:20Z</time>
      </trkpt>
      <trkpt lat="45.90256" lon="4.71746">
        <ele>185</ele>
        <time>2017-08-05T13:35:23Z</time>
      </trkpt>
      <trkpt lat="45.90256" lon="4.71742">
        <ele>185</ele>
        <time>2017-08-05T13:35:24Z</time>
      </trkpt>
      <trkpt lat="45.90258" lon="4.7173">
        <ele>186</ele>
        <time>2017-08-05T13:35:28Z</time>
      </trkpt>
      <trkpt lat="45.90261" lon="4.71726">
        <ele>186</ele>
        <time>2017-08-05T13:35:29Z</time>
      </trkpt>
      <trkpt lat="45.90262" lon="4.71716">
        <ele>187</ele>
        <time>2017-08-05T13:35:32Z</time>
      </trkpt>
      <trkpt lat="45.90262" lon="4.71712">
        <ele>187</ele>
        <time>2017-08-05T13:35:33Z</time>
      </trkpt>
      <trkpt lat="45.90262" lon="4.71701">
        <ele>188</ele>
        <time>2017-08-05T13:35:37Z</time>
      </trkpt>
      <trkpt lat="45.90263" lon="4.71698">
        <ele>188</ele>
        <time>2017-08-05T13:35:38Z</time>
      </trkpt>
      <trkpt lat="45.90265" lon="4.71688">
        <ele>188</ele>
        <time>2017-08-05T13:35:41Z</time>
      </trkpt>
      <trkpt lat="45.90265" lon="4.71685">
        <ele>189</ele>
        <time>2017-08-05T13:35:42Z</time>
      </trkpt>
      <trkpt lat="45.90267" lon="4.71675">
        <ele>189</ele>
        <time>2017-08-05T13:35:45Z</time>
      </trkpt>
      <trkpt lat="45.90267" lon="4.71671">
        <ele>189</ele>
        <time>2017-08-05T13:35:46Z</time>
      </trkpt>
      <trkpt lat="45.90269" lon="4.71659">
        <ele>192</ele>
        <time>2017-08-05T13:35:50Z</time>
      </trkpt>
      <trkpt lat="45.90268" lon="4.71656">
        <ele>192</ele>
        <time>2017-08-05T13:35:51Z</time>
      </trkpt>
      <trkpt lat="45.90269" lon="4.71646">
        <ele>192</ele>
        <time>2017-08-05T13:35:54Z</time>
      </trkpt>
      <trkpt lat="45.90269" lon="4.71642">
        <ele>192</ele>
        <time>2017-08-05T13:35:55Z</time>
      </trkpt>
      <trkpt lat="45.9027" lon="4.71632">
        <ele>193</ele>
        <time>2017-08-05T13:35:58Z</time>
      </trkpt>
      <trkpt lat="45.90269" lon="4.71629">
        <ele>193</ele>
        <time>2017-08-05T13:35:59Z</time>
      </trkpt>
      <trkpt lat="45.9027" lon="4.71616">
        <ele>193</ele>
        <time>2017-08-05T13:36:03Z</time>
      </trkpt>
      <trkpt lat="45.90271" lon="4.71613">
        <ele>193</ele>
        <time>2017-08-05T13:36:04Z</time>
      </trkpt>
      <trkpt lat="45.90273" lon="4.71601">
        <ele>193</ele>
        <time>2017-08-05T13:36:08Z</time>
      </trkpt>
      <trkpt lat="45.90274" lon="4.71598">
        <ele>193</ele>
        <time>2017-08-05T13:36:09Z</time>
      </trkpt>
      <trkpt lat="45.90274" lon="4.71588">
        <ele>194</ele>
        <time>2017-08-05T13:36:12Z</time>
      </trkpt>
      <trkpt lat="45.90275" lon="4.71584">
        <ele>194</ele>
        <time>2017-08-05T13:36:13Z</time>
      </trkpt>
      <trkpt lat="45.90275" lon="4.71573">
        <ele>195</ele>
        <time>2017-08-05T13:36:16Z</time>
      </trkpt>
      <trkpt lat="45.90274" lon="4.71569">
        <ele>195</ele>
        <time>2017-08-05T13:36:17Z</time>
      </trkpt>
      <trkpt lat="45.90275" lon="4.71557">
        <ele>195</ele>
        <time>2017-08-05T13:36:20Z</time>
      </trkpt>
      <trkpt lat="45.90274" lon="4.71554">
        <ele>195</ele>
        <time>2017-08-05T13:36:21Z</time>
      </trkpt>
      <trkpt lat="45.90267" lon="4.71549">
        <ele>196</ele>
        <time>2017-08-05T13:36:24Z</time>
      </trkpt>
      <trkpt lat="45.90265" lon="4.71549">
        <ele>196</ele>
        <time>2017-08-05T13:36:25Z</time>
      </trkpt>
      <trkpt lat="45.90258" lon="4.7155">
        <ele>196</ele>
        <time>2017-08-05T13:36:28Z</time>
      </trkpt>
      <trkpt lat="45.90255" lon="4.71551">
        <ele>196</ele>
        <time>2017-08-05T13:36:29Z</time>
      </trkpt>
      <trkpt lat="45.90248" lon="4.71552">
        <ele>198</ele>
        <time>2017-08-05T13:36:32Z</time>
      </trkpt>
      <trkpt lat="45.90246" lon="4.71552">
        <ele>198</ele>
        <time>2017-08-05T13:36:33Z</time>
      </trkpt>
      <trkpt lat="45.90239" lon="4.71553">
        <ele>198</ele>
        <time>2017-08-05T13:36:36Z</time>
      </trkpt>
      <trkpt lat="45.90236" lon="4.71554">
        <ele>198</ele>
        <time>2017-08-05T13:36:37Z</time>
      </trkpt>
      <trkpt lat="45.90229" lon="4.71556">
        <ele>199</ele>
        <time>2017-08-05T13:36:39Z</time>
      </trkpt>
      <trkpt lat="45.90226" lon="4.71556">
        <ele>199</ele>
        <time>2017-08-05T13:36:40Z</time>
      </trkpt>
      <trkpt lat="45.9022" lon="4.71556">
        <ele>199</ele>
        <time>2017-08-05T13:36:42Z</time>
      </trkpt>
      <trkpt lat="45.90217" lon="4.71555">
        <ele>199</ele>
        <time>2017-08-05T13:36:43Z</time>
      </trkpt>
      <trkpt lat="45.90211" lon="4.71553">
        <ele>199</ele>
        <time>2017-08-05T13:36:45Z</time>
      </trkpt>
      <trkpt lat="45.90208" lon="4.71553">
        <ele>199</ele>
        <time>2017-08-05T13:36:46Z</time>
      </trkpt>
      <trkpt lat="45.90199" lon="4.71551">
        <ele>199</ele>
        <time>2017-08-05T13:36:49Z</time>
      </trkpt>
      <trkpt lat="45.90195" lon="4.7155">
        <ele>199</ele>
        <time>2017-08-05T13:36:50Z</time>
      </trkpt>
      <trkpt lat="45.90188" lon="4.71548">
        <ele>200</ele>
        <time>2017-08-05T13:36:52Z</time>
      </trkpt>
      <trkpt lat="45.90185" lon="4.71547">
        <ele>200</ele>
        <time>2017-08-05T13:36:53Z</time>
      </trkpt>
      <trkpt lat="45.90178" lon="4.71544">
        <ele>200</ele>
        <time>2017-08-05T13:36:55Z</time>
      </trkpt>
      <trkpt lat="45.90175" lon="4.71543">
        <ele>200</ele>
        <time>2017-08-05T13:36:56Z</time>
      </trkpt>
      <trkpt lat="45.90167" lon="4.71543">
        <ele>201</ele>
        <time>2017-08-05T13:37:02Z</time>
      </trkpt>
      <trkpt lat="45.90164" lon="4.71543">
        <ele>201</ele>
        <time>2017-08-05T13:37:03Z</time>
      </trkpt>
      <trkpt lat="45.90155" lon="4.71545">
        <ele>201</ele>
        <time>2017-08-05T13:37:06Z</time>
      </trkpt>
      <trkpt lat="45.90152" lon="4.71544">
        <ele>201</ele>
        <time>2017-08-05T13:37:07Z</time>
      </trkpt>
      <trkpt lat="45.90145" lon="4.71541">
        <ele>201</ele>
        <time>2017-08-05T13:37:10Z</time>
      </trkpt>
      <trkpt lat="45.90142" lon="4.7154">
        <ele>201</ele>
        <time>2017-08-05T13:37:11Z</time>
      </trkpt>
      <trkpt lat="45.90136" lon="4.7154">
        <ele>201</ele>
        <time>2017-08-05T13:37:13Z</time>
      </trkpt>
      <trkpt lat="45.90132" lon="4.71539">
        <ele>201</ele>
        <time>2017-08-05T13:37:14Z</time>
      </trkpt>
      <trkpt lat="45.90124" lon="4.71538">
        <ele>201</ele>
        <time>2017-08-05T13:37:17Z</time>
      </trkpt>
      <trkpt lat="45.90122" lon="4.71538">
        <ele>201</ele>
        <time>2017-08-05T13:37:18Z</time>
      </trkpt>
      <trkpt lat="45.90116" lon="4.71543">
        <ele>200</ele>
        <time>2017-08-05T13:37:21Z</time>
      </trkpt>
      <trkpt lat="45.90114" lon="4.71544">
        <ele>200</ele>
        <time>2017-08-05T13:37:22Z</time>
      </trkpt>
      <trkpt lat="45.90108" lon="4.71539">
        <ele>200</ele>
        <time>2017-08-05T13:37:25Z</time>
      </trkpt>
      <trkpt lat="45.90105" lon="4.71537">
        <ele>200</ele>
        <time>2017-08-05T13:37:26Z</time>
      </trkpt>
      <trkpt lat="45.90097" lon="4.71541">
        <ele>200</ele>
        <time>2017-08-05T13:37:28Z</time>
      </trkpt>
      <trkpt lat="45.90093" lon="4.71545">
        <ele>200</ele>
        <time>2017-08-05T13:37:29Z</time>
      </trkpt>
      <trkpt lat="45.9009" lon="4.71548">
        <ele>200</ele>
        <time>2017-08-05T13:37:30Z</time>
      </trkpt>
      <trkpt lat="45.90089" lon="4.71558">
        <ele>200</ele>
        <time>2017-08-05T13:37:31Z</time>
      </trkpt>
      <trkpt lat="45.90088" lon="4.7157">
        <ele>200</ele>
        <time>2017-08-05T13:37:32Z</time>
      </trkpt>
      <trkpt lat="45.90084" lon="4.71562">
        <ele>200</ele>
        <time>2017-08-05T13:37:33Z</time>
      </trkpt>
      <trkpt lat="45.90083" lon="4.7156">
        <ele>198</ele>
        <time>2017-08-05T13:37:34Z</time>
      </trkpt>
      <trkpt lat="45.90078" lon="4.71561">
        <ele>198</ele>
        <time>2017-08-05T13:37:35Z</time>
      </trkpt>
      <trkpt lat="45.90072" lon="4.71561">
        <ele>198</ele>
        <time>2017-08-05T13:37:36Z</time>
      </trkpt>
      <trkpt lat="45.90066" lon="4.7156">
        <ele>198</ele>
        <time>2017-08-05T13:37:37Z</time>
      </trkpt>
      <trkpt lat="45.9006" lon="4.7156">
        <ele>198</ele>
        <time>2017-08-05T13:37:38Z</time>
      </trkpt>
      <trkpt lat="45.90052" lon="4.71561">
        <ele>197</ele>
        <time>2017-08-05T13:37:39Z</time>
      </trkpt>
      <trkpt lat="45.90044" lon="4.71561">
        <ele>197</ele>
        <time>2017-08-05T13:37:40Z</time>
      </trkpt>
      <trkpt lat="45.90037" lon="4.71561">
        <ele>197</ele>
        <time>2017-08-05T13:37:41Z</time>
      </trkpt>
      <trkpt lat="45.90029" lon="4.7156">
        <ele>197</ele>
        <time>2017-08-05T13:37:42Z</time>
      </trkpt>
      <trkpt lat="45.9002" lon="4.71559">
        <ele>196</ele>
        <time>2017-08-05T13:37:43Z</time>
      </trkpt>
      <trkpt lat="45.90012" lon="4.71558">
        <ele>196</ele>
        <time>2017-08-05T13:37:44Z</time>
      </trkpt>
      <trkpt lat="45.90001" lon="4.71554">
        <ele>196</ele>
        <time>2017-08-05T13:37:45Z</time>
      </trkpt>
      <trkpt lat="45.89994" lon="4.71551">
        <ele>194</ele>
        <time>2017-08-05T13:37:46Z</time>
      </trkpt>
      <trkpt lat="45.89986" lon="4.71549">
        <ele>194</ele>
        <time>2017-08-05T13:37:47Z</time>
      </trkpt>
      <trkpt lat="45.89978" lon="4.71548">
        <ele>194</ele>
        <time>2017-08-05T13:37:48Z</time>
      </trkpt>
      <trkpt lat="45.89969" lon="4.71548">
        <ele>194</ele>
        <time>2017-08-05T13:37:49Z</time>
      </trkpt>
      <trkpt lat="45.89959" lon="4.71547">
        <ele>193</ele>
        <time>2017-08-05T13:37:50Z</time>
      </trkpt>
      <trkpt lat="45.89949" lon="4.71546">
        <ele>193</ele>
        <time>2017-08-05T13:37:51Z</time>
      </trkpt>
      <trkpt lat="45.89939" lon="4.71546">
        <ele>193</ele>
        <time>2017-08-05T13:37:52Z</time>
      </trkpt>
      <trkpt lat="45.89929" lon="4.71546">
        <ele>193</ele>
        <time>2017-08-05T13:37:53Z</time>
      </trkpt>
      <trkpt lat="45.89919" lon="4.71547">
        <ele>193</ele>
        <time>2017-08-05T13:37:54Z</time>
      </trkpt>
      <trkpt lat="45.89909" lon="4.71548">
        <ele>192</ele>
        <time>2017-08-05T13:37:55Z</time>
      </trkpt>
      <trkpt lat="45.89899" lon="4.71549">
        <ele>192</ele>
        <time>2017-08-05T13:37:56Z</time>
      </trkpt>
      <trkpt lat="45.89889" lon="4.7155">
        <ele>192</ele>
        <time>2017-08-05T13:37:57Z</time>
      </trkpt>
      <trkpt lat="45.89879" lon="4.71552">
        <ele>192</ele>
        <time>2017-08-05T13:37:58Z</time>
      </trkpt>
      <trkpt lat="45.8987" lon="4.71553">
        <ele>192</ele>
        <time>2017-08-05T13:37:59Z</time>
      </trkpt>
      <trkpt lat="45.89861" lon="4.71553">
        <ele>192</ele>
        <time>2017-08-05T13:38:00Z</time>
      </trkpt>
      <trkpt lat="45.89851" lon="4.71554">
        <ele>192</ele>
        <time>2017-08-05T13:38:01Z</time>
      </trkpt>
      <trkpt lat="45.89842" lon="4.71555">
        <ele>192</ele>
        <time>2017-08-05T13:38:02Z</time>
      </trkpt>
      <trkpt lat="45.89831" lon="4.71551">
        <ele>192</ele>
        <time>2017-08-05T13:38:03Z</time>
      </trkpt>
      <trkpt lat="45.89826" lon="4.71551">
        <ele>192</ele>
        <time>2017-08-05T13:38:04Z</time>
      </trkpt>
      <trkpt lat="45.8982" lon="4.71552">
        <ele>192</ele>
        <time>2017-08-05T13:38:05Z</time>
      </trkpt>
      <trkpt lat="45.89815" lon="4.71552">
        <ele>192</ele>
        <time>2017-08-05T13:38:06Z</time>
      </trkpt>
      <trkpt lat="45.89811" lon="4.71552">
        <ele>192</ele>
        <time>2017-08-05T13:38:07Z</time>
      </trkpt>
      <trkpt lat="45.89805" lon="4.7155">
        <ele>192</ele>
        <time>2017-08-05T13:38:09Z</time>
      </trkpt>
      <trkpt lat="45.89801" lon="4.71549">
        <ele>192</ele>
        <time>2017-08-05T13:38:10Z</time>
      </trkpt>
      <trkpt lat="45.89794" lon="4.71545">
        <ele>192</ele>
        <time>2017-08-05T13:38:12Z</time>
      </trkpt>
      <trkpt lat="45.89791" lon="4.71544">
        <ele>192</ele>
        <time>2017-08-05T13:38:13Z</time>
      </trkpt>
      <trkpt lat="45.89785" lon="4.71543">
        <ele>192</ele>
        <time>2017-08-05T13:38:15Z</time>
      </trkpt>
      <trkpt lat="45.89781" lon="4.71543">
        <ele>192</ele>
        <time>2017-08-05T13:38:16Z</time>
      </trkpt>
      <trkpt lat="45.89774" lon="4.71542">
        <ele>192</ele>
        <time>2017-08-05T13:38:18Z</time>
      </trkpt>
      <trkpt lat="45.8977" lon="4.71542">
        <ele>192</ele>
        <time>2017-08-05T13:38:19Z</time>
      </trkpt>
      <trkpt lat="45.89761" lon="4.71543">
        <ele>192</ele>
        <time>2017-08-05T13:38:21Z</time>
      </trkpt>
      <trkpt lat="45.89757" lon="4.71544">
        <ele>192</ele>
        <time>2017-08-05T13:38:22Z</time>
      </trkpt>
      <trkpt lat="45.89749" lon="4.71544">
        <ele>192</ele>
        <time>2017-08-05T13:38:24Z</time>
      </trkpt>
      <trkpt lat="45.89746" lon="4.71544">
        <ele>192</ele>
        <time>2017-08-05T13:38:25Z</time>
      </trkpt>
      <trkpt lat="45.89738" lon="4.71546">
        <ele>192</ele>
        <time>2017-08-05T13:38:27Z</time>
      </trkpt>
      <trkpt lat="45.89734" lon="4.71547">
        <ele>192</ele>
        <time>2017-08-05T13:38:28Z</time>
      </trkpt>
      <trkpt lat="45.89726" lon="4.71546">
        <ele>192</ele>
        <time>2017-08-05T13:38:30Z</time>
      </trkpt>
      <trkpt lat="45.89722" lon="4.71545">
        <ele>192</ele>
        <time>2017-08-05T13:38:31Z</time>
      </trkpt>
      <trkpt lat="45.89715" lon="4.71544">
        <ele>192</ele>
        <time>2017-08-05T13:38:33Z</time>
      </trkpt>
      <trkpt lat="45.89712" lon="4.71545">
        <ele>192</ele>
        <time>2017-08-05T13:38:34Z</time>
      </trkpt>
      <trkpt lat="45.89705" lon="4.71546">
        <ele>192</ele>
        <time>2017-08-05T13:38:36Z</time>
      </trkpt>
      <trkpt lat="45.89701" lon="4.71546">
        <ele>192</ele>
        <time>2017-08-05T13:38:37Z</time>
      </trkpt>
      <trkpt lat="45.89694" lon="4.71545">
        <ele>193</ele>
        <time>2017-08-05T13:38:39Z</time>
      </trkpt>
      <trkpt lat="45.89691" lon="4.71545">
        <ele>193</ele>
        <time>2017-08-05T13:38:40Z</time>
      </trkpt>
      <trkpt lat="45.89683" lon="4.71544">
        <ele>193</ele>
        <time>2017-08-05T13:38:42Z</time>
      </trkpt>
      <trkpt lat="45.89679" lon="4.71544">
        <ele>193</ele>
        <time>2017-08-05T13:38:43Z</time>
      </trkpt>
      <trkpt lat="45.89672" lon="4.71544">
        <ele>193</ele>
        <time>2017-08-05T13:38:45Z</time>
      </trkpt>
      <trkpt lat="45.89669" lon="4.71544">
        <ele>193</ele>
        <time>2017-08-05T13:38:46Z</time>
      </trkpt>
      <trkpt lat="45.89664" lon="4.71545">
        <ele>193</ele>
        <time>2017-08-05T13:38:48Z</time>
      </trkpt>
      <trkpt lat="45.8966" lon="4.71546">
        <ele>193</ele>
        <time>2017-08-05T13:38:49Z</time>
      </trkpt>
      <trkpt lat="45.89652" lon="4.7155">
        <ele>193</ele>
        <time>2017-08-05T13:38:51Z</time>
      </trkpt>
      <trkpt lat="45.89649" lon="4.71553">
        <ele>193</ele>
        <time>2017-08-05T13:38:52Z</time>
      </trkpt>
      <trkpt lat="45.89644" lon="4.71559">
        <ele>193</ele>
        <time>2017-08-05T13:38:54Z</time>
      </trkpt>
      <trkpt lat="45.89642" lon="4.71564">
        <ele>193</ele>
        <time>2017-08-05T13:38:55Z</time>
      </trkpt>
      <trkpt lat="45.89642" lon="4.71575">
        <ele>193</ele>
        <time>2017-08-05T13:38:57Z</time>
      </trkpt>
      <trkpt lat="45.89643" lon="4.71582">
        <ele>193</ele>
        <time>2017-08-05T13:38:58Z</time>
      </trkpt>
      <trkpt lat="45.89644" lon="4.71588">
        <ele>191</ele>
        <time>2017-08-05T13:38:59Z</time>
      </trkpt>
      <trkpt lat="45.89644" lon="4.71595">
        <ele>191</ele>
        <time>2017-08-05T13:39:00Z</time>
      </trkpt>
      <trkpt lat="45.89645" lon="4.71603">
        <ele>191</ele>
        <time>2017-08-05T13:39:01Z</time>
      </trkpt>
      <trkpt lat="45.89646" lon="4.71611">
        <ele>190</ele>
        <time>2017-08-05T13:39:02Z</time>
      </trkpt>
      <trkpt lat="45.89646" lon="4.71619">
        <ele>190</ele>
        <time>2017-08-05T13:39:03Z</time>
      </trkpt>
      <trkpt lat="45.89647" lon="4.71629">
        <ele>190</ele>
        <time>2017-08-05T13:39:04Z</time>
      </trkpt>
      <trkpt lat="45.89648" lon="4.71638">
        <ele>189</ele>
        <time>2017-08-05T13:39:05Z</time>
      </trkpt>
      <trkpt lat="45.89649" lon="4.71648">
        <ele>189</ele>
        <time>2017-08-05T13:39:06Z</time>
      </trkpt>
      <trkpt lat="45.8965" lon="4.71658">
        <ele>189</ele>
        <time>2017-08-05T13:39:07Z</time>
      </trkpt>
      <trkpt lat="45.89651" lon="4.71669">
        <ele>186</ele>
        <time>2017-08-05T13:39:08Z</time>
      </trkpt>
      <trkpt lat="45.89653" lon="4.7168">
        <ele>186</ele>
        <time>2017-08-05T13:39:09Z</time>
      </trkpt>
      <trkpt lat="45.89654" lon="4.71692">
        <ele>186</ele>
        <time>2017-08-05T13:39:10Z</time>
      </trkpt>
      <trkpt lat="45.89656" lon="4.71704">
        <ele>185</ele>
        <time>2017-08-05T13:39:11Z</time>
      </trkpt>
      <trkpt lat="45.89657" lon="4.71717">
        <ele>185</ele>
        <time>2017-08-05T13:39:12Z</time>
      </trkpt>
      <trkpt lat="45.89659" lon="4.7173">
        <ele>184</ele>
        <time>2017-08-05T13:39:13Z</time>
      </trkpt>
      <trkpt lat="45.8966" lon="4.71744">
        <ele>184</ele>
        <time>2017-08-05T13:39:14Z</time>
      </trkpt>
      <trkpt lat="45.89662" lon="4.71759">
        <ele>183</ele>
        <time>2017-08-05T13:39:15Z</time>
      </trkpt>
      <trkpt lat="45.89663" lon="4.71774">
        <ele>182</ele>
        <time>2017-08-05T13:39:16Z</time>
      </trkpt>
      <trkpt lat="45.89664" lon="4.71788">
        <ele>182</ele>
        <time>2017-08-05T13:39:17Z</time>
      </trkpt>
      <trkpt lat="45.89663" lon="4.71802">
        <ele>182</ele>
        <time>2017-08-05T13:39:18Z</time>
      </trkpt>
      <trkpt lat="45.89664" lon="4.71814">
        <ele>182</ele>
        <time>2017-08-05T13:39:19Z</time>
      </trkpt>
      <trkpt lat="45.89664" lon="4.71827">
        <ele>181</ele>
        <time>2017-08-05T13:39:20Z</time>
      </trkpt>
      <trkpt lat="45.89665" lon="4.7184">
        <ele>181</ele>
        <time>2017-08-05T13:39:21Z</time>
      </trkpt>
      <trkpt lat="45.89665" lon="4.71852">
        <ele>181</ele>
        <time>2017-08-05T13:39:22Z</time>
      </trkpt>
      <trkpt lat="45.89665" lon="4.71864">
        <ele>181</ele>
        <time>2017-08-05T13:39:23Z</time>
      </trkpt>
      <trkpt lat="45.89664" lon="4.71877">
        <ele>181</ele>
        <time>2017-08-05T13:39:24Z</time>
      </trkpt>
      <trkpt lat="45.89664" lon="4.71889">
        <ele>181</ele>
        <time>2017-08-05T13:39:25Z</time>
      </trkpt>
      <trkpt lat="45.89664" lon="4.71901">
        <ele>181</ele>
        <time>2017-08-05T13:39:26Z</time>
      </trkpt>
      <trkpt lat="45.89664" lon="4.71912">
        <ele>181</ele>
        <time>2017-08-05T13:39:27Z</time>
      </trkpt>
      <trkpt lat="45.89664" lon="4.71924">
        <ele>181</ele>
        <time>2017-08-05T13:39:28Z</time>
      </trkpt>
      <trkpt lat="45.89663" lon="4.71935">
        <ele>181</ele>
        <time>2017-08-05T13:39:29Z</time>
      </trkpt>
      <trkpt lat="45.89663" lon="4.71945">
        <ele>181</ele>
        <time>2017-08-05T13:39:30Z</time>
      </trkpt>
      <trkpt lat="45.89663" lon="4.71955">
        <ele>181</ele>
        <time>2017-08-05T13:39:31Z</time>
      </trkpt>
      <trkpt lat="45.89663" lon="4.71965">
        <ele>181</ele>
        <time>2017-08-05T13:39:32Z</time>
      </trkpt>
      <trkpt lat="45.89662" lon="4.71974">
        <ele>181</ele>
        <time>2017-08-05T13:39:33Z</time>
      </trkpt>
      <trkpt lat="45.89661" lon="4.71983">
        <ele>181</ele>
        <time>2017-08-05T13:39:34Z</time>
      </trkpt>
      <trkpt lat="45.89662" lon="4.71991">
        <ele>181</ele>
        <time>2017-08-05T13:39:35Z</time>
      </trkpt>
      <trkpt lat="45.89662" lon="4.71999">
        <ele>181</ele>
        <time>2017-08-05T13:39:36Z</time>
      </trkpt>
      <trkpt lat="45.89661" lon="4.72007">
        <ele>181</ele>
        <time>2017-08-05T13:39:37Z</time>
      </trkpt>
      <trkpt lat="45.89661" lon="4.72015">
        <ele>181</ele>
        <time>2017-08-05T13:39:38Z</time>
      </trkpt>
      <trkpt lat="45.89661" lon="4.72023">
        <ele>180</ele>
        <time>2017-08-05T13:39:39Z</time>
      </trkpt>
      <trkpt lat="45.8966" lon="4.72031">
        <ele>180</ele>
        <time>2017-08-05T13:39:40Z</time>
      </trkpt>
      <trkpt lat="45.8966" lon="4.72039">
        <ele>180</ele>
        <time>2017-08-05T13:39:41Z</time>
      </trkpt>
      <trkpt lat="45.8966" lon="4.72046">
        <ele>180</ele>
        <time>2017-08-05T13:39:42Z</time>
      </trkpt>
      <trkpt lat="45.8966" lon="4.72053">
        <ele>180</ele>
        <time>2017-08-05T13:39:43Z</time>
      </trkpt>
      <trkpt lat="45.89659" lon="4.72059">
        <ele>180</ele>
        <time>2017-08-05T13:39:44Z</time>
      </trkpt>
      <trkpt lat="45.89659" lon="4.72071">
        <ele>180</ele>
        <time>2017-08-05T13:39:46Z</time>
      </trkpt>
      <trkpt lat="45.8966" lon="4.72077">
        <ele>180</ele>
        <time>2017-08-05T13:39:47Z</time>
      </trkpt>
      <trkpt lat="45.8966" lon="4.72089">
        <ele>180</ele>
        <time>2017-08-05T13:39:49Z</time>
      </trkpt>
      <trkpt lat="45.89661" lon="4.72096">
        <ele>180</ele>
        <time>2017-08-05T13:39:50Z</time>
      </trkpt>
      <trkpt lat="45.8966" lon="4.72104">
        <ele>180</ele>
        <time>2017-08-05T13:39:51Z</time>
      </trkpt>
      <trkpt lat="45.8966" lon="4.72111">
        <ele>179</ele>
        <time>2017-08-05T13:39:52Z</time>
      </trkpt>
      <trkpt lat="45.8966" lon="4.72117">
        <ele>179</ele>
        <time>2017-08-05T13:39:53Z</time>
      </trkpt>
      <trkpt lat="45.8966" lon="4.72124">
        <ele>179</ele>
        <time>2017-08-05T13:39:54Z</time>
      </trkpt>
      <trkpt lat="45.89661" lon="4.72135">
        <ele>179</ele>
        <time>2017-08-05T13:39:56Z</time>
      </trkpt>
      <trkpt lat="45.89661" lon="4.72141">
        <ele>179</ele>
        <time>2017-08-05T13:39:57Z</time>
      </trkpt>
      <trkpt lat="45.89662" lon="4.72148">
        <ele>179</ele>
        <time>2017-08-05T13:39:58Z</time>
      </trkpt>
      <trkpt lat="45.89662" lon="4.72155">
        <ele>179</ele>
        <time>2017-08-05T13:39:59Z</time>
      </trkpt>
      <trkpt lat="45.89662" lon="4.72162">
        <ele>179</ele>
        <time>2017-08-05T13:40:00Z</time>
      </trkpt>
      <trkpt lat="45.89662" lon="4.72168">
        <ele>179</ele>
        <time>2017-08-05T13:40:01Z</time>
      </trkpt>
      <trkpt lat="45.89662" lon="4.7218">
        <ele>179</ele>
        <time>2017-08-05T13:40:03Z</time>
      </trkpt>
      <trkpt lat="45.89661" lon="4.72183">
        <ele>179</ele>
        <time>2017-08-05T13:40:04Z</time>
      </trkpt>
      <trkpt lat="45.8966" lon="4.72193">
        <ele>179</ele>
        <time>2017-08-05T13:40:06Z</time>
      </trkpt>
      <trkpt lat="45.8966" lon="4.72197">
        <ele>179</ele>
        <time>2017-08-05T13:40:07Z</time>
      </trkpt>
      <trkpt lat="45.8966" lon="4.72209">
        <ele>179</ele>
        <time>2017-08-05T13:40:09Z</time>
      </trkpt>
      <trkpt lat="45.8966" lon="4.72215">
        <ele>179</ele>
        <time>2017-08-05T13:40:10Z</time>
      </trkpt>
      <trkpt lat="45.89661" lon="4.72227">
        <ele>179</ele>
        <time>2017-08-05T13:40:12Z</time>
      </trkpt>
      <trkpt lat="45.89661" lon="4.72233">
        <ele>179</ele>
        <time>2017-08-05T13:40:13Z</time>
      </trkpt>
      <trkpt lat="45.89661" lon="4.72242">
        <ele>179</ele>
        <time>2017-08-05T13:40:15Z</time>
      </trkpt>
      <trkpt lat="45.89661" lon="4.72246">
        <ele>179</ele>
        <time>2017-08-05T13:40:16Z</time>
      </trkpt>
      <trkpt lat="45.89661" lon="4.72256">
        <ele>179</ele>
        <time>2017-08-05T13:40:18Z</time>
      </trkpt>
      <trkpt lat="45.8966" lon="4.72261">
        <ele>179</ele>
        <time>2017-08-05T13:40:19Z</time>
      </trkpt>
      <trkpt lat="45.89656" lon="4.72272">
        <ele>179</ele>
        <time>2017-08-05T13:40:22Z</time>
      </trkpt>
      <trkpt lat="45.89654" lon="4.72274">
        <ele>179</ele>
        <time>2017-08-05T13:40:23Z</time>
      </trkpt>
      <trkpt lat="45.89646" lon="4.72277">
        <ele>179</ele>
        <time>2017-08-05T13:40:25Z</time>
      </trkpt>
      <trkpt lat="45.89642" lon="4.72277">
        <ele>179</ele>
        <time>2017-08-05T13:40:26Z</time>
      </trkpt>
      <trkpt lat="45.89634" lon="4.72279">
        <ele>179</ele>
        <time>2017-08-05T13:40:28Z</time>
      </trkpt>
      <trkpt lat="45.8963" lon="4.72279">
        <ele>179</ele>
        <time>2017-08-05T13:40:29Z</time>
      </trkpt>
      <trkpt lat="45.89623" lon="4.72279">
        <ele>179</ele>
        <time>2017-08-05T13:40:31Z</time>
      </trkpt>
      <trkpt lat="45.89619" lon="4.72279">
        <ele>179</ele>
        <time>2017-08-05T13:40:32Z</time>
      </trkpt>
      <trkpt lat="45.89611" lon="4.72278">
        <ele>179</ele>
        <time>2017-08-05T13:40:34Z</time>
      </trkpt>
      <trkpt lat="45.89607" lon="4.72279">
        <ele>179</ele>
        <time>2017-08-05T13:40:35Z</time>
      </trkpt>
      <trkpt lat="45.89602" lon="4.72279">
        <ele>179</ele>
        <time>2017-08-05T13:40:36Z</time>
      </trkpt>
      <trkpt lat="45.89597" lon="4.7228">
        <ele>179</ele>
        <time>2017-08-05T13:40:37Z</time>
      </trkpt>
      <trkpt lat="45.8959" lon="4.72279">
        <ele>179</ele>
        <time>2017-08-05T13:40:39Z</time>
      </trkpt>
      <trkpt lat="45.89586" lon="4.72279">
        <ele>179</ele>
        <time>2017-08-05T13:40:40Z</time>
      </trkpt>
      <trkpt lat="45.89579" lon="4.72279">
        <ele>179</ele>
        <time>2017-08-05T13:40:42Z</time>
      </trkpt>
      <trkpt lat="45.89575" lon="4.72279">
        <ele>179</ele>
        <time>2017-08-05T13:40:43Z</time>
      </trkpt>
      <trkpt lat="45.89567" lon="4.72279">
        <ele>179</ele>
        <time>2017-08-05T13:40:45Z</time>
      </trkpt>
      <trkpt lat="45.89563" lon="4.72279">
        <ele>179</ele>
        <time>2017-08-05T13:40:46Z</time>
      </trkpt>
      <trkpt lat="45.89555" lon="4.72278">
        <ele>179</ele>
        <time>2017-08-05T13:40:48Z</time>
      </trkpt>
      <trkpt lat="45.89551" lon="4.72278">
        <ele>179</ele>
        <time>2017-08-05T13:40:49Z</time>
      </trkpt>
      <trkpt lat="45.89545" lon="4.72279">
        <ele>179</ele>
        <time>2017-08-05T13:40:51Z</time>
      </trkpt>
      <trkpt lat="45.89541" lon="4.72279">
        <ele>179</ele>
        <time>2017-08-05T13:40:52Z</time>
      </trkpt>
      <trkpt lat="45.89533" lon="4.7228">
        <ele>179</ele>
        <time>2017-08-05T13:40:54Z</time>
      </trkpt>
      <trkpt lat="45.89529" lon="4.7228">
        <ele>179</ele>
        <time>2017-08-05T13:40:55Z</time>
      </trkpt>
      <trkpt lat="45.89521" lon="4.72281">
        <ele>179</ele>
        <time>2017-08-05T13:40:57Z</time>
      </trkpt>
      <trkpt lat="45.89518" lon="4.72282">
        <ele>179</ele>
        <time>2017-08-05T13:40:58Z</time>
      </trkpt>
      <trkpt lat="45.8951" lon="4.72281">
        <ele>179</ele>
        <time>2017-08-05T13:41:00Z</time>
      </trkpt>
      <trkpt lat="45.89506" lon="4.72281">
        <ele>179</ele>
        <time>2017-08-05T13:41:01Z</time>
      </trkpt>
      <trkpt lat="45.89497" lon="4.72281">
        <ele>179</ele>
        <time>2017-08-05T13:41:03Z</time>
      </trkpt>
      <trkpt lat="45.89493" lon="4.72281">
        <ele>179</ele>
        <time>2017-08-05T13:41:04Z</time>
      </trkpt>
      <trkpt lat="45.89488" lon="4.72281">
        <ele>179</ele>
        <time>2017-08-05T13:41:05Z</time>
      </trkpt>
      <trkpt lat="45.89484" lon="4.72281">
        <ele>179</ele>
        <time>2017-08-05T13:41:06Z</time>
      </trkpt>
      <trkpt lat="45.89476" lon="4.72282">
        <ele>179</ele>
        <time>2017-08-05T13:41:08Z</time>
      </trkpt>
      <trkpt lat="45.89472" lon="4.72282">
        <ele>179</ele>
        <time>2017-08-05T13:41:09Z</time>
      </trkpt>
      <trkpt lat="45.89466" lon="4.72284">
        <ele>179</ele>
        <time>2017-08-05T13:41:11Z</time>
      </trkpt>
      <trkpt lat="45.89463" lon="4.72285">
        <ele>179</ele>
        <time>2017-08-05T13:41:12Z</time>
      </trkpt>
      <trkpt lat="45.89454" lon="4.72287">
        <ele>179</ele>
        <time>2017-08-05T13:41:14Z</time>
      </trkpt>
      <trkpt lat="45.8945" lon="4.72288">
        <ele>179</ele>
        <time>2017-08-05T13:41:15Z</time>
      </trkpt>
      <trkpt lat="45.89443" lon="4.72289">
        <ele>179</ele>
        <time>2017-08-05T13:41:17Z</time>
      </trkpt>
      <trkpt lat="45.8944" lon="4.72289">
        <ele>179</ele>
        <time>2017-08-05T13:41:18Z</time>
      </trkpt>
      <trkpt lat="45.89433" lon="4.72291">
        <ele>179</ele>
        <time>2017-08-05T13:41:20Z</time>
      </trkpt>
      <trkpt lat="45.89429" lon="4.72292">
        <ele>179</ele>
        <time>2017-08-05T13:41:21Z</time>
      </trkpt>
      <trkpt lat="45.89421" lon="4.72294">
        <ele>180</ele>
        <time>2017-08-05T13:41:23Z</time>
      </trkpt>
      <trkpt lat="45.89417" lon="4.72294">
        <ele>180</ele>
        <time>2017-08-05T13:41:24Z</time>
      </trkpt>
      <trkpt lat="45.8941" lon="4.72295">
        <ele>180</ele>
        <time>2017-08-05T13:41:26Z</time>
      </trkpt>
      <trkpt lat="45.89407" lon="4.72295">
        <ele>180</ele>
        <time>2017-08-05T13:41:27Z</time>
      </trkpt>
      <trkpt lat="45.894" lon="4.72295">
        <ele>180</ele>
        <time>2017-08-05T13:41:29Z</time>
      </trkpt>
      <trkpt lat="45.89397" lon="4.72295">
        <ele>180</ele>
        <time>2017-08-05T13:41:30Z</time>
      </trkpt>
      <trkpt lat="45.89389" lon="4.72297">
        <ele>180</ele>
        <time>2017-08-05T13:41:32Z</time>
      </trkpt>
      <trkpt lat="45.89385" lon="4.72298">
        <ele>180</ele>
        <time>2017-08-05T13:41:33Z</time>
      </trkpt>
      <trkpt lat="45.89377" lon="4.72299">
        <ele>181</ele>
        <time>2017-08-05T13:41:35Z</time>
      </trkpt>
      <trkpt lat="45.89373" lon="4.72299">
        <ele>181</ele>
        <time>2017-08-05T13:41:36Z</time>
      </trkpt>
      <trkpt lat="45.89366" lon="4.72301">
        <ele>181</ele>
        <time>2017-08-05T13:41:38Z</time>
      </trkpt>
      <trkpt lat="45.89362" lon="4.72301">
        <ele>181</ele>
        <time>2017-08-05T13:41:39Z</time>
      </trkpt>
      <trkpt lat="45.89355" lon="4.72304">
        <ele>181</ele>
        <time>2017-08-05T13:41:41Z</time>
      </trkpt>
      <trkpt lat="45.89351" lon="4.72304">
        <ele>181</ele>
        <time>2017-08-05T13:41:42Z</time>
      </trkpt>
      <trkpt lat="45.89342" lon="4.72306">
        <ele>181</ele>
        <time>2017-08-05T13:41:44Z</time>
      </trkpt>
      <trkpt lat="45.89338" lon="4.72306">
        <ele>181</ele>
        <time>2017-08-05T13:41:45Z</time>
      </trkpt>
      <trkpt lat="45.89331" lon="4.72306">
        <ele>181</ele>
        <time>2017-08-05T13:41:47Z</time>
      </trkpt>
      <trkpt lat="45.89327" lon="4.72306">
        <ele>181</ele>
        <time>2017-08-05T13:41:48Z</time>
      </trkpt>
      <trkpt lat="45.8932" lon="4.72306">
        <ele>181</ele>
        <time>2017-08-05T13:41:50Z</time>
      </trkpt>
      <trkpt lat="45.89316" lon="4.72306">
        <ele>181</ele>
        <time>2017-08-05T13:41:51Z</time>
      </trkpt>
      <trkpt lat="45.89307" lon="4.72306">
        <ele>181</ele>
        <time>2017-08-05T13:41:53Z</time>
      </trkpt>
      <trkpt lat="45.89303" lon="4.72305">
        <ele>181</ele>
        <time>2017-08-05T13:41:54Z</time>
      </trkpt>
      <trkpt lat="45.89295" lon="4.72302">
        <ele>181</ele>
        <time>2017-08-05T13:41:56Z</time>
      </trkpt>
      <trkpt lat="45.89291" lon="4.723">
        <ele>181</ele>
        <time>2017-08-05T13:41:57Z</time>
      </trkpt>
      <trkpt lat="45.89284" lon="4.72297">
        <ele>181</ele>
        <time>2017-08-05T13:41:59Z</time>
      </trkpt>
      <trkpt lat="45.89281" lon="4.72296">
        <ele>181</ele>
        <time>2017-08-05T13:42:00Z</time>
      </trkpt>
      <trkpt lat="45.89273" lon="4.72292">
        <ele>181</ele>
        <time>2017-08-05T13:42:02Z</time>
      </trkpt>
      <trkpt lat="45.89269" lon="4.7229">
        <ele>181</ele>
        <time>2017-08-05T13:42:03Z</time>
      </trkpt>
      <trkpt lat="45.89262" lon="4.72286">
        <ele>181</ele>
        <time>2017-08-05T13:42:05Z</time>
      </trkpt>
      <trkpt lat="45.89258" lon="4.72284">
        <ele>181</ele>
        <time>2017-08-05T13:42:06Z</time>
      </trkpt>
      <trkpt lat="45.89252" lon="4.72282">
        <ele>181</ele>
        <time>2017-08-05T13:42:08Z</time>
      </trkpt>
      <trkpt lat="45.89248" lon="4.7228">
        <ele>181</ele>
        <time>2017-08-05T13:42:09Z</time>
      </trkpt>
      <trkpt lat="45.89242" lon="4.72278">
        <ele>181</ele>
        <time>2017-08-05T13:42:11Z</time>
      </trkpt>
      <trkpt lat="45.89239" lon="4.72275">
        <ele>181</ele>
        <time>2017-08-05T13:42:12Z</time>
      </trkpt>
      <trkpt lat="45.89231" lon="4.72272">
        <ele>181</ele>
        <time>2017-08-05T13:42:14Z</time>
      </trkpt>
      <trkpt lat="45.89227" lon="4.72269">
        <ele>181</ele>
        <time>2017-08-05T13:42:15Z</time>
      </trkpt>
      <trkpt lat="45.89222" lon="4.72267">
        <ele>181</ele>
        <time>2017-08-05T13:42:16Z</time>
      </trkpt>
      <trkpt lat="45.89218" lon="4.72264">
        <ele>181</ele>
        <time>2017-08-05T13:42:17Z</time>
      </trkpt>
      <trkpt lat="45.89211" lon="4.7226">
        <ele>181</ele>
        <time>2017-08-05T13:42:19Z</time>
      </trkpt>
      <trkpt lat="45.89207" lon="4.72259">
        <ele>181</ele>
        <time>2017-08-05T13:42:20Z</time>
      </trkpt>
      <trkpt lat="45.89201" lon="4.72256">
        <ele>181</ele>
        <time>2017-08-05T13:42:22Z</time>
      </trkpt>
      <trkpt lat="45.89198" lon="4.72254">
        <ele>181</ele>
        <time>2017-08-05T13:42:23Z</time>
      </trkpt>
      <trkpt lat="45.8919" lon="4.7225">
        <ele>180</ele>
        <time>2017-08-05T13:42:25Z</time>
      </trkpt>
      <trkpt lat="45.89186" lon="4.72248">
        <ele>180</ele>
        <time>2017-08-05T13:42:26Z</time>
      </trkpt>
      <trkpt lat="45.89178" lon="4.72244">
        <ele>180</ele>
        <time>2017-08-05T13:42:28Z</time>
      </trkpt>
      <trkpt lat="45.89174" lon="4.72243">
        <ele>180</ele>
        <time>2017-08-05T13:42:29Z</time>
      </trkpt>
      <trkpt lat="45.89167" lon="4.72239">
        <ele>180</ele>
        <time>2017-08-05T13:42:31Z</time>
      </trkpt>
      <trkpt lat="45.89164" lon="4.72237">
        <ele>180</ele>
        <time>2017-08-05T13:42:32Z</time>
      </trkpt>
      <trkpt lat="45.89158" lon="4.72233">
        <ele>180</ele>
        <time>2017-08-05T13:42:34Z</time>
      </trkpt>
      <trkpt lat="45.89154" lon="4.72232">
        <ele>180</ele>
        <time>2017-08-05T13:42:35Z</time>
      </trkpt>
      <trkpt lat="45.89145" lon="4.72227">
        <ele>180</ele>
        <time>2017-08-05T13:42:37Z</time>
      </trkpt>
      <trkpt lat="45.89141" lon="4.72225">
        <ele>180</ele>
        <time>2017-08-05T13:42:38Z</time>
      </trkpt>
      <trkpt lat="45.89133" lon="4.72222">
        <ele>180</ele>
        <time>2017-08-05T13:42:40Z</time>
      </trkpt>
      <trkpt lat="45.89129" lon="4.7222">
        <ele>180</ele>
        <time>2017-08-05T13:42:41Z</time>
      </trkpt>
      <trkpt lat="45.89123" lon="4.72216">
        <ele>180</ele>
        <time>2017-08-05T13:42:43Z</time>
      </trkpt>
      <trkpt lat="45.8912" lon="4.72215">
        <ele>180</ele>
        <time>2017-08-05T13:42:44Z</time>
      </trkpt>
      <trkpt lat="45.89114" lon="4.72211">
        <ele>180</ele>
        <time>2017-08-05T13:42:46Z</time>
      </trkpt>
      <trkpt lat="45.8911" lon="4.72209">
        <ele>180</ele>
        <time>2017-08-05T13:42:47Z</time>
      </trkpt>
      <trkpt lat="45.89106" lon="4.72208">
        <ele>180</ele>
        <time>2017-08-05T13:42:48Z</time>
      </trkpt>
      <trkpt lat="45.89101" lon="4.72206">
        <ele>180</ele>
        <time>2017-08-05T13:42:49Z</time>
      </trkpt>
      <trkpt lat="45.89096" lon="4.72205">
        <ele>180</ele>
        <time>2017-08-05T13:42:50Z</time>
      </trkpt>
      <trkpt lat="45.89092" lon="4.72203">
        <ele>180</ele>
        <time>2017-08-05T13:42:51Z</time>
      </trkpt>
      <trkpt lat="45.89084" lon="4.72199">
        <ele>180</ele>
        <time>2017-08-05T13:42:53Z</time>
      </trkpt>
      <trkpt lat="45.89081" lon="4.72198">
        <ele>180</ele>
        <time>2017-08-05T13:42:54Z</time>
      </trkpt>
      <trkpt lat="45.89075" lon="4.72194">
        <ele>180</ele>
        <time>2017-08-05T13:42:56Z</time>
      </trkpt>
      <trkpt lat="45.89072" lon="4.72191">
        <ele>180</ele>
        <time>2017-08-05T13:42:57Z</time>
      </trkpt>
      <trkpt lat="45.89065" lon="4.72187">
        <ele>180</ele>
        <time>2017-08-05T13:42:59Z</time>
      </trkpt>
      <trkpt lat="45.89062" lon="4.72185">
        <ele>180</ele>
        <time>2017-08-05T13:43:00Z</time>
      </trkpt>
      <trkpt lat="45.89055" lon="4.72181">
        <ele>180</ele>
        <time>2017-08-05T13:43:02Z</time>
      </trkpt>
      <trkpt lat="45.89051" lon="4.72179">
        <ele>180</ele>
        <time>2017-08-05T13:43:03Z</time>
      </trkpt>
      <trkpt lat="45.89044" lon="4.72176">
        <ele>180</ele>
        <time>2017-08-05T13:43:05Z</time>
      </trkpt>
      <trkpt lat="45.8904" lon="4.72174">
        <ele>180</ele>
        <time>2017-08-05T13:43:06Z</time>
      </trkpt>
      <trkpt lat="45.89033" lon="4.72171">
        <ele>180</ele>
        <time>2017-08-05T13:43:08Z</time>
      </trkpt>
      <trkpt lat="45.89031" lon="4.7217">
        <ele>180</ele>
        <time>2017-08-05T13:43:09Z</time>
      </trkpt>
      <trkpt lat="45.89024" lon="4.72166">
        <ele>180</ele>
        <time>2017-08-05T13:43:11Z</time>
      </trkpt>
      <trkpt lat="45.89019" lon="4.72165">
        <ele>180</ele>
        <time>2017-08-05T13:43:12Z</time>
      </trkpt>
      <trkpt lat="45.89015" lon="4.72163">
        <ele>180</ele>
        <time>2017-08-05T13:43:13Z</time>
      </trkpt>
      <trkpt lat="45.8901" lon="4.72161">
        <ele>180</ele>
        <time>2017-08-05T13:43:14Z</time>
      </trkpt>
      <trkpt lat="45.89003" lon="4.72158">
        <ele>180</ele>
        <time>2017-08-05T13:43:16Z</time>
      </trkpt>
      <trkpt lat="45.88999" lon="4.72156">
        <ele>180</ele>
        <time>2017-08-05T13:43:17Z</time>
      </trkpt>
      <trkpt lat="45.88992" lon="4.72152">
        <ele>180</ele>
        <time>2017-08-05T13:43:19Z</time>
      </trkpt>
      <trkpt lat="45.88988" lon="4.72151">
        <ele>180</ele>
        <time>2017-08-05T13:43:20Z</time>
      </trkpt>
      <trkpt lat="45.8898" lon="4.72147">
        <ele>180</ele>
        <time>2017-08-05T13:43:22Z</time>
      </trkpt>
      <trkpt lat="45.88976" lon="4.72146">
        <ele>180</ele>
        <time>2017-08-05T13:43:23Z</time>
      </trkpt>
      <trkpt lat="45.8897" lon="4.72143">
        <ele>180</ele>
        <time>2017-08-05T13:43:25Z</time>
      </trkpt>
      <trkpt lat="45.88966" lon="4.72142">
        <ele>180</ele>
        <time>2017-08-05T13:43:26Z</time>
      </trkpt>
      <trkpt lat="45.88959" lon="4.7214">
        <ele>180</ele>
        <time>2017-08-05T13:43:28Z</time>
      </trkpt>
      <trkpt lat="45.88954" lon="4.72139">
        <ele>181</ele>
        <time>2017-08-05T13:43:29Z</time>
      </trkpt>
      <trkpt lat="45.88947" lon="4.72136">
        <ele>181</ele>
        <time>2017-08-05T13:43:31Z</time>
      </trkpt>
      <trkpt lat="45.88944" lon="4.72135">
        <ele>181</ele>
        <time>2017-08-05T13:43:32Z</time>
      </trkpt>
      <trkpt lat="45.88937" lon="4.72133">
        <ele>181</ele>
        <time>2017-08-05T13:43:34Z</time>
      </trkpt>
      <trkpt lat="45.88934" lon="4.72131">
        <ele>181</ele>
        <time>2017-08-05T13:43:35Z</time>
      </trkpt>
      <trkpt lat="45.88927" lon="4.72127">
        <ele>181</ele>
        <time>2017-08-05T13:43:37Z</time>
      </trkpt>
      <trkpt lat="45.88923" lon="4.72126">
        <ele>181</ele>
        <time>2017-08-05T13:43:38Z</time>
      </trkpt>
      <trkpt lat="45.88916" lon="4.72124">
        <ele>181</ele>
        <time>2017-08-05T13:43:40Z</time>
      </trkpt>
      <trkpt lat="45.88912" lon="4.72123">
        <ele>181</ele>
        <time>2017-08-05T13:43:41Z</time>
      </trkpt>
      <trkpt lat="45.88905" lon="4.72122">
        <ele>181</ele>
        <time>2017-08-05T13:43:43Z</time>
      </trkpt>
      <trkpt lat="45.889" lon="4.72121">
        <ele>181</ele>
        <time>2017-08-05T13:43:44Z</time>
      </trkpt>
      <trkpt lat="45.88893" lon="4.7212">
        <ele>181</ele>
        <time>2017-08-05T13:43:46Z</time>
      </trkpt>
      <trkpt lat="45.88889" lon="4.72119">
        <ele>181</ele>
        <time>2017-08-05T13:43:47Z</time>
      </trkpt>
      <trkpt lat="45.88884" lon="4.72117">
        <ele>181</ele>
        <time>2017-08-05T13:43:49Z</time>
      </trkpt>
      <trkpt lat="45.88881" lon="4.72115">
        <ele>181</ele>
        <time>2017-08-05T13:43:50Z</time>
      </trkpt>
      <trkpt lat="45.88872" lon="4.72114">
        <ele>181</ele>
        <time>2017-08-05T13:43:52Z</time>
      </trkpt>
      <trkpt lat="45.88867" lon="4.72112">
        <ele>181</ele>
        <time>2017-08-05T13:43:53Z</time>
      </trkpt>
      <trkpt lat="45.8886" lon="4.72109">
        <ele>181</ele>
        <time>2017-08-05T13:43:55Z</time>
      </trkpt>
      <trkpt lat="45.88857" lon="4.72107">
        <ele>181</ele>
        <time>2017-08-05T13:43:56Z</time>
      </trkpt>
      <trkpt lat="45.88849" lon="4.72103">
        <ele>181</ele>
        <time>2017-08-05T13:43:59Z</time>
      </trkpt>
      <trkpt lat="45.88847" lon="4.72103">
        <ele>181</ele>
        <time>2017-08-05T13:44:00Z</time>
      </trkpt>
      <trkpt lat="45.88839" lon="4.72098">
        <ele>181</ele>
        <time>2017-08-05T13:44:05Z</time>
      </trkpt>
      <trkpt lat="45.88836" lon="4.72097">
        <ele>181</ele>
        <time>2017-08-05T13:44:06Z</time>
      </trkpt>
      <trkpt lat="45.8883" lon="4.72105">
        <ele>181</ele>
        <time>2017-08-05T13:44:09Z</time>
      </trkpt>
      <trkpt lat="45.88829" lon="4.7211">
        <ele>181</ele>
        <time>2017-08-05T13:44:10Z</time>
      </trkpt>
      <trkpt lat="45.88827" lon="4.72121">
        <ele>181</ele>
        <time>2017-08-05T13:44:13Z</time>
      </trkpt>
      <trkpt lat="45.88826" lon="4.72124">
        <ele>181</ele>
        <time>2017-08-05T13:44:14Z</time>
      </trkpt>
      <trkpt lat="45.88824" lon="4.72134">
        <ele>182</ele>
        <time>2017-08-05T13:44:16Z</time>
      </trkpt>
      <trkpt lat="45.88823" lon="4.72139">
        <ele>182</ele>
        <time>2017-08-05T13:44:17Z</time>
      </trkpt>
      <trkpt lat="45.8882" lon="4.7215">
        <ele>182</ele>
        <time>2017-08-05T13:44:19Z</time>
      </trkpt>
      <trkpt lat="45.88819" lon="4.72154">
        <ele>182</ele>
        <time>2017-08-05T13:44:20Z</time>
      </trkpt>
      <trkpt lat="45.88815" lon="4.72161">
        <ele>182</ele>
        <time>2017-08-05T13:44:22Z</time>
      </trkpt>
      <trkpt lat="45.88813" lon="4.72166">
        <ele>182</ele>
        <time>2017-08-05T13:44:23Z</time>
      </trkpt>
      <trkpt lat="45.88812" lon="4.72173">
        <ele>182</ele>
        <time>2017-08-05T13:44:24Z</time>
      </trkpt>
      <trkpt lat="45.88812" lon="4.72181">
        <ele>182</ele>
        <time>2017-08-05T13:44:25Z</time>
      </trkpt>
      <trkpt lat="45.88811" lon="4.72188">
        <ele>182</ele>
        <time>2017-08-05T13:44:26Z</time>
      </trkpt>
      <trkpt lat="45.8881" lon="4.72194">
        <ele>182</ele>
        <time>2017-08-05T13:44:27Z</time>
      </trkpt>
      <trkpt lat="45.88809" lon="4.72206">
        <ele>182</ele>
        <time>2017-08-05T13:44:29Z</time>
      </trkpt>
      <trkpt lat="45.88808" lon="4.72212">
        <ele>182</ele>
        <time>2017-08-05T13:44:30Z</time>
      </trkpt>
      <trkpt lat="45.88806" lon="4.72223">
        <ele>182</ele>
        <time>2017-08-05T13:44:32Z</time>
      </trkpt>
      <trkpt lat="45.88806" lon="4.72228">
        <ele>182</ele>
        <time>2017-08-05T13:44:33Z</time>
      </trkpt>
      <trkpt lat="45.88804" lon="4.72237">
        <ele>182</ele>
        <time>2017-08-05T13:44:35Z</time>
      </trkpt>
      <trkpt lat="45.88804" lon="4.72242">
        <ele>182</ele>
        <time>2017-08-05T13:44:36Z</time>
      </trkpt>
      <trkpt lat="45.88802" lon="4.7225">
        <ele>182</ele>
        <time>2017-08-05T13:44:38Z</time>
      </trkpt>
      <trkpt lat="45.88802" lon="4.72255">
        <ele>182</ele>
        <time>2017-08-05T13:44:39Z</time>
      </trkpt>
      <trkpt lat="45.88799" lon="4.72267">
        <ele>182</ele>
        <time>2017-08-05T13:44:41Z</time>
      </trkpt>
      <trkpt lat="45.88798" lon="4.72273">
        <ele>182</ele>
        <time>2017-08-05T13:44:42Z</time>
      </trkpt>
      <trkpt lat="45.88797" lon="4.7228">
        <ele>182</ele>
        <time>2017-08-05T13:44:43Z</time>
      </trkpt>
      <trkpt lat="45.88796" lon="4.72286">
        <ele>182</ele>
        <time>2017-08-05T13:44:44Z</time>
      </trkpt>
      <trkpt lat="45.88795" lon="4.72293">
        <ele>182</ele>
        <time>2017-08-05T13:44:45Z</time>
      </trkpt>
      <trkpt lat="45.88793" lon="4.723">
        <ele>182</ele>
        <time>2017-08-05T13:44:46Z</time>
      </trkpt>
      <trkpt lat="45.88791" lon="4.72307">
        <ele>182</ele>
        <time>2017-08-05T13:44:47Z</time>
      </trkpt>
      <trkpt lat="45.88789" lon="4.72313">
        <ele>182</ele>
        <time>2017-08-05T13:44:48Z</time>
      </trkpt>
      <trkpt lat="45.88786" lon="4.72319">
        <ele>182</ele>
        <time>2017-08-05T13:44:49Z</time>
      </trkpt>
      <trkpt lat="45.88784" lon="4.72325">
        <ele>182</ele>
        <time>2017-08-05T13:44:50Z</time>
      </trkpt>
      <trkpt lat="45.88779" lon="4.72335">
        <ele>182</ele>
        <time>2017-08-05T13:44:52Z</time>
      </trkpt>
      <trkpt lat="45.88777" lon="4.7234">
        <ele>182</ele>
        <time>2017-08-05T13:44:53Z</time>
      </trkpt>
      <trkpt lat="45.88775" lon="4.72345">
        <ele>182</ele>
        <time>2017-08-05T13:44:54Z</time>
      </trkpt>
      <trkpt lat="45.88773" lon="4.72351">
        <ele>182</ele>
        <time>2017-08-05T13:44:55Z</time>
      </trkpt>
      <trkpt lat="45.8877" lon="4.72357">
        <ele>182</ele>
        <time>2017-08-05T13:44:56Z</time>
      </trkpt>
      <trkpt lat="45.88767" lon="4.72363">
        <ele>182</ele>
        <time>2017-08-05T13:44:57Z</time>
      </trkpt>
      <trkpt lat="45.88764" lon="4.72369">
        <ele>182</ele>
        <time>2017-08-05T13:44:58Z</time>
      </trkpt>
      <trkpt lat="45.88761" lon="4.72374">
        <ele>182</ele>
        <time>2017-08-05T13:44:59Z</time>
      </trkpt>
      <trkpt lat="45.88758" lon="4.7238">
        <ele>182</ele>
        <time>2017-08-05T13:45:00Z</time>
      </trkpt>
      <trkpt lat="45.88755" lon="4.72385">
        <ele>182</ele>
        <time>2017-08-05T13:45:01Z</time>
      </trkpt>
      <trkpt lat="45.8875" lon="4.72394">
        <ele>182</ele>
        <time>2017-08-05T13:45:03Z</time>
      </trkpt>
      <trkpt lat="45.88748" lon="4.72399">
        <ele>182</ele>
        <time>2017-08-05T13:45:04Z</time>
      </trkpt>
      <trkpt lat="45.88744" lon="4.72408">
        <ele>182</ele>
        <time>2017-08-05T13:45:06Z</time>
      </trkpt>
      <trkpt lat="45.88742" lon="4.72413">
        <ele>182</ele>
        <time>2017-08-05T13:45:07Z</time>
      </trkpt>
      <trkpt lat="45.88738" lon="4.7242">
        <ele>182</ele>
        <time>2017-08-05T13:45:09Z</time>
      </trkpt>
      <trkpt lat="45.88736" lon="4.72425">
        <ele>182</ele>
        <time>2017-08-05T13:45:10Z</time>
      </trkpt>
      <trkpt lat="45.88732" lon="4.72434">
        <ele>182</ele>
        <time>2017-08-05T13:45:12Z</time>
      </trkpt>
      <trkpt lat="45.8873" lon="4.7244">
        <ele>182</ele>
        <time>2017-08-05T13:45:13Z</time>
      </trkpt>
      <trkpt lat="45.88728" lon="4.72446">
        <ele>182</ele>
        <time>2017-08-05T13:45:14Z</time>
      </trkpt>
      <trkpt lat="45.88726" lon="4.72452">
        <ele>182</ele>
        <time>2017-08-05T13:45:15Z</time>
      </trkpt>
      <trkpt lat="45.88724" lon="4.72459">
        <ele>182</ele>
        <time>2017-08-05T13:45:16Z</time>
      </trkpt>
      <trkpt lat="45.88723" lon="4.72465">
        <ele>182</ele>
        <time>2017-08-05T13:45:17Z</time>
      </trkpt>
      <trkpt lat="45.88722" lon="4.72478">
        <ele>182</ele>
        <time>2017-08-05T13:45:19Z</time>
      </trkpt>
      <trkpt lat="45.88722" lon="4.72483">
        <ele>182</ele>
        <time>2017-08-05T13:45:20Z</time>
      </trkpt>
      <trkpt lat="45.88723" lon="4.72495">
        <ele>182</ele>
        <time>2017-08-05T13:45:22Z</time>
      </trkpt>
      <trkpt lat="45.88723" lon="4.72501">
        <ele>183</ele>
        <time>2017-08-05T13:45:23Z</time>
      </trkpt>
      <trkpt lat="45.88724" lon="4.72507">
        <ele>183</ele>
        <time>2017-08-05T13:45:24Z</time>
      </trkpt>
      <trkpt lat="45.88725" lon="4.72514">
        <ele>183</ele>
        <time>2017-08-05T13:45:25Z</time>
      </trkpt>
      <trkpt lat="45.88727" lon="4.72521">
        <ele>183</ele>
        <time>2017-08-05T13:45:26Z</time>
      </trkpt>
      <trkpt lat="45.88729" lon="4.72528">
        <ele>183</ele>
        <time>2017-08-05T13:45:27Z</time>
      </trkpt>
      <trkpt lat="45.8873" lon="4.72535">
        <ele>183</ele>
        <time>2017-08-05T13:45:28Z</time>
      </trkpt>
      <trkpt lat="45.88732" lon="4.72541">
        <ele>183</ele>
        <time>2017-08-05T13:45:29Z</time>
      </trkpt>
      <trkpt lat="45.88735" lon="4.72554">
        <ele>183</ele>
        <time>2017-08-05T13:45:31Z</time>
      </trkpt>
      <trkpt lat="45.88736" lon="4.72559">
        <ele>183</ele>
        <time>2017-08-05T13:45:32Z</time>
      </trkpt>
      <trkpt lat="45.88738" lon="4.72569">
        <ele>183</ele>
        <time>2017-08-05T13:45:34Z</time>
      </trkpt>
      <trkpt lat="45.88739" lon="4.72575">
        <ele>184</ele>
        <time>2017-08-05T13:45:35Z</time>
      </trkpt>
      <trkpt lat="45.88741" lon="4.72581">
        <ele>184</ele>
        <time>2017-08-05T13:45:36Z</time>
      </trkpt>
      <trkpt lat="45.88742" lon="4.72587">
        <ele>184</ele>
        <time>2017-08-05T13:45:37Z</time>
      </trkpt>
      <trkpt lat="45.88742" lon="4.72595">
        <ele>184</ele>
        <time>2017-08-05T13:45:38Z</time>
      </trkpt>
      <trkpt lat="45.88742" lon="4.72603">
        <ele>184</ele>
        <time>2017-08-05T13:45:39Z</time>
      </trkpt>
      <trkpt lat="45.88743" lon="4.72612">
        <ele>183</ele>
        <time>2017-08-05T13:45:40Z</time>
      </trkpt>
      <trkpt lat="45.88744" lon="4.72621">
        <ele>183</ele>
        <time>2017-08-05T13:45:41Z</time>
      </trkpt>
      <trkpt lat="45.88746" lon="4.7263">
        <ele>183</ele>
        <time>2017-08-05T13:45:42Z</time>
      </trkpt>
      <trkpt lat="45.88747" lon="4.72638">
        <ele>183</ele>
        <time>2017-08-05T13:45:43Z</time>
      </trkpt>
      <trkpt lat="45.88748" lon="4.72647">
        <ele>183</ele>
        <time>2017-08-05T13:45:44Z</time>
      </trkpt>
      <trkpt lat="45.88749" lon="4.72656">
        <ele>182</ele>
        <time>2017-08-05T13:45:45Z</time>
      </trkpt>
      <trkpt lat="45.88749" lon="4.72664">
        <ele>182</ele>
        <time>2017-08-05T13:45:46Z</time>
      </trkpt>
      <trkpt lat="45.88751" lon="4.72672">
        <ele>182</ele>
        <time>2017-08-05T13:45:47Z</time>
      </trkpt>
      <trkpt lat="45.88751" lon="4.72681">
        <ele>182</ele>
        <time>2017-08-05T13:45:48Z</time>
      </trkpt>
      <trkpt lat="45.88752" lon="4.72689">
        <ele>182</ele>
        <time>2017-08-05T13:45:49Z</time>
      </trkpt>
      <trkpt lat="45.88753" lon="4.72696">
        <ele>182</ele>
        <time>2017-08-05T13:45:50Z</time>
      </trkpt>
      <trkpt lat="45.88752" lon="4.72704">
        <ele>182</ele>
        <time>2017-08-05T13:45:51Z</time>
      </trkpt>
      <trkpt lat="45.88752" lon="4.72712">
        <ele>183</ele>
        <time>2017-08-05T13:45:52Z</time>
      </trkpt>
      <trkpt lat="45.88756" lon="4.7272">
        <ele>183</ele>
        <time>2017-08-05T13:45:53Z</time>
      </trkpt>
      <trkpt lat="45.88757" lon="4.72727">
        <ele>183</ele>
        <time>2017-08-05T13:45:54Z</time>
      </trkpt>
      <trkpt lat="45.88756" lon="4.72734">
        <ele>183</ele>
        <time>2017-08-05T13:45:55Z</time>
      </trkpt>
      <trkpt lat="45.88757" lon="4.72741">
        <ele>183</ele>
        <time>2017-08-05T13:45:56Z</time>
      </trkpt>
      <trkpt lat="45.88757" lon="4.72749">
        <ele>183</ele>
        <time>2017-08-05T13:45:57Z</time>
      </trkpt>
      <trkpt lat="45.88758" lon="4.72757">
        <ele>183</ele>
        <time>2017-08-05T13:45:58Z</time>
      </trkpt>
      <trkpt lat="45.88759" lon="4.72765">
        <ele>183</ele>
        <time>2017-08-05T13:45:59Z</time>
      </trkpt>
      <trkpt lat="45.88759" lon="4.72773">
        <ele>184</ele>
        <time>2017-08-05T13:46:00Z</time>
      </trkpt>
      <trkpt lat="45.88759" lon="4.72782">
        <ele>184</ele>
        <time>2017-08-05T13:46:01Z</time>
      </trkpt>
      <trkpt lat="45.88759" lon="4.72791">
        <ele>184</ele>
        <time>2017-08-05T13:46:02Z</time>
      </trkpt>
      <trkpt lat="45.8876" lon="4.72799">
        <ele>184</ele>
        <time>2017-08-05T13:46:03Z</time>
      </trkpt>
      <trkpt lat="45.8876" lon="4.72806">
        <ele>184</ele>
        <time>2017-08-05T13:46:04Z</time>
      </trkpt>
      <trkpt lat="45.88759" lon="4.72814">
        <ele>185</ele>
        <time>2017-08-05T13:46:05Z</time>
      </trkpt>
      <trkpt lat="45.88759" lon="4.72822">
        <ele>185</ele>
        <time>2017-08-05T13:46:06Z</time>
      </trkpt>
      <trkpt lat="45.88761" lon="4.72829">
        <ele>185</ele>
        <time>2017-08-05T13:46:07Z</time>
      </trkpt>
      <trkpt lat="45.88761" lon="4.72835">
        <ele>186</ele>
        <time>2017-08-05T13:46:08Z</time>
      </trkpt>
      <trkpt lat="45.88761" lon="4.72842">
        <ele>186</ele>
        <time>2017-08-05T13:46:09Z</time>
      </trkpt>
      <trkpt lat="45.88762" lon="4.7285">
        <ele>185</ele>
        <time>2017-08-05T13:46:10Z</time>
      </trkpt>
      <trkpt lat="45.88763" lon="4.72858">
        <ele>185</ele>
        <time>2017-08-05T13:46:11Z</time>
      </trkpt>
      <trkpt lat="45.88764" lon="4.72866">
        <ele>185</ele>
        <time>2017-08-05T13:46:12Z</time>
      </trkpt>
      <trkpt lat="45.88765" lon="4.72874">
        <ele>185</ele>
        <time>2017-08-05T13:46:13Z</time>
      </trkpt>
      <trkpt lat="45.88766" lon="4.72883">
        <ele>185</ele>
        <time>2017-08-05T13:46:14Z</time>
      </trkpt>
      <trkpt lat="45.88766" lon="4.72891">
        <ele>185</ele>
        <time>2017-08-05T13:46:15Z</time>
      </trkpt>
      <trkpt lat="45.88768" lon="4.72901">
        <ele>185</ele>
        <time>2017-08-05T13:46:16Z</time>
      </trkpt>
      <trkpt lat="45.8877" lon="4.72909">
        <ele>185</ele>
        <time>2017-08-05T13:46:17Z</time>
      </trkpt>
      <trkpt lat="45.88771" lon="4.72916">
        <ele>185</ele>
        <time>2017-08-05T13:46:18Z</time>
      </trkpt>
      <trkpt lat="45.88772" lon="4.72923">
        <ele>185</ele>
        <time>2017-08-05T13:46:19Z</time>
      </trkpt>
      <trkpt lat="45.88772" lon="4.72929">
        <ele>185</ele>
        <time>2017-08-05T13:46:20Z</time>
      </trkpt>
      <trkpt lat="45.88772" lon="4.72936">
        <ele>185</ele>
        <time>2017-08-05T13:46:21Z</time>
      </trkpt>
      <trkpt lat="45.88772" lon="4.72949">
        <ele>185</ele>
        <time>2017-08-05T13:46:23Z</time>
      </trkpt>
      <trkpt lat="45.88772" lon="4.72955">
        <ele>185</ele>
        <time>2017-08-05T13:46:24Z</time>
      </trkpt>
      <trkpt lat="45.88773" lon="4.72962">
        <ele>185</ele>
        <time>2017-08-05T13:46:25Z</time>
      </trkpt>
      <trkpt lat="45.88773" lon="4.72968">
        <ele>185</ele>
        <time>2017-08-05T13:46:26Z</time>
      </trkpt>
      <trkpt lat="45.88774" lon="4.72976">
        <ele>185</ele>
        <time>2017-08-05T13:46:27Z</time>
      </trkpt>
      <trkpt lat="45.88773" lon="4.72983">
        <ele>185</ele>
        <time>2017-08-05T13:46:28Z</time>
      </trkpt>
      <trkpt lat="45.88774" lon="4.72991">
        <ele>185</ele>
        <time>2017-08-05T13:46:29Z</time>
      </trkpt>
      <trkpt lat="45.88775" lon="4.73">
        <ele>184</ele>
        <time>2017-08-05T13:46:30Z</time>
      </trkpt>
      <trkpt lat="45.88775" lon="4.73009">
        <ele>184</ele>
        <time>2017-08-05T13:46:31Z</time>
      </trkpt>
      <trkpt lat="45.88775" lon="4.73019">
        <ele>184</ele>
        <time>2017-08-05T13:46:32Z</time>
      </trkpt>
      <trkpt lat="45.88776" lon="4.73029">
        <ele>184</ele>
        <time>2017-08-05T13:46:33Z</time>
      </trkpt>
      <trkpt lat="45.88777" lon="4.73038">
        <ele>184</ele>
        <time>2017-08-05T13:46:34Z</time>
      </trkpt>
      <trkpt lat="45.88778" lon="4.73048">
        <ele>184</ele>
        <time>2017-08-05T13:46:35Z</time>
      </trkpt>
      <trkpt lat="45.88778" lon="4.73058">
        <ele>184</ele>
        <time>2017-08-05T13:46:36Z</time>
      </trkpt>
      <trkpt lat="45.88779" lon="4.73068">
        <ele>184</ele>
        <time>2017-08-05T13:46:37Z</time>
      </trkpt>
      <trkpt lat="45.88779" lon="4.73078">
        <ele>184</ele>
        <time>2017-08-05T13:46:38Z</time>
      </trkpt>
      <trkpt lat="45.8878" lon="4.73088">
        <ele>183</ele>
        <time>2017-08-05T13:46:39Z</time>
      </trkpt>
      <trkpt lat="45.8878" lon="4.73097">
        <ele>183</ele>
        <time>2017-08-05T13:46:40Z</time>
      </trkpt>
      <trkpt lat="45.88781" lon="4.73105">
        <ele>182</ele>
        <time>2017-08-05T13:46:41Z</time>
      </trkpt>
      <trkpt lat="45.88782" lon="4.73112">
        <ele>182</ele>
        <time>2017-08-05T13:46:42Z</time>
      </trkpt>
      <trkpt lat="45.88785" lon="4.73118">
        <ele>182</ele>
        <time>2017-08-05T13:46:43Z</time>
      </trkpt>
      <trkpt lat="45.88789" lon="4.73122">
        <ele>182</ele>
        <time>2017-08-05T13:46:44Z</time>
      </trkpt>
      <trkpt lat="45.88794" lon="4.73123">
        <ele>182</ele>
        <time>2017-08-05T13:46:45Z</time>
      </trkpt>
      <trkpt lat="45.88798" lon="4.73122">
        <ele>182</ele>
        <time>2017-08-05T13:46:46Z</time>
      </trkpt>
      <trkpt lat="45.88806" lon="4.73123">
        <ele>182</ele>
        <time>2017-08-05T13:46:48Z</time>
      </trkpt>
      <trkpt lat="45.88809" lon="4.73121">
        <ele>182</ele>
        <time>2017-08-05T13:46:49Z</time>
      </trkpt>
      <trkpt lat="45.88816" lon="4.7312">
        <ele>182</ele>
        <time>2017-08-05T13:46:53Z</time>
      </trkpt>
      <trkpt lat="45.88818" lon="4.73119">
        <ele>182</ele>
        <time>2017-08-05T13:46:54Z</time>
      </trkpt>
      <trkpt lat="45.88823" lon="4.73116">
        <ele>182</ele>
        <time>2017-08-05T13:46:56Z</time>
      </trkpt>
      <trkpt lat="45.88827" lon="4.73116">
        <ele>182</ele>
        <time>2017-08-05T13:46:57Z</time>
      </trkpt>
      <trkpt lat="45.88831" lon="4.73114">
        <ele>182</ele>
        <time>2017-08-05T13:46:58Z</time>
      </trkpt>
      <trkpt lat="45.88836" lon="4.73114">
        <ele>182</ele>
        <time>2017-08-05T13:46:59Z</time>
      </trkpt>
      <trkpt lat="45.88841" lon="4.73112">
        <ele>182</ele>
        <time>2017-08-05T13:47:00Z</time>
      </trkpt>
      <trkpt lat="45.88846" lon="4.73109">
        <ele>182</ele>
        <time>2017-08-05T13:47:01Z</time>
      </trkpt>
      <trkpt lat="45.88851" lon="4.73109">
        <ele>182</ele>
        <time>2017-08-05T13:47:02Z</time>
      </trkpt>
      <trkpt lat="45.88855" lon="4.73109">
        <ele>182</ele>
        <time>2017-08-05T13:47:03Z</time>
      </trkpt>
      <trkpt lat="45.8886" lon="4.73107">
        <ele>182</ele>
        <time>2017-08-05T13:47:04Z</time>
      </trkpt>
      <trkpt lat="45.88864" lon="4.73106">
        <ele>182</ele>
        <time>2017-08-05T13:47:05Z</time>
      </trkpt>
      <trkpt lat="45.88869" lon="4.73105">
        <ele>182</ele>
        <time>2017-08-05T13:47:06Z</time>
      </trkpt>
      <trkpt lat="45.88873" lon="4.73104">
        <ele>182</ele>
        <time>2017-08-05T13:47:07Z</time>
      </trkpt>
      <trkpt lat="45.88878" lon="4.73102">
        <ele>182</ele>
        <time>2017-08-05T13:47:08Z</time>
      </trkpt>
      <trkpt lat="45.88882" lon="4.73101">
        <ele>182</ele>
        <time>2017-08-05T13:47:09Z</time>
      </trkpt>
      <trkpt lat="45.88887" lon="4.731">
        <ele>182</ele>
        <time>2017-08-05T13:47:10Z</time>
      </trkpt>
      <trkpt lat="45.88891" lon="4.73099">
        <ele>182</ele>
        <time>2017-08-05T13:47:11Z</time>
      </trkpt>
      <trkpt lat="45.889" lon="4.73098">
        <ele>182</ele>
        <time>2017-08-05T13:47:13Z</time>
      </trkpt>
      <trkpt lat="45.88905" lon="4.73097">
        <ele>182</ele>
        <time>2017-08-05T13:47:14Z</time>
      </trkpt>
      <trkpt lat="45.88913" lon="4.73094">
        <ele>183</ele>
        <time>2017-08-05T13:47:16Z</time>
      </trkpt>
      <trkpt lat="45.88916" lon="4.73095">
        <ele>183</ele>
        <time>2017-08-05T13:47:17Z</time>
      </trkpt>
      <trkpt lat="45.88921" lon="4.73094">
        <ele>183</ele>
        <time>2017-08-05T13:47:18Z</time>
      </trkpt>
      <trkpt lat="45.88926" lon="4.73091">
        <ele>183</ele>
        <time>2017-08-05T13:47:19Z</time>
      </trkpt>
      <trkpt lat="45.8893" lon="4.73089">
        <ele>183</ele>
        <time>2017-08-05T13:47:20Z</time>
      </trkpt>
      <trkpt lat="45.88934" lon="4.73088">
        <ele>183</ele>
        <time>2017-08-05T13:47:21Z</time>
      </trkpt>
      <trkpt lat="45.8894" lon="4.73086">
        <ele>183</ele>
        <time>2017-08-05T13:47:22Z</time>
      </trkpt>
      <trkpt lat="45.88945" lon="4.73086">
        <ele>183</ele>
        <time>2017-08-05T13:47:23Z</time>
      </trkpt>
      <trkpt lat="45.8895" lon="4.73085">
        <ele>183</ele>
        <time>2017-08-05T13:47:24Z</time>
      </trkpt>
      <trkpt lat="45.88955" lon="4.73084">
        <ele>183</ele>
        <time>2017-08-05T13:47:25Z</time>
      </trkpt>
      <trkpt lat="45.88959" lon="4.73083">
        <ele>183</ele>
        <time>2017-08-05T13:47:26Z</time>
      </trkpt>
      <trkpt lat="45.88964" lon="4.73082">
        <ele>183</ele>
        <time>2017-08-05T13:47:27Z</time>
      </trkpt>
      <trkpt lat="45.88972" lon="4.73079">
        <ele>183</ele>
        <time>2017-08-05T13:47:29Z</time>
      </trkpt>
      <trkpt lat="45.88977" lon="4.73077">
        <ele>183</ele>
        <time>2017-08-05T13:47:30Z</time>
      </trkpt>
      <trkpt lat="45.88985" lon="4.73076">
        <ele>183</ele>
        <time>2017-08-05T13:47:32Z</time>
      </trkpt>
      <trkpt lat="45.88988" lon="4.73076">
        <ele>183</ele>
        <time>2017-08-05T13:47:33Z</time>
      </trkpt>
      <trkpt lat="45.88995" lon="4.73074">
        <ele>183</ele>
        <time>2017-08-05T13:47:35Z</time>
      </trkpt>
      <trkpt lat="45.88999" lon="4.73073">
        <ele>183</ele>
        <time>2017-08-05T13:47:36Z</time>
      </trkpt>
      <trkpt lat="45.89004" lon="4.73071">
        <ele>183</ele>
        <time>2017-08-05T13:47:37Z</time>
      </trkpt>
      <trkpt lat="45.89009" lon="4.7307">
        <ele>183</ele>
        <time>2017-08-05T13:47:38Z</time>
      </trkpt>
      <trkpt lat="45.89014" lon="4.73068">
        <ele>182</ele>
        <time>2017-08-05T13:47:39Z</time>
      </trkpt>
      <trkpt lat="45.89019" lon="4.73067">
        <ele>182</ele>
        <time>2017-08-05T13:47:40Z</time>
      </trkpt>
      <trkpt lat="45.89024" lon="4.73065">
        <ele>182</ele>
        <time>2017-08-05T13:47:41Z</time>
      </trkpt>
      <trkpt lat="45.89029" lon="4.73065">
        <ele>182</ele>
        <time>2017-08-05T13:47:42Z</time>
      </trkpt>
      <trkpt lat="45.89034" lon="4.73063">
        <ele>182</ele>
        <time>2017-08-05T13:47:43Z</time>
      </trkpt>
      <trkpt lat="45.89038" lon="4.73062">
        <ele>182</ele>
        <time>2017-08-05T13:47:44Z</time>
      </trkpt>
      <trkpt lat="45.89047" lon="4.73061">
        <ele>182</ele>
        <time>2017-08-05T13:47:46Z</time>
      </trkpt>
      <trkpt lat="45.8905" lon="4.73063">
        <ele>182</ele>
        <time>2017-08-05T13:47:47Z</time>
      </trkpt>
      <trkpt lat="45.89054" lon="4.73069">
        <ele>182</ele>
        <time>2017-08-05T13:47:49Z</time>
      </trkpt>
      <trkpt lat="45.89056" lon="4.73072">
        <ele>182</ele>
        <time>2017-08-05T13:47:50Z</time>
      </trkpt>
      <trkpt lat="45.89056" lon="4.73082">
        <ele>182</ele>
        <time>2017-08-05T13:47:53Z</time>
      </trkpt>
      <trkpt lat="45.89056" lon="4.73086">
        <ele>182</ele>
        <time>2017-08-05T13:47:54Z</time>
      </trkpt>
      <trkpt lat="45.89053" lon="4.73097">
        <ele>182</ele>
        <time>2017-08-05T13:47:56Z</time>
      </trkpt>
      <trkpt lat="45.89053" lon="4.73103">
        <ele>182</ele>
        <time>2017-08-05T13:47:57Z</time>
      </trkpt>
      <trkpt lat="45.89054" lon="4.73109">
        <ele>182</ele>
        <time>2017-08-05T13:47:58Z</time>
      </trkpt>
      <trkpt lat="45.89054" lon="4.73116">
        <ele>182</ele>
        <time>2017-08-05T13:47:59Z</time>
      </trkpt>
      <trkpt lat="45.89054" lon="4.73123">
        <ele>182</ele>
        <time>2017-08-05T13:48:00Z</time>
      </trkpt>
      <trkpt lat="45.89055" lon="4.7313">
        <ele>182</ele>
        <time>2017-08-05T13:48:01Z</time>
      </trkpt>
      <trkpt lat="45.89056" lon="4.73137">
        <ele>181</ele>
        <time>2017-08-05T13:48:02Z</time>
      </trkpt>
      <trkpt lat="45.89057" lon="4.73143">
        <ele>181</ele>
        <time>2017-08-05T13:48:03Z</time>
      </trkpt>
      <trkpt lat="45.89058" lon="4.73154">
        <ele>181</ele>
        <time>2017-08-05T13:48:05Z</time>
      </trkpt>
      <trkpt lat="45.89058" lon="4.73159">
        <ele>181</ele>
        <time>2017-08-05T13:48:06Z</time>
      </trkpt>
      <trkpt lat="45.89058" lon="4.73172">
        <ele>180</ele>
        <time>2017-08-05T13:48:08Z</time>
      </trkpt>
      <trkpt lat="45.89058" lon="4.73179">
        <ele>180</ele>
        <time>2017-08-05T13:48:09Z</time>
      </trkpt>
      <trkpt lat="45.89058" lon="4.73186">
        <ele>180</ele>
        <time>2017-08-05T13:48:10Z</time>
      </trkpt>
      <trkpt lat="45.89058" lon="4.73194">
        <ele>180</ele>
        <time>2017-08-05T13:48:11Z</time>
      </trkpt>
      <trkpt lat="45.89059" lon="4.73202">
        <ele>180</ele>
        <time>2017-08-05T13:48:12Z</time>
      </trkpt>
      <trkpt lat="45.89059" lon="4.73209">
        <ele>180</ele>
        <time>2017-08-05T13:48:13Z</time>
      </trkpt>
      <trkpt lat="45.8906" lon="4.73217">
        <ele>180</ele>
        <time>2017-08-05T13:48:14Z</time>
      </trkpt>
      <trkpt lat="45.8906" lon="4.73224">
        <ele>180</ele>
        <time>2017-08-05T13:48:15Z</time>
      </trkpt>
      <trkpt lat="45.89061" lon="4.73232">
        <ele>180</ele>
        <time>2017-08-05T13:48:16Z</time>
      </trkpt>
      <trkpt lat="45.89062" lon="4.73239">
        <ele>180</ele>
        <time>2017-08-05T13:48:17Z</time>
      </trkpt>
      <trkpt lat="45.89062" lon="4.73246">
        <ele>180</ele>
        <time>2017-08-05T13:48:18Z</time>
      </trkpt>
      <trkpt lat="45.89063" lon="4.73253">
        <ele>179</ele>
        <time>2017-08-05T13:48:19Z</time>
      </trkpt>
      <trkpt lat="45.89065" lon="4.73265">
        <ele>179</ele>
        <time>2017-08-05T13:48:21Z</time>
      </trkpt>
      <trkpt lat="45.89066" lon="4.73271">
        <ele>179</ele>
        <time>2017-08-05T13:48:22Z</time>
      </trkpt>
      <trkpt lat="45.89068" lon="4.73281">
        <ele>179</ele>
        <time>2017-08-05T13:48:24Z</time>
      </trkpt>
      <trkpt lat="45.8907" lon="4.73286">
        <ele>179</ele>
        <time>2017-08-05T13:48:25Z</time>
      </trkpt>
      <trkpt lat="45.89072" lon="4.73295">
        <ele>179</ele>
        <time>2017-08-05T13:48:27Z</time>
      </trkpt>
      <trkpt lat="45.89074" lon="4.733">
        <ele>179</ele>
        <time>2017-08-05T13:48:28Z</time>
      </trkpt>
      <trkpt lat="45.89076" lon="4.73311">
        <ele>179</ele>
        <time>2017-08-05T13:48:30Z</time>
      </trkpt>
      <trkpt lat="45.89077" lon="4.73318">
        <ele>179</ele>
        <time>2017-08-05T13:48:31Z</time>
      </trkpt>
      <trkpt lat="45.89078" lon="4.73325">
        <ele>179</ele>
        <time>2017-08-05T13:48:32Z</time>
      </trkpt>
      <trkpt lat="45.89078" lon="4.73332">
        <ele>179</ele>
        <time>2017-08-05T13:48:33Z</time>
      </trkpt>
      <trkpt lat="45.89079" lon="4.73339">
        <ele>179</ele>
        <time>2017-08-05T13:48:34Z</time>
      </trkpt>
      <trkpt lat="45.8908" lon="4.73346">
        <ele>179</ele>
        <time>2017-08-05T13:48:35Z</time>
      </trkpt>
      <trkpt lat="45.89081" lon="4.73353">
        <ele>180</ele>
        <time>2017-08-05T13:48:36Z</time>
      </trkpt>
      <trkpt lat="45.89082" lon="4.7336">
        <ele>180</ele>
        <time>2017-08-05T13:48:37Z</time>
      </trkpt>
      <trkpt lat="45.89082" lon="4.73366">
        <ele>180</ele>
        <time>2017-08-05T13:48:38Z</time>
      </trkpt>
      <trkpt lat="45.89083" lon="4.73372">
        <ele>180</ele>
        <time>2017-08-05T13:48:39Z</time>
      </trkpt>
      <trkpt lat="45.89084" lon="4.73384">
        <ele>179</ele>
        <time>2017-08-05T13:48:41Z</time>
      </trkpt>
      <trkpt lat="45.89084" lon="4.73389">
        <ele>179</ele>
        <time>2017-08-05T13:48:42Z</time>
      </trkpt>
      <trkpt lat="45.89085" lon="4.73399">
        <ele>179</ele>
        <time>2017-08-05T13:48:44Z</time>
      </trkpt>
      <trkpt lat="45.89086" lon="4.73404">
        <ele>180</ele>
        <time>2017-08-05T13:48:45Z</time>
      </trkpt>
      <trkpt lat="45.89088" lon="4.73414">
        <ele>180</ele>
        <time>2017-08-05T13:48:48Z</time>
      </trkpt>
      <trkpt lat="45.89088" lon="4.73417">
        <ele>180</ele>
        <time>2017-08-05T13:48:49Z</time>
      </trkpt>
      <trkpt lat="45.8909" lon="4.73427">
        <ele>180</ele>
        <time>2017-08-05T13:48:52Z</time>
      </trkpt>
      <trkpt lat="45.89091" lon="4.7343">
        <ele>180</ele>
        <time>2017-08-05T13:48:53Z</time>
      </trkpt>
      <trkpt lat="45.89093" lon="4.7344">
        <ele>180</ele>
        <time>2017-08-05T13:48:56Z</time>
      </trkpt>
      <trkpt lat="45.89094" lon="4.73443">
        <ele>180</ele>
        <time>2017-08-05T13:48:57Z</time>
      </trkpt>
      <trkpt lat="45.89097" lon="4.73455">
        <ele>180</ele>
        <time>2017-08-05T13:49:01Z</time>
      </trkpt>
      <trkpt lat="45.89099" lon="4.73458">
        <ele>180</ele>
        <time>2017-08-05T13:49:02Z</time>
      </trkpt>
      <trkpt lat="45.89102" lon="4.73466">
        <ele>180</ele>
        <time>2017-08-05T13:49:03Z</time>
      </trkpt>
      <trkpt lat="45.89095" lon="4.73471">
        <ele>180</ele>
        <time>2017-08-05T13:49:04Z</time>
      </trkpt>
      <trkpt lat="45.89091" lon="4.73476">
        <ele>180</ele>
        <time>2017-08-05T13:49:05Z</time>
      </trkpt>
      <trkpt lat="45.89088" lon="4.73482">
        <ele>180</ele>
        <time>2017-08-05T13:49:06Z</time>
      </trkpt>
      <trkpt lat="45.8909" lon="4.73488">
        <ele>180</ele>
        <time>2017-08-05T13:49:07Z</time>
      </trkpt>
      <trkpt lat="45.89092" lon="4.73496">
        <ele>181</ele>
        <time>2017-08-05T13:49:08Z</time>
      </trkpt>
      <trkpt lat="45.89093" lon="4.73508">
        <ele>181</ele>
        <time>2017-08-05T13:49:10Z</time>
      </trkpt>
      <trkpt lat="45.89094" lon="4.73513">
        <ele>181</ele>
        <time>2017-08-05T13:49:11Z</time>
      </trkpt>
      <trkpt lat="45.89095" lon="4.73522">
        <ele>181</ele>
        <time>2017-08-05T13:49:13Z</time>
      </trkpt>
      <trkpt lat="45.89095" lon="4.73526">
        <ele>181</ele>
        <time>2017-08-05T13:49:14Z</time>
      </trkpt>
      <trkpt lat="45.89095" lon="4.73535">
        <ele>181</ele>
        <time>2017-08-05T13:49:16Z</time>
      </trkpt>
      <trkpt lat="45.89095" lon="4.73539">
        <ele>181</ele>
        <time>2017-08-05T13:49:17Z</time>
      </trkpt>
      <trkpt lat="45.89094" lon="4.7355">
        <ele>181</ele>
        <time>2017-08-05T13:49:19Z</time>
      </trkpt>
      <trkpt lat="45.89094" lon="4.73556">
        <ele>181</ele>
        <time>2017-08-05T13:49:20Z</time>
      </trkpt>
      <trkpt lat="45.89095" lon="4.73563">
        <ele>181</ele>
        <time>2017-08-05T13:49:21Z</time>
      </trkpt>
      <trkpt lat="45.89096" lon="4.73569">
        <ele>181</ele>
        <time>2017-08-05T13:49:22Z</time>
      </trkpt>
      <trkpt lat="45.89097" lon="4.73576">
        <ele>181</ele>
        <time>2017-08-05T13:49:23Z</time>
      </trkpt>
      <trkpt lat="45.89098" lon="4.73582">
        <ele>181</ele>
        <time>2017-08-05T13:49:24Z</time>
      </trkpt>
      <trkpt lat="45.89101" lon="4.73591">
        <ele>181</ele>
        <time>2017-08-05T13:49:26Z</time>
      </trkpt>
      <trkpt lat="45.89103" lon="4.73595">
        <ele>181</ele>
        <time>2017-08-05T13:49:27Z</time>
      </trkpt>
      <trkpt lat="45.89108" lon="4.73602">
        <ele>181</ele>
        <time>2017-08-05T13:49:29Z</time>
      </trkpt>
      <trkpt lat="45.89111" lon="4.73606">
        <ele>181</ele>
        <time>2017-08-05T13:49:30Z</time>
      </trkpt>
      <trkpt lat="45.89115" lon="4.73615">
        <ele>181</ele>
        <time>2017-08-05T13:49:32Z</time>
      </trkpt>
      <trkpt lat="45.89118" lon="4.73617">
        <ele>181</ele>
        <time>2017-08-05T13:49:33Z</time>
      </trkpt>
      <trkpt lat="45.8912" lon="4.73628">
        <ele>181</ele>
        <time>2017-08-05T13:49:35Z</time>
      </trkpt>
      <trkpt lat="45.89121" lon="4.73634">
        <ele>181</ele>
        <time>2017-08-05T13:49:36Z</time>
      </trkpt>
      <trkpt lat="45.8912" lon="4.73647">
        <ele>182</ele>
        <time>2017-08-05T13:49:38Z</time>
      </trkpt>
      <trkpt lat="45.89119" lon="4.73653">
        <ele>182</ele>
        <time>2017-08-05T13:49:39Z</time>
      </trkpt>
      <trkpt lat="45.89117" lon="4.73664">
        <ele>182</ele>
        <time>2017-08-05T13:49:41Z</time>
      </trkpt>
      <trkpt lat="45.89116" lon="4.73668">
        <ele>182</ele>
        <time>2017-08-05T13:49:42Z</time>
      </trkpt>
      <trkpt lat="45.89114" lon="4.73677">
        <ele>182</ele>
        <time>2017-08-05T13:49:44Z</time>
      </trkpt>
      <trkpt lat="45.89114" lon="4.73681">
        <ele>182</ele>
        <time>2017-08-05T13:49:45Z</time>
      </trkpt>
      <trkpt lat="45.89113" lon="4.73692">
        <ele>182</ele>
        <time>2017-08-05T13:49:47Z</time>
      </trkpt>
      <trkpt lat="45.89113" lon="4.73698">
        <ele>182</ele>
        <time>2017-08-05T13:49:48Z</time>
      </trkpt>
      <trkpt lat="45.89111" lon="4.73707">
        <ele>182</ele>
        <time>2017-08-05T13:49:50Z</time>
      </trkpt>
      <trkpt lat="45.89111" lon="4.73712">
        <ele>182</ele>
        <time>2017-08-05T13:49:51Z</time>
      </trkpt>
      <trkpt lat="45.89111" lon="4.73723">
        <ele>182</ele>
        <time>2017-08-05T13:49:53Z</time>
      </trkpt>
      <trkpt lat="45.8911" lon="4.73729">
        <ele>181</ele>
        <time>2017-08-05T13:49:54Z</time>
      </trkpt>
      <trkpt lat="45.8911" lon="4.73738">
        <ele>181</ele>
        <time>2017-08-05T13:49:56Z</time>
      </trkpt>
      <trkpt lat="45.89109" lon="4.73742">
        <ele>181</ele>
        <time>2017-08-05T13:49:57Z</time>
      </trkpt>
      <trkpt lat="45.89109" lon="4.73753">
        <ele>181</ele>
        <time>2017-08-05T13:50:00Z</time>
      </trkpt>
      <trkpt lat="45.89109" lon="4.73756">
        <ele>181</ele>
        <time>2017-08-05T13:50:01Z</time>
      </trkpt>
      <trkpt lat="45.8911" lon="4.73763">
        <ele>181</ele>
        <time>2017-08-05T13:50:03Z</time>
      </trkpt>
      <trkpt lat="45.8911" lon="4.73764">
        <ele>181</ele>
        <time>2017-08-05T13:50:04Z</time>
      </trkpt>
      <trkpt lat="45.89108" lon="4.73766">
        <ele>181</ele>
        <time>2017-08-05T13:50:24Z</time>
      </trkpt>
      <trkpt lat="45.89109" lon="4.73768">
        <ele>181</ele>
        <time>2017-08-05T13:50:25Z</time>
      </trkpt>
      <trkpt lat="45.89111" lon="4.73778">
        <ele>181</ele>
        <time>2017-08-05T13:50:28Z</time>
      </trkpt>
      <trkpt lat="45.8911" lon="4.73785">
        <ele>181</ele>
        <time>2017-08-05T13:50:29Z</time>
      </trkpt>
      <trkpt lat="45.89111" lon="4.73791">
        <ele>181</ele>
        <time>2017-08-05T13:50:30Z</time>
      </trkpt>
      <trkpt lat="45.89112" lon="4.73798">
        <ele>181</ele>
        <time>2017-08-05T13:50:31Z</time>
      </trkpt>
      <trkpt lat="45.89113" lon="4.73804">
        <ele>181</ele>
        <time>2017-08-05T13:50:32Z</time>
      </trkpt>
      <trkpt lat="45.89115" lon="4.73811">
        <ele>181</ele>
        <time>2017-08-05T13:50:33Z</time>
      </trkpt>
      <trkpt lat="45.89116" lon="4.73823">
        <ele>181</ele>
        <time>2017-08-05T13:50:35Z</time>
      </trkpt>
      <trkpt lat="45.89116" lon="4.7383">
        <ele>181</ele>
        <time>2017-08-05T13:50:36Z</time>
      </trkpt>
      <trkpt lat="45.89117" lon="4.7384">
        <ele>182</ele>
        <time>2017-08-05T13:50:38Z</time>
      </trkpt>
      <trkpt lat="45.89117" lon="4.73845">
        <ele>182</ele>
        <time>2017-08-05T13:50:39Z</time>
      </trkpt>
      <trkpt lat="45.89118" lon="4.73857">
        <ele>182</ele>
        <time>2017-08-05T13:50:42Z</time>
      </trkpt>
      <trkpt lat="45.89119" lon="4.73861">
        <ele>182</ele>
        <time>2017-08-05T13:50:43Z</time>
      </trkpt>
      <trkpt lat="45.8912" lon="4.73873">
        <ele>182</ele>
        <time>2017-08-05T13:50:45Z</time>
      </trkpt>
      <trkpt lat="45.8912" lon="4.73879">
        <ele>182</ele>
        <time>2017-08-05T13:50:46Z</time>
      </trkpt>
      <trkpt lat="45.89119" lon="4.73891">
        <ele>182</ele>
        <time>2017-08-05T13:50:48Z</time>
      </trkpt>
      <trkpt lat="45.89119" lon="4.73897">
        <ele>182</ele>
        <time>2017-08-05T13:50:49Z</time>
      </trkpt>
      <trkpt lat="45.89118" lon="4.73907">
        <ele>182</ele>
        <time>2017-08-05T13:50:51Z</time>
      </trkpt>
      <trkpt lat="45.89119" lon="4.73912">
        <ele>182</ele>
        <time>2017-08-05T13:50:52Z</time>
      </trkpt>
      <trkpt lat="45.89119" lon="4.73924">
        <ele>183</ele>
        <time>2017-08-05T13:50:55Z</time>
      </trkpt>
      <trkpt lat="45.89119" lon="4.73929">
        <ele>183</ele>
        <time>2017-08-05T13:50:56Z</time>
      </trkpt>
      <trkpt lat="45.89119" lon="4.73939">
        <ele>183</ele>
        <time>2017-08-05T13:50:58Z</time>
      </trkpt>
      <trkpt lat="45.8912" lon="4.73946">
        <ele>183</ele>
        <time>2017-08-05T13:50:59Z</time>
      </trkpt>
      <trkpt lat="45.89121" lon="4.73956">
        <ele>183</ele>
        <time>2017-08-05T13:51:01Z</time>
      </trkpt>
      <trkpt lat="45.89121" lon="4.7396">
        <ele>183</ele>
        <time>2017-08-05T13:51:02Z</time>
      </trkpt>
      <trkpt lat="45.89122" lon="4.73972">
        <ele>183</ele>
        <time>2017-08-05T13:51:05Z</time>
      </trkpt>
      <trkpt lat="45.89121" lon="4.73977">
        <ele>183</ele>
        <time>2017-08-05T13:51:06Z</time>
      </trkpt>
      <trkpt lat="45.89117" lon="4.73985">
        <ele>183</ele>
        <time>2017-08-05T13:51:08Z</time>
      </trkpt>
      <trkpt lat="45.89114" lon="4.73988">
        <ele>183</ele>
        <time>2017-08-05T13:51:09Z</time>
      </trkpt>
      <trkpt lat="45.89106" lon="4.7399">
        <ele>183</ele>
        <time>2017-08-05T13:51:11Z</time>
      </trkpt>
      <trkpt lat="45.89102" lon="4.73991">
        <ele>183</ele>
        <time>2017-08-05T13:51:12Z</time>
      </trkpt>
      <trkpt lat="45.89098" lon="4.73992">
        <ele>183</ele>
        <time>2017-08-05T13:51:13Z</time>
      </trkpt>
      <trkpt lat="45.89093" lon="4.73993">
        <ele>183</ele>
        <time>2017-08-05T13:51:14Z</time>
      </trkpt>
      <trkpt lat="45.89084" lon="4.73994">
        <ele>183</ele>
        <time>2017-08-05T13:51:16Z</time>
      </trkpt>
      <trkpt lat="45.8908" lon="4.73996">
        <ele>183</ele>
        <time>2017-08-05T13:51:17Z</time>
      </trkpt>
      <trkpt lat="45.89073" lon="4.73998">
        <ele>183</ele>
        <time>2017-08-05T13:51:19Z</time>
      </trkpt>
      <trkpt lat="45.8907" lon="4.74">
        <ele>183</ele>
        <time>2017-08-05T13:51:20Z</time>
      </trkpt>
      <trkpt lat="45.89066" lon="4.74">
        <ele>184</ele>
        <time>2017-08-05T13:51:21Z</time>
      </trkpt>
      <trkpt lat="45.89061" lon="4.74">
        <ele>184</ele>
        <time>2017-08-05T13:51:22Z</time>
      </trkpt>
      <trkpt lat="45.89056" lon="4.74001">
        <ele>184</ele>
        <time>2017-08-05T13:51:23Z</time>
      </trkpt>
      <trkpt lat="45.89052" lon="4.74003">
        <ele>184</ele>
        <time>2017-08-05T13:51:24Z</time>
      </trkpt>
      <trkpt lat="45.89044" lon="4.74006">
        <ele>184</ele>
        <time>2017-08-05T13:51:26Z</time>
      </trkpt>
      <trkpt lat="45.8904" lon="4.74008">
        <ele>184</ele>
        <time>2017-08-05T13:51:27Z</time>
      </trkpt>
      <trkpt lat="45.89035" lon="4.74015">
        <ele>184</ele>
        <time>2017-08-05T13:51:29Z</time>
      </trkpt>
      <trkpt lat="45.89033" lon="4.74021">
        <ele>184</ele>
        <time>2017-08-05T13:51:30Z</time>
      </trkpt>
      <trkpt lat="45.89033" lon="4.74027">
        <ele>184</ele>
        <time>2017-08-05T13:51:31Z</time>
      </trkpt>
      <trkpt lat="45.89034" lon="4.74034">
        <ele>184</ele>
        <time>2017-08-05T13:51:32Z</time>
      </trkpt>
      <trkpt lat="45.89035" lon="4.74041">
        <ele>184</ele>
        <time>2017-08-05T13:51:33Z</time>
      </trkpt>
      <trkpt lat="45.89035" lon="4.74048">
        <ele>184</ele>
        <time>2017-08-05T13:51:34Z</time>
      </trkpt>
      <trkpt lat="45.89035" lon="4.74055">
        <ele>184</ele>
        <time>2017-08-05T13:51:35Z</time>
      </trkpt>
      <trkpt lat="45.89035" lon="4.74062">
        <ele>184</ele>
        <time>2017-08-05T13:51:36Z</time>
      </trkpt>
      <trkpt lat="45.89035" lon="4.74068">
        <ele>184</ele>
        <time>2017-08-05T13:51:37Z</time>
      </trkpt>
      <trkpt lat="45.89038" lon="4.74075">
        <ele>184</ele>
        <time>2017-08-05T13:51:38Z</time>
      </trkpt>
      <trkpt lat="45.89038" lon="4.74082">
        <ele>184</ele>
        <time>2017-08-05T13:51:39Z</time>
      </trkpt>
      <trkpt lat="45.89038" lon="4.74088">
        <ele>185</ele>
        <time>2017-08-05T13:51:40Z</time>
      </trkpt>
      <trkpt lat="45.89038" lon="4.74101">
        <ele>185</ele>
        <time>2017-08-05T13:51:42Z</time>
      </trkpt>
      <trkpt lat="45.89038" lon="4.74107">
        <ele>185</ele>
        <time>2017-08-05T13:51:43Z</time>
      </trkpt>
      <trkpt lat="45.89038" lon="4.74113">
        <ele>185</ele>
        <time>2017-08-05T13:51:44Z</time>
      </trkpt>
      <trkpt lat="45.89038" lon="4.7412">
        <ele>185</ele>
        <time>2017-08-05T13:51:45Z</time>
      </trkpt>
      <trkpt lat="45.89038" lon="4.74128">
        <ele>185</ele>
        <time>2017-08-05T13:51:46Z</time>
      </trkpt>
      <trkpt lat="45.89035" lon="4.74133">
        <ele>185</ele>
        <time>2017-08-05T13:51:47Z</time>
      </trkpt>
      <trkpt lat="45.89035" lon="4.74144">
        <ele>185</ele>
        <time>2017-08-05T13:51:48Z</time>
      </trkpt>
      <trkpt lat="45.89034" lon="4.74152">
        <ele>185</ele>
        <time>2017-08-05T13:51:49Z</time>
      </trkpt>
      <trkpt lat="45.89031" lon="4.74159">
        <ele>185</ele>
        <time>2017-08-05T13:51:50Z</time>
      </trkpt>
      <trkpt lat="45.89029" lon="4.74165">
        <ele>185</ele>
        <time>2017-08-05T13:51:51Z</time>
      </trkpt>
      <trkpt lat="45.89025" lon="4.74176">
        <ele>185</ele>
        <time>2017-08-05T13:51:53Z</time>
      </trkpt>
      <trkpt lat="45.89024" lon="4.74181">
        <ele>185</ele>
        <time>2017-08-05T13:51:54Z</time>
      </trkpt>
      <trkpt lat="45.8902" lon="4.7419">
        <ele>186</ele>
        <time>2017-08-05T13:51:56Z</time>
      </trkpt>
      <trkpt lat="45.89019" lon="4.74194">
        <ele>186</ele>
        <time>2017-08-05T13:51:57Z</time>
      </trkpt>
      <trkpt lat="45.89016" lon="4.74203">
        <ele>186</ele>
        <time>2017-08-05T13:51:59Z</time>
      </trkpt>
      <trkpt lat="45.89013" lon="4.74209">
        <ele>186</ele>
        <time>2017-08-05T13:52:00Z</time>
      </trkpt>
      <trkpt lat="45.89009" lon="4.7422">
        <ele>186</ele>
        <time>2017-08-05T13:52:02Z</time>
      </trkpt>
      <trkpt lat="45.89008" lon="4.74222">
        <ele>186</ele>
        <time>2017-08-05T13:52:03Z</time>
      </trkpt>
      <trkpt lat="45.89011" lon="4.74228">
        <ele>186</ele>
        <time>2017-08-05T13:52:05Z</time>
      </trkpt>
      <trkpt lat="45.89014" lon="4.74231">
        <ele>186</ele>
        <time>2017-08-05T13:52:06Z</time>
      </trkpt>
      <trkpt lat="45.89019" lon="4.74238">
        <ele>186</ele>
        <time>2017-08-05T13:52:08Z</time>
      </trkpt>
      <trkpt lat="45.89021" lon="4.74243">
        <ele>186</ele>
        <time>2017-08-05T13:52:09Z</time>
      </trkpt>
      <trkpt lat="45.89021" lon="4.74253">
        <ele>187</ele>
        <time>2017-08-05T13:52:11Z</time>
      </trkpt>
      <trkpt lat="45.89021" lon="4.74257">
        <ele>187</ele>
        <time>2017-08-05T13:52:12Z</time>
      </trkpt>
      <trkpt lat="45.89021" lon="4.74269">
        <ele>187</ele>
        <time>2017-08-05T13:52:15Z</time>
      </trkpt>
      <trkpt lat="45.89021" lon="4.74271">
        <ele>187</ele>
        <time>2017-08-05T13:52:16Z</time>
      </trkpt>
      <trkpt lat="45.89019" lon="4.74273">
        <ele>187</ele>
        <time>2017-08-05T13:52:21Z</time>
      </trkpt>
      <trkpt lat="45.89021" lon="4.74272">
        <ele>187</ele>
        <time>2017-08-05T13:52:22Z</time>
      </trkpt>
      <trkpt lat="45.89022" lon="4.74279">
        <ele>187</ele>
        <time>2017-08-05T13:52:26Z</time>
      </trkpt>
      <trkpt lat="45.8902" lon="4.74282">
        <ele>187</ele>
        <time>2017-08-05T13:52:27Z</time>
      </trkpt>
      <trkpt lat="45.89014" lon="4.74286">
        <ele>187</ele>
        <time>2017-08-05T13:52:29Z</time>
      </trkpt>
      <trkpt lat="45.8901" lon="4.74287">
        <ele>187</ele>
        <time>2017-08-05T13:52:30Z</time>
      </trkpt>
      <trkpt lat="45.89002" lon="4.74288">
        <ele>187</ele>
        <time>2017-08-05T13:52:32Z</time>
      </trkpt>
      <trkpt lat="45.88998" lon="4.74289">
        <ele>187</ele>
        <time>2017-08-05T13:52:33Z</time>
      </trkpt>
      <trkpt lat="45.88991" lon="4.74288">
        <ele>187</ele>
        <time>2017-08-05T13:52:35Z</time>
      </trkpt>
      <trkpt lat="45.88988" lon="4.7429">
        <ele>187</ele>
        <time>2017-08-05T13:52:36Z</time>
      </trkpt>
      <trkpt lat="45.88981" lon="4.74294">
        <ele>187</ele>
        <time>2017-08-05T13:52:39Z</time>
      </trkpt>
      <trkpt lat="45.88978" lon="4.74297">
        <ele>187</ele>
        <time>2017-08-05T13:52:40Z</time>
      </trkpt>
      <trkpt lat="45.88974" lon="4.74304">
        <ele>187</ele>
        <time>2017-08-05T13:52:42Z</time>
      </trkpt>
      <trkpt lat="45.88972" lon="4.74309">
        <ele>187</ele>
        <time>2017-08-05T13:52:43Z</time>
      </trkpt>
      <trkpt lat="45.88969" lon="4.74319">
        <ele>187</ele>
        <time>2017-08-05T13:52:45Z</time>
      </trkpt>
      <trkpt lat="45.88968" lon="4.74323">
        <ele>187</ele>
        <time>2017-08-05T13:52:46Z</time>
      </trkpt>
      <trkpt lat="45.88965" lon="4.7433">
        <ele>187</ele>
        <time>2017-08-05T13:52:48Z</time>
      </trkpt>
      <trkpt lat="45.88965" lon="4.74336">
        <ele>188</ele>
        <time>2017-08-05T13:52:49Z</time>
      </trkpt>
      <trkpt lat="45.88966" lon="4.74341">
        <ele>188</ele>
        <time>2017-08-05T13:52:50Z</time>
      </trkpt>
      <trkpt lat="45.88964" lon="4.74349">
        <ele>188</ele>
        <time>2017-08-05T13:52:51Z</time>
      </trkpt>
      <trkpt lat="45.88959" lon="4.74352">
        <ele>188</ele>
        <time>2017-08-05T13:52:52Z</time>
      </trkpt>
      <trkpt lat="45.88956" lon="4.74356">
        <ele>188</ele>
        <time>2017-08-05T13:52:53Z</time>
      </trkpt>
      <trkpt lat="45.88952" lon="4.74366">
        <ele>188</ele>
        <time>2017-08-05T13:52:55Z</time>
      </trkpt>
      <trkpt lat="45.88949" lon="4.7437">
        <ele>188</ele>
        <time>2017-08-05T13:52:56Z</time>
      </trkpt>
      <trkpt lat="45.88946" lon="4.74379">
        <ele>188</ele>
        <time>2017-08-05T13:52:58Z</time>
      </trkpt>
      <trkpt lat="45.88943" lon="4.74383">
        <ele>188</ele>
        <time>2017-08-05T13:52:59Z</time>
      </trkpt>
      <trkpt lat="45.88939" lon="4.74391">
        <ele>188</ele>
        <time>2017-08-05T13:53:01Z</time>
      </trkpt>
      <trkpt lat="45.88937" lon="4.74395">
        <ele>188</ele>
        <time>2017-08-05T13:53:02Z</time>
      </trkpt>
      <trkpt lat="45.88935" lon="4.74407">
        <ele>188</ele>
        <time>2017-08-05T13:53:04Z</time>
      </trkpt>
      <trkpt lat="45.88937" lon="4.74413">
        <ele>188</ele>
        <time>2017-08-05T13:53:05Z</time>
      </trkpt>
      <trkpt lat="45.88941" lon="4.74415">
        <ele>188</ele>
        <time>2017-08-05T13:53:06Z</time>
      </trkpt>
      <trkpt lat="45.88946" lon="4.74415">
        <ele>188</ele>
        <time>2017-08-05T13:53:07Z</time>
      </trkpt>
      <trkpt lat="45.88955" lon="4.7442">
        <ele>188</ele>
        <time>2017-08-05T13:53:09Z</time>
      </trkpt>
      <trkpt lat="45.88959" lon="4.7442">
        <ele>188</ele>
        <time>2017-08-05T13:53:10Z</time>
      </trkpt>
      <trkpt lat="45.88965" lon="4.74423">
        <ele>188</ele>
        <time>2017-08-05T13:53:12Z</time>
      </trkpt>
      <trkpt lat="45.88968" lon="4.74424">
        <ele>188</ele>
        <time>2017-08-05T13:53:13Z</time>
      </trkpt>
      <trkpt lat="45.88975" lon="4.74426">
        <ele>188</ele>
        <time>2017-08-05T13:53:15Z</time>
      </trkpt>
      <trkpt lat="45.88979" lon="4.74426">
        <ele>188</ele>
        <time>2017-08-05T13:53:16Z</time>
      </trkpt>
      <trkpt lat="45.88987" lon="4.74431">
        <ele>188</ele>
        <time>2017-08-05T13:53:18Z</time>
      </trkpt>
      <trkpt lat="45.88989" lon="4.74435">
        <ele>188</ele>
        <time>2017-08-05T13:53:19Z</time>
      </trkpt>
      <trkpt lat="45.88995" lon="4.74442">
        <ele>188</ele>
        <time>2017-08-05T13:53:21Z</time>
      </trkpt>
      <trkpt lat="45.88995" lon="4.74447">
        <ele>188</ele>
        <time>2017-08-05T13:53:22Z</time>
      </trkpt>
      <trkpt lat="45.89003" lon="4.74451">
        <ele>188</ele>
        <time>2017-08-05T13:53:24Z</time>
      </trkpt>
      <trkpt lat="45.89007" lon="4.74454">
        <ele>188</ele>
        <time>2017-08-05T13:53:25Z</time>
      </trkpt>
      <trkpt lat="45.89011" lon="4.74462">
        <ele>188</ele>
        <time>2017-08-05T13:53:27Z</time>
      </trkpt>
      <trkpt lat="45.89012" lon="4.74467">
        <ele>188</ele>
        <time>2017-08-05T13:53:28Z</time>
      </trkpt>
      <trkpt lat="45.8901" lon="4.74473">
        <ele>188</ele>
        <time>2017-08-05T13:53:29Z</time>
      </trkpt>
      <trkpt lat="45.89008" lon="4.7448">
        <ele>189</ele>
        <time>2017-08-05T13:53:30Z</time>
      </trkpt>
      <trkpt lat="45.89005" lon="4.7449">
        <ele>189</ele>
        <time>2017-08-05T13:53:32Z</time>
      </trkpt>
      <trkpt lat="45.89004" lon="4.74494">
        <ele>189</ele>
        <time>2017-08-05T13:53:33Z</time>
      </trkpt>
      <trkpt lat="45.8901" lon="4.74501">
        <ele>189</ele>
        <time>2017-08-05T13:53:36Z</time>
      </trkpt>
      <trkpt lat="45.89012" lon="4.74503">
        <ele>189</ele>
        <time>2017-08-05T13:53:37Z</time>
      </trkpt>
      <trkpt lat="45.89019" lon="4.74507">
        <ele>189</ele>
        <time>2017-08-05T13:53:40Z</time>
      </trkpt>
      <trkpt lat="45.89022" lon="4.74508">
        <ele>189</ele>
        <time>2017-08-05T13:53:41Z</time>
      </trkpt>
      <trkpt lat="45.89024" lon="4.74516">
        <ele>189</ele>
        <time>2017-08-05T13:53:43Z</time>
      </trkpt>
      <trkpt lat="45.89025" lon="4.7452">
        <ele>189</ele>
        <time>2017-08-05T13:53:44Z</time>
      </trkpt>
      <trkpt lat="45.8903" lon="4.74529">
        <ele>189</ele>
        <time>2017-08-05T13:53:49Z</time>
      </trkpt>
      <trkpt lat="45.8903" lon="4.74532">
        <ele>189</ele>
        <time>2017-08-05T13:53:50Z</time>
      </trkpt>
      <trkpt lat="45.89026" lon="4.74541">
        <ele>189</ele>
        <time>2017-08-05T13:53:53Z</time>
      </trkpt>
      <trkpt lat="45.89025" lon="4.74545">
        <ele>189</ele>
        <time>2017-08-05T13:53:54Z</time>
      </trkpt>
      <trkpt lat="45.8903" lon="4.74549">
        <ele>189</ele>
        <time>2017-08-05T13:53:56Z</time>
      </trkpt>
      <trkpt lat="45.89032" lon="4.74553">
        <ele>189</ele>
        <time>2017-08-05T13:53:57Z</time>
      </trkpt>
      <trkpt lat="45.89034" lon="4.74563">
        <ele>190</ele>
        <time>2017-08-05T13:54:00Z</time>
      </trkpt>
      <trkpt lat="45.89034" lon="4.74566">
        <ele>190</ele>
        <time>2017-08-05T13:54:01Z</time>
      </trkpt>
      <trkpt lat="45.89027" lon="4.74571">
        <ele>190</ele>
        <time>2017-08-05T13:54:03Z</time>
      </trkpt>
      <trkpt lat="45.89023" lon="4.74574">
        <ele>190</ele>
        <time>2017-08-05T13:54:04Z</time>
      </trkpt>
      <trkpt lat="45.89019" lon="4.74583">
        <ele>190</ele>
        <time>2017-08-05T13:54:07Z</time>
      </trkpt>
      <trkpt lat="45.89016" lon="4.74585">
        <ele>191</ele>
        <time>2017-08-05T13:54:08Z</time>
      </trkpt>
      <trkpt lat="45.89007" lon="4.74585">
        <ele>191</ele>
        <time>2017-08-05T13:54:10Z</time>
      </trkpt>
      <trkpt lat="45.89006" lon="4.74587">
        <ele>191</ele>
        <time>2017-08-05T13:54:11Z</time>
      </trkpt>
      <trkpt lat="45.89001" lon="4.74593">
        <ele>191</ele>
        <time>2017-08-05T13:54:14Z</time>
      </trkpt>
      <trkpt lat="45.89004" lon="4.74601">
        <ele>191</ele>
        <time>2017-08-05T13:54:15Z</time>
      </trkpt>
      <trkpt lat="45.89007" lon="4.74611">
        <ele>191</ele>
        <time>2017-08-05T13:54:17Z</time>
      </trkpt>
      <trkpt lat="45.89008" lon="4.74615">
        <ele>191</ele>
        <time>2017-08-05T13:54:18Z</time>
      </trkpt>
      <trkpt lat="45.89009" lon="4.74625">
        <ele>192</ele>
        <time>2017-08-05T13:54:21Z</time>
      </trkpt>
      <trkpt lat="45.89009" lon="4.74628">
        <ele>192</ele>
        <time>2017-08-05T13:54:22Z</time>
      </trkpt>
      <trkpt lat="45.89009" lon="4.7464">
        <ele>192</ele>
        <time>2017-08-05T13:54:26Z</time>
      </trkpt>
      <trkpt lat="45.89009" lon="4.74642">
        <ele>192</ele>
        <time>2017-08-05T13:54:27Z</time>
      </trkpt>
      <trkpt lat="45.89013" lon="4.74651">
        <ele>192</ele>
        <time>2017-08-05T13:55:28Z</time>
      </trkpt>
      <trkpt lat="45.89015" lon="4.74653">
        <ele>192</ele>
        <time>2017-08-05T13:55:29Z</time>
      </trkpt>
      <trkpt lat="45.89007" lon="4.74659">
        <ele>193</ele>
        <time>2017-08-05T14:02:03Z</time>
      </trkpt>
      <trkpt lat="45.89007" lon="4.74661">
        <ele>193</ele>
        <time>2017-08-05T14:02:04Z</time>
      </trkpt>
      <trkpt lat="45.89002" lon="4.74672">
        <ele>194</ele>
        <time>2017-08-05T14:02:10Z</time>
      </trkpt>
      <trkpt lat="45.89001" lon="4.74673">
        <ele>194</ele>
        <time>2017-08-05T14:02:11Z</time>
      </trkpt>
      <trkpt lat="45.88997" lon="4.74683">
        <ele>195</ele>
        <time>2017-08-05T14:02:15Z</time>
      </trkpt>
      <trkpt lat="45.88996" lon="4.74686">
        <ele>195</ele>
        <time>2017-08-05T14:02:16Z</time>
      </trkpt>
      <trkpt lat="45.88997" lon="4.74699">
        <ele>196</ele>
        <time>2017-08-05T14:02:20Z</time>
      </trkpt>
      <trkpt lat="45.88997" lon="4.74701">
        <ele>196</ele>
        <time>2017-08-05T14:02:21Z</time>
      </trkpt>
      <trkpt lat="45.88999" lon="4.74714">
        <ele>196</ele>
        <time>2017-08-05T14:02:25Z</time>
      </trkpt>
      <trkpt lat="45.88999" lon="4.74717">
        <ele>196</ele>
        <time>2017-08-05T14:02:26Z</time>
      </trkpt>
      <trkpt lat="45.89005" lon="4.74726">
        <ele>196</ele>
        <time>2017-08-05T14:02:30Z</time>
      </trkpt>
      <trkpt lat="45.89008" lon="4.74726">
        <ele>196</ele>
        <time>2017-08-05T14:02:31Z</time>
      </trkpt>
      <trkpt lat="45.89015" lon="4.74729">
        <ele>196</ele>
        <time>2017-08-05T14:02:34Z</time>
      </trkpt>
      <trkpt lat="45.89018" lon="4.74731">
        <ele>196</ele>
        <time>2017-08-05T14:02:35Z</time>
      </trkpt>
      <trkpt lat="45.89025" lon="4.74737">
        <ele>196</ele>
        <time>2017-08-05T14:02:37Z</time>
      </trkpt>
      <trkpt lat="45.89026" lon="4.7474">
        <ele>196</ele>
        <time>2017-08-05T14:02:38Z</time>
      </trkpt>
      <trkpt lat="45.89026" lon="4.74751">
        <ele>198</ele>
        <time>2017-08-05T14:02:41Z</time>
      </trkpt>
      <trkpt lat="45.89026" lon="4.74755">
        <ele>198</ele>
        <time>2017-08-05T14:02:42Z</time>
      </trkpt>
      <trkpt lat="45.89027" lon="4.74767">
        <ele>198</ele>
        <time>2017-08-05T14:02:45Z</time>
      </trkpt>
      <trkpt lat="45.89027" lon="4.74771">
        <ele>198</ele>
        <time>2017-08-05T14:02:46Z</time>
      </trkpt>
      <trkpt lat="45.89025" lon="4.7478">
        <ele>198</ele>
        <time>2017-08-05T14:02:47Z</time>
      </trkpt>
      <trkpt lat="45.89026" lon="4.74785">
        <ele>198</ele>
        <time>2017-08-05T14:02:48Z</time>
      </trkpt>
      <trkpt lat="45.89026" lon="4.74797">
        <ele>198</ele>
        <time>2017-08-05T14:02:51Z</time>
      </trkpt>
      <trkpt lat="45.89026" lon="4.74801">
        <ele>198</ele>
        <time>2017-08-05T14:02:52Z</time>
      </trkpt>
      <trkpt lat="45.89025" lon="4.74812">
        <ele>199</ele>
        <time>2017-08-05T14:02:55Z</time>
      </trkpt>
      <trkpt lat="45.89026" lon="4.74816">
        <ele>199</ele>
        <time>2017-08-05T14:02:56Z</time>
      </trkpt>
      <trkpt lat="45.8903" lon="4.74827">
        <ele>199</ele>
        <time>2017-08-05T14:02:59Z</time>
      </trkpt>
      <trkpt lat="45.8903" lon="4.7483">
        <ele>199</ele>
        <time>2017-08-05T14:03:00Z</time>
      </trkpt>
      <trkpt lat="45.89032" lon="4.74841">
        <ele>199</ele>
        <time>2017-08-05T14:03:03Z</time>
      </trkpt>
      <trkpt lat="45.89033" lon="4.74845">
        <ele>199</ele>
        <time>2017-08-05T14:03:04Z</time>
      </trkpt>
      <trkpt lat="45.89034" lon="4.74856">
        <ele>199</ele>
        <time>2017-08-05T14:03:07Z</time>
      </trkpt>
      <trkpt lat="45.89035" lon="4.7486">
        <ele>199</ele>
        <time>2017-08-05T14:03:08Z</time>
      </trkpt>
      <trkpt lat="45.89037" lon="4.74871">
        <ele>199</ele>
        <time>2017-08-05T14:03:11Z</time>
      </trkpt>
      <trkpt lat="45.89037" lon="4.74874">
        <ele>199</ele>
        <time>2017-08-05T14:03:12Z</time>
      </trkpt>
      <trkpt lat="45.89034" lon="4.74884">
        <ele>199</ele>
        <time>2017-08-05T14:03:15Z</time>
      </trkpt>
      <trkpt lat="45.89031" lon="4.74887">
        <ele>199</ele>
        <time>2017-08-05T14:03:16Z</time>
      </trkpt>
      <trkpt lat="45.89024" lon="4.74892">
        <ele>199</ele>
        <time>2017-08-05T14:03:19Z</time>
      </trkpt>
      <trkpt lat="45.89021" lon="4.74895">
        <ele>199</ele>
        <time>2017-08-05T14:03:20Z</time>
      </trkpt>
      <trkpt lat="45.89021" lon="4.74905">
        <ele>199</ele>
        <time>2017-08-05T14:03:23Z</time>
      </trkpt>
      <trkpt lat="45.8902" lon="4.7491">
        <ele>199</ele>
        <time>2017-08-05T14:03:24Z</time>
      </trkpt>
      <trkpt lat="45.89017" lon="4.74921">
        <ele>199</ele>
        <time>2017-08-05T14:03:27Z</time>
      </trkpt>
      <trkpt lat="45.89016" lon="4.74924">
        <ele>199</ele>
        <time>2017-08-05T14:03:28Z</time>
      </trkpt>
      <trkpt lat="45.89012" lon="4.7493">
        <ele>199</ele>
        <time>2017-08-05T14:03:30Z</time>
      </trkpt>
      <trkpt lat="45.8901" lon="4.74934">
        <ele>199</ele>
        <time>2017-08-05T14:03:31Z</time>
      </trkpt>
      <trkpt lat="45.89007" lon="4.74942">
        <ele>199</ele>
        <time>2017-08-05T14:03:33Z</time>
      </trkpt>
      <trkpt lat="45.89006" lon="4.74947">
        <ele>199</ele>
        <time>2017-08-05T14:03:34Z</time>
      </trkpt>
      <trkpt lat="45.89005" lon="4.74958">
        <ele>199</ele>
        <time>2017-08-05T14:03:36Z</time>
      </trkpt>
      <trkpt lat="45.89005" lon="4.74964">
        <ele>199</ele>
        <time>2017-08-05T14:03:37Z</time>
      </trkpt>
      <trkpt lat="45.89005" lon="4.74975">
        <ele>199</ele>
        <time>2017-08-05T14:03:39Z</time>
      </trkpt>
      <trkpt lat="45.89006" lon="4.74981">
        <ele>199</ele>
        <time>2017-08-05T14:03:40Z</time>
      </trkpt>
      <trkpt lat="45.89007" lon="4.74991">
        <ele>198</ele>
        <time>2017-08-05T14:03:42Z</time>
      </trkpt>
      <trkpt lat="45.89008" lon="4.74997">
        <ele>198</ele>
        <time>2017-08-05T14:03:43Z</time>
      </trkpt>
      <trkpt lat="45.89009" lon="4.75008">
        <ele>199</ele>
        <time>2017-08-05T14:03:45Z</time>
      </trkpt>
      <trkpt lat="45.89009" lon="4.75013">
        <ele>199</ele>
        <time>2017-08-05T14:03:46Z</time>
      </trkpt>
      <trkpt lat="45.8901" lon="4.75024">
        <ele>199</ele>
        <time>2017-08-05T14:03:48Z</time>
      </trkpt>
      <trkpt lat="45.89011" lon="4.75029">
        <ele>199</ele>
        <time>2017-08-05T14:03:49Z</time>
      </trkpt>
      <trkpt lat="45.89013" lon="4.75039">
        <ele>199</ele>
        <time>2017-08-05T14:03:51Z</time>
      </trkpt>
      <trkpt lat="45.89014" lon="4.75044">
        <ele>199</ele>
        <time>2017-08-05T14:03:52Z</time>
      </trkpt>
      <trkpt lat="45.89017" lon="4.75055">
        <ele>199</ele>
        <time>2017-08-05T14:03:54Z</time>
      </trkpt>
      <trkpt lat="45.8902" lon="4.75061">
        <ele>199</ele>
        <time>2017-08-05T14:03:55Z</time>
      </trkpt>
      <trkpt lat="45.89025" lon="4.75071">
        <ele>199</ele>
        <time>2017-08-05T14:03:57Z</time>
      </trkpt>
      <trkpt lat="45.89027" lon="4.75076">
        <ele>199</ele>
        <time>2017-08-05T14:03:58Z</time>
      </trkpt>
      <trkpt lat="45.89032" lon="4.75083">
        <ele>199</ele>
        <time>2017-08-05T14:04:00Z</time>
      </trkpt>
      <trkpt lat="45.89035" lon="4.75087">
        <ele>199</ele>
        <time>2017-08-05T14:04:01Z</time>
      </trkpt>
      <trkpt lat="45.89039" lon="4.75095">
        <ele>199</ele>
        <time>2017-08-05T14:04:03Z</time>
      </trkpt>
      <trkpt lat="45.89041" lon="4.751">
        <ele>199</ele>
        <time>2017-08-05T14:04:04Z</time>
      </trkpt>
      <trkpt lat="45.89046" lon="4.75108">
        <ele>199</ele>
        <time>2017-08-05T14:04:06Z</time>
      </trkpt>
      <trkpt lat="45.89048" lon="4.75112">
        <ele>199</ele>
        <time>2017-08-05T14:04:07Z</time>
      </trkpt>
      <trkpt lat="45.89052" lon="4.75121">
        <ele>199</ele>
        <time>2017-08-05T14:04:09Z</time>
      </trkpt>
      <trkpt lat="45.89054" lon="4.75125">
        <ele>199</ele>
        <time>2017-08-05T14:04:10Z</time>
      </trkpt>
      <trkpt lat="45.89057" lon="4.75133">
        <ele>199</ele>
        <time>2017-08-05T14:04:12Z</time>
      </trkpt>
      <trkpt lat="45.89058" lon="4.75138">
        <ele>199</ele>
        <time>2017-08-05T14:04:13Z</time>
      </trkpt>
      <trkpt lat="45.89061" lon="4.75148">
        <ele>199</ele>
        <time>2017-08-05T14:04:15Z</time>
      </trkpt>
      <trkpt lat="45.89061" lon="4.75154">
        <ele>199</ele>
        <time>2017-08-05T14:04:16Z</time>
      </trkpt>
      <trkpt lat="45.89063" lon="4.75166">
        <ele>199</ele>
        <time>2017-08-05T14:04:18Z</time>
      </trkpt>
      <trkpt lat="45.89063" lon="4.75171">
        <ele>199</ele>
        <time>2017-08-05T14:04:19Z</time>
      </trkpt>
      <trkpt lat="45.89065" lon="4.75181">
        <ele>199</ele>
        <time>2017-08-05T14:04:21Z</time>
      </trkpt>
      <trkpt lat="45.89065" lon="4.75186">
        <ele>199</ele>
        <time>2017-08-05T14:04:22Z</time>
      </trkpt>
      <trkpt lat="45.89065" lon="4.75195">
        <ele>199</ele>
        <time>2017-08-05T14:04:24Z</time>
      </trkpt>
      <trkpt lat="45.89065" lon="4.752">
        <ele>199</ele>
        <time>2017-08-05T14:04:25Z</time>
      </trkpt>
      <trkpt lat="45.89062" lon="4.75211">
        <ele>199</ele>
        <time>2017-08-05T14:04:27Z</time>
      </trkpt>
      <trkpt lat="45.89061" lon="4.75217">
        <ele>199</ele>
        <time>2017-08-05T14:04:28Z</time>
      </trkpt>
      <trkpt lat="45.89059" lon="4.75228">
        <ele>199</ele>
        <time>2017-08-05T14:04:30Z</time>
      </trkpt>
      <trkpt lat="45.89058" lon="4.75233">
        <ele>199</ele>
        <time>2017-08-05T14:04:31Z</time>
      </trkpt>
      <trkpt lat="45.89056" lon="4.75244">
        <ele>199</ele>
        <time>2017-08-05T14:04:33Z</time>
      </trkpt>
      <trkpt lat="45.89055" lon="4.75249">
        <ele>199</ele>
        <time>2017-08-05T14:04:34Z</time>
      </trkpt>
      <trkpt lat="45.89054" lon="4.7526">
        <ele>199</ele>
        <time>2017-08-05T14:04:36Z</time>
      </trkpt>
      <trkpt lat="45.89054" lon="4.75265">
        <ele>199</ele>
        <time>2017-08-05T14:04:37Z</time>
      </trkpt>
      <trkpt lat="45.89052" lon="4.75274">
        <ele>199</ele>
        <time>2017-08-05T14:04:39Z</time>
      </trkpt>
      <trkpt lat="45.89051" lon="4.75279">
        <ele>199</ele>
        <time>2017-08-05T14:04:40Z</time>
      </trkpt>
      <trkpt lat="45.89048" lon="4.7529">
        <ele>199</ele>
        <time>2017-08-05T14:04:42Z</time>
      </trkpt>
      <trkpt lat="45.89047" lon="4.75296">
        <ele>199</ele>
        <time>2017-08-05T14:04:43Z</time>
      </trkpt>
      <trkpt lat="45.89045" lon="4.75308">
        <ele>199</ele>
        <time>2017-08-05T14:04:45Z</time>
      </trkpt>
      <trkpt lat="45.89046" lon="4.75315">
        <ele>199</ele>
        <time>2017-08-05T14:04:46Z</time>
      </trkpt>
      <trkpt lat="45.89045" lon="4.75326">
        <ele>199</ele>
        <time>2017-08-05T14:04:48Z</time>
      </trkpt>
      <trkpt lat="45.89044" lon="4.75331">
        <ele>199</ele>
        <time>2017-08-05T14:04:49Z</time>
      </trkpt>
      <trkpt lat="45.89043" lon="4.75342">
        <ele>199</ele>
        <time>2017-08-05T14:04:51Z</time>
      </trkpt>
      <trkpt lat="45.89043" lon="4.75348">
        <ele>199</ele>
        <time>2017-08-05T14:04:52Z</time>
      </trkpt>
      <trkpt lat="45.89043" lon="4.75355">
        <ele>199</ele>
        <time>2017-08-05T14:04:53Z</time>
      </trkpt>
      <trkpt lat="45.89043" lon="4.75362">
        <ele>199</ele>
        <time>2017-08-05T14:04:54Z</time>
      </trkpt>
      <trkpt lat="45.89042" lon="4.75369">
        <ele>199</ele>
        <time>2017-08-05T14:04:55Z</time>
      </trkpt>
      <trkpt lat="45.89042" lon="4.75376">
        <ele>199</ele>
        <time>2017-08-05T14:04:56Z</time>
      </trkpt>
      <trkpt lat="45.89041" lon="4.75387">
        <ele>199</ele>
        <time>2017-08-05T14:04:58Z</time>
      </trkpt>
      <trkpt lat="45.89039" lon="4.75392">
        <ele>199</ele>
        <time>2017-08-05T14:04:59Z</time>
      </trkpt>
      <trkpt lat="45.89034" lon="4.75399">
        <ele>199</ele>
        <time>2017-08-05T14:05:01Z</time>
      </trkpt>
      <trkpt lat="45.89031" lon="4.75401">
        <ele>199</ele>
        <time>2017-08-05T14:05:02Z</time>
      </trkpt>
      <trkpt lat="45.89023" lon="4.75405">
        <ele>199</ele>
        <time>2017-08-05T14:05:04Z</time>
      </trkpt>
      <trkpt lat="45.89018" lon="4.75406">
        <ele>199</ele>
        <time>2017-08-05T14:05:05Z</time>
      </trkpt>
      <trkpt lat="45.89014" lon="4.75409">
        <ele>199</ele>
        <time>2017-08-05T14:05:06Z</time>
      </trkpt>
      <trkpt lat="45.89009" lon="4.75411">
        <ele>199</ele>
        <time>2017-08-05T14:05:07Z</time>
      </trkpt>
      <trkpt lat="45.89002" lon="4.75415">
        <ele>199</ele>
        <time>2017-08-05T14:05:09Z</time>
      </trkpt>
      <trkpt lat="45.88998" lon="4.75416">
        <ele>199</ele>
        <time>2017-08-05T14:05:10Z</time>
      </trkpt>
      <trkpt lat="45.88991" lon="4.75419">
        <ele>199</ele>
        <time>2017-08-05T14:05:12Z</time>
      </trkpt>
      <trkpt lat="45.88988" lon="4.7542">
        <ele>199</ele>
        <time>2017-08-05T14:05:13Z</time>
      </trkpt>
      <trkpt lat="45.88979" lon="4.75422">
        <ele>199</ele>
        <time>2017-08-05T14:05:15Z</time>
      </trkpt>
      <trkpt lat="45.88975" lon="4.75423">
        <ele>199</ele>
        <time>2017-08-05T14:05:16Z</time>
      </trkpt>
      <trkpt lat="45.88966" lon="4.75423">
        <ele>199</ele>
        <time>2017-08-05T14:05:18Z</time>
      </trkpt>
      <trkpt lat="45.88962" lon="4.75423">
        <ele>199</ele>
        <time>2017-08-05T14:05:19Z</time>
      </trkpt>
      <trkpt lat="45.88957" lon="4.75429">
        <ele>199</ele>
        <time>2017-08-05T14:05:21Z</time>
      </trkpt>
      <trkpt lat="45.88956" lon="4.75434">
        <ele>199</ele>
        <time>2017-08-05T14:05:22Z</time>
      </trkpt>
      <trkpt lat="45.88955" lon="4.75445">
        <ele>199</ele>
        <time>2017-08-05T14:05:24Z</time>
      </trkpt>
      <trkpt lat="45.88955" lon="4.75451">
        <ele>199</ele>
        <time>2017-08-05T14:05:25Z</time>
      </trkpt>
      <trkpt lat="45.88955" lon="4.75458">
        <ele>199</ele>
        <time>2017-08-05T14:05:26Z</time>
      </trkpt>
      <trkpt lat="45.88955" lon="4.75465">
        <ele>199</ele>
        <time>2017-08-05T14:05:27Z</time>
      </trkpt>
      <trkpt lat="45.88956" lon="4.75477">
        <ele>199</ele>
        <time>2017-08-05T14:05:29Z</time>
      </trkpt>
      <trkpt lat="45.88956" lon="4.75483">
        <ele>199</ele>
        <time>2017-08-05T14:05:30Z</time>
      </trkpt>
      <trkpt lat="45.88956" lon="4.75495">
        <ele>198</ele>
        <time>2017-08-05T14:05:32Z</time>
      </trkpt>
      <trkpt lat="45.88956" lon="4.755">
        <ele>198</ele>
        <time>2017-08-05T14:05:33Z</time>
      </trkpt>
      <trkpt lat="45.88956" lon="4.75511">
        <ele>198</ele>
        <time>2017-08-05T14:05:35Z</time>
      </trkpt>
      <trkpt lat="45.88957" lon="4.75518">
        <ele>198</ele>
        <time>2017-08-05T14:05:36Z</time>
      </trkpt>
      <trkpt lat="45.88957" lon="4.75524">
        <ele>198</ele>
        <time>2017-08-05T14:05:37Z</time>
      </trkpt>
      <trkpt lat="45.88958" lon="4.75532">
        <ele>198</ele>
        <time>2017-08-05T14:05:38Z</time>
      </trkpt>
      <trkpt lat="45.88959" lon="4.75539">
        <ele>198</ele>
        <time>2017-08-05T14:05:39Z</time>
      </trkpt>
      <trkpt lat="45.88959" lon="4.75545">
        <ele>198</ele>
        <time>2017-08-05T14:05:40Z</time>
      </trkpt>
      <trkpt lat="45.8896" lon="4.75552">
        <ele>198</ele>
        <time>2017-08-05T14:05:41Z</time>
      </trkpt>
      <trkpt lat="45.8896" lon="4.75558">
        <ele>198</ele>
        <time>2017-08-05T14:05:42Z</time>
      </trkpt>
      <trkpt lat="45.88961" lon="4.75565">
        <ele>198</ele>
        <time>2017-08-05T14:05:43Z</time>
      </trkpt>
      <trkpt lat="45.88961" lon="4.75572">
        <ele>198</ele>
        <time>2017-08-05T14:05:44Z</time>
      </trkpt>
      <trkpt lat="45.88962" lon="4.75585">
        <ele>198</ele>
        <time>2017-08-05T14:05:46Z</time>
      </trkpt>
      <trkpt lat="45.88964" lon="4.7559">
        <ele>198</ele>
        <time>2017-08-05T14:05:47Z</time>
      </trkpt>
      <trkpt lat="45.88966" lon="4.75601">
        <ele>198</ele>
        <time>2017-08-05T14:05:49Z</time>
      </trkpt>
      <trkpt lat="45.88967" lon="4.75607">
        <ele>198</ele>
        <time>2017-08-05T14:05:50Z</time>
      </trkpt>
      <trkpt lat="45.88968" lon="4.75614">
        <ele>198</ele>
        <time>2017-08-05T14:05:51Z</time>
      </trkpt>
      <trkpt lat="45.88969" lon="4.7562">
        <ele>198</ele>
        <time>2017-08-05T14:05:52Z</time>
      </trkpt>
      <trkpt lat="45.88971" lon="4.75627">
        <ele>198</ele>
        <time>2017-08-05T14:05:53Z</time>
      </trkpt>
      <trkpt lat="45.88973" lon="4.75635">
        <ele>198</ele>
        <time>2017-08-05T14:05:54Z</time>
      </trkpt>
      <trkpt lat="45.88975" lon="4.75642">
        <ele>198</ele>
        <time>2017-08-05T14:05:55Z</time>
      </trkpt>
      <trkpt lat="45.88976" lon="4.75649">
        <ele>198</ele>
        <time>2017-08-05T14:05:56Z</time>
      </trkpt>
      <trkpt lat="45.88978" lon="4.75656">
        <ele>198</ele>
        <time>2017-08-05T14:05:57Z</time>
      </trkpt>
      <trkpt lat="45.88979" lon="4.75663">
        <ele>198</ele>
        <time>2017-08-05T14:05:58Z</time>
      </trkpt>
      <trkpt lat="45.88982" lon="4.75675">
        <ele>198</ele>
        <time>2017-08-05T14:06:00Z</time>
      </trkpt>
      <trkpt lat="45.88983" lon="4.75681">
        <ele>198</ele>
        <time>2017-08-05T14:06:01Z</time>
      </trkpt>
      <trkpt lat="45.88984" lon="4.75693">
        <ele>199</ele>
        <time>2017-08-05T14:06:03Z</time>
      </trkpt>
      <trkpt lat="45.88985" lon="4.75699">
        <ele>199</ele>
        <time>2017-08-05T14:06:04Z</time>
      </trkpt>
      <trkpt lat="45.88986" lon="4.75706">
        <ele>199</ele>
        <time>2017-08-05T14:06:05Z</time>
      </trkpt>
      <trkpt lat="45.88987" lon="4.75713">
        <ele>199</ele>
        <time>2017-08-05T14:06:06Z</time>
      </trkpt>
      <trkpt lat="45.88988" lon="4.75721">
        <ele>198</ele>
        <time>2017-08-05T14:06:07Z</time>
      </trkpt>
      <trkpt lat="45.88989" lon="4.75728">
        <ele>198</ele>
        <time>2017-08-05T14:06:08Z</time>
      </trkpt>
      <trkpt lat="45.88991" lon="4.75735">
        <ele>198</ele>
        <time>2017-08-05T14:06:09Z</time>
      </trkpt>
      <trkpt lat="45.88993" lon="4.75742">
        <ele>198</ele>
        <time>2017-08-05T14:06:10Z</time>
      </trkpt>
      <trkpt lat="45.88994" lon="4.75749">
        <ele>198</ele>
        <time>2017-08-05T14:06:11Z</time>
      </trkpt>
      <trkpt lat="45.88995" lon="4.75756">
        <ele>198</ele>
        <time>2017-08-05T14:06:12Z</time>
      </trkpt>
      <trkpt lat="45.88997" lon="4.75762">
        <ele>198</ele>
        <time>2017-08-05T14:06:13Z</time>
      </trkpt>
      <trkpt lat="45.88998" lon="4.75768">
        <ele>198</ele>
        <time>2017-08-05T14:06:14Z</time>
      </trkpt>
      <trkpt lat="45.89" lon="4.75774">
        <ele>198</ele>
        <time>2017-08-05T14:06:15Z</time>
      </trkpt>
      <trkpt lat="45.89002" lon="4.75781">
        <ele>199</ele>
        <time>2017-08-05T14:06:16Z</time>
      </trkpt>
      <trkpt lat="45.89004" lon="4.75788">
        <ele>199</ele>
        <time>2017-08-05T14:06:17Z</time>
      </trkpt>
      <trkpt lat="45.89005" lon="4.75795">
        <ele>199</ele>
        <time>2017-08-05T14:06:18Z</time>
      </trkpt>
      <trkpt lat="45.89007" lon="4.75801">
        <ele>199</ele>
        <time>2017-08-05T14:06:19Z</time>
      </trkpt>
      <trkpt lat="45.89008" lon="4.75807">
        <ele>199</ele>
        <time>2017-08-05T14:06:20Z</time>
      </trkpt>
      <trkpt lat="45.89011" lon="4.75819">
        <ele>199</ele>
        <time>2017-08-05T14:06:22Z</time>
      </trkpt>
      <trkpt lat="45.89012" lon="4.75825">
        <ele>199</ele>
        <time>2017-08-05T14:06:23Z</time>
      </trkpt>
      <trkpt lat="45.89014" lon="4.75835">
        <ele>200</ele>
        <time>2017-08-05T14:06:25Z</time>
      </trkpt>
      <trkpt lat="45.89014" lon="4.75841">
        <ele>200</ele>
        <time>2017-08-05T14:06:26Z</time>
      </trkpt>
      <trkpt lat="45.89014" lon="4.75847">
        <ele>200</ele>
        <time>2017-08-05T14:06:27Z</time>
      </trkpt>
      <trkpt lat="45.89012" lon="4.75854">
        <ele>200</ele>
        <time>2017-08-05T14:06:28Z</time>
      </trkpt>
      <trkpt lat="45.8901" lon="4.7586">
        <ele>200</ele>
        <time>2017-08-05T14:06:29Z</time>
      </trkpt>
      <trkpt lat="45.89007" lon="4.75867">
        <ele>200</ele>
        <time>2017-08-05T14:06:30Z</time>
      </trkpt>
      <trkpt lat="45.89005" lon="4.75874">
        <ele>200</ele>
        <time>2017-08-05T14:06:31Z</time>
      </trkpt>
      <trkpt lat="45.89003" lon="4.75881">
        <ele>200</ele>
        <time>2017-08-05T14:06:32Z</time>
      </trkpt>
      <trkpt lat="45.89" lon="4.75887">
        <ele>200</ele>
        <time>2017-08-05T14:06:33Z</time>
      </trkpt>
      <trkpt lat="45.88998" lon="4.75893">
        <ele>199</ele>
        <time>2017-08-05T14:06:34Z</time>
      </trkpt>
      <trkpt lat="45.88995" lon="4.75899">
        <ele>199</ele>
        <time>2017-08-05T14:06:35Z</time>
      </trkpt>
      <trkpt lat="45.88993" lon="4.75905">
        <ele>199</ele>
        <time>2017-08-05T14:06:36Z</time>
      </trkpt>
      <trkpt lat="45.88989" lon="4.75916">
        <ele>199</ele>
        <time>2017-08-05T14:06:38Z</time>
      </trkpt>
      <trkpt lat="45.88987" lon="4.75922">
        <ele>200</ele>
        <time>2017-08-05T14:06:39Z</time>
      </trkpt>
      <trkpt lat="45.88984" lon="4.75934">
        <ele>199</ele>
        <time>2017-08-05T14:06:41Z</time>
      </trkpt>
      <trkpt lat="45.88984" lon="4.7594">
        <ele>199</ele>
        <time>2017-08-05T14:06:42Z</time>
      </trkpt>
      <trkpt lat="45.88985" lon="4.7595">
        <ele>199</ele>
        <time>2017-08-05T14:06:44Z</time>
      </trkpt>
      <trkpt lat="45.88986" lon="4.75956">
        <ele>199</ele>
        <time>2017-08-05T14:06:45Z</time>
      </trkpt>
      <trkpt lat="45.88988" lon="4.75962">
        <ele>199</ele>
        <time>2017-08-05T14:06:46Z</time>
      </trkpt>
      <trkpt lat="45.88991" lon="4.75969">
        <ele>199</ele>
        <time>2017-08-05T14:06:47Z</time>
      </trkpt>
      <trkpt lat="45.88993" lon="4.75975">
        <ele>199</ele>
        <time>2017-08-05T14:06:48Z</time>
      </trkpt>
      <trkpt lat="45.88995" lon="4.7598">
        <ele>200</ele>
        <time>2017-08-05T14:06:49Z</time>
      </trkpt>
      <trkpt lat="45.88999" lon="4.75991">
        <ele>200</ele>
        <time>2017-08-05T14:06:51Z</time>
      </trkpt>
      <trkpt lat="45.89002" lon="4.75996">
        <ele>200</ele>
        <time>2017-08-05T14:06:52Z</time>
      </trkpt>
      <trkpt lat="45.89006" lon="4.76007">
        <ele>200</ele>
        <time>2017-08-05T14:06:54Z</time>
      </trkpt>
      <trkpt lat="45.89008" lon="4.76012">
        <ele>200</ele>
        <time>2017-08-05T14:06:55Z</time>
      </trkpt>
      <trkpt lat="45.89013" lon="4.76022">
        <ele>199</ele>
        <time>2017-08-05T14:06:57Z</time>
      </trkpt>
      <trkpt lat="45.89016" lon="4.76028">
        <ele>199</ele>
        <time>2017-08-05T14:06:58Z</time>
      </trkpt>
      <trkpt lat="45.89018" lon="4.76034">
        <ele>199</ele>
        <time>2017-08-05T14:06:59Z</time>
      </trkpt>
      <trkpt lat="45.89021" lon="4.7604">
        <ele>199</ele>
        <time>2017-08-05T14:07:00Z</time>
      </trkpt>
      <trkpt lat="45.89024" lon="4.76047">
        <ele>199</ele>
        <time>2017-08-05T14:07:01Z</time>
      </trkpt>
      <trkpt lat="45.89027" lon="4.76053">
        <ele>199</ele>
        <time>2017-08-05T14:07:02Z</time>
      </trkpt>
      <trkpt lat="45.8903" lon="4.76059">
        <ele>199</ele>
        <time>2017-08-05T14:07:03Z</time>
      </trkpt>
      <trkpt lat="45.89033" lon="4.76065">
        <ele>199</ele>
        <time>2017-08-05T14:07:04Z</time>
      </trkpt>
      <trkpt lat="45.89036" lon="4.76071">
        <ele>199</ele>
        <time>2017-08-05T14:07:05Z</time>
      </trkpt>
      <trkpt lat="45.89039" lon="4.76075">
        <ele>199</ele>
        <time>2017-08-05T14:07:06Z</time>
      </trkpt>
      <trkpt lat="45.89043" lon="4.76079">
        <ele>199</ele>
        <time>2017-08-05T14:07:07Z</time>
      </trkpt>
      <trkpt lat="45.89045" lon="4.76087">
        <ele>198</ele>
        <time>2017-08-05T14:07:08Z</time>
      </trkpt>
      <trkpt lat="45.8905" lon="4.76096">
        <ele>197</ele>
        <time>2017-08-05T14:07:10Z</time>
      </trkpt>
      <trkpt lat="45.89052" lon="4.76101">
        <ele>197</ele>
        <time>2017-08-05T14:07:11Z</time>
      </trkpt>
      <trkpt lat="45.89055" lon="4.76108">
        <ele>197</ele>
        <time>2017-08-05T14:07:13Z</time>
      </trkpt>
      <trkpt lat="45.89057" lon="4.76113">
        <ele>197</ele>
        <time>2017-08-05T14:07:14Z</time>
      </trkpt>
      <trkpt lat="45.89062" lon="4.76121">
        <ele>197</ele>
        <time>2017-08-05T14:07:16Z</time>
      </trkpt>
      <trkpt lat="45.89065" lon="4.76126">
        <ele>197</ele>
        <time>2017-08-05T14:07:17Z</time>
      </trkpt>
      <trkpt lat="45.89069" lon="4.76135">
        <ele>197</ele>
        <time>2017-08-05T14:07:19Z</time>
      </trkpt>
      <trkpt lat="45.89071" lon="4.7614">
        <ele>197</ele>
        <time>2017-08-05T14:07:20Z</time>
      </trkpt>
      <trkpt lat="45.89077" lon="4.76148">
        <ele>196</ele>
        <time>2017-08-05T14:07:22Z</time>
      </trkpt>
      <trkpt lat="45.89079" lon="4.76151">
        <ele>196</ele>
        <time>2017-08-05T14:07:23Z</time>
      </trkpt>
      <trkpt lat="45.89081" lon="4.76157">
        <ele>196</ele>
        <time>2017-08-05T14:07:24Z</time>
      </trkpt>
      <trkpt lat="45.89084" lon="4.76163">
        <ele>195</ele>
        <time>2017-08-05T14:07:25Z</time>
      </trkpt>
      <trkpt lat="45.89087" lon="4.76169">
        <ele>195</ele>
        <time>2017-08-05T14:07:26Z</time>
      </trkpt>
      <trkpt lat="45.8909" lon="4.76174">
        <ele>195</ele>
        <time>2017-08-05T14:07:27Z</time>
      </trkpt>
      <trkpt lat="45.89093" lon="4.7618">
        <ele>196</ele>
        <time>2017-08-05T14:07:28Z</time>
      </trkpt>
      <trkpt lat="45.89096" lon="4.76185">
        <ele>196</ele>
        <time>2017-08-05T14:07:29Z</time>
      </trkpt>
      <trkpt lat="45.89098" lon="4.7619">
        <ele>196</ele>
        <time>2017-08-05T14:07:30Z</time>
      </trkpt>
      <trkpt lat="45.89101" lon="4.76195">
        <ele>196</ele>
        <time>2017-08-05T14:07:31Z</time>
      </trkpt>
      <trkpt lat="45.89104" lon="4.76201">
        <ele>196</ele>
        <time>2017-08-05T14:07:32Z</time>
      </trkpt>
      <trkpt lat="45.89107" lon="4.76206">
        <ele>196</ele>
        <time>2017-08-05T14:07:33Z</time>
      </trkpt>
      <trkpt lat="45.8911" lon="4.76212">
        <ele>196</ele>
        <time>2017-08-05T14:07:34Z</time>
      </trkpt>
      <trkpt lat="45.89113" lon="4.76218">
        <ele>196</ele>
        <time>2017-08-05T14:07:35Z</time>
      </trkpt>
      <trkpt lat="45.89118" lon="4.76229">
        <ele>196</ele>
        <time>2017-08-05T14:07:37Z</time>
      </trkpt>
      <trkpt lat="45.89119" lon="4.76234">
        <ele>196</ele>
        <time>2017-08-05T14:07:38Z</time>
      </trkpt>
      <trkpt lat="45.89123" lon="4.76243">
        <ele>196</ele>
        <time>2017-08-05T14:07:40Z</time>
      </trkpt>
      <trkpt lat="45.89125" lon="4.76248">
        <ele>196</ele>
        <time>2017-08-05T14:07:41Z</time>
      </trkpt>
      <trkpt lat="45.89128" lon="4.76254">
        <ele>197</ele>
        <time>2017-08-05T14:07:42Z</time>
      </trkpt>
      <trkpt lat="45.89131" lon="4.7626">
        <ele>197</ele>
        <time>2017-08-05T14:07:43Z</time>
      </trkpt>
      <trkpt lat="45.89134" lon="4.76266">
        <ele>197</ele>
        <time>2017-08-05T14:07:44Z</time>
      </trkpt>
      <trkpt lat="45.89136" lon="4.76272">
        <ele>196</ele>
        <time>2017-08-05T14:07:45Z</time>
      </trkpt>
      <trkpt lat="45.89139" lon="4.76279">
        <ele>196</ele>
        <time>2017-08-05T14:07:46Z</time>
      </trkpt>
      <trkpt lat="45.89143" lon="4.76286">
        <ele>196</ele>
        <time>2017-08-05T14:07:47Z</time>
      </trkpt>
      <trkpt lat="45.89146" lon="4.76292">
        <ele>196</ele>
        <time>2017-08-05T14:07:48Z</time>
      </trkpt>
      <trkpt lat="45.89149" lon="4.76298">
        <ele>196</ele>
        <time>2017-08-05T14:07:49Z</time>
      </trkpt>
      <trkpt lat="45.89152" lon="4.76304">
        <ele>196</ele>
        <time>2017-08-05T14:07:50Z</time>
      </trkpt>
      <trkpt lat="45.89154" lon="4.7631">
        <ele>196</ele>
        <time>2017-08-05T14:07:51Z</time>
      </trkpt>
      <trkpt lat="45.89159" lon="4.7632">
        <ele>196</ele>
        <time>2017-08-05T14:07:53Z</time>
      </trkpt>
      <trkpt lat="45.89161" lon="4.76325">
        <ele>195</ele>
        <time>2017-08-05T14:07:54Z</time>
      </trkpt>
      <trkpt lat="45.89166" lon="4.76333">
        <ele>195</ele>
        <time>2017-08-05T14:07:56Z</time>
      </trkpt>
      <trkpt lat="45.89169" lon="4.76338">
        <ele>195</ele>
        <time>2017-08-05T14:07:57Z</time>
      </trkpt>
      <trkpt lat="45.89173" lon="4.76349">
        <ele>195</ele>
        <time>2017-08-05T14:07:59Z</time>
      </trkpt>
      <trkpt lat="45.89175" lon="4.76354">
        <ele>194</ele>
        <time>2017-08-05T14:08:00Z</time>
      </trkpt>
      <trkpt lat="45.89179" lon="4.76364">
        <ele>194</ele>
        <time>2017-08-05T14:08:02Z</time>
      </trkpt>
      <trkpt lat="45.89182" lon="4.76368">
        <ele>194</ele>
        <time>2017-08-05T14:08:03Z</time>
      </trkpt>
      <trkpt lat="45.89187" lon="4.76376">
        <ele>194</ele>
        <time>2017-08-05T14:08:05Z</time>
      </trkpt>
      <trkpt lat="45.89189" lon="4.76381">
        <ele>194</ele>
        <time>2017-08-05T14:08:06Z</time>
      </trkpt>
      <trkpt lat="45.89192" lon="4.7639">
        <ele>194</ele>
        <time>2017-08-05T14:08:08Z</time>
      </trkpt>
      <trkpt lat="45.89193" lon="4.76394">
        <ele>194</ele>
        <time>2017-08-05T14:08:09Z</time>
      </trkpt>
      <trkpt lat="45.89197" lon="4.76403">
        <ele>194</ele>
        <time>2017-08-05T14:08:11Z</time>
      </trkpt>
      <trkpt lat="45.89199" lon="4.76407">
        <ele>194</ele>
        <time>2017-08-05T14:08:12Z</time>
      </trkpt>
      <trkpt lat="45.89203" lon="4.76417">
        <ele>193</ele>
        <time>2017-08-05T14:08:14Z</time>
      </trkpt>
      <trkpt lat="45.89205" lon="4.76422">
        <ele>193</ele>
        <time>2017-08-05T14:08:15Z</time>
      </trkpt>
      <trkpt lat="45.8921" lon="4.76431">
        <ele>194</ele>
        <time>2017-08-05T14:08:17Z</time>
      </trkpt>
      <trkpt lat="45.89212" lon="4.76435">
        <ele>194</ele>
        <time>2017-08-05T14:08:18Z</time>
      </trkpt>
      <trkpt lat="45.89216" lon="4.76443">
        <ele>194</ele>
        <time>2017-08-05T14:08:20Z</time>
      </trkpt>
      <trkpt lat="45.89218" lon="4.76446">
        <ele>194</ele>
        <time>2017-08-05T14:08:21Z</time>
      </trkpt>
      <trkpt lat="45.89224" lon="4.76454">
        <ele>194</ele>
        <time>2017-08-05T14:08:23Z</time>
      </trkpt>
      <trkpt lat="45.89226" lon="4.76458">
        <ele>194</ele>
        <time>2017-08-05T14:08:24Z</time>
      </trkpt>
      <trkpt lat="45.89233" lon="4.76465">
        <ele>193</ele>
        <time>2017-08-05T14:08:26Z</time>
      </trkpt>
      <trkpt lat="45.89236" lon="4.76467">
        <ele>193</ele>
        <time>2017-08-05T14:08:27Z</time>
      </trkpt>
      <trkpt lat="45.89242" lon="4.76472">
        <ele>193</ele>
        <time>2017-08-05T14:08:29Z</time>
      </trkpt>
      <trkpt lat="45.89245" lon="4.76475">
        <ele>193</ele>
        <time>2017-08-05T14:08:30Z</time>
      </trkpt>
      <trkpt lat="45.89251" lon="4.76482">
        <ele>193</ele>
        <time>2017-08-05T14:08:32Z</time>
      </trkpt>
      <trkpt lat="45.89255" lon="4.76485">
        <ele>193</ele>
        <time>2017-08-05T14:08:33Z</time>
      </trkpt>
      <trkpt lat="45.89262" lon="4.76488">
        <ele>193</ele>
        <time>2017-08-05T14:08:35Z</time>
      </trkpt>
      <trkpt lat="45.89266" lon="4.76489">
        <ele>193</ele>
        <time>2017-08-05T14:08:36Z</time>
      </trkpt>
      <trkpt lat="45.89273" lon="4.76492">
        <ele>193</ele>
        <time>2017-08-05T14:08:38Z</time>
      </trkpt>
      <trkpt lat="45.89276" lon="4.76494">
        <ele>193</ele>
        <time>2017-08-05T14:08:39Z</time>
      </trkpt>
      <trkpt lat="45.89283" lon="4.76496">
        <ele>193</ele>
        <time>2017-08-05T14:08:41Z</time>
      </trkpt>
      <trkpt lat="45.89286" lon="4.76497">
        <ele>193</ele>
        <time>2017-08-05T14:08:42Z</time>
      </trkpt>
      <trkpt lat="45.89294" lon="4.76499">
        <ele>194</ele>
        <time>2017-08-05T14:08:44Z</time>
      </trkpt>
      <trkpt lat="45.89298" lon="4.765">
        <ele>194</ele>
        <time>2017-08-05T14:08:45Z</time>
      </trkpt>
      <trkpt lat="45.89305" lon="4.76501">
        <ele>194</ele>
        <time>2017-08-05T14:08:47Z</time>
      </trkpt>
      <trkpt lat="45.89308" lon="4.76502">
        <ele>194</ele>
        <time>2017-08-05T14:08:48Z</time>
      </trkpt>
      <trkpt lat="45.89314" lon="4.76503">
        <ele>194</ele>
        <time>2017-08-05T14:08:50Z</time>
      </trkpt>
      <trkpt lat="45.89317" lon="4.76505">
        <ele>194</ele>
        <time>2017-08-05T14:08:51Z</time>
      </trkpt>
      <trkpt lat="45.89325" lon="4.76507">
        <ele>194</ele>
        <time>2017-08-05T14:08:53Z</time>
      </trkpt>
      <trkpt lat="45.89328" lon="4.7651">
        <ele>194</ele>
        <time>2017-08-05T14:08:54Z</time>
      </trkpt>
      <trkpt lat="45.89335" lon="4.76512">
        <ele>194</ele>
        <time>2017-08-05T14:08:56Z</time>
      </trkpt>
      <trkpt lat="45.89339" lon="4.76513">
        <ele>194</ele>
        <time>2017-08-05T14:08:57Z</time>
      </trkpt>
      <trkpt lat="45.89345" lon="4.76516">
        <ele>194</ele>
        <time>2017-08-05T14:08:59Z</time>
      </trkpt>
      <trkpt lat="45.89348" lon="4.76517">
        <ele>194</ele>
        <time>2017-08-05T14:09:00Z</time>
      </trkpt>
      <trkpt lat="45.89354" lon="4.7652">
        <ele>194</ele>
        <time>2017-08-05T14:09:02Z</time>
      </trkpt>
      <trkpt lat="45.89357" lon="4.76522">
        <ele>194</ele>
        <time>2017-08-05T14:09:03Z</time>
      </trkpt>
      <trkpt lat="45.89364" lon="4.76524">
        <ele>194</ele>
        <time>2017-08-05T14:09:05Z</time>
      </trkpt>
      <trkpt lat="45.89367" lon="4.76524">
        <ele>194</ele>
        <time>2017-08-05T14:09:06Z</time>
      </trkpt>
      <trkpt lat="45.89375" lon="4.76526">
        <ele>194</ele>
        <time>2017-08-05T14:09:10Z</time>
      </trkpt>
      <trkpt lat="45.89378" lon="4.76527">
        <ele>194</ele>
        <time>2017-08-05T14:09:11Z</time>
      </trkpt>
      <trkpt lat="45.89385" lon="4.76529">
        <ele>194</ele>
        <time>2017-08-05T14:09:13Z</time>
      </trkpt>
      <trkpt lat="45.89388" lon="4.7653">
        <ele>194</ele>
        <time>2017-08-05T14:09:14Z</time>
      </trkpt>
      <trkpt lat="45.89396" lon="4.76534">
        <ele>194</ele>
        <time>2017-08-05T14:09:17Z</time>
      </trkpt>
      <trkpt lat="45.89399" lon="4.76535">
        <ele>194</ele>
        <time>2017-08-05T14:09:18Z</time>
      </trkpt>
      <trkpt lat="45.89408" lon="4.76538">
        <ele>194</ele>
        <time>2017-08-05T14:09:21Z</time>
      </trkpt>
      <trkpt lat="45.8941" lon="4.76539">
        <ele>194</ele>
        <time>2017-08-05T14:09:22Z</time>
      </trkpt>
      <trkpt lat="45.89416" lon="4.76543">
        <ele>194</ele>
        <time>2017-08-05T14:09:25Z</time>
      </trkpt>
      <trkpt lat="45.89418" lon="4.76544">
        <ele>194</ele>
        <time>2017-08-05T14:09:26Z</time>
      </trkpt>
      <trkpt lat="45.89423" lon="4.76551">
        <ele>194</ele>
        <time>2017-08-05T14:09:29Z</time>
      </trkpt>
      <trkpt lat="45.89425" lon="4.76553">
        <ele>194</ele>
        <time>2017-08-05T14:09:30Z</time>
      </trkpt>
      <trkpt lat="45.89431" lon="4.7656">
        <ele>194</ele>
        <time>2017-08-05T14:09:33Z</time>
      </trkpt>
      <trkpt lat="45.89433" lon="4.76561">
        <ele>194</ele>
        <time>2017-08-05T14:09:34Z</time>
      </trkpt>
      <trkpt lat="45.89439" lon="4.76564">
        <ele>194</ele>
        <time>2017-08-05T14:09:37Z</time>
      </trkpt>
      <trkpt lat="45.89442" lon="4.76563">
        <ele>194</ele>
        <time>2017-08-05T14:09:38Z</time>
      </trkpt>
      <trkpt lat="45.8945" lon="4.76562">
        <ele>194</ele>
        <time>2017-08-05T14:09:41Z</time>
      </trkpt>
      <trkpt lat="45.89453" lon="4.76561">
        <ele>194</ele>
        <time>2017-08-05T14:09:42Z</time>
      </trkpt>
      <trkpt lat="45.8946" lon="4.76559">
        <ele>194</ele>
        <time>2017-08-05T14:09:45Z</time>
      </trkpt>
      <trkpt lat="45.89463" lon="4.76559">
        <ele>194</ele>
        <time>2017-08-05T14:09:46Z</time>
      </trkpt>
      <trkpt lat="45.89472" lon="4.76556">
        <ele>194</ele>
        <time>2017-08-05T14:09:49Z</time>
      </trkpt>
      <trkpt lat="45.89474" lon="4.76556">
        <ele>194</ele>
        <time>2017-08-05T14:09:50Z</time>
      </trkpt>
      <trkpt lat="45.89481" lon="4.76555">
        <ele>194</ele>
        <time>2017-08-05T14:09:53Z</time>
      </trkpt>
      <trkpt lat="45.89484" lon="4.76556">
        <ele>194</ele>
        <time>2017-08-05T14:09:54Z</time>
      </trkpt>
      <trkpt lat="45.89493" lon="4.76556">
        <ele>194</ele>
        <time>2017-08-05T14:09:57Z</time>
      </trkpt>
      <trkpt lat="45.89495" lon="4.76556">
        <ele>194</ele>
        <time>2017-08-05T14:09:58Z</time>
      </trkpt>
      <trkpt lat="45.89503" lon="4.76556">
        <ele>194</ele>
        <time>2017-08-05T14:10:01Z</time>
      </trkpt>
      <trkpt lat="45.89505" lon="4.76555">
        <ele>194</ele>
        <time>2017-08-05T14:10:02Z</time>
      </trkpt>
      <trkpt lat="45.89514" lon="4.76553">
        <ele>194</ele>
        <time>2017-08-05T14:10:05Z</time>
      </trkpt>
      <trkpt lat="45.89516" lon="4.76551">
        <ele>194</ele>
        <time>2017-08-05T14:10:06Z</time>
      </trkpt>
      <trkpt lat="45.89522" lon="4.76549">
        <ele>194</ele>
        <time>2017-08-05T14:10:08Z</time>
      </trkpt>
      <trkpt lat="45.89526" lon="4.76547">
        <ele>194</ele>
        <time>2017-08-05T14:10:09Z</time>
      </trkpt>
      <trkpt lat="45.89533" lon="4.76548">
        <ele>194</ele>
        <time>2017-08-05T14:10:11Z</time>
      </trkpt>
      <trkpt lat="45.89536" lon="4.76546">
        <ele>194</ele>
        <time>2017-08-05T14:10:12Z</time>
      </trkpt>
      <trkpt lat="45.89543" lon="4.76543">
        <ele>194</ele>
        <time>2017-08-05T14:10:14Z</time>
      </trkpt>
      <trkpt lat="45.89546" lon="4.76542">
        <ele>194</ele>
        <time>2017-08-05T14:10:15Z</time>
      </trkpt>
      <trkpt lat="45.89553" lon="4.76542">
        <ele>194</ele>
        <time>2017-08-05T14:10:17Z</time>
      </trkpt>
      <trkpt lat="45.89556" lon="4.76541">
        <ele>194</ele>
        <time>2017-08-05T14:10:18Z</time>
      </trkpt>
      <trkpt lat="45.89562" lon="4.7654">
        <ele>194</ele>
        <time>2017-08-05T14:10:20Z</time>
      </trkpt>
      <trkpt lat="45.89566" lon="4.7654">
        <ele>194</ele>
        <time>2017-08-05T14:10:21Z</time>
      </trkpt>
      <trkpt lat="45.89572" lon="4.76539">
        <ele>194</ele>
        <time>2017-08-05T14:10:23Z</time>
      </trkpt>
      <trkpt lat="45.89575" lon="4.76538">
        <ele>194</ele>
        <time>2017-08-05T14:10:24Z</time>
      </trkpt>
      <trkpt lat="45.89583" lon="4.76537">
        <ele>194</ele>
        <time>2017-08-05T14:10:27Z</time>
      </trkpt>
      <trkpt lat="45.89586" lon="4.76535">
        <ele>194</ele>
        <time>2017-08-05T14:10:28Z</time>
      </trkpt>
      <trkpt lat="45.89593" lon="4.76529">
        <ele>194</ele>
        <time>2017-08-05T14:10:31Z</time>
      </trkpt>
      <trkpt lat="45.89595" lon="4.76526">
        <ele>194</ele>
        <time>2017-08-05T14:10:32Z</time>
      </trkpt>
      <trkpt lat="45.896" lon="4.76517">
        <ele>194</ele>
        <time>2017-08-05T14:10:35Z</time>
      </trkpt>
      <trkpt lat="45.89602" lon="4.76512">
        <ele>194</ele>
        <time>2017-08-05T14:10:36Z</time>
      </trkpt>
      <trkpt lat="45.89604" lon="4.76503">
        <ele>194</ele>
        <time>2017-08-05T14:10:38Z</time>
      </trkpt>
      <trkpt lat="45.89605" lon="4.76499">
        <ele>194</ele>
        <time>2017-08-05T14:10:39Z</time>
      </trkpt>
      <trkpt lat="45.89609" lon="4.76488">
        <ele>194</ele>
        <time>2017-08-05T14:10:41Z</time>
      </trkpt>
      <trkpt lat="45.89611" lon="4.76483">
        <ele>194</ele>
        <time>2017-08-05T14:10:42Z</time>
      </trkpt>
      <trkpt lat="45.89614" lon="4.76475">
        <ele>194</ele>
        <time>2017-08-05T14:10:44Z</time>
      </trkpt>
      <trkpt lat="45.89615" lon="4.76471">
        <ele>194</ele>
        <time>2017-08-05T14:10:45Z</time>
      </trkpt>
      <trkpt lat="45.8962" lon="4.7646">
        <ele>194</ele>
        <time>2017-08-05T14:10:48Z</time>
      </trkpt>
      <trkpt lat="45.89621" lon="4.76456">
        <ele>195</ele>
        <time>2017-08-05T14:10:49Z</time>
      </trkpt>
      <trkpt lat="45.89625" lon="4.76447">
        <ele>195</ele>
        <time>2017-08-05T14:10:51Z</time>
      </trkpt>
      <trkpt lat="45.89627" lon="4.76443">
        <ele>195</ele>
        <time>2017-08-05T14:10:52Z</time>
      </trkpt>
      <trkpt lat="45.8963" lon="4.76434">
        <ele>195</ele>
        <time>2017-08-05T14:10:54Z</time>
      </trkpt>
      <trkpt lat="45.89631" lon="4.76429">
        <ele>195</ele>
        <time>2017-08-05T14:10:55Z</time>
      </trkpt>
      <trkpt lat="45.89635" lon="4.76421">
        <ele>195</ele>
        <time>2017-08-05T14:10:57Z</time>
      </trkpt>
      <trkpt lat="45.89636" lon="4.76417">
        <ele>195</ele>
        <time>2017-08-05T14:10:58Z</time>
      </trkpt>
      <trkpt lat="45.8964" lon="4.76408">
        <ele>195</ele>
        <time>2017-08-05T14:11:00Z</time>
      </trkpt>
      <trkpt lat="45.89641" lon="4.76404">
        <ele>195</ele>
        <time>2017-08-05T14:11:01Z</time>
      </trkpt>
      <trkpt lat="45.89645" lon="4.76393">
        <ele>195</ele>
        <time>2017-08-05T14:11:04Z</time>
      </trkpt>
      <trkpt lat="45.89646" lon="4.76389">
        <ele>195</ele>
        <time>2017-08-05T14:11:05Z</time>
      </trkpt>
      <trkpt lat="45.89649" lon="4.7638">
        <ele>195</ele>
        <time>2017-08-05T14:11:07Z</time>
      </trkpt>
      <trkpt lat="45.89651" lon="4.76374">
        <ele>195</ele>
        <time>2017-08-05T14:11:08Z</time>
      </trkpt>
      <trkpt lat="45.89655" lon="4.76364">
        <ele>195</ele>
        <time>2017-08-05T14:11:10Z</time>
      </trkpt>
      <trkpt lat="45.89657" lon="4.7636">
        <ele>195</ele>
        <time>2017-08-05T14:11:11Z</time>
      </trkpt>
      <trkpt lat="45.89661" lon="4.76349">
        <ele>195</ele>
        <time>2017-08-05T14:11:14Z</time>
      </trkpt>
      <trkpt lat="45.89663" lon="4.76345">
        <ele>195</ele>
        <time>2017-08-05T14:11:15Z</time>
      </trkpt>
      <trkpt lat="45.89666" lon="4.76334">
        <ele>195</ele>
        <time>2017-08-05T14:11:17Z</time>
      </trkpt>
      <trkpt lat="45.89668" lon="4.76329">
        <ele>195</ele>
        <time>2017-08-05T14:11:18Z</time>
      </trkpt>
      <trkpt lat="45.89671" lon="4.76318">
        <ele>195</ele>
        <time>2017-08-05T14:11:20Z</time>
      </trkpt>
      <trkpt lat="45.89673" lon="4.76313">
        <ele>195</ele>
        <time>2017-08-05T14:11:21Z</time>
      </trkpt>
      <trkpt lat="45.89675" lon="4.76305">
        <ele>195</ele>
        <time>2017-08-05T14:11:23Z</time>
      </trkpt>
      <trkpt lat="45.89677" lon="4.76301">
        <ele>195</ele>
        <time>2017-08-05T14:11:24Z</time>
      </trkpt>
      <trkpt lat="45.89681" lon="4.76292">
        <ele>195</ele>
        <time>2017-08-05T14:11:26Z</time>
      </trkpt>
      <trkpt lat="45.89683" lon="4.76287">
        <ele>195</ele>
        <time>2017-08-05T14:11:27Z</time>
      </trkpt>
      <trkpt lat="45.89686" lon="4.76275">
        <ele>195</ele>
        <time>2017-08-05T14:11:29Z</time>
      </trkpt>
      <trkpt lat="45.89688" lon="4.7627">
        <ele>195</ele>
        <time>2017-08-05T14:11:30Z</time>
      </trkpt>
      <trkpt lat="45.8969" lon="4.76264">
        <ele>195</ele>
        <time>2017-08-05T14:11:31Z</time>
      </trkpt>
      <trkpt lat="45.89692" lon="4.76258">
        <ele>195</ele>
        <time>2017-08-05T14:11:32Z</time>
      </trkpt>
      <trkpt lat="45.89696" lon="4.76248">
        <ele>195</ele>
        <time>2017-08-05T14:11:34Z</time>
      </trkpt>
      <trkpt lat="45.89697" lon="4.76243">
        <ele>195</ele>
        <time>2017-08-05T14:11:35Z</time>
      </trkpt>
      <trkpt lat="45.897" lon="4.76234">
        <ele>195</ele>
        <time>2017-08-05T14:11:37Z</time>
      </trkpt>
      <trkpt lat="45.89702" lon="4.76228">
        <ele>195</ele>
        <time>2017-08-05T14:11:38Z</time>
      </trkpt>
      <trkpt lat="45.89706" lon="4.76217">
        <ele>195</ele>
        <time>2017-08-05T14:11:40Z</time>
      </trkpt>
      <trkpt lat="45.89708" lon="4.76212">
        <ele>195</ele>
        <time>2017-08-05T14:11:41Z</time>
      </trkpt>
      <trkpt lat="45.8971" lon="4.76205">
        <ele>195</ele>
        <time>2017-08-05T14:11:42Z</time>
      </trkpt>
      <trkpt lat="45.89712" lon="4.76199">
        <ele>195</ele>
        <time>2017-08-05T14:11:43Z</time>
      </trkpt>
      <trkpt lat="45.89714" lon="4.76192">
        <ele>195</ele>
        <time>2017-08-05T14:11:44Z</time>
      </trkpt>
      <trkpt lat="45.89716" lon="4.76186">
        <ele>195</ele>
        <time>2017-08-05T14:11:45Z</time>
      </trkpt>
      <trkpt lat="45.89718" lon="4.76179">
        <ele>195</ele>
        <time>2017-08-05T14:11:46Z</time>
      </trkpt>
      <trkpt lat="45.8972" lon="4.76173">
        <ele>195</ele>
        <time>2017-08-05T14:11:47Z</time>
      </trkpt>
      <trkpt lat="45.89723" lon="4.76161">
        <ele>195</ele>
        <time>2017-08-05T14:11:49Z</time>
      </trkpt>
      <trkpt lat="45.89725" lon="4.76156">
        <ele>195</ele>
        <time>2017-08-05T14:11:50Z</time>
      </trkpt>
      <trkpt lat="45.89729" lon="4.76145">
        <ele>195</ele>
        <time>2017-08-05T14:11:52Z</time>
      </trkpt>
      <trkpt lat="45.89731" lon="4.76139">
        <ele>195</ele>
        <time>2017-08-05T14:11:53Z</time>
      </trkpt>
      <trkpt lat="45.89733" lon="4.76133">
        <ele>195</ele>
        <time>2017-08-05T14:11:54Z</time>
      </trkpt>
      <trkpt lat="45.89735" lon="4.76127">
        <ele>195</ele>
        <time>2017-08-05T14:11:55Z</time>
      </trkpt>
      <trkpt lat="45.89738" lon="4.76116">
        <ele>195</ele>
        <time>2017-08-05T14:11:57Z</time>
      </trkpt>
      <trkpt lat="45.8974" lon="4.76111">
        <ele>195</ele>
        <time>2017-08-05T14:11:58Z</time>
      </trkpt>
      <trkpt lat="45.89744" lon="4.76101">
        <ele>195</ele>
        <time>2017-08-05T14:12:00Z</time>
      </trkpt>
      <trkpt lat="45.89746" lon="4.76095">
        <ele>195</ele>
        <time>2017-08-05T14:12:01Z</time>
      </trkpt>
      <trkpt lat="45.89748" lon="4.76089">
        <ele>195</ele>
        <time>2017-08-05T14:12:02Z</time>
      </trkpt>
      <trkpt lat="45.8975" lon="4.76083">
        <ele>195</ele>
        <time>2017-08-05T14:12:03Z</time>
      </trkpt>
      <trkpt lat="45.89755" lon="4.76072">
        <ele>195</ele>
        <time>2017-08-05T14:12:05Z</time>
      </trkpt>
      <trkpt lat="45.89757" lon="4.76068">
        <ele>195</ele>
        <time>2017-08-05T14:12:06Z</time>
      </trkpt>
      <trkpt lat="45.89761" lon="4.76058">
        <ele>195</ele>
        <time>2017-08-05T14:12:08Z</time>
      </trkpt>
      <trkpt lat="45.89763" lon="4.76053">
        <ele>195</ele>
        <time>2017-08-05T14:12:09Z</time>
      </trkpt>
      <trkpt lat="45.89767" lon="4.76043">
        <ele>195</ele>
        <time>2017-08-05T14:12:11Z</time>
      </trkpt>
      <trkpt lat="45.8977" lon="4.76038">
        <ele>195</ele>
        <time>2017-08-05T14:12:12Z</time>
      </trkpt>
      <trkpt lat="45.89772" lon="4.76032">
        <ele>195</ele>
        <time>2017-08-05T14:12:13Z</time>
      </trkpt>
      <trkpt lat="45.89775" lon="4.76026">
        <ele>195</ele>
        <time>2017-08-05T14:12:14Z</time>
      </trkpt>
      <trkpt lat="45.89779" lon="4.76015">
        <ele>195</ele>
        <time>2017-08-05T14:12:16Z</time>
      </trkpt>
      <trkpt lat="45.89781" lon="4.7601">
        <ele>195</ele>
        <time>2017-08-05T14:12:17Z</time>
      </trkpt>
      <trkpt lat="45.89785" lon="4.76">
        <ele>195</ele>
        <time>2017-08-05T14:12:19Z</time>
      </trkpt>
      <trkpt lat="45.89787" lon="4.75996">
        <ele>195</ele>
        <time>2017-08-05T14:12:20Z</time>
      </trkpt>
      <trkpt lat="45.89789" lon="4.75986">
        <ele>195</ele>
        <time>2017-08-05T14:12:22Z</time>
      </trkpt>
      <trkpt lat="45.8979" lon="4.75981">
        <ele>195</ele>
        <time>2017-08-05T14:12:23Z</time>
      </trkpt>
      <trkpt lat="45.89793" lon="4.75972">
        <ele>195</ele>
        <time>2017-08-05T14:12:25Z</time>
      </trkpt>
      <trkpt lat="45.89795" lon="4.75967">
        <ele>195</ele>
        <time>2017-08-05T14:12:26Z</time>
      </trkpt>
      <trkpt lat="45.89798" lon="4.75958">
        <ele>195</ele>
        <time>2017-08-05T14:12:28Z</time>
      </trkpt>
      <trkpt lat="45.898" lon="4.75952">
        <ele>195</ele>
        <time>2017-08-05T14:12:29Z</time>
      </trkpt>
      <trkpt lat="45.89803" lon="4.75941">
        <ele>195</ele>
        <time>2017-08-05T14:12:31Z</time>
      </trkpt>
      <trkpt lat="45.89804" lon="4.75934">
        <ele>195</ele>
        <time>2017-08-05T14:12:32Z</time>
      </trkpt>
      <trkpt lat="45.89808" lon="4.75923">
        <ele>195</ele>
        <time>2017-08-05T14:12:34Z</time>
      </trkpt>
      <trkpt lat="45.89809" lon="4.75917">
        <ele>195</ele>
        <time>2017-08-05T14:12:35Z</time>
      </trkpt>
      <trkpt lat="45.89813" lon="4.75905">
        <ele>194</ele>
        <time>2017-08-05T14:12:37Z</time>
      </trkpt>
      <trkpt lat="45.89815" lon="4.759">
        <ele>194</ele>
        <time>2017-08-05T14:12:38Z</time>
      </trkpt>
      <trkpt lat="45.89818" lon="4.75891">
        <ele>194</ele>
        <time>2017-08-05T14:12:40Z</time>
      </trkpt>
      <trkpt lat="45.8982" lon="4.75887">
        <ele>194</ele>
        <time>2017-08-05T14:12:41Z</time>
      </trkpt>
      <trkpt lat="45.89825" lon="4.75878">
        <ele>194</ele>
        <time>2017-08-05T14:12:43Z</time>
      </trkpt>
      <trkpt lat="45.89827" lon="4.75872">
        <ele>194</ele>
        <time>2017-08-05T14:12:44Z</time>
      </trkpt>
      <trkpt lat="45.8983" lon="4.75866">
        <ele>194</ele>
        <time>2017-08-05T14:12:45Z</time>
      </trkpt>
      <trkpt lat="45.89833" lon="4.75861">
        <ele>193</ele>
        <time>2017-08-05T14:12:46Z</time>
      </trkpt>
      <trkpt lat="45.89836" lon="4.75855">
        <ele>193</ele>
        <time>2017-08-05T14:12:47Z</time>
      </trkpt>
      <trkpt lat="45.89839" lon="4.7585">
        <ele>193</ele>
        <time>2017-08-05T14:12:48Z</time>
      </trkpt>
      <trkpt lat="45.89842" lon="4.75845">
        <ele>192</ele>
        <time>2017-08-05T14:12:49Z</time>
      </trkpt>
      <trkpt lat="45.89845" lon="4.7584">
        <ele>192</ele>
        <time>2017-08-05T14:12:50Z</time>
      </trkpt>
      <trkpt lat="45.89852" lon="4.75831">
        <ele>192</ele>
        <time>2017-08-05T14:12:52Z</time>
      </trkpt>
      <trkpt lat="45.89855" lon="4.75827">
        <ele>192</ele>
        <time>2017-08-05T14:12:53Z</time>
      </trkpt>
      <trkpt lat="45.89861" lon="4.75818">
        <ele>192</ele>
        <time>2017-08-05T14:12:55Z</time>
      </trkpt>
      <trkpt lat="45.89865" lon="4.75814">
        <ele>192</ele>
        <time>2017-08-05T14:12:56Z</time>
      </trkpt>
      <trkpt lat="45.89872" lon="4.75809">
        <ele>192</ele>
        <time>2017-08-05T14:12:58Z</time>
      </trkpt>
      <trkpt lat="45.89876" lon="4.75806">
        <ele>192</ele>
        <time>2017-08-05T14:12:59Z</time>
      </trkpt>
      <trkpt lat="45.89882" lon="4.75801">
        <ele>192</ele>
        <time>2017-08-05T14:13:01Z</time>
      </trkpt>
      <trkpt lat="45.89886" lon="4.75798">
        <ele>192</ele>
        <time>2017-08-05T14:13:02Z</time>
      </trkpt>
      <trkpt lat="45.89894" lon="4.75793">
        <ele>192</ele>
        <time>2017-08-05T14:13:04Z</time>
      </trkpt>
      <trkpt lat="45.89898" lon="4.75791">
        <ele>192</ele>
        <time>2017-08-05T14:13:05Z</time>
      </trkpt>
      <trkpt lat="45.89902" lon="4.75789">
        <ele>192</ele>
        <time>2017-08-05T14:13:06Z</time>
      </trkpt>
      <trkpt lat="45.89907" lon="4.75786">
        <ele>192</ele>
        <time>2017-08-05T14:13:07Z</time>
      </trkpt>
      <trkpt lat="45.89911" lon="4.75782">
        <ele>192</ele>
        <time>2017-08-05T14:13:08Z</time>
      </trkpt>
      <trkpt lat="45.89916" lon="4.75779">
        <ele>192</ele>
        <time>2017-08-05T14:13:09Z</time>
      </trkpt>
      <trkpt lat="45.89923" lon="4.75774">
        <ele>192</ele>
        <time>2017-08-05T14:13:11Z</time>
      </trkpt>
      <trkpt lat="45.89928" lon="4.75772">
        <ele>192</ele>
        <time>2017-08-05T14:13:12Z</time>
      </trkpt>
      <trkpt lat="45.89936" lon="4.7577">
        <ele>192</ele>
        <time>2017-08-05T14:13:14Z</time>
      </trkpt>
      <trkpt lat="45.89941" lon="4.75768">
        <ele>192</ele>
        <time>2017-08-05T14:13:15Z</time>
      </trkpt>
      <trkpt lat="45.89946" lon="4.75765">
        <ele>192</ele>
        <time>2017-08-05T14:13:16Z</time>
      </trkpt>
      <trkpt lat="45.89951" lon="4.75763">
        <ele>192</ele>
        <time>2017-08-05T14:13:17Z</time>
      </trkpt>
      <trkpt lat="45.89956" lon="4.7576">
        <ele>192</ele>
        <time>2017-08-05T14:13:18Z</time>
      </trkpt>
      <trkpt lat="45.89962" lon="4.75757">
        <ele>192</ele>
        <time>2017-08-05T14:13:19Z</time>
      </trkpt>
      <trkpt lat="45.89967" lon="4.75754">
        <ele>192</ele>
        <time>2017-08-05T14:13:20Z</time>
      </trkpt>
      <trkpt lat="45.89972" lon="4.75751">
        <ele>192</ele>
        <time>2017-08-05T14:13:21Z</time>
      </trkpt>
      <trkpt lat="45.89977" lon="4.75749">
        <ele>192</ele>
        <time>2017-08-05T14:13:22Z</time>
      </trkpt>
      <trkpt lat="45.89981" lon="4.75746">
        <ele>192</ele>
        <time>2017-08-05T14:13:23Z</time>
      </trkpt>
      <trkpt lat="45.89986" lon="4.75744">
        <ele>192</ele>
        <time>2017-08-05T14:13:24Z</time>
      </trkpt>
      <trkpt lat="45.8999" lon="4.75742">
        <ele>193</ele>
        <time>2017-08-05T14:13:25Z</time>
      </trkpt>
      <trkpt lat="45.89999" lon="4.75738">
        <ele>193</ele>
        <time>2017-08-05T14:13:27Z</time>
      </trkpt>
      <trkpt lat="45.90003" lon="4.75737">
        <ele>193</ele>
        <time>2017-08-05T14:13:28Z</time>
      </trkpt>
      <trkpt lat="45.90008" lon="4.75735">
        <ele>193</ele>
        <time>2017-08-05T14:13:29Z</time>
      </trkpt>
      <trkpt lat="45.90013" lon="4.75735">
        <ele>193</ele>
        <time>2017-08-05T14:13:30Z</time>
      </trkpt>
      <trkpt lat="45.90018" lon="4.75734">
        <ele>193</ele>
        <time>2017-08-05T14:13:31Z</time>
      </trkpt>
      <trkpt lat="45.90024" lon="4.75735">
        <ele>193</ele>
        <time>2017-08-05T14:13:32Z</time>
      </trkpt>
      <trkpt lat="45.90029" lon="4.75736">
        <ele>193</ele>
        <time>2017-08-05T14:13:33Z</time>
      </trkpt>
      <trkpt lat="45.90035" lon="4.75738">
        <ele>193</ele>
        <time>2017-08-05T14:13:34Z</time>
      </trkpt>
      <trkpt lat="45.90041" lon="4.7574">
        <ele>193</ele>
        <time>2017-08-05T14:13:35Z</time>
      </trkpt>
      <trkpt lat="45.90047" lon="4.75743">
        <ele>192</ele>
        <time>2017-08-05T14:13:36Z</time>
      </trkpt>
      <trkpt lat="45.90052" lon="4.75745">
        <ele>192</ele>
        <time>2017-08-05T14:13:37Z</time>
      </trkpt>
      <trkpt lat="45.90058" lon="4.75748">
        <ele>192</ele>
        <time>2017-08-05T14:13:38Z</time>
      </trkpt>
      <trkpt lat="45.90064" lon="4.75751">
        <ele>192</ele>
        <time>2017-08-05T14:13:39Z</time>
      </trkpt>
      <trkpt lat="45.90069" lon="4.75755">
        <ele>192</ele>
        <time>2017-08-05T14:13:40Z</time>
      </trkpt>
      <trkpt lat="45.90075" lon="4.75758">
        <ele>192</ele>
        <time>2017-08-05T14:13:41Z</time>
      </trkpt>
      <trkpt lat="45.9008" lon="4.75761">
        <ele>192</ele>
        <time>2017-08-05T14:13:42Z</time>
      </trkpt>
      <trkpt lat="45.90085" lon="4.75765">
        <ele>192</ele>
        <time>2017-08-05T14:13:43Z</time>
      </trkpt>
      <trkpt lat="45.90089" lon="4.75768">
        <ele>192</ele>
        <time>2017-08-05T14:13:44Z</time>
      </trkpt>
      <trkpt lat="45.90094" lon="4.75771">
        <ele>191</ele>
        <time>2017-08-05T14:13:45Z</time>
      </trkpt>
      <trkpt lat="45.90098" lon="4.75773">
        <ele>191</ele>
        <time>2017-08-05T14:13:46Z</time>
      </trkpt>
      <trkpt lat="45.90107" lon="4.75777">
        <ele>191</ele>
        <time>2017-08-05T14:13:48Z</time>
      </trkpt>
      <trkpt lat="45.90111" lon="4.7578">
        <ele>191</ele>
        <time>2017-08-05T14:13:49Z</time>
      </trkpt>
      <trkpt lat="45.90119" lon="4.75784">
        <ele>191</ele>
        <time>2017-08-05T14:13:51Z</time>
      </trkpt>
      <trkpt lat="45.90123" lon="4.75786">
        <ele>191</ele>
        <time>2017-08-05T14:13:52Z</time>
      </trkpt>
      <trkpt lat="45.90127" lon="4.75788">
        <ele>191</ele>
        <time>2017-08-05T14:13:53Z</time>
      </trkpt>
      <trkpt lat="45.90132" lon="4.75791">
        <ele>191</ele>
        <time>2017-08-05T14:13:54Z</time>
      </trkpt>
      <trkpt lat="45.90136" lon="4.75793">
        <ele>191</ele>
        <time>2017-08-05T14:13:55Z</time>
      </trkpt>
      <trkpt lat="45.90141" lon="4.75796">
        <ele>191</ele>
        <time>2017-08-05T14:13:56Z</time>
      </trkpt>
      <trkpt lat="45.90146" lon="4.75798">
        <ele>191</ele>
        <time>2017-08-05T14:13:57Z</time>
      </trkpt>
      <trkpt lat="45.90151" lon="4.75801">
        <ele>191</ele>
        <time>2017-08-05T14:13:58Z</time>
      </trkpt>
      <trkpt lat="45.90155" lon="4.75802">
        <ele>191</ele>
        <time>2017-08-05T14:13:59Z</time>
      </trkpt>
      <trkpt lat="45.90161" lon="4.75803">
        <ele>191</ele>
        <time>2017-08-05T14:14:00Z</time>
      </trkpt>
      <trkpt lat="45.90165" lon="4.75804">
        <ele>191</ele>
        <time>2017-08-05T14:14:01Z</time>
      </trkpt>
      <trkpt lat="45.9017" lon="4.75804">
        <ele>190</ele>
        <time>2017-08-05T14:14:02Z</time>
      </trkpt>
      <trkpt lat="45.90179" lon="4.75804">
        <ele>190</ele>
        <time>2017-08-05T14:14:04Z</time>
      </trkpt>
      <trkpt lat="45.90183" lon="4.75804">
        <ele>190</ele>
        <time>2017-08-05T14:14:05Z</time>
      </trkpt>
      <trkpt lat="45.90188" lon="4.75804">
        <ele>190</ele>
        <time>2017-08-05T14:14:06Z</time>
      </trkpt>
      <trkpt lat="45.90192" lon="4.75804">
        <ele>190</ele>
        <time>2017-08-05T14:14:07Z</time>
      </trkpt>
      <trkpt lat="45.90198" lon="4.75804">
        <ele>190</ele>
        <time>2017-08-05T14:14:08Z</time>
      </trkpt>
      <trkpt lat="45.90203" lon="4.75805">
        <ele>190</ele>
        <time>2017-08-05T14:14:09Z</time>
      </trkpt>
      <trkpt lat="45.90208" lon="4.75806">
        <ele>190</ele>
        <time>2017-08-05T14:14:10Z</time>
      </trkpt>
      <trkpt lat="45.90214" lon="4.75808">
        <ele>190</ele>
        <time>2017-08-05T14:14:11Z</time>
      </trkpt>
      <trkpt lat="45.9022" lon="4.7581">
        <ele>190</ele>
        <time>2017-08-05T14:14:12Z</time>
      </trkpt>
      <trkpt lat="45.90225" lon="4.75812">
        <ele>190</ele>
        <time>2017-08-05T14:14:13Z</time>
      </trkpt>
      <trkpt lat="45.90231" lon="4.75815">
        <ele>190</ele>
        <time>2017-08-05T14:14:14Z</time>
      </trkpt>
      <trkpt lat="45.90237" lon="4.75817">
        <ele>190</ele>
        <time>2017-08-05T14:14:15Z</time>
      </trkpt>
      <trkpt lat="45.90242" lon="4.75819">
        <ele>190</ele>
        <time>2017-08-05T14:14:16Z</time>
      </trkpt>
      <trkpt lat="45.90248" lon="4.75821">
        <ele>190</ele>
        <time>2017-08-05T14:14:17Z</time>
      </trkpt>
      <trkpt lat="45.90253" lon="4.75824">
        <ele>190</ele>
        <time>2017-08-05T14:14:18Z</time>
      </trkpt>
      <trkpt lat="45.90258" lon="4.75825">
        <ele>190</ele>
        <time>2017-08-05T14:14:19Z</time>
      </trkpt>
      <trkpt lat="45.90263" lon="4.75826">
        <ele>190</ele>
        <time>2017-08-05T14:14:20Z</time>
      </trkpt>
      <trkpt lat="45.90268" lon="4.75827">
        <ele>190</ele>
        <time>2017-08-05T14:14:21Z</time>
      </trkpt>
      <trkpt lat="45.90277" lon="4.75829">
        <ele>189</ele>
        <time>2017-08-05T14:14:23Z</time>
      </trkpt>
      <trkpt lat="45.90281" lon="4.7583">
        <ele>189</ele>
        <time>2017-08-05T14:14:24Z</time>
      </trkpt>
      <trkpt lat="45.90286" lon="4.75831">
        <ele>189</ele>
        <time>2017-08-05T14:14:25Z</time>
      </trkpt>
      <trkpt lat="45.9029" lon="4.75831">
        <ele>189</ele>
        <time>2017-08-05T14:14:26Z</time>
      </trkpt>
      <trkpt lat="45.90295" lon="4.75831">
        <ele>189</ele>
        <time>2017-08-05T14:14:27Z</time>
      </trkpt>
      <trkpt lat="45.903" lon="4.75832">
        <ele>189</ele>
        <time>2017-08-05T14:14:28Z</time>
      </trkpt>
      <trkpt lat="45.90305" lon="4.75834">
        <ele>189</ele>
        <time>2017-08-05T14:14:29Z</time>
      </trkpt>
      <trkpt lat="45.9031" lon="4.75836">
        <ele>189</ele>
        <time>2017-08-05T14:14:30Z</time>
      </trkpt>
      <trkpt lat="45.90314" lon="4.7584">
        <ele>189</ele>
        <time>2017-08-05T14:14:31Z</time>
      </trkpt>
      <trkpt lat="45.90317" lon="4.75845">
        <ele>189</ele>
        <time>2017-08-05T14:14:32Z</time>
      </trkpt>
      <trkpt lat="45.90322" lon="4.75855">
        <ele>189</ele>
        <time>2017-08-05T14:14:34Z</time>
      </trkpt>
      <trkpt lat="45.90324" lon="4.75861">
        <ele>189</ele>
        <time>2017-08-05T14:14:35Z</time>
      </trkpt>
      <trkpt lat="45.90327" lon="4.75866">
        <ele>189</ele>
        <time>2017-08-05T14:14:36Z</time>
      </trkpt>
      <trkpt lat="45.90329" lon="4.75872">
        <ele>189</ele>
        <time>2017-08-05T14:14:37Z</time>
      </trkpt>
      <trkpt lat="45.90332" lon="4.75878">
        <ele>189</ele>
        <time>2017-08-05T14:14:38Z</time>
      </trkpt>
      <trkpt lat="45.90335" lon="4.75885">
        <ele>188</ele>
        <time>2017-08-05T14:14:39Z</time>
      </trkpt>
      <trkpt lat="45.90338" lon="4.75892">
        <ele>188</ele>
        <time>2017-08-05T14:14:40Z</time>
      </trkpt>
      <trkpt lat="45.90341" lon="4.75899">
        <ele>188</ele>
        <time>2017-08-05T14:14:41Z</time>
      </trkpt>
      <trkpt lat="45.90344" lon="4.75905">
        <ele>188</ele>
        <time>2017-08-05T14:14:42Z</time>
      </trkpt>
      <trkpt lat="45.90346" lon="4.7591">
        <ele>188</ele>
        <time>2017-08-05T14:14:43Z</time>
      </trkpt>
      <trkpt lat="45.90349" lon="4.75916">
        <ele>188</ele>
        <time>2017-08-05T14:14:44Z</time>
      </trkpt>
      <trkpt lat="45.90352" lon="4.75922">
        <ele>187</ele>
        <time>2017-08-05T14:14:45Z</time>
      </trkpt>
      <trkpt lat="45.90355" lon="4.75926">
        <ele>187</ele>
        <time>2017-08-05T14:14:46Z</time>
      </trkpt>
      <trkpt lat="45.90358" lon="4.75931">
        <ele>187</ele>
        <time>2017-08-05T14:14:47Z</time>
      </trkpt>
      <trkpt lat="45.90365" lon="4.75938">
        <ele>187</ele>
        <time>2017-08-05T14:14:49Z</time>
      </trkpt>
      <trkpt lat="45.9037" lon="4.75941">
        <ele>187</ele>
        <time>2017-08-05T14:14:50Z</time>
      </trkpt>
      <trkpt lat="45.90374" lon="4.75942">
        <ele>187</ele>
        <time>2017-08-05T14:14:51Z</time>
      </trkpt>
      <trkpt lat="45.90379" lon="4.75942">
        <ele>187</ele>
        <time>2017-08-05T14:14:52Z</time>
      </trkpt>
      <trkpt lat="45.90385" lon="4.75942">
        <ele>187</ele>
        <time>2017-08-05T14:14:53Z</time>
      </trkpt>
      <trkpt lat="45.9039" lon="4.75942">
        <ele>187</ele>
        <time>2017-08-05T14:14:54Z</time>
      </trkpt>
      <trkpt lat="45.90396" lon="4.75941">
        <ele>187</ele>
        <time>2017-08-05T14:14:55Z</time>
      </trkpt>
      <trkpt lat="45.90402" lon="4.75939">
        <ele>187</ele>
        <time>2017-08-05T14:14:56Z</time>
      </trkpt>
      <trkpt lat="45.90408" lon="4.75939">
        <ele>187</ele>
        <time>2017-08-05T14:14:57Z</time>
      </trkpt>
      <trkpt lat="45.90414" lon="4.75939">
        <ele>187</ele>
        <time>2017-08-05T14:14:58Z</time>
      </trkpt>
      <trkpt lat="45.90419" lon="4.7594">
        <ele>187</ele>
        <time>2017-08-05T14:14:59Z</time>
      </trkpt>
      <trkpt lat="45.90425" lon="4.75939">
        <ele>187</ele>
        <time>2017-08-05T14:15:00Z</time>
      </trkpt>
      <trkpt lat="45.9043" lon="4.75939">
        <ele>187</ele>
        <time>2017-08-05T14:15:01Z</time>
      </trkpt>
      <trkpt lat="45.90435" lon="4.75939">
        <ele>187</ele>
        <time>2017-08-05T14:15:02Z</time>
      </trkpt>
      <trkpt lat="45.9044" lon="4.75939">
        <ele>187</ele>
        <time>2017-08-05T14:15:03Z</time>
      </trkpt>
      <trkpt lat="45.90445" lon="4.75939">
        <ele>187</ele>
        <time>2017-08-05T14:15:04Z</time>
      </trkpt>
      <trkpt lat="45.9045" lon="4.75939">
        <ele>187</ele>
        <time>2017-08-05T14:15:05Z</time>
      </trkpt>
      <trkpt lat="45.90455" lon="4.75938">
        <ele>187</ele>
        <time>2017-08-05T14:15:06Z</time>
      </trkpt>
      <trkpt lat="45.9046" lon="4.75938">
        <ele>187</ele>
        <time>2017-08-05T14:15:07Z</time>
      </trkpt>
      <trkpt lat="45.90466" lon="4.75937">
        <ele>187</ele>
        <time>2017-08-05T14:15:08Z</time>
      </trkpt>
      <trkpt lat="45.90471" lon="4.75936">
        <ele>187</ele>
        <time>2017-08-05T14:15:09Z</time>
      </trkpt>
      <trkpt lat="45.90476" lon="4.75936">
        <ele>187</ele>
        <time>2017-08-05T14:15:10Z</time>
      </trkpt>
      <trkpt lat="45.9048" lon="4.75935">
        <ele>187</ele>
        <time>2017-08-05T14:15:11Z</time>
      </trkpt>
      <trkpt lat="45.90485" lon="4.75934">
        <ele>187</ele>
        <time>2017-08-05T14:15:12Z</time>
      </trkpt>
      <trkpt lat="45.9049" lon="4.75935">
        <ele>187</ele>
        <time>2017-08-05T14:15:13Z</time>
      </trkpt>
      <trkpt lat="45.90495" lon="4.75936">
        <ele>187</ele>
        <time>2017-08-05T14:15:14Z</time>
      </trkpt>
      <trkpt lat="45.905" lon="4.75936">
        <ele>187</ele>
        <time>2017-08-05T14:15:15Z</time>
      </trkpt>
      <trkpt lat="45.90504" lon="4.75935">
        <ele>187</ele>
        <time>2017-08-05T14:15:16Z</time>
      </trkpt>
      <trkpt lat="45.90513" lon="4.75934">
        <ele>187</ele>
        <time>2017-08-05T14:15:18Z</time>
      </trkpt>
      <trkpt lat="45.90518" lon="4.75934">
        <ele>187</ele>
        <time>2017-08-05T14:15:19Z</time>
      </trkpt>
      <trkpt lat="45.90526" lon="4.75936">
        <ele>186</ele>
        <time>2017-08-05T14:15:21Z</time>
      </trkpt>
      <trkpt lat="45.9053" lon="4.75937">
        <ele>186</ele>
        <time>2017-08-05T14:15:22Z</time>
      </trkpt>
      <trkpt lat="45.90537" lon="4.75941">
        <ele>186</ele>
        <time>2017-08-05T14:15:24Z</time>
      </trkpt>
      <trkpt lat="45.90541" lon="4.75944">
        <ele>186</ele>
        <time>2017-08-05T14:15:25Z</time>
      </trkpt>
      <trkpt lat="45.90548" lon="4.75952">
        <ele>186</ele>
        <time>2017-08-05T14:15:27Z</time>
      </trkpt>
      <trkpt lat="45.90552" lon="4.75955">
        <ele>186</ele>
        <time>2017-08-05T14:15:28Z</time>
      </trkpt>
      <trkpt lat="45.90557" lon="4.75958">
        <ele>186</ele>
        <time>2017-08-05T14:15:29Z</time>
      </trkpt>
      <trkpt lat="45.9056" lon="4.75963">
        <ele>186</ele>
        <time>2017-08-05T14:15:30Z</time>
      </trkpt>
      <trkpt lat="45.90564" lon="4.75966">
        <ele>186</ele>
        <time>2017-08-05T14:15:31Z</time>
      </trkpt>
      <trkpt lat="45.90568" lon="4.75969">
        <ele>186</ele>
        <time>2017-08-05T14:15:32Z</time>
      </trkpt>
      <trkpt lat="45.90575" lon="4.75974">
        <ele>186</ele>
        <time>2017-08-05T14:15:34Z</time>
      </trkpt>
      <trkpt lat="45.90577" lon="4.75978">
        <ele>186</ele>
        <time>2017-08-05T14:15:35Z</time>
      </trkpt>
      <trkpt lat="45.90584" lon="4.75984">
        <ele>186</ele>
        <time>2017-08-05T14:15:37Z</time>
      </trkpt>
      <trkpt lat="45.90589" lon="4.75987">
        <ele>186</ele>
        <time>2017-08-05T14:15:38Z</time>
      </trkpt>
      <trkpt lat="45.90595" lon="4.75987">
        <ele>186</ele>
        <time>2017-08-05T14:15:39Z</time>
      </trkpt>
      <trkpt lat="45.906" lon="4.75986">
        <ele>186</ele>
        <time>2017-08-05T14:15:40Z</time>
      </trkpt>
      <trkpt lat="45.90605" lon="4.75982">
        <ele>186</ele>
        <time>2017-08-05T14:15:41Z</time>
      </trkpt>
      <trkpt lat="45.90609" lon="4.75976">
        <ele>186</ele>
        <time>2017-08-05T14:15:42Z</time>
      </trkpt>
      <trkpt lat="45.90612" lon="4.7597">
        <ele>186</ele>
        <time>2017-08-05T14:15:43Z</time>
      </trkpt>
      <trkpt lat="45.90616" lon="4.75962">
        <ele>186</ele>
        <time>2017-08-05T14:15:44Z</time>
      </trkpt>
      <trkpt lat="45.9062" lon="4.75955">
        <ele>186</ele>
        <time>2017-08-05T14:15:45Z</time>
      </trkpt>
      <trkpt lat="45.90625" lon="4.75947">
        <ele>186</ele>
        <time>2017-08-05T14:15:46Z</time>
      </trkpt>
      <trkpt lat="45.90629" lon="4.7594">
        <ele>186</ele>
        <time>2017-08-05T14:15:47Z</time>
      </trkpt>
      <trkpt lat="45.90632" lon="4.75934">
        <ele>186</ele>
        <time>2017-08-05T14:15:48Z</time>
      </trkpt>
      <trkpt lat="45.90636" lon="4.75929">
        <ele>186</ele>
        <time>2017-08-05T14:15:49Z</time>
      </trkpt>
      <trkpt lat="45.9064" lon="4.75924">
        <ele>186</ele>
        <time>2017-08-05T14:15:50Z</time>
      </trkpt>
      <trkpt lat="45.90643" lon="4.75918">
        <ele>187</ele>
        <time>2017-08-05T14:15:51Z</time>
      </trkpt>
      <trkpt lat="45.90647" lon="4.75913">
        <ele>187</ele>
        <time>2017-08-05T14:15:52Z</time>
      </trkpt>
      <trkpt lat="45.9065" lon="4.75908">
        <ele>187</ele>
        <time>2017-08-05T14:15:53Z</time>
      </trkpt>
      <trkpt lat="45.90653" lon="4.75904">
        <ele>187</ele>
        <time>2017-08-05T14:15:54Z</time>
      </trkpt>
      <trkpt lat="45.90659" lon="4.75895">
        <ele>187</ele>
        <time>2017-08-05T14:15:56Z</time>
      </trkpt>
      <trkpt lat="45.90662" lon="4.75891">
        <ele>187</ele>
        <time>2017-08-05T14:15:57Z</time>
      </trkpt>
      <trkpt lat="45.90667" lon="4.75882">
        <ele>187</ele>
        <time>2017-08-05T14:15:59Z</time>
      </trkpt>
      <trkpt lat="45.9067" lon="4.75881">
        <ele>187</ele>
        <time>2017-08-05T14:16:00Z</time>
      </trkpt>
      <trkpt lat="45.90674" lon="4.75876">
        <ele>187</ele>
        <time>2017-08-05T14:16:01Z</time>
      </trkpt>
      <trkpt lat="45.90678" lon="4.75871">
        <ele>187</ele>
        <time>2017-08-05T14:16:02Z</time>
      </trkpt>
      <trkpt lat="45.90682" lon="4.75868">
        <ele>187</ele>
        <time>2017-08-05T14:16:03Z</time>
      </trkpt>
      <trkpt lat="45.90686" lon="4.75865">
        <ele>187</ele>
        <time>2017-08-05T14:16:04Z</time>
      </trkpt>
      <trkpt lat="45.9069" lon="4.75862">
        <ele>187</ele>
        <time>2017-08-05T14:16:05Z</time>
      </trkpt>
      <trkpt lat="45.90695" lon="4.7586">
        <ele>187</ele>
        <time>2017-08-05T14:16:06Z</time>
      </trkpt>
      <trkpt lat="45.907" lon="4.75859">
        <ele>187</ele>
        <time>2017-08-05T14:16:07Z</time>
      </trkpt>
      <trkpt lat="45.90705" lon="4.75859">
        <ele>187</ele>
        <time>2017-08-05T14:16:08Z</time>
      </trkpt>
      <trkpt lat="45.9071" lon="4.75858">
        <ele>187</ele>
        <time>2017-08-05T14:16:09Z</time>
      </trkpt>
      <trkpt lat="45.90715" lon="4.75857">
        <ele>187</ele>
        <time>2017-08-05T14:16:10Z</time>
      </trkpt>
      <trkpt lat="45.90721" lon="4.75856">
        <ele>186</ele>
        <time>2017-08-05T14:16:11Z</time>
      </trkpt>
      <trkpt lat="45.90727" lon="4.75856">
        <ele>186</ele>
        <time>2017-08-05T14:16:12Z</time>
      </trkpt>
      <trkpt lat="45.90734" lon="4.75856">
        <ele>186</ele>
        <time>2017-08-05T14:16:13Z</time>
      </trkpt>
      <trkpt lat="45.90741" lon="4.75856">
        <ele>186</ele>
        <time>2017-08-05T14:16:14Z</time>
      </trkpt>
      <trkpt lat="45.90748" lon="4.75857">
        <ele>186</ele>
        <time>2017-08-05T14:16:15Z</time>
      </trkpt>
      <trkpt lat="45.90755" lon="4.75856">
        <ele>186</ele>
        <time>2017-08-05T14:16:16Z</time>
      </trkpt>
      <trkpt lat="45.90761" lon="4.75854">
        <ele>186</ele>
        <time>2017-08-05T14:16:17Z</time>
      </trkpt>
      <trkpt lat="45.90767" lon="4.75855">
        <ele>186</ele>
        <time>2017-08-05T14:16:18Z</time>
      </trkpt>
      <trkpt lat="45.90773" lon="4.75855">
        <ele>185</ele>
        <time>2017-08-05T14:16:19Z</time>
      </trkpt>
      <trkpt lat="45.90778" lon="4.75857">
        <ele>185</ele>
        <time>2017-08-05T14:16:20Z</time>
      </trkpt>
      <trkpt lat="45.90783" lon="4.75858">
        <ele>185</ele>
        <time>2017-08-05T14:16:21Z</time>
      </trkpt>
      <trkpt lat="45.90788" lon="4.7586">
        <ele>185</ele>
        <time>2017-08-05T14:16:22Z</time>
      </trkpt>
      <trkpt lat="45.90797" lon="4.75862">
        <ele>185</ele>
        <time>2017-08-05T14:16:24Z</time>
      </trkpt>
      <trkpt lat="45.90801" lon="4.75864">
        <ele>185</ele>
        <time>2017-08-05T14:16:25Z</time>
      </trkpt>
      <trkpt lat="45.90806" lon="4.75865">
        <ele>185</ele>
        <time>2017-08-05T14:16:26Z</time>
      </trkpt>
      <trkpt lat="45.90812" lon="4.75865">
        <ele>185</ele>
        <time>2017-08-05T14:16:27Z</time>
      </trkpt>
      <trkpt lat="45.9082" lon="4.75868">
        <ele>185</ele>
        <time>2017-08-05T14:16:29Z</time>
      </trkpt>
      <trkpt lat="45.90828" lon="4.7587">
        <ele>185</ele>
        <time>2017-08-05T14:16:30Z</time>
      </trkpt>
      <trkpt lat="45.90834" lon="4.75873">
        <ele>184</ele>
        <time>2017-08-05T14:16:32Z</time>
      </trkpt>
      <trkpt lat="45.90837" lon="4.75878">
        <ele>184</ele>
        <time>2017-08-05T14:16:33Z</time>
      </trkpt>
      <trkpt lat="45.90844" lon="4.75879">
        <ele>184</ele>
        <time>2017-08-05T14:16:34Z</time>
      </trkpt>
      <trkpt lat="45.90852" lon="4.75889">
        <ele>184</ele>
        <time>2017-08-05T14:16:35Z</time>
      </trkpt>
      <trkpt lat="45.90858" lon="4.75891">
        <ele>184</ele>
        <time>2017-08-05T14:16:36Z</time>
      </trkpt>
      <trkpt lat="45.90865" lon="4.75896">
        <ele>184</ele>
        <time>2017-08-05T14:16:37Z</time>
      </trkpt>
      <trkpt lat="45.90869" lon="4.75896">
        <ele>184</ele>
        <time>2017-08-05T14:16:38Z</time>
      </trkpt>
      <trkpt lat="45.90875" lon="4.75895">
        <ele>184</ele>
        <time>2017-08-05T14:16:39Z</time>
      </trkpt>
      <trkpt lat="45.9088" lon="4.7589">
        <ele>184</ele>
        <time>2017-08-05T14:16:40Z</time>
      </trkpt>
      <trkpt lat="45.90884" lon="4.75883">
        <ele>184</ele>
        <time>2017-08-05T14:16:41Z</time>
      </trkpt>
      <trkpt lat="45.90887" lon="4.75878">
        <ele>184</ele>
        <time>2017-08-05T14:16:45Z</time>
      </trkpt>
      <trkpt lat="45.9089" lon="4.75873">
        <ele>184</ele>
        <time>2017-08-05T14:16:46Z</time>
      </trkpt>
      <trkpt lat="45.9089" lon="4.75864">
        <ele>184</ele>
        <time>2017-08-05T14:16:50Z</time>
      </trkpt>
      <trkpt lat="45.90892" lon="4.75859">
        <ele>184</ele>
        <time>2017-08-05T14:16:51Z</time>
      </trkpt>
      <trkpt lat="45.90892" lon="4.7585">
        <ele>184</ele>
        <time>2017-08-05T14:16:53Z</time>
      </trkpt>
      <trkpt lat="45.90891" lon="4.75844">
        <ele>184</ele>
        <time>2017-08-05T14:16:54Z</time>
      </trkpt>
      <trkpt lat="45.90891" lon="4.75833">
        <ele>184</ele>
        <time>2017-08-05T14:16:56Z</time>
      </trkpt>
      <trkpt lat="45.9089" lon="4.75827">
        <ele>184</ele>
        <time>2017-08-05T14:16:57Z</time>
      </trkpt>
      <trkpt lat="45.90892" lon="4.75815">
        <ele>184</ele>
        <time>2017-08-05T14:16:59Z</time>
      </trkpt>
      <trkpt lat="45.90891" lon="4.75808">
        <ele>184</ele>
        <time>2017-08-05T14:17:00Z</time>
      </trkpt>
      <trkpt lat="45.90891" lon="4.75795">
        <ele>184</ele>
        <time>2017-08-05T14:17:02Z</time>
      </trkpt>
      <trkpt lat="45.90893" lon="4.75789">
        <ele>185</ele>
        <time>2017-08-05T14:17:03Z</time>
      </trkpt>
      <trkpt lat="45.90893" lon="4.75783">
        <ele>185</ele>
        <time>2017-08-05T14:17:04Z</time>
      </trkpt>
      <trkpt lat="45.90893" lon="4.75776">
        <ele>185</ele>
        <time>2017-08-05T14:17:05Z</time>
      </trkpt>
      <trkpt lat="45.90893" lon="4.75764">
        <ele>185</ele>
        <time>2017-08-05T14:17:07Z</time>
      </trkpt>
      <trkpt lat="45.9089" lon="4.75762">
        <ele>185</ele>
        <time>2017-08-05T14:17:08Z</time>
      </trkpt>
      <trkpt lat="45.90889" lon="4.75753">
        <ele>185</ele>
        <time>2017-08-05T14:17:10Z</time>
      </trkpt>
      <trkpt lat="45.90887" lon="4.75748">
        <ele>185</ele>
        <time>2017-08-05T14:17:11Z</time>
      </trkpt>
      <trkpt lat="45.90887" lon="4.75737">
        <ele>185</ele>
        <time>2017-08-05T14:17:13Z</time>
      </trkpt>
      <trkpt lat="45.90888" lon="4.7573">
        <ele>185</ele>
        <time>2017-08-05T14:17:14Z</time>
      </trkpt>
      <trkpt lat="45.90889" lon="4.75723">
        <ele>185</ele>
        <time>2017-08-05T14:17:15Z</time>
      </trkpt>
      <trkpt lat="45.9089" lon="4.75717">
        <ele>185</ele>
        <time>2017-08-05T14:17:16Z</time>
      </trkpt>
      <trkpt lat="45.90892" lon="4.75707">
        <ele>184</ele>
        <time>2017-08-05T14:17:18Z</time>
      </trkpt>
      <trkpt lat="45.90893" lon="4.75702">
        <ele>184</ele>
        <time>2017-08-05T14:17:19Z</time>
      </trkpt>
      <trkpt lat="45.90897" lon="4.75691">
        <ele>184</ele>
        <time>2017-08-05T14:17:21Z</time>
      </trkpt>
      <trkpt lat="45.90897" lon="4.75684">
        <ele>184</ele>
        <time>2017-08-05T14:17:22Z</time>
      </trkpt>
      <trkpt lat="45.90898" lon="4.75672">
        <ele>184</ele>
        <time>2017-08-05T14:17:24Z</time>
      </trkpt>
      <trkpt lat="45.90898" lon="4.75667">
        <ele>184</ele>
        <time>2017-08-05T14:17:25Z</time>
      </trkpt>
      <trkpt lat="45.90898" lon="4.75657">
        <ele>184</ele>
        <time>2017-08-05T14:17:27Z</time>
      </trkpt>
      <trkpt lat="45.90898" lon="4.75652">
        <ele>184</ele>
        <time>2017-08-05T14:17:28Z</time>
      </trkpt>
      <trkpt lat="45.90898" lon="4.75643">
        <ele>185</ele>
        <time>2017-08-05T14:17:30Z</time>
      </trkpt>
      <trkpt lat="45.90898" lon="4.75637">
        <ele>185</ele>
        <time>2017-08-05T14:17:31Z</time>
      </trkpt>
      <trkpt lat="45.90898" lon="4.75625">
        <ele>185</ele>
        <time>2017-08-05T14:17:33Z</time>
      </trkpt>
      <trkpt lat="45.90899" lon="4.75618">
        <ele>185</ele>
        <time>2017-08-05T14:17:34Z</time>
      </trkpt>
      <trkpt lat="45.90899" lon="4.75612">
        <ele>185</ele>
        <time>2017-08-05T14:17:35Z</time>
      </trkpt>
      <trkpt lat="45.909" lon="4.75606">
        <ele>185</ele>
        <time>2017-08-05T14:17:36Z</time>
      </trkpt>
      <trkpt lat="45.90901" lon="4.75595">
        <ele>185</ele>
        <time>2017-08-05T14:17:38Z</time>
      </trkpt>
      <trkpt lat="45.90902" lon="4.75591">
        <ele>185</ele>
        <time>2017-08-05T14:17:39Z</time>
      </trkpt>
      <trkpt lat="45.90902" lon="4.75581">
        <ele>185</ele>
        <time>2017-08-05T14:17:41Z</time>
      </trkpt>
      <trkpt lat="45.90903" lon="4.75576">
        <ele>186</ele>
        <time>2017-08-05T14:17:42Z</time>
      </trkpt>
      <trkpt lat="45.90904" lon="4.75564">
        <ele>186</ele>
        <time>2017-08-05T14:17:44Z</time>
      </trkpt>
      <trkpt lat="45.90905" lon="4.75558">
        <ele>186</ele>
        <time>2017-08-05T14:17:45Z</time>
      </trkpt>
      <trkpt lat="45.90906" lon="4.75551">
        <ele>186</ele>
        <time>2017-08-05T14:17:46Z</time>
      </trkpt>
      <trkpt lat="45.90906" lon="4.75544">
        <ele>186</ele>
        <time>2017-08-05T14:17:47Z</time>
      </trkpt>
      <trkpt lat="45.90907" lon="4.75537">
        <ele>186</ele>
        <time>2017-08-05T14:17:48Z</time>
      </trkpt>
      <trkpt lat="45.90908" lon="4.75531">
        <ele>186</ele>
        <time>2017-08-05T14:17:49Z</time>
      </trkpt>
      <trkpt lat="45.90909" lon="4.75519">
        <ele>186</ele>
        <time>2017-08-05T14:17:51Z</time>
      </trkpt>
      <trkpt lat="45.9091" lon="4.75514">
        <ele>186</ele>
        <time>2017-08-05T14:17:52Z</time>
      </trkpt>
      <trkpt lat="45.90911" lon="4.75504">
        <ele>186</ele>
        <time>2017-08-05T14:17:54Z</time>
      </trkpt>
      <trkpt lat="45.90912" lon="4.75498">
        <ele>186</ele>
        <time>2017-08-05T14:17:55Z</time>
      </trkpt>
      <trkpt lat="45.90912" lon="4.75491">
        <ele>186</ele>
        <time>2017-08-05T14:17:56Z</time>
      </trkpt>
      <trkpt lat="45.90913" lon="4.75485">
        <ele>186</ele>
        <time>2017-08-05T14:17:57Z</time>
      </trkpt>
      <trkpt lat="45.90914" lon="4.75474">
        <ele>186</ele>
        <time>2017-08-05T14:17:59Z</time>
      </trkpt>
      <trkpt lat="45.90915" lon="4.75469">
        <ele>186</ele>
        <time>2017-08-05T14:18:00Z</time>
      </trkpt>
      <trkpt lat="45.90916" lon="4.75459">
        <ele>186</ele>
        <time>2017-08-05T14:18:02Z</time>
      </trkpt>
      <trkpt lat="45.90917" lon="4.75454">
        <ele>186</ele>
        <time>2017-08-05T14:18:03Z</time>
      </trkpt>
      <trkpt lat="45.90917" lon="4.75445">
        <ele>185</ele>
        <time>2017-08-05T14:18:05Z</time>
      </trkpt>
      <trkpt lat="45.90918" lon="4.75441">
        <ele>185</ele>
        <time>2017-08-05T14:18:06Z</time>
      </trkpt>
      <trkpt lat="45.90919" lon="4.75432">
        <ele>185</ele>
        <time>2017-08-05T14:18:08Z</time>
      </trkpt>
      <trkpt lat="45.9092" lon="4.75427">
        <ele>185</ele>
        <time>2017-08-05T14:18:09Z</time>
      </trkpt>
      <trkpt lat="45.90921" lon="4.75415">
        <ele>185</ele>
        <time>2017-08-05T14:18:11Z</time>
      </trkpt>
      <trkpt lat="45.90921" lon="4.75408">
        <ele>185</ele>
        <time>2017-08-05T14:18:12Z</time>
      </trkpt>
      <trkpt lat="45.90922" lon="4.75397">
        <ele>185</ele>
        <time>2017-08-05T14:18:14Z</time>
      </trkpt>
      <trkpt lat="45.90923" lon="4.75392">
        <ele>185</ele>
        <time>2017-08-05T14:18:15Z</time>
      </trkpt>
      <trkpt lat="45.90924" lon="4.75383">
        <ele>185</ele>
        <time>2017-08-05T14:18:17Z</time>
      </trkpt>
      <trkpt lat="45.90925" lon="4.75378">
        <ele>185</ele>
        <time>2017-08-05T14:18:18Z</time>
      </trkpt>
      <trkpt lat="45.90926" lon="4.75369">
        <ele>185</ele>
        <time>2017-08-05T14:18:20Z</time>
      </trkpt>
      <trkpt lat="45.90926" lon="4.75364">
        <ele>185</ele>
        <time>2017-08-05T14:18:21Z</time>
      </trkpt>
      <trkpt lat="45.90927" lon="4.75352">
        <ele>185</ele>
        <time>2017-08-05T14:18:23Z</time>
      </trkpt>
      <trkpt lat="45.90928" lon="4.75345">
        <ele>185</ele>
        <time>2017-08-05T14:18:24Z</time>
      </trkpt>
      <trkpt lat="45.90929" lon="4.75339">
        <ele>186</ele>
        <time>2017-08-05T14:18:25Z</time>
      </trkpt>
      <trkpt lat="45.90929" lon="4.75332">
        <ele>185</ele>
        <time>2017-08-05T14:18:26Z</time>
      </trkpt>
      <trkpt lat="45.9093" lon="4.75325">
        <ele>185</ele>
        <time>2017-08-05T14:18:27Z</time>
      </trkpt>
      <trkpt lat="45.9093" lon="4.75319">
        <ele>185</ele>
        <time>2017-08-05T14:18:28Z</time>
      </trkpt>
      <trkpt lat="45.90932" lon="4.75306">
        <ele>185</ele>
        <time>2017-08-05T14:18:30Z</time>
      </trkpt>
      <trkpt lat="45.90933" lon="4.753">
        <ele>185</ele>
        <time>2017-08-05T14:18:31Z</time>
      </trkpt>
      <trkpt lat="45.90935" lon="4.75289">
        <ele>185</ele>
        <time>2017-08-05T14:18:33Z</time>
      </trkpt>
      <trkpt lat="45.90935" lon="4.75283">
        <ele>185</ele>
        <time>2017-08-05T14:18:34Z</time>
      </trkpt>
      <trkpt lat="45.90936" lon="4.75272">
        <ele>185</ele>
        <time>2017-08-05T14:18:36Z</time>
      </trkpt>
      <trkpt lat="45.90936" lon="4.75267">
        <ele>185</ele>
        <time>2017-08-05T14:18:37Z</time>
      </trkpt>
      <trkpt lat="45.90937" lon="4.75255">
        <ele>185</ele>
        <time>2017-08-05T14:18:39Z</time>
      </trkpt>
      <trkpt lat="45.90939" lon="4.7525">
        <ele>184</ele>
        <time>2017-08-05T14:18:40Z</time>
      </trkpt>
      <trkpt lat="45.90939" lon="4.75243">
        <ele>184</ele>
        <time>2017-08-05T14:18:41Z</time>
      </trkpt>
      <trkpt lat="45.9094" lon="4.75237">
        <ele>184</ele>
        <time>2017-08-05T14:18:42Z</time>
      </trkpt>
      <trkpt lat="45.90941" lon="4.7523">
        <ele>184</ele>
        <time>2017-08-05T14:18:43Z</time>
      </trkpt>
      <trkpt lat="45.90941" lon="4.75223">
        <ele>184</ele>
        <time>2017-08-05T14:18:44Z</time>
      </trkpt>
      <trkpt lat="45.90942" lon="4.75216">
        <ele>184</ele>
        <time>2017-08-05T14:18:45Z</time>
      </trkpt>
      <trkpt lat="45.90943" lon="4.7521">
        <ele>184</ele>
        <time>2017-08-05T14:18:46Z</time>
      </trkpt>
      <trkpt lat="45.90943" lon="4.75203">
        <ele>184</ele>
        <time>2017-08-05T14:18:47Z</time>
      </trkpt>
      <trkpt lat="45.90944" lon="4.75196">
        <ele>183</ele>
        <time>2017-08-05T14:18:48Z</time>
      </trkpt>
      <trkpt lat="45.90944" lon="4.75189">
        <ele>183</ele>
        <time>2017-08-05T14:18:49Z</time>
      </trkpt>
      <trkpt lat="45.90945" lon="4.75183">
        <ele>183</ele>
        <time>2017-08-05T14:18:50Z</time>
      </trkpt>
      <trkpt lat="45.90945" lon="4.7517">
        <ele>183</ele>
        <time>2017-08-05T14:18:52Z</time>
      </trkpt>
      <trkpt lat="45.90946" lon="4.75164">
        <ele>182</ele>
        <time>2017-08-05T14:18:53Z</time>
      </trkpt>
      <trkpt lat="45.90948" lon="4.75151">
        <ele>182</ele>
        <time>2017-08-05T14:18:55Z</time>
      </trkpt>
      <trkpt lat="45.90949" lon="4.75145">
        <ele>182</ele>
        <time>2017-08-05T14:18:56Z</time>
      </trkpt>
      <trkpt lat="45.9095" lon="4.75138">
        <ele>182</ele>
        <time>2017-08-05T14:18:57Z</time>
      </trkpt>
      <trkpt lat="45.90951" lon="4.75131">
        <ele>181</ele>
        <time>2017-08-05T14:18:58Z</time>
      </trkpt>
      <trkpt lat="45.90951" lon="4.75125">
        <ele>181</ele>
        <time>2017-08-05T14:18:59Z</time>
      </trkpt>
      <trkpt lat="45.90952" lon="4.75118">
        <ele>181</ele>
        <time>2017-08-05T14:19:00Z</time>
      </trkpt>
      <trkpt lat="45.90953" lon="4.75106">
        <ele>181</ele>
        <time>2017-08-05T14:19:02Z</time>
      </trkpt>
      <trkpt lat="45.90953" lon="4.75099">
        <ele>181</ele>
        <time>2017-08-05T14:19:03Z</time>
      </trkpt>
      <trkpt lat="45.90954" lon="4.75093">
        <ele>181</ele>
        <time>2017-08-05T14:19:04Z</time>
      </trkpt>
      <trkpt lat="45.90954" lon="4.75086">
        <ele>181</ele>
        <time>2017-08-05T14:19:05Z</time>
      </trkpt>
      <trkpt lat="45.90955" lon="4.75074">
        <ele>179</ele>
        <time>2017-08-05T14:19:07Z</time>
      </trkpt>
      <trkpt lat="45.90956" lon="4.75068">
        <ele>179</ele>
        <time>2017-08-05T14:19:08Z</time>
      </trkpt>
      <trkpt lat="45.90956" lon="4.75061">
        <ele>179</ele>
        <time>2017-08-05T14:19:09Z</time>
      </trkpt>
      <trkpt lat="45.90958" lon="4.75054">
        <ele>179</ele>
        <time>2017-08-05T14:19:10Z</time>
      </trkpt>
      <trkpt lat="45.90958" lon="4.75044">
        <ele>179</ele>
        <time>2017-08-05T14:19:12Z</time>
      </trkpt>
      <trkpt lat="45.90959" lon="4.75039">
        <ele>179</ele>
        <time>2017-08-05T14:19:13Z</time>
      </trkpt>
      <trkpt lat="45.90966" lon="4.75032">
        <ele>179</ele>
        <time>2017-08-05T14:19:16Z</time>
      </trkpt>
      <trkpt lat="45.9097" lon="4.75033">
        <ele>179</ele>
        <time>2017-08-05T14:19:17Z</time>
      </trkpt>
      <trkpt lat="45.90978" lon="4.75035">
        <ele>178</ele>
        <time>2017-08-05T14:19:19Z</time>
      </trkpt>
      <trkpt lat="45.90983" lon="4.75037">
        <ele>178</ele>
        <time>2017-08-05T14:19:20Z</time>
      </trkpt>
      <trkpt lat="45.90991" lon="4.7504">
        <ele>178</ele>
        <time>2017-08-05T14:19:22Z</time>
      </trkpt>
      <trkpt lat="45.90994" lon="4.75042">
        <ele>178</ele>
        <time>2017-08-05T14:19:23Z</time>
      </trkpt>
      <trkpt lat="45.91" lon="4.75043">
        <ele>178</ele>
        <time>2017-08-05T14:19:25Z</time>
      </trkpt>
      <trkpt lat="45.91003" lon="4.75046">
        <ele>178</ele>
        <time>2017-08-05T14:19:26Z</time>
      </trkpt>
      <trkpt lat="45.9101" lon="4.75048">
        <ele>178</ele>
        <time>2017-08-05T14:19:28Z</time>
      </trkpt>
      <trkpt lat="45.91014" lon="4.7505">
        <ele>178</ele>
        <time>2017-08-05T14:19:29Z</time>
      </trkpt>
      <trkpt lat="45.91021" lon="4.75053">
        <ele>179</ele>
        <time>2017-08-05T14:19:31Z</time>
      </trkpt>
      <trkpt lat="45.91026" lon="4.75055">
        <ele>179</ele>
        <time>2017-08-05T14:19:32Z</time>
      </trkpt>
      <trkpt lat="45.9103" lon="4.75056">
        <ele>179</ele>
        <time>2017-08-05T14:19:33Z</time>
      </trkpt>
      <trkpt lat="45.91035" lon="4.75057">
        <ele>179</ele>
        <time>2017-08-05T14:19:34Z</time>
      </trkpt>
      <trkpt lat="45.91043" lon="4.7506">
        <ele>179</ele>
        <time>2017-08-05T14:19:36Z</time>
      </trkpt>
      <trkpt lat="45.91047" lon="4.75062">
        <ele>179</ele>
        <time>2017-08-05T14:19:37Z</time>
      </trkpt>
      <trkpt lat="45.91055" lon="4.75065">
        <ele>179</ele>
        <time>2017-08-05T14:19:39Z</time>
      </trkpt>
      <trkpt lat="45.91059" lon="4.75067">
        <ele>179</ele>
        <time>2017-08-05T14:19:40Z</time>
      </trkpt>
      <trkpt lat="45.91067" lon="4.7507">
        <ele>179</ele>
        <time>2017-08-05T14:19:42Z</time>
      </trkpt>
      <trkpt lat="45.91072" lon="4.75071">
        <ele>179</ele>
        <time>2017-08-05T14:19:43Z</time>
      </trkpt>
      <trkpt lat="45.9108" lon="4.75075">
        <ele>180</ele>
        <time>2017-08-05T14:19:45Z</time>
      </trkpt>
      <trkpt lat="45.91084" lon="4.75077">
        <ele>180</ele>
        <time>2017-08-05T14:19:46Z</time>
      </trkpt>
      <trkpt lat="45.91088" lon="4.75078">
        <ele>180</ele>
        <time>2017-08-05T14:19:47Z</time>
      </trkpt>
      <trkpt lat="45.91093" lon="4.7508">
        <ele>179</ele>
        <time>2017-08-05T14:19:48Z</time>
      </trkpt>
      <trkpt lat="45.91097" lon="4.75081">
        <ele>179</ele>
        <time>2017-08-05T14:19:49Z</time>
      </trkpt>
      <trkpt lat="45.91103" lon="4.75082">
        <ele>179</ele>
        <time>2017-08-05T14:19:50Z</time>
      </trkpt>
      <trkpt lat="45.91108" lon="4.75083">
        <ele>179</ele>
        <time>2017-08-05T14:19:51Z</time>
      </trkpt>
      <trkpt lat="45.91114" lon="4.75085">
        <ele>179</ele>
        <time>2017-08-05T14:19:52Z</time>
      </trkpt>
      <trkpt lat="45.91119" lon="4.75087">
        <ele>179</ele>
        <time>2017-08-05T14:19:53Z</time>
      </trkpt>
      <trkpt lat="45.91124" lon="4.75089">
        <ele>179</ele>
        <time>2017-08-05T14:19:54Z</time>
      </trkpt>
      <trkpt lat="45.91129" lon="4.75091">
        <ele>179</ele>
        <time>2017-08-05T14:19:55Z</time>
      </trkpt>
      <trkpt lat="45.91133" lon="4.75094">
        <ele>179</ele>
        <time>2017-08-05T14:19:56Z</time>
      </trkpt>
      <trkpt lat="45.91138" lon="4.75095">
        <ele>179</ele>
        <time>2017-08-05T14:19:57Z</time>
      </trkpt>
      <trkpt lat="45.91143" lon="4.75096">
        <ele>179</ele>
        <time>2017-08-05T14:19:58Z</time>
      </trkpt>
      <trkpt lat="45.91148" lon="4.75097">
        <ele>179</ele>
        <time>2017-08-05T14:19:59Z</time>
      </trkpt>
      <trkpt lat="45.91152" lon="4.75099">
        <ele>179</ele>
        <time>2017-08-05T14:20:00Z</time>
      </trkpt>
      <trkpt lat="45.91156" lon="4.751">
        <ele>179</ele>
        <time>2017-08-05T14:20:01Z</time>
      </trkpt>
      <trkpt lat="45.91161" lon="4.75101">
        <ele>179</ele>
        <time>2017-08-05T14:20:02Z</time>
      </trkpt>
      <trkpt lat="45.91167" lon="4.75103">
        <ele>179</ele>
        <time>2017-08-05T14:20:03Z</time>
      </trkpt>
      <trkpt lat="45.91172" lon="4.75104">
        <ele>178</ele>
        <time>2017-08-05T14:20:04Z</time>
      </trkpt>
      <trkpt lat="45.91178" lon="4.75106">
        <ele>178</ele>
        <time>2017-08-05T14:20:05Z</time>
      </trkpt>
      <trkpt lat="45.91183" lon="4.75107">
        <ele>178</ele>
        <time>2017-08-05T14:20:06Z</time>
      </trkpt>
      <trkpt lat="45.91188" lon="4.75108">
        <ele>178</ele>
        <time>2017-08-05T14:20:07Z</time>
      </trkpt>
      <trkpt lat="45.91193" lon="4.75109">
        <ele>178</ele>
        <time>2017-08-05T14:20:08Z</time>
      </trkpt>
      <trkpt lat="45.91198" lon="4.7511">
        <ele>178</ele>
        <time>2017-08-05T14:20:09Z</time>
      </trkpt>
      <trkpt lat="45.91203" lon="4.7511">
        <ele>178</ele>
        <time>2017-08-05T14:20:10Z</time>
      </trkpt>
      <trkpt lat="45.91207" lon="4.75113">
        <ele>178</ele>
        <time>2017-08-05T14:20:11Z</time>
      </trkpt>
      <trkpt lat="45.91212" lon="4.75115">
        <ele>177</ele>
        <time>2017-08-05T14:20:12Z</time>
      </trkpt>
      <trkpt lat="45.9122" lon="4.75117">
        <ele>177</ele>
        <time>2017-08-05T14:20:14Z</time>
      </trkpt>
      <trkpt lat="45.91225" lon="4.75119">
        <ele>177</ele>
        <time>2017-08-05T14:20:15Z</time>
      </trkpt>
      <trkpt lat="45.91229" lon="4.7512">
        <ele>177</ele>
        <time>2017-08-05T14:20:16Z</time>
      </trkpt>
      <trkpt lat="45.91234" lon="4.75122">
        <ele>177</ele>
        <time>2017-08-05T14:20:17Z</time>
      </trkpt>
      <trkpt lat="45.91239" lon="4.75124">
        <ele>177</ele>
        <time>2017-08-05T14:20:18Z</time>
      </trkpt>
      <trkpt lat="45.91244" lon="4.75127">
        <ele>177</ele>
        <time>2017-08-05T14:20:19Z</time>
      </trkpt>
      <trkpt lat="45.91249" lon="4.7513">
        <ele>177</ele>
        <time>2017-08-05T14:20:20Z</time>
      </trkpt>
      <trkpt lat="45.91254" lon="4.75133">
        <ele>177</ele>
        <time>2017-08-05T14:20:21Z</time>
      </trkpt>
      <trkpt lat="45.91259" lon="4.75135">
        <ele>177</ele>
        <time>2017-08-05T14:20:22Z</time>
      </trkpt>
      <trkpt lat="45.91263" lon="4.75137">
        <ele>177</ele>
        <time>2017-08-05T14:20:23Z</time>
      </trkpt>
      <trkpt lat="45.91268" lon="4.75139">
        <ele>177</ele>
        <time>2017-08-05T14:20:24Z</time>
      </trkpt>
      <trkpt lat="45.91272" lon="4.7514">
        <ele>177</ele>
        <time>2017-08-05T14:20:25Z</time>
      </trkpt>
      <trkpt lat="45.9128" lon="4.75146">
        <ele>177</ele>
        <time>2017-08-05T14:20:27Z</time>
      </trkpt>
      <trkpt lat="45.91284" lon="4.75147">
        <ele>177</ele>
        <time>2017-08-05T14:20:28Z</time>
      </trkpt>
      <trkpt lat="45.91292" lon="4.7515">
        <ele>177</ele>
        <time>2017-08-05T14:20:30Z</time>
      </trkpt>
      <trkpt lat="45.91296" lon="4.75151">
        <ele>177</ele>
        <time>2017-08-05T14:20:31Z</time>
      </trkpt>
      <trkpt lat="45.91305" lon="4.75154">
        <ele>177</ele>
        <time>2017-08-05T14:20:34Z</time>
      </trkpt>
      <trkpt lat="45.91307" lon="4.75153">
        <ele>177</ele>
        <time>2017-08-05T14:20:35Z</time>
      </trkpt>
      <trkpt lat="45.9131" lon="4.75144">
        <ele>177</ele>
        <time>2017-08-05T14:20:39Z</time>
      </trkpt>
      <trkpt lat="45.91309" lon="4.75139">
        <ele>177</ele>
        <time>2017-08-05T14:20:40Z</time>
      </trkpt>
      <trkpt lat="45.91308" lon="4.75126">
        <ele>177</ele>
        <time>2017-08-05T14:20:42Z</time>
      </trkpt>
      <trkpt lat="45.91307" lon="4.7512">
        <ele>177</ele>
        <time>2017-08-05T14:20:43Z</time>
      </trkpt>
      <trkpt lat="45.91305" lon="4.75108">
        <ele>177</ele>
        <time>2017-08-05T14:20:45Z</time>
      </trkpt>
      <trkpt lat="45.91304" lon="4.75102">
        <ele>177</ele>
        <time>2017-08-05T14:20:46Z</time>
      </trkpt>
      <trkpt lat="45.91305" lon="4.75092">
        <ele>177</ele>
        <time>2017-08-05T14:20:48Z</time>
      </trkpt>
      <trkpt lat="45.91305" lon="4.75086">
        <ele>177</ele>
        <time>2017-08-05T14:20:49Z</time>
      </trkpt>
      <trkpt lat="45.91305" lon="4.7508">
        <ele>177</ele>
        <time>2017-08-05T14:20:50Z</time>
      </trkpt>
      <trkpt lat="45.91304" lon="4.75073">
        <ele>177</ele>
        <time>2017-08-05T14:20:51Z</time>
      </trkpt>
      <trkpt lat="45.91303" lon="4.75066">
        <ele>177</ele>
        <time>2017-08-05T14:20:52Z</time>
      </trkpt>
      <trkpt lat="45.91302" lon="4.75059">
        <ele>177</ele>
        <time>2017-08-05T14:20:53Z</time>
      </trkpt>
      <trkpt lat="45.91302" lon="4.75051">
        <ele>177</ele>
        <time>2017-08-05T14:20:54Z</time>
      </trkpt>
      <trkpt lat="45.91302" lon="4.75044">
        <ele>177</ele>
        <time>2017-08-05T14:20:55Z</time>
      </trkpt>
      <trkpt lat="45.913" lon="4.75042">
        <ele>177</ele>
        <time>2017-08-05T14:20:56Z</time>
      </trkpt>
      <trkpt lat="45.913" lon="4.75041">
        <ele>177</ele>
        <time>2017-08-05T14:20:57Z</time>
      </trkpt>
      <trkpt lat="45.91301" lon="4.75039">
        <ele>177</ele>
        <time>2017-08-05T14:20:58Z</time>
      </trkpt>
      <trkpt lat="45.91301" lon="4.75027">
        <ele>177</ele>
        <time>2017-08-05T14:21:00Z</time>
      </trkpt>
      <trkpt lat="45.91301" lon="4.75021">
        <ele>177</ele>
        <time>2017-08-05T14:21:01Z</time>
      </trkpt>
      <trkpt lat="45.91302" lon="4.75013">
        <ele>177</ele>
        <time>2017-08-05T14:21:02Z</time>
      </trkpt>
      <trkpt lat="45.91303" lon="4.75006">
        <ele>177</ele>
        <time>2017-08-05T14:21:03Z</time>
      </trkpt>
      <trkpt lat="45.91304" lon="4.74998">
        <ele>177</ele>
        <time>2017-08-05T14:21:04Z</time>
      </trkpt>
      <trkpt lat="45.91304" lon="4.74991">
        <ele>177</ele>
        <time>2017-08-05T14:21:05Z</time>
      </trkpt>
      <trkpt lat="45.91306" lon="4.74983">
        <ele>177</ele>
        <time>2017-08-05T14:21:06Z</time>
      </trkpt>
      <trkpt lat="45.91307" lon="4.74975">
        <ele>177</ele>
        <time>2017-08-05T14:21:07Z</time>
      </trkpt>
      <trkpt lat="45.91309" lon="4.74966">
        <ele>177</ele>
        <time>2017-08-05T14:21:08Z</time>
      </trkpt>
      <trkpt lat="45.9131" lon="4.74958">
        <ele>177</ele>
        <time>2017-08-05T14:21:09Z</time>
      </trkpt>
      <trkpt lat="45.91309" lon="4.7495">
        <ele>177</ele>
        <time>2017-08-05T14:21:10Z</time>
      </trkpt>
      <trkpt lat="45.9131" lon="4.74944">
        <ele>177</ele>
        <time>2017-08-05T14:21:11Z</time>
      </trkpt>
      <trkpt lat="45.91311" lon="4.74938">
        <ele>177</ele>
        <time>2017-08-05T14:21:12Z</time>
      </trkpt>
      <trkpt lat="45.91311" lon="4.7493">
        <ele>177</ele>
        <time>2017-08-05T14:21:13Z</time>
      </trkpt>
      <trkpt lat="45.91311" lon="4.74923">
        <ele>177</ele>
        <time>2017-08-05T14:21:14Z</time>
      </trkpt>
      <trkpt lat="45.91312" lon="4.74915">
        <ele>176</ele>
        <time>2017-08-05T14:21:15Z</time>
      </trkpt>
      <trkpt lat="45.91315" lon="4.74904">
        <ele>176</ele>
        <time>2017-08-05T14:21:17Z</time>
      </trkpt>
      <trkpt lat="45.91317" lon="4.74898">
        <ele>176</ele>
        <time>2017-08-05T14:21:18Z</time>
      </trkpt>
      <trkpt lat="45.91317" lon="4.74891">
        <ele>176</ele>
        <time>2017-08-05T14:21:19Z</time>
      </trkpt>
      <trkpt lat="45.91316" lon="4.74884">
        <ele>176</ele>
        <time>2017-08-05T14:21:20Z</time>
      </trkpt>
      <trkpt lat="45.91314" lon="4.74873">
        <ele>176</ele>
        <time>2017-08-05T14:21:21Z</time>
      </trkpt>
      <trkpt lat="45.91313" lon="4.74863">
        <ele>176</ele>
        <time>2017-08-05T14:21:22Z</time>
      </trkpt>
      <trkpt lat="45.91312" lon="4.74853">
        <ele>176</ele>
        <time>2017-08-05T14:21:23Z</time>
      </trkpt>
      <trkpt lat="45.9131" lon="4.74844">
        <ele>176</ele>
        <time>2017-08-05T14:21:24Z</time>
      </trkpt>
      <trkpt lat="45.91312" lon="4.74838">
        <ele>176</ele>
        <time>2017-08-05T14:21:25Z</time>
      </trkpt>
      <trkpt lat="45.91312" lon="4.74831">
        <ele>175</ele>
        <time>2017-08-05T14:21:26Z</time>
      </trkpt>
      <trkpt lat="45.91313" lon="4.74822">
        <ele>175</ele>
        <time>2017-08-05T14:21:27Z</time>
      </trkpt>
      <trkpt lat="45.91314" lon="4.74814">
        <ele>175</ele>
        <time>2017-08-05T14:21:28Z</time>
      </trkpt>
      <trkpt lat="45.91315" lon="4.74807">
        <ele>175</ele>
        <time>2017-08-05T14:21:29Z</time>
      </trkpt>
      <trkpt lat="45.91316" lon="4.74799">
        <ele>174</ele>
        <time>2017-08-05T14:21:30Z</time>
      </trkpt>
      <trkpt lat="45.91317" lon="4.74792">
        <ele>174</ele>
        <time>2017-08-05T14:21:31Z</time>
      </trkpt>
      <trkpt lat="45.91319" lon="4.74786">
        <ele>174</ele>
        <time>2017-08-05T14:21:32Z</time>
      </trkpt>
      <trkpt lat="45.9132" lon="4.74779">
        <ele>174</ele>
        <time>2017-08-05T14:21:33Z</time>
      </trkpt>
      <trkpt lat="45.91322" lon="4.74773">
        <ele>174</ele>
        <time>2017-08-05T14:21:34Z</time>
      </trkpt>
      <trkpt lat="45.91324" lon="4.74767">
        <ele>174</ele>
        <time>2017-08-05T14:21:35Z</time>
      </trkpt>
      <trkpt lat="45.91325" lon="4.7476">
        <ele>174</ele>
        <time>2017-08-05T14:21:36Z</time>
      </trkpt>
      <trkpt lat="45.91326" lon="4.74754">
        <ele>173</ele>
        <time>2017-08-05T14:21:37Z</time>
      </trkpt>
      <trkpt lat="45.91327" lon="4.74746">
        <ele>173</ele>
        <time>2017-08-05T14:21:38Z</time>
      </trkpt>
      <trkpt lat="45.91328" lon="4.74739">
        <ele>173</ele>
        <time>2017-08-05T14:21:39Z</time>
      </trkpt>
      <trkpt lat="45.91329" lon="4.7473">
        <ele>173</ele>
        <time>2017-08-05T14:21:40Z</time>
      </trkpt>
      <trkpt lat="45.91331" lon="4.74722">
        <ele>173</ele>
        <time>2017-08-05T14:21:41Z</time>
      </trkpt>
      <trkpt lat="45.91332" lon="4.74714">
        <ele>173</ele>
        <time>2017-08-05T14:21:42Z</time>
      </trkpt>
      <trkpt lat="45.91332" lon="4.74706">
        <ele>173</ele>
        <time>2017-08-05T14:21:43Z</time>
      </trkpt>
      <trkpt lat="45.9133" lon="4.74699">
        <ele>173</ele>
        <time>2017-08-05T14:21:44Z</time>
      </trkpt>
      <trkpt lat="45.91329" lon="4.74692">
        <ele>173</ele>
        <time>2017-08-05T14:21:45Z</time>
      </trkpt>
      <trkpt lat="45.91327" lon="4.74685">
        <ele>173</ele>
        <time>2017-08-05T14:21:46Z</time>
      </trkpt>
      <trkpt lat="45.91325" lon="4.74679">
        <ele>173</ele>
        <time>2017-08-05T14:21:47Z</time>
      </trkpt>
      <trkpt lat="45.91323" lon="4.74672">
        <ele>173</ele>
        <time>2017-08-05T14:21:48Z</time>
      </trkpt>
      <trkpt lat="45.9132" lon="4.74666">
        <ele>173</ele>
        <time>2017-08-05T14:21:49Z</time>
      </trkpt>
      <trkpt lat="45.91317" lon="4.7466">
        <ele>173</ele>
        <time>2017-08-05T14:21:50Z</time>
      </trkpt>
      <trkpt lat="45.91314" lon="4.74654">
        <ele>173</ele>
        <time>2017-08-05T14:21:51Z</time>
      </trkpt>
      <trkpt lat="45.91312" lon="4.74647">
        <ele>173</ele>
        <time>2017-08-05T14:21:52Z</time>
      </trkpt>
      <trkpt lat="45.91308" lon="4.7464">
        <ele>173</ele>
        <time>2017-08-05T14:21:53Z</time>
      </trkpt>
      <trkpt lat="45.91305" lon="4.74633">
        <ele>173</ele>
        <time>2017-08-05T14:21:54Z</time>
      </trkpt>
      <trkpt lat="45.91301" lon="4.74625">
        <ele>173</ele>
        <time>2017-08-05T14:21:55Z</time>
      </trkpt>
      <trkpt lat="45.91299" lon="4.74617">
        <ele>173</ele>
        <time>2017-08-05T14:21:56Z</time>
      </trkpt>
      <trkpt lat="45.91296" lon="4.7461">
        <ele>173</ele>
        <time>2017-08-05T14:21:57Z</time>
      </trkpt>
      <trkpt lat="45.91294" lon="4.74602">
        <ele>173</ele>
        <time>2017-08-05T14:21:58Z</time>
      </trkpt>
      <trkpt lat="45.91292" lon="4.74595">
        <ele>173</ele>
        <time>2017-08-05T14:21:59Z</time>
      </trkpt>
      <trkpt lat="45.91289" lon="4.74588">
        <ele>173</ele>
        <time>2017-08-05T14:22:00Z</time>
      </trkpt>
      <trkpt lat="45.91286" lon="4.74582">
        <ele>173</ele>
        <time>2017-08-05T14:22:01Z</time>
      </trkpt>
      <trkpt lat="45.91284" lon="4.74577">
        <ele>173</ele>
        <time>2017-08-05T14:22:02Z</time>
      </trkpt>
      <trkpt lat="45.91281" lon="4.74571">
        <ele>173</ele>
        <time>2017-08-05T14:22:03Z</time>
      </trkpt>
      <trkpt lat="45.91279" lon="4.74565">
        <ele>173</ele>
        <time>2017-08-05T14:22:04Z</time>
      </trkpt>
      <trkpt lat="45.91277" lon="4.74559">
        <ele>173</ele>
        <time>2017-08-05T14:22:05Z</time>
      </trkpt>
      <trkpt lat="45.91274" lon="4.74553">
        <ele>173</ele>
        <time>2017-08-05T14:22:06Z</time>
      </trkpt>
      <trkpt lat="45.91273" lon="4.74547">
        <ele>173</ele>
        <time>2017-08-05T14:22:07Z</time>
      </trkpt>
      <trkpt lat="45.9127" lon="4.74539">
        <ele>173</ele>
        <time>2017-08-05T14:22:08Z</time>
      </trkpt>
      <trkpt lat="45.91267" lon="4.74531">
        <ele>173</ele>
        <time>2017-08-05T14:22:09Z</time>
      </trkpt>
      <trkpt lat="45.91264" lon="4.74522">
        <ele>173</ele>
        <time>2017-08-05T14:22:10Z</time>
      </trkpt>
      <trkpt lat="45.91262" lon="4.74513">
        <ele>174</ele>
        <time>2017-08-05T14:22:11Z</time>
      </trkpt>
      <trkpt lat="45.91259" lon="4.74504">
        <ele>174</ele>
        <time>2017-08-05T14:22:12Z</time>
      </trkpt>
      <trkpt lat="45.91257" lon="4.74496">
        <ele>174</ele>
        <time>2017-08-05T14:22:13Z</time>
      </trkpt>
      <trkpt lat="45.91254" lon="4.74487">
        <ele>174</ele>
        <time>2017-08-05T14:22:14Z</time>
      </trkpt>
      <trkpt lat="45.91252" lon="4.7448">
        <ele>173</ele>
        <time>2017-08-05T14:22:15Z</time>
      </trkpt>
      <trkpt lat="45.91251" lon="4.74472">
        <ele>173</ele>
        <time>2017-08-05T14:22:16Z</time>
      </trkpt>
      <trkpt lat="45.91248" lon="4.74465">
        <ele>174</ele>
        <time>2017-08-05T14:22:17Z</time>
      </trkpt>
      <trkpt lat="45.91247" lon="4.74458">
        <ele>174</ele>
        <time>2017-08-05T14:22:18Z</time>
      </trkpt>
      <trkpt lat="45.91245" lon="4.74451">
        <ele>174</ele>
        <time>2017-08-05T14:22:19Z</time>
      </trkpt>
      <trkpt lat="45.91242" lon="4.74443">
        <ele>174</ele>
        <time>2017-08-05T14:22:20Z</time>
      </trkpt>
      <trkpt lat="45.9124" lon="4.74436">
        <ele>174</ele>
        <time>2017-08-05T14:22:21Z</time>
      </trkpt>
      <trkpt lat="45.91238" lon="4.74429">
        <ele>174</ele>
        <time>2017-08-05T14:22:22Z</time>
      </trkpt>
      <trkpt lat="45.91236" lon="4.74421">
        <ele>174</ele>
        <time>2017-08-05T14:22:23Z</time>
      </trkpt>
      <trkpt lat="45.91234" lon="4.74415">
        <ele>174</ele>
        <time>2017-08-05T14:22:24Z</time>
      </trkpt>
      <trkpt lat="45.91231" lon="4.74403">
        <ele>174</ele>
        <time>2017-08-05T14:22:26Z</time>
      </trkpt>
      <trkpt lat="45.91229" lon="4.74397">
        <ele>174</ele>
        <time>2017-08-05T14:22:27Z</time>
      </trkpt>
      <trkpt lat="45.91227" lon="4.74391">
        <ele>174</ele>
        <time>2017-08-05T14:22:28Z</time>
      </trkpt>
      <trkpt lat="45.91225" lon="4.74384">
        <ele>174</ele>
        <time>2017-08-05T14:22:29Z</time>
      </trkpt>
      <trkpt lat="45.91223" lon="4.74377">
        <ele>174</ele>
        <time>2017-08-05T14:22:30Z</time>
      </trkpt>
      <trkpt lat="45.91221" lon="4.7437">
        <ele>174</ele>
        <time>2017-08-05T14:22:31Z</time>
      </trkpt>
      <trkpt lat="45.9122" lon="4.74363">
        <ele>174</ele>
        <time>2017-08-05T14:22:32Z</time>
      </trkpt>
      <trkpt lat="45.91218" lon="4.74357">
        <ele>174</ele>
        <time>2017-08-05T14:22:33Z</time>
      </trkpt>
      <trkpt lat="45.91216" lon="4.7435">
        <ele>175</ele>
        <time>2017-08-05T14:22:34Z</time>
      </trkpt>
      <trkpt lat="45.91214" lon="4.74344">
        <ele>175</ele>
        <time>2017-08-05T14:22:35Z</time>
      </trkpt>
      <trkpt lat="45.91212" lon="4.74338">
        <ele>175</ele>
        <time>2017-08-05T14:22:36Z</time>
      </trkpt>
      <trkpt lat="45.91211" lon="4.74332">
        <ele>175</ele>
        <time>2017-08-05T14:22:37Z</time>
      </trkpt>
      <trkpt lat="45.91207" lon="4.7432">
        <ele>175</ele>
        <time>2017-08-05T14:22:39Z</time>
      </trkpt>
      <trkpt lat="45.91206" lon="4.74314">
        <ele>175</ele>
        <time>2017-08-05T14:22:40Z</time>
      </trkpt>
      <trkpt lat="45.91204" lon="4.74308">
        <ele>175</ele>
        <time>2017-08-05T14:22:41Z</time>
      </trkpt>
      <trkpt lat="45.91202" lon="4.74301">
        <ele>175</ele>
        <time>2017-08-05T14:22:42Z</time>
      </trkpt>
      <trkpt lat="45.91201" lon="4.74295">
        <ele>175</ele>
        <time>2017-08-05T14:22:43Z</time>
      </trkpt>
      <trkpt lat="45.91199" lon="4.74289">
        <ele>175</ele>
        <time>2017-08-05T14:22:44Z</time>
      </trkpt>
      <trkpt lat="45.91198" lon="4.74283">
        <ele>175</ele>
        <time>2017-08-05T14:22:45Z</time>
      </trkpt>
      <trkpt lat="45.91196" lon="4.74276">
        <ele>175</ele>
        <time>2017-08-05T14:22:46Z</time>
      </trkpt>
      <trkpt lat="45.91195" lon="4.7427">
        <ele>175</ele>
        <time>2017-08-05T14:22:47Z</time>
      </trkpt>
      <trkpt lat="45.91193" lon="4.74264">
        <ele>175</ele>
        <time>2017-08-05T14:22:48Z</time>
      </trkpt>
      <trkpt lat="45.91192" lon="4.74258">
        <ele>175</ele>
        <time>2017-08-05T14:22:49Z</time>
      </trkpt>
      <trkpt lat="45.91191" lon="4.74251">
        <ele>175</ele>
        <time>2017-08-05T14:22:50Z</time>
      </trkpt>
      <trkpt lat="45.9119" lon="4.74238">
        <ele>175</ele>
        <time>2017-08-05T14:22:52Z</time>
      </trkpt>
      <trkpt lat="45.9119" lon="4.74232">
        <ele>175</ele>
        <time>2017-08-05T14:22:53Z</time>
      </trkpt>
      <trkpt lat="45.9119" lon="4.74226">
        <ele>175</ele>
        <time>2017-08-05T14:22:54Z</time>
      </trkpt>
      <trkpt lat="45.9119" lon="4.74219">
        <ele>175</ele>
        <time>2017-08-05T14:22:55Z</time>
      </trkpt>
      <trkpt lat="45.91189" lon="4.74213">
        <ele>175</ele>
        <time>2017-08-05T14:22:56Z</time>
      </trkpt>
      <trkpt lat="45.91189" lon="4.74206">
        <ele>175</ele>
        <time>2017-08-05T14:22:57Z</time>
      </trkpt>
      <trkpt lat="45.91189" lon="4.74199">
        <ele>175</ele>
        <time>2017-08-05T14:22:58Z</time>
      </trkpt>
      <trkpt lat="45.91189" lon="4.74193">
        <ele>175</ele>
        <time>2017-08-05T14:22:59Z</time>
      </trkpt>
      <trkpt lat="45.91189" lon="4.74186">
        <ele>174</ele>
        <time>2017-08-05T14:23:00Z</time>
      </trkpt>
      <trkpt lat="45.9119" lon="4.7418">
        <ele>174</ele>
        <time>2017-08-05T14:23:01Z</time>
      </trkpt>
      <trkpt lat="45.91191" lon="4.74173">
        <ele>174</ele>
        <time>2017-08-05T14:23:02Z</time>
      </trkpt>
      <trkpt lat="45.91192" lon="4.74167">
        <ele>174</ele>
        <time>2017-08-05T14:23:03Z</time>
      </trkpt>
      <trkpt lat="45.91192" lon="4.7416">
        <ele>174</ele>
        <time>2017-08-05T14:23:04Z</time>
      </trkpt>
      <trkpt lat="45.91193" lon="4.74154">
        <ele>174</ele>
        <time>2017-08-05T14:23:05Z</time>
      </trkpt>
      <trkpt lat="45.91195" lon="4.74142">
        <ele>174</ele>
        <time>2017-08-05T14:23:07Z</time>
      </trkpt>
      <trkpt lat="45.91196" lon="4.74138">
        <ele>174</ele>
        <time>2017-08-05T14:23:08Z</time>
      </trkpt>
      <trkpt lat="45.91198" lon="4.74132">
        <ele>174</ele>
        <time>2017-08-05T14:23:09Z</time>
      </trkpt>
      <trkpt lat="45.91199" lon="4.74125">
        <ele>174</ele>
        <time>2017-08-05T14:23:10Z</time>
      </trkpt>
      <trkpt lat="45.91201" lon="4.74114">
        <ele>173</ele>
        <time>2017-08-05T14:23:12Z</time>
      </trkpt>
      <trkpt lat="45.91202" lon="4.74108">
        <ele>173</ele>
        <time>2017-08-05T14:23:13Z</time>
      </trkpt>
      <trkpt lat="45.91205" lon="4.74098">
        <ele>173</ele>
        <time>2017-08-05T14:23:15Z</time>
      </trkpt>
      <trkpt lat="45.91206" lon="4.74093">
        <ele>173</ele>
        <time>2017-08-05T14:23:16Z</time>
      </trkpt>
      <trkpt lat="45.91208" lon="4.74082">
        <ele>173</ele>
        <time>2017-08-05T14:23:18Z</time>
      </trkpt>
      <trkpt lat="45.91209" lon="4.74076">
        <ele>173</ele>
        <time>2017-08-05T14:23:19Z</time>
      </trkpt>
      <trkpt lat="45.91211" lon="4.74065">
        <ele>173</ele>
        <time>2017-08-05T14:23:21Z</time>
      </trkpt>
      <trkpt lat="45.91212" lon="4.7406">
        <ele>173</ele>
        <time>2017-08-05T14:23:22Z</time>
      </trkpt>
      <trkpt lat="45.91214" lon="4.74052">
        <ele>173</ele>
        <time>2017-08-05T14:23:24Z</time>
      </trkpt>
      <trkpt lat="45.91215" lon="4.74048">
        <ele>173</ele>
        <time>2017-08-05T14:23:25Z</time>
      </trkpt>
      <trkpt lat="45.91218" lon="4.74038">
        <ele>173</ele>
        <time>2017-08-05T14:23:27Z</time>
      </trkpt>
      <trkpt lat="45.91219" lon="4.74032">
        <ele>173</ele>
        <time>2017-08-05T14:23:28Z</time>
      </trkpt>
      <trkpt lat="45.91221" lon="4.7402">
        <ele>173</ele>
        <time>2017-08-05T14:23:30Z</time>
      </trkpt>
      <trkpt lat="45.91222" lon="4.74015">
        <ele>173</ele>
        <time>2017-08-05T14:23:31Z</time>
      </trkpt>
      <trkpt lat="45.91224" lon="4.74004">
        <ele>173</ele>
        <time>2017-08-05T14:23:33Z</time>
      </trkpt>
      <trkpt lat="45.91225" lon="4.73998">
        <ele>173</ele>
        <time>2017-08-05T14:23:34Z</time>
      </trkpt>
      <trkpt lat="45.91227" lon="4.73987">
        <ele>173</ele>
        <time>2017-08-05T14:23:36Z</time>
      </trkpt>
      <trkpt lat="45.91228" lon="4.73981">
        <ele>173</ele>
        <time>2017-08-05T14:23:37Z</time>
      </trkpt>
      <trkpt lat="45.9123" lon="4.7397">
        <ele>173</ele>
        <time>2017-08-05T14:23:39Z</time>
      </trkpt>
      <trkpt lat="45.9123" lon="4.73963">
        <ele>173</ele>
        <time>2017-08-05T14:23:40Z</time>
      </trkpt>
      <trkpt lat="45.9123" lon="4.73956">
        <ele>173</ele>
        <time>2017-08-05T14:23:41Z</time>
      </trkpt>
      <trkpt lat="45.9123" lon="4.7395">
        <ele>173</ele>
        <time>2017-08-05T14:23:42Z</time>
      </trkpt>
      <trkpt lat="45.9123" lon="4.73943">
        <ele>173</ele>
        <time>2017-08-05T14:23:43Z</time>
      </trkpt>
      <trkpt lat="45.9123" lon="4.73935">
        <ele>173</ele>
        <time>2017-08-05T14:23:44Z</time>
      </trkpt>
      <trkpt lat="45.91229" lon="4.73928">
        <ele>173</ele>
        <time>2017-08-05T14:23:45Z</time>
      </trkpt>
      <trkpt lat="45.91228" lon="4.7392">
        <ele>173</ele>
        <time>2017-08-05T14:23:46Z</time>
      </trkpt>
      <trkpt lat="45.91227" lon="4.73912">
        <ele>174</ele>
        <time>2017-08-05T14:23:47Z</time>
      </trkpt>
      <trkpt lat="45.91225" lon="4.73904">
        <ele>174</ele>
        <time>2017-08-05T14:23:48Z</time>
      </trkpt>
      <trkpt lat="45.91224" lon="4.73896">
        <ele>174</ele>
        <time>2017-08-05T14:23:49Z</time>
      </trkpt>
      <trkpt lat="45.91222" lon="4.73887">
        <ele>174</ele>
        <time>2017-08-05T14:23:50Z</time>
      </trkpt>
      <trkpt lat="45.9122" lon="4.73879">
        <ele>174</ele>
        <time>2017-08-05T14:23:51Z</time>
      </trkpt>
      <trkpt lat="45.91218" lon="4.73871">
        <ele>174</ele>
        <time>2017-08-05T14:23:52Z</time>
      </trkpt>
      <trkpt lat="45.91216" lon="4.73863">
        <ele>174</ele>
        <time>2017-08-05T14:23:53Z</time>
      </trkpt>
      <trkpt lat="45.91213" lon="4.73854">
        <ele>174</ele>
        <time>2017-08-05T14:23:54Z</time>
      </trkpt>
      <trkpt lat="45.91209" lon="4.73846">
        <ele>174</ele>
        <time>2017-08-05T14:23:55Z</time>
      </trkpt>
      <trkpt lat="45.91206" lon="4.73838">
        <ele>174</ele>
        <time>2017-08-05T14:23:56Z</time>
      </trkpt>
      <trkpt lat="45.91202" lon="4.73831">
        <ele>175</ele>
        <time>2017-08-05T14:23:57Z</time>
      </trkpt>
      <trkpt lat="45.91199" lon="4.73824">
        <ele>175</ele>
        <time>2017-08-05T14:23:58Z</time>
      </trkpt>
      <trkpt lat="45.91195" lon="4.73816">
        <ele>175</ele>
        <time>2017-08-05T14:23:59Z</time>
      </trkpt>
      <trkpt lat="45.91191" lon="4.73808">
        <ele>175</ele>
        <time>2017-08-05T14:24:00Z</time>
      </trkpt>
      <trkpt lat="45.91187" lon="4.73799">
        <ele>175</ele>
        <time>2017-08-05T14:24:01Z</time>
      </trkpt>
      <trkpt lat="45.91184" lon="4.73791">
        <ele>175</ele>
        <time>2017-08-05T14:24:02Z</time>
      </trkpt>
      <trkpt lat="45.9118" lon="4.73783">
        <ele>175</ele>
        <time>2017-08-05T14:24:03Z</time>
      </trkpt>
      <trkpt lat="45.91176" lon="4.73776">
        <ele>175</ele>
        <time>2017-08-05T14:24:04Z</time>
      </trkpt>
      <trkpt lat="45.91172" lon="4.73769">
        <ele>175</ele>
        <time>2017-08-05T14:24:05Z</time>
      </trkpt>
      <trkpt lat="45.91168" lon="4.73762">
        <ele>175</ele>
        <time>2017-08-05T14:24:06Z</time>
      </trkpt>
      <trkpt lat="45.91166" lon="4.73755">
        <ele>175</ele>
        <time>2017-08-05T14:24:07Z</time>
      </trkpt>
      <trkpt lat="45.91165" lon="4.73748">
        <ele>175</ele>
        <time>2017-08-05T14:24:08Z</time>
      </trkpt>
      <trkpt lat="45.91166" lon="4.73741">
        <ele>175</ele>
        <time>2017-08-05T14:24:09Z</time>
      </trkpt>
      <trkpt lat="45.9117" lon="4.73736">
        <ele>175</ele>
        <time>2017-08-05T14:24:10Z</time>
      </trkpt>
      <trkpt lat="45.91178" lon="4.73733">
        <ele>175</ele>
        <time>2017-08-05T14:24:12Z</time>
      </trkpt>
      <trkpt lat="45.91182" lon="4.73733">
        <ele>175</ele>
        <time>2017-08-05T14:24:13Z</time>
      </trkpt>
      <trkpt lat="45.9119" lon="4.73736">
        <ele>175</ele>
        <time>2017-08-05T14:24:15Z</time>
      </trkpt>
      <trkpt lat="45.91194" lon="4.73737">
        <ele>175</ele>
        <time>2017-08-05T14:24:16Z</time>
      </trkpt>
      <trkpt lat="45.91201" lon="4.73739">
        <ele>175</ele>
        <time>2017-08-05T14:24:18Z</time>
      </trkpt>
      <trkpt lat="45.91205" lon="4.73739">
        <ele>175</ele>
        <time>2017-08-05T14:24:19Z</time>
      </trkpt>
      <trkpt lat="45.91214" lon="4.73738">
        <ele>175</ele>
        <time>2017-08-05T14:24:21Z</time>
      </trkpt>
      <trkpt lat="45.91218" lon="4.73738">
        <ele>175</ele>
        <time>2017-08-05T14:24:22Z</time>
      </trkpt>
      <trkpt lat="45.91227" lon="4.73737">
        <ele>175</ele>
        <time>2017-08-05T14:24:24Z</time>
      </trkpt>
      <trkpt lat="45.91231" lon="4.73736">
        <ele>175</ele>
        <time>2017-08-05T14:24:25Z</time>
      </trkpt>
      <trkpt lat="45.91239" lon="4.73736">
        <ele>175</ele>
        <time>2017-08-05T14:24:27Z</time>
      </trkpt>
      <trkpt lat="45.91243" lon="4.73735">
        <ele>175</ele>
        <time>2017-08-05T14:24:28Z</time>
      </trkpt>
      <trkpt lat="45.91251" lon="4.73736">
        <ele>175</ele>
        <time>2017-08-05T14:24:30Z</time>
      </trkpt>
      <trkpt lat="45.91254" lon="4.73736">
        <ele>175</ele>
        <time>2017-08-05T14:24:31Z</time>
      </trkpt>
      <trkpt lat="45.91262" lon="4.73735">
        <ele>174</ele>
        <time>2017-08-05T14:24:33Z</time>
      </trkpt>
      <trkpt lat="45.91266" lon="4.73735">
        <ele>174</ele>
        <time>2017-08-05T14:24:34Z</time>
      </trkpt>
      <trkpt lat="45.91274" lon="4.73736">
        <ele>174</ele>
        <time>2017-08-05T14:24:36Z</time>
      </trkpt>
      <trkpt lat="45.91278" lon="4.73736">
        <ele>174</ele>
        <time>2017-08-05T14:24:37Z</time>
      </trkpt>
      <trkpt lat="45.91284" lon="4.73737">
        <ele>174</ele>
        <time>2017-08-05T14:24:39Z</time>
      </trkpt>
      <trkpt lat="45.91288" lon="4.73737">
        <ele>174</ele>
        <time>2017-08-05T14:24:40Z</time>
      </trkpt>
      <trkpt lat="45.91296" lon="4.73738">
        <ele>174</ele>
        <time>2017-08-05T14:24:42Z</time>
      </trkpt>
      <trkpt lat="45.91301" lon="4.73738">
        <ele>174</ele>
        <time>2017-08-05T14:24:43Z</time>
      </trkpt>
      <trkpt lat="45.91309" lon="4.73738">
        <ele>174</ele>
        <time>2017-08-05T14:24:45Z</time>
      </trkpt>
      <trkpt lat="45.91313" lon="4.73737">
        <ele>174</ele>
        <time>2017-08-05T14:24:46Z</time>
      </trkpt>
      <trkpt lat="45.9132" lon="4.73737">
        <ele>174</ele>
        <time>2017-08-05T14:24:48Z</time>
      </trkpt>
      <trkpt lat="45.91323" lon="4.73737">
        <ele>174</ele>
        <time>2017-08-05T14:24:49Z</time>
      </trkpt>
      <trkpt lat="45.9133" lon="4.73738">
        <ele>173</ele>
        <time>2017-08-05T14:24:51Z</time>
      </trkpt>
      <trkpt lat="45.91333" lon="4.73738">
        <ele>173</ele>
        <time>2017-08-05T14:24:52Z</time>
      </trkpt>
      <trkpt lat="45.91341" lon="4.73739">
        <ele>173</ele>
        <time>2017-08-05T14:24:54Z</time>
      </trkpt>
      <trkpt lat="45.91345" lon="4.73741">
        <ele>173</ele>
        <time>2017-08-05T14:24:55Z</time>
      </trkpt>
      <trkpt lat="45.91353" lon="4.7374">
        <ele>173</ele>
        <time>2017-08-05T14:24:57Z</time>
      </trkpt>
      <trkpt lat="45.91356" lon="4.7374">
        <ele>173</ele>
        <time>2017-08-05T14:24:58Z</time>
      </trkpt>
      <trkpt lat="45.91362" lon="4.73739">
        <ele>173</ele>
        <time>2017-08-05T14:25:00Z</time>
      </trkpt>
      <trkpt lat="45.91366" lon="4.73738">
        <ele>173</ele>
        <time>2017-08-05T14:25:01Z</time>
      </trkpt>
      <trkpt lat="45.91374" lon="4.73737">
        <ele>173</ele>
        <time>2017-08-05T14:25:03Z</time>
      </trkpt>
      <trkpt lat="45.91378" lon="4.73737">
        <ele>173</ele>
        <time>2017-08-05T14:25:04Z</time>
      </trkpt>
      <trkpt lat="45.91385" lon="4.73737">
        <ele>173</ele>
        <time>2017-08-05T14:25:06Z</time>
      </trkpt>
      <trkpt lat="45.91389" lon="4.73737">
        <ele>173</ele>
        <time>2017-08-05T14:25:07Z</time>
      </trkpt>
      <trkpt lat="45.91395" lon="4.73736">
        <ele>173</ele>
        <time>2017-08-05T14:25:09Z</time>
      </trkpt>
      <trkpt lat="45.91399" lon="4.73737">
        <ele>173</ele>
        <time>2017-08-05T14:25:10Z</time>
      </trkpt>
      <trkpt lat="45.91407" lon="4.73737">
        <ele>173</ele>
        <time>2017-08-05T14:25:12Z</time>
      </trkpt>
      <trkpt lat="45.91411" lon="4.73737">
        <ele>173</ele>
        <time>2017-08-05T14:25:13Z</time>
      </trkpt>
      <trkpt lat="45.91418" lon="4.73736">
        <ele>173</ele>
        <time>2017-08-05T14:25:15Z</time>
      </trkpt>
      <trkpt lat="45.91422" lon="4.73736">
        <ele>173</ele>
        <time>2017-08-05T14:25:16Z</time>
      </trkpt>
      <trkpt lat="45.9143" lon="4.73736">
        <ele>173</ele>
        <time>2017-08-05T14:25:18Z</time>
      </trkpt>
      <trkpt lat="45.91434" lon="4.73736">
        <ele>173</ele>
        <time>2017-08-05T14:25:19Z</time>
      </trkpt>
      <trkpt lat="45.91442" lon="4.73735">
        <ele>173</ele>
        <time>2017-08-05T14:25:21Z</time>
      </trkpt>
      <trkpt lat="45.91446" lon="4.73734">
        <ele>173</ele>
        <time>2017-08-05T14:25:22Z</time>
      </trkpt>
      <trkpt lat="45.91454" lon="4.73735">
        <ele>173</ele>
        <time>2017-08-05T14:25:25Z</time>
      </trkpt>
      <trkpt lat="45.91457" lon="4.73735">
        <ele>174</ele>
        <time>2017-08-05T14:25:26Z</time>
      </trkpt>
      <trkpt lat="45.91463" lon="4.73732">
        <ele>174</ele>
        <time>2017-08-05T14:25:28Z</time>
      </trkpt>
      <trkpt lat="45.91465" lon="4.73729">
        <ele>174</ele>
        <time>2017-08-05T14:25:29Z</time>
      </trkpt>
      <trkpt lat="45.91469" lon="4.73722">
        <ele>174</ele>
        <time>2017-08-05T14:25:31Z</time>
      </trkpt>
      <trkpt lat="45.91471" lon="4.73717">
        <ele>174</ele>
        <time>2017-08-05T14:25:32Z</time>
      </trkpt>
      <trkpt lat="45.9147" lon="4.73708">
        <ele>174</ele>
        <time>2017-08-05T14:25:34Z</time>
      </trkpt>
      <trkpt lat="45.91468" lon="4.73703">
        <ele>174</ele>
        <time>2017-08-05T14:25:35Z</time>
      </trkpt>
      <trkpt lat="45.91464" lon="4.73693">
        <ele>174</ele>
        <time>2017-08-05T14:25:37Z</time>
      </trkpt>
      <trkpt lat="45.91461" lon="4.73688">
        <ele>174</ele>
        <time>2017-08-05T14:25:38Z</time>
      </trkpt>
      <trkpt lat="45.91457" lon="4.73678">
        <ele>174</ele>
        <time>2017-08-05T14:25:40Z</time>
      </trkpt>
      <trkpt lat="45.91456" lon="4.73674">
        <ele>174</ele>
        <time>2017-08-05T14:25:41Z</time>
      </trkpt>
      <trkpt lat="45.91451" lon="4.73667">
        <ele>174</ele>
        <time>2017-08-05T14:25:43Z</time>
      </trkpt>
      <trkpt lat="45.91449" lon="4.73664">
        <ele>174</ele>
        <time>2017-08-05T14:25:44Z</time>
      </trkpt>
      <trkpt lat="45.91446" lon="4.73656">
        <ele>174</ele>
        <time>2017-08-05T14:25:46Z</time>
      </trkpt>
      <trkpt lat="45.91444" lon="4.73652">
        <ele>174</ele>
        <time>2017-08-05T14:25:47Z</time>
      </trkpt>
      <trkpt lat="45.91439" lon="4.73641">
        <ele>174</ele>
        <time>2017-08-05T14:25:50Z</time>
      </trkpt>
      <trkpt lat="45.91438" lon="4.73638">
        <ele>174</ele>
        <time>2017-08-05T14:25:51Z</time>
      </trkpt>
      <trkpt lat="45.91437" lon="4.73628">
        <ele>174</ele>
        <time>2017-08-05T14:25:53Z</time>
      </trkpt>
      <trkpt lat="45.91437" lon="4.73622">
        <ele>175</ele>
        <time>2017-08-05T14:25:54Z</time>
      </trkpt>
      <trkpt lat="45.91437" lon="4.73611">
        <ele>175</ele>
        <time>2017-08-05T14:25:56Z</time>
      </trkpt>
      <trkpt lat="45.91436" lon="4.73605">
        <ele>175</ele>
        <time>2017-08-05T14:25:57Z</time>
      </trkpt>
      <trkpt lat="45.91434" lon="4.73596">
        <ele>175</ele>
        <time>2017-08-05T14:25:59Z</time>
      </trkpt>
      <trkpt lat="45.91433" lon="4.73592">
        <ele>175</ele>
        <time>2017-08-05T14:26:00Z</time>
      </trkpt>
      <trkpt lat="45.91431" lon="4.7358">
        <ele>175</ele>
        <time>2017-08-05T14:26:02Z</time>
      </trkpt>
      <trkpt lat="45.9143" lon="4.73574">
        <ele>175</ele>
        <time>2017-08-05T14:26:03Z</time>
      </trkpt>
      <trkpt lat="45.91428" lon="4.73563">
        <ele>175</ele>
        <time>2017-08-05T14:26:05Z</time>
      </trkpt>
      <trkpt lat="45.91428" lon="4.73558">
        <ele>174</ele>
        <time>2017-08-05T14:26:06Z</time>
      </trkpt>
      <trkpt lat="45.91428" lon="4.73548">
        <ele>174</ele>
        <time>2017-08-05T14:26:08Z</time>
      </trkpt>
      <trkpt lat="45.91428" lon="4.73544">
        <ele>174</ele>
        <time>2017-08-05T14:26:09Z</time>
      </trkpt>
      <trkpt lat="45.91429" lon="4.73535">
        <ele>174</ele>
        <time>2017-08-05T14:26:11Z</time>
      </trkpt>
      <trkpt lat="45.91429" lon="4.7353">
        <ele>174</ele>
        <time>2017-08-05T14:26:12Z</time>
      </trkpt>
      <trkpt lat="45.91429" lon="4.73519">
        <ele>174</ele>
        <time>2017-08-05T14:26:14Z</time>
      </trkpt>
      <trkpt lat="45.91429" lon="4.73513">
        <ele>174</ele>
        <time>2017-08-05T14:26:15Z</time>
      </trkpt>
      <trkpt lat="45.91429" lon="4.73502">
        <ele>174</ele>
        <time>2017-08-05T14:26:17Z</time>
      </trkpt>
      <trkpt lat="45.91428" lon="4.73497">
        <ele>174</ele>
        <time>2017-08-05T14:26:18Z</time>
      </trkpt>
      <trkpt lat="45.91428" lon="4.73488">
        <ele>174</ele>
        <time>2017-08-05T14:26:20Z</time>
      </trkpt>
      <trkpt lat="45.91428" lon="4.73484">
        <ele>174</ele>
        <time>2017-08-05T14:26:21Z</time>
      </trkpt>
      <trkpt lat="45.91428" lon="4.73474">
        <ele>174</ele>
        <time>2017-08-05T14:26:24Z</time>
      </trkpt>
      <trkpt lat="45.91428" lon="4.73468">
        <ele>174</ele>
        <time>2017-08-05T14:26:25Z</time>
      </trkpt>
      <trkpt lat="45.91428" lon="4.73458">
        <ele>174</ele>
        <time>2017-08-05T14:26:27Z</time>
      </trkpt>
      <trkpt lat="45.91427" lon="4.73455">
        <ele>174</ele>
        <time>2017-08-05T14:26:28Z</time>
      </trkpt>
      <trkpt lat="45.91424" lon="4.73442">
        <ele>174</ele>
        <time>2017-08-05T14:26:32Z</time>
      </trkpt>
      <trkpt lat="45.91423" lon="4.7344">
        <ele>174</ele>
        <time>2017-08-05T14:26:33Z</time>
      </trkpt>
      <trkpt lat="45.91421" lon="4.7343">
        <ele>174</ele>
        <time>2017-08-05T14:26:36Z</time>
      </trkpt>
      <trkpt lat="45.91421" lon="4.73426">
        <ele>174</ele>
        <time>2017-08-05T14:26:37Z</time>
      </trkpt>
      <trkpt lat="45.91422" lon="4.73416">
        <ele>174</ele>
        <time>2017-08-05T14:26:41Z</time>
      </trkpt>
      <trkpt lat="45.91422" lon="4.73413">
        <ele>174</ele>
        <time>2017-08-05T14:26:42Z</time>
      </trkpt>
      <trkpt lat="45.91423" lon="4.73401">
        <ele>174</ele>
        <time>2017-08-05T14:26:45Z</time>
      </trkpt>
      <trkpt lat="45.91423" lon="4.73398">
        <ele>174</ele>
        <time>2017-08-05T14:26:46Z</time>
      </trkpt>
      <trkpt lat="45.91426" lon="4.73388">
        <ele>174</ele>
        <time>2017-08-05T14:26:49Z</time>
      </trkpt>
      <trkpt lat="45.91428" lon="4.73385">
        <ele>174</ele>
        <time>2017-08-05T14:26:50Z</time>
      </trkpt>
      <trkpt lat="45.91436" lon="4.7338">
        <ele>174</ele>
        <time>2017-08-05T14:26:54Z</time>
      </trkpt>
      <trkpt lat="45.91439" lon="4.7338">
        <ele>174</ele>
        <time>2017-08-05T14:26:55Z</time>
      </trkpt>
      <trkpt lat="45.91448" lon="4.73378">
        <ele>174</ele>
        <time>2017-08-05T14:26:58Z</time>
      </trkpt>
      <trkpt lat="45.9145" lon="4.73377">
        <ele>174</ele>
        <time>2017-08-05T14:26:59Z</time>
      </trkpt>
      <trkpt lat="45.91458" lon="4.73373">
        <ele>174</ele>
        <time>2017-08-05T14:27:02Z</time>
      </trkpt>
      <trkpt lat="45.9146" lon="4.73371">
        <ele>174</ele>
        <time>2017-08-05T14:27:03Z</time>
      </trkpt>
      <trkpt lat="45.91466" lon="4.7337">
        <ele>174</ele>
        <time>2017-08-05T14:27:05Z</time>
      </trkpt>
      <trkpt lat="45.91469" lon="4.7337">
        <ele>174</ele>
        <time>2017-08-05T14:27:06Z</time>
      </trkpt>
      <trkpt lat="45.91476" lon="4.73369">
        <ele>174</ele>
        <time>2017-08-05T14:27:09Z</time>
      </trkpt>
      <trkpt lat="45.91478" lon="4.73368">
        <ele>174</ele>
        <time>2017-08-05T14:27:10Z</time>
      </trkpt>
      <trkpt lat="45.91484" lon="4.73367">
        <ele>174</ele>
        <time>2017-08-05T14:27:12Z</time>
      </trkpt>
      <trkpt lat="45.91488" lon="4.73366">
        <ele>174</ele>
        <time>2017-08-05T14:27:13Z</time>
      </trkpt>
      <trkpt lat="45.91494" lon="4.73365">
        <ele>174</ele>
        <time>2017-08-05T14:27:15Z</time>
      </trkpt>
      <trkpt lat="45.91497" lon="4.73366">
        <ele>174</ele>
        <time>2017-08-05T14:27:16Z</time>
      </trkpt>
      <trkpt lat="45.91503" lon="4.73365">
        <ele>174</ele>
        <time>2017-08-05T14:27:18Z</time>
      </trkpt>
      <trkpt lat="45.91506" lon="4.73365">
        <ele>174</ele>
        <time>2017-08-05T14:27:19Z</time>
      </trkpt>
      <trkpt lat="45.91513" lon="4.73367">
        <ele>174</ele>
        <time>2017-08-05T14:27:21Z</time>
      </trkpt>
      <trkpt lat="45.91517" lon="4.73368">
        <ele>174</ele>
        <time>2017-08-05T14:27:22Z</time>
      </trkpt>
      <trkpt lat="45.9152" lon="4.73376">
        <ele>174</ele>
        <time>2017-08-05T14:27:25Z</time>
      </trkpt>
      <trkpt lat="45.91521" lon="4.7338">
        <ele>174</ele>
        <time>2017-08-05T14:27:26Z</time>
      </trkpt>
      <trkpt lat="45.91527" lon="4.73389">
        <ele>174</ele>
        <time>2017-08-05T14:27:29Z</time>
      </trkpt>
      <trkpt lat="45.9153" lon="4.7339">
        <ele>174</ele>
        <time>2017-08-05T14:27:30Z</time>
      </trkpt>
      <trkpt lat="45.91538" lon="4.73391">
        <ele>174</ele>
        <time>2017-08-05T14:27:33Z</time>
      </trkpt>
      <trkpt lat="45.9154" lon="4.7339">
        <ele>174</ele>
        <time>2017-08-05T14:27:34Z</time>
      </trkpt>
      <trkpt lat="45.91547" lon="4.73389">
        <ele>174</ele>
        <time>2017-08-05T14:27:36Z</time>
      </trkpt>
      <trkpt lat="45.9155" lon="4.73388">
        <ele>174</ele>
        <time>2017-08-05T14:27:37Z</time>
      </trkpt>
      <trkpt lat="45.91558" lon="4.73386">
        <ele>174</ele>
        <time>2017-08-05T14:27:40Z</time>
      </trkpt>
      <trkpt lat="45.9156" lon="4.73386">
        <ele>174</ele>
        <time>2017-08-05T14:27:41Z</time>
      </trkpt>
      <trkpt lat="45.91567" lon="4.73386">
        <ele>174</ele>
        <time>2017-08-05T14:27:44Z</time>
      </trkpt>
      <trkpt lat="45.9157" lon="4.73385">
        <ele>174</ele>
        <time>2017-08-05T14:27:45Z</time>
      </trkpt>
      <trkpt lat="45.91576" lon="4.73384">
        <ele>174</ele>
        <time>2017-08-05T14:27:47Z</time>
      </trkpt>
      <trkpt lat="45.91579" lon="4.73384">
        <ele>174</ele>
        <time>2017-08-05T14:27:48Z</time>
      </trkpt>
      <trkpt lat="45.91588" lon="4.73382">
        <ele>173</ele>
        <time>2017-08-05T14:27:51Z</time>
      </trkpt>
      <trkpt lat="45.91591" lon="4.73381">
        <ele>173</ele>
        <time>2017-08-05T14:27:52Z</time>
      </trkpt>
      <trkpt lat="45.91597" lon="4.73379">
        <ele>173</ele>
        <time>2017-08-05T14:27:54Z</time>
      </trkpt>
      <trkpt lat="45.916" lon="4.73379">
        <ele>173</ele>
        <time>2017-08-05T14:27:55Z</time>
      </trkpt>
      <trkpt lat="45.91608" lon="4.7338">
        <ele>173</ele>
        <time>2017-08-05T14:27:57Z</time>
      </trkpt>
      <trkpt lat="45.91611" lon="4.73381">
        <ele>173</ele>
        <time>2017-08-05T14:27:58Z</time>
      </trkpt>
      <trkpt lat="45.91619" lon="4.73378">
        <ele>173</ele>
        <time>2017-08-05T14:28:01Z</time>
      </trkpt>
      <trkpt lat="45.91622" lon="4.73378">
        <ele>173</ele>
        <time>2017-08-05T14:28:02Z</time>
      </trkpt>
      <trkpt lat="45.91628" lon="4.73376">
        <ele>173</ele>
        <time>2017-08-05T14:28:04Z</time>
      </trkpt>
      <trkpt lat="45.91631" lon="4.73375">
        <ele>173</ele>
        <time>2017-08-05T14:28:05Z</time>
      </trkpt>
      <trkpt lat="45.91638" lon="4.73373">
        <ele>173</ele>
        <time>2017-08-05T14:28:07Z</time>
      </trkpt>
      <trkpt lat="45.91642" lon="4.73373">
        <ele>173</ele>
        <time>2017-08-05T14:28:08Z</time>
      </trkpt>
      <trkpt lat="45.91647" lon="4.73381">
        <ele>173</ele>
        <time>2017-08-05T14:28:11Z</time>
      </trkpt>
      <trkpt lat="45.91647" lon="4.73385">
        <ele>173</ele>
        <time>2017-08-05T14:28:12Z</time>
      </trkpt>
      <trkpt lat="45.91652" lon="4.73394">
        <ele>173</ele>
        <time>2017-08-05T14:28:17Z</time>
      </trkpt>
      <trkpt lat="45.91654" lon="4.73395">
        <ele>173</ele>
        <time>2017-08-05T14:28:18Z</time>
      </trkpt>
      <trkpt lat="45.9166" lon="4.73401">
        <ele>173</ele>
        <time>2017-08-05T14:28:22Z</time>
      </trkpt>
      <trkpt lat="45.91662" lon="4.73404">
        <ele>173</ele>
        <time>2017-08-05T14:28:23Z</time>
      </trkpt>
      <trkpt lat="45.91668" lon="4.73411">
        <ele>173</ele>
        <time>2017-08-05T14:28:27Z</time>
      </trkpt>
      <trkpt lat="45.9167" lon="4.73414">
        <ele>173</ele>
        <time>2017-08-05T14:28:28Z</time>
      </trkpt>
      <trkpt lat="45.91676" lon="4.73421">
        <ele>173</ele>
        <time>2017-08-05T14:28:31Z</time>
      </trkpt>
      <trkpt lat="45.91678" lon="4.73423">
        <ele>173</ele>
        <time>2017-08-05T14:28:32Z</time>
      </trkpt>
      <trkpt lat="45.91681" lon="4.73432">
        <ele>173</ele>
        <time>2017-08-05T14:28:35Z</time>
      </trkpt>
      <trkpt lat="45.91682" lon="4.73436">
        <ele>173</ele>
        <time>2017-08-05T14:28:36Z</time>
      </trkpt>
      <trkpt lat="45.91685" lon="4.73447">
        <ele>173</ele>
        <time>2017-08-05T14:28:39Z</time>
      </trkpt>
      <trkpt lat="45.91685" lon="4.7345">
        <ele>173</ele>
        <time>2017-08-05T14:28:40Z</time>
      </trkpt>
      <trkpt lat="45.9169" lon="4.73457">
        <ele>173</ele>
        <time>2017-08-05T14:28:43Z</time>
      </trkpt>
      <trkpt lat="45.91693" lon="4.73459">
        <ele>173</ele>
        <time>2017-08-05T14:28:44Z</time>
      </trkpt>
      <trkpt lat="45.91701" lon="4.73458">
        <ele>173</ele>
        <time>2017-08-05T14:28:47Z</time>
      </trkpt>
      <trkpt lat="45.91704" lon="4.73456">
        <ele>173</ele>
        <time>2017-08-05T14:28:48Z</time>
      </trkpt>
      <trkpt lat="45.9171" lon="4.73451">
        <ele>174</ele>
        <time>2017-08-05T14:28:50Z</time>
      </trkpt>
      <trkpt lat="45.91712" lon="4.73448">
        <ele>174</ele>
        <time>2017-08-05T14:28:51Z</time>
      </trkpt>
      <trkpt lat="45.91718" lon="4.73444">
        <ele>174</ele>
        <time>2017-08-05T14:28:54Z</time>
      </trkpt>
      <trkpt lat="45.91721" lon="4.73442">
        <ele>174</ele>
        <time>2017-08-05T14:28:55Z</time>
      </trkpt>
      <trkpt lat="45.91727" lon="4.73439">
        <ele>174</ele>
        <time>2017-08-05T14:28:58Z</time>
      </trkpt>
      <trkpt lat="45.91729" lon="4.73437">
        <ele>174</ele>
        <time>2017-08-05T14:28:59Z</time>
      </trkpt>
      <trkpt lat="45.91736" lon="4.73433">
        <ele>174</ele>
        <time>2017-08-05T14:29:02Z</time>
      </trkpt>
      <trkpt lat="45.91739" lon="4.73432">
        <ele>174</ele>
        <time>2017-08-05T14:29:03Z</time>
      </trkpt>
      <trkpt lat="45.91748" lon="4.73433">
        <ele>174</ele>
        <time>2017-08-05T14:29:06Z</time>
      </trkpt>
      <trkpt lat="45.91751" lon="4.73433">
        <ele>174</ele>
        <time>2017-08-05T14:29:07Z</time>
      </trkpt>
      <trkpt lat="45.91757" lon="4.73433">
        <ele>174</ele>
        <time>2017-08-05T14:29:09Z</time>
      </trkpt>
      <trkpt lat="45.9176" lon="4.73433">
        <ele>174</ele>
        <time>2017-08-05T14:29:10Z</time>
      </trkpt>
      <trkpt lat="45.91769" lon="4.73431">
        <ele>174</ele>
        <time>2017-08-05T14:29:13Z</time>
      </trkpt>
      <trkpt lat="45.91773" lon="4.73429">
        <ele>174</ele>
        <time>2017-08-05T14:29:14Z</time>
      </trkpt>
      <trkpt lat="45.9178" lon="4.73427">
        <ele>174</ele>
        <time>2017-08-05T14:29:16Z</time>
      </trkpt>
      <trkpt lat="45.91783" lon="4.73425">
        <ele>174</ele>
        <time>2017-08-05T14:29:17Z</time>
      </trkpt>
      <trkpt lat="45.9179" lon="4.73424">
        <ele>174</ele>
        <time>2017-08-05T14:29:19Z</time>
      </trkpt>
      <trkpt lat="45.91793" lon="4.73422">
        <ele>173</ele>
        <time>2017-08-05T14:29:20Z</time>
      </trkpt>
      <trkpt lat="45.91797" lon="4.73411">
        <ele>173</ele>
        <time>2017-08-05T14:29:23Z</time>
      </trkpt>
      <trkpt lat="45.91797" lon="4.73406">
        <ele>173</ele>
        <time>2017-08-05T14:29:24Z</time>
      </trkpt>
      <trkpt lat="45.91796" lon="4.73395">
        <ele>173</ele>
        <time>2017-08-05T14:29:26Z</time>
      </trkpt>
      <trkpt lat="45.91796" lon="4.7339">
        <ele>173</ele>
        <time>2017-08-05T14:29:27Z</time>
      </trkpt>
      <trkpt lat="45.91797" lon="4.7338">
        <ele>173</ele>
        <time>2017-08-05T14:29:29Z</time>
      </trkpt>
      <trkpt lat="45.91796" lon="4.73375">
        <ele>172</ele>
        <time>2017-08-05T14:29:30Z</time>
      </trkpt>
      <trkpt lat="45.91794" lon="4.73366">
        <ele>172</ele>
        <time>2017-08-05T14:29:32Z</time>
      </trkpt>
      <trkpt lat="45.91793" lon="4.73362">
        <ele>172</ele>
        <time>2017-08-05T14:29:33Z</time>
      </trkpt>
      <trkpt lat="45.91791" lon="4.7335">
        <ele>172</ele>
        <time>2017-08-05T14:29:37Z</time>
      </trkpt>
      <trkpt lat="45.91793" lon="4.73349">
        <ele>172</ele>
        <time>2017-08-05T14:29:38Z</time>
      </trkpt>
      <trkpt lat="45.91802" lon="4.73348">
        <ele>172</ele>
        <time>2017-08-05T14:29:41Z</time>
      </trkpt>
      <trkpt lat="45.91805" lon="4.73346">
        <ele>172</ele>
        <time>2017-08-05T14:29:42Z</time>
      </trkpt>
      <trkpt lat="45.91813" lon="4.73343">
        <ele>172</ele>
        <time>2017-08-05T14:29:45Z</time>
      </trkpt>
      <trkpt lat="45.91816" lon="4.73342">
        <ele>172</ele>
        <time>2017-08-05T14:29:46Z</time>
      </trkpt>
      <trkpt lat="45.91822" lon="4.7334">
        <ele>172</ele>
        <time>2017-08-05T14:29:48Z</time>
      </trkpt>
      <trkpt lat="45.91825" lon="4.73338">
        <ele>172</ele>
        <time>2017-08-05T14:29:49Z</time>
      </trkpt>
      <trkpt lat="45.91831" lon="4.73335">
        <ele>172</ele>
        <time>2017-08-05T14:29:51Z</time>
      </trkpt>
      <trkpt lat="45.91835" lon="4.73333">
        <ele>172</ele>
        <time>2017-08-05T14:29:52Z</time>
      </trkpt>
      <trkpt lat="45.91842" lon="4.7333">
        <ele>172</ele>
        <time>2017-08-05T14:29:54Z</time>
      </trkpt>
      <trkpt lat="45.91845" lon="4.73329">
        <ele>172</ele>
        <time>2017-08-05T14:29:55Z</time>
      </trkpt>
      <trkpt lat="45.91853" lon="4.73326">
        <ele>171</ele>
        <time>2017-08-05T14:29:58Z</time>
      </trkpt>
      <trkpt lat="45.91856" lon="4.73327">
        <ele>171</ele>
        <time>2017-08-05T14:29:59Z</time>
      </trkpt>
      <trkpt lat="45.91863" lon="4.73324">
        <ele>171</ele>
        <time>2017-08-05T14:30:01Z</time>
      </trkpt>
      <trkpt lat="45.91867" lon="4.73323">
        <ele>171</ele>
        <time>2017-08-05T14:30:02Z</time>
      </trkpt>
      <trkpt lat="45.91873" lon="4.7332">
        <ele>171</ele>
        <time>2017-08-05T14:30:04Z</time>
      </trkpt>
      <trkpt lat="45.91876" lon="4.7332">
        <ele>171</ele>
        <time>2017-08-05T14:30:05Z</time>
      </trkpt>
      <trkpt lat="45.91884" lon="4.73316">
        <ele>171</ele>
        <time>2017-08-05T14:30:08Z</time>
      </trkpt>
      <trkpt lat="45.91887" lon="4.73315">
        <ele>171</ele>
        <time>2017-08-05T14:30:09Z</time>
      </trkpt>
      <trkpt lat="45.91894" lon="4.73312">
        <ele>171</ele>
        <time>2017-08-05T14:30:11Z</time>
      </trkpt>
      <trkpt lat="45.91897" lon="4.73311">
        <ele>171</ele>
        <time>2017-08-05T14:30:12Z</time>
      </trkpt>
      <trkpt lat="45.91904" lon="4.73309">
        <ele>171</ele>
        <time>2017-08-05T14:30:14Z</time>
      </trkpt>
      <trkpt lat="45.91907" lon="4.73307">
        <ele>171</ele>
        <time>2017-08-05T14:30:15Z</time>
      </trkpt>
      <trkpt lat="45.91915" lon="4.73303">
        <ele>171</ele>
        <time>2017-08-05T14:30:18Z</time>
      </trkpt>
      <trkpt lat="45.91918" lon="4.73301">
        <ele>171</ele>
        <time>2017-08-05T14:30:19Z</time>
      </trkpt>
      <trkpt lat="45.91925" lon="4.73298">
        <ele>171</ele>
        <time>2017-08-05T14:30:21Z</time>
      </trkpt>
      <trkpt lat="45.91929" lon="4.73297">
        <ele>171</ele>
        <time>2017-08-05T14:30:22Z</time>
      </trkpt>
      <trkpt lat="45.91936" lon="4.73294">
        <ele>171</ele>
        <time>2017-08-05T14:30:24Z</time>
      </trkpt>
      <trkpt lat="45.91939" lon="4.73293">
        <ele>171</ele>
        <time>2017-08-05T14:30:25Z</time>
      </trkpt>
      <trkpt lat="45.91945" lon="4.73291">
        <ele>171</ele>
        <time>2017-08-05T14:30:27Z</time>
      </trkpt>
      <trkpt lat="45.91948" lon="4.73289">
        <ele>171</ele>
        <time>2017-08-05T14:30:28Z</time>
      </trkpt>
      <trkpt lat="45.91955" lon="4.73289">
        <ele>171</ele>
        <time>2017-08-05T14:30:30Z</time>
      </trkpt>
      <trkpt lat="45.91959" lon="4.73287">
        <ele>171</ele>
        <time>2017-08-05T14:30:31Z</time>
      </trkpt>
      <trkpt lat="45.91965" lon="4.73284">
        <ele>171</ele>
        <time>2017-08-05T14:30:33Z</time>
      </trkpt>
      <trkpt lat="45.91969" lon="4.73283">
        <ele>171</ele>
        <time>2017-08-05T14:30:34Z</time>
      </trkpt>
      <trkpt lat="45.91977" lon="4.7328">
        <ele>171</ele>
        <time>2017-08-05T14:30:36Z</time>
      </trkpt>
      <trkpt lat="45.91981" lon="4.73279">
        <ele>171</ele>
        <time>2017-08-05T14:30:37Z</time>
      </trkpt>
      <trkpt lat="45.91986" lon="4.73277">
        <ele>171</ele>
        <time>2017-08-05T14:30:38Z</time>
      </trkpt>
      <trkpt lat="45.9199" lon="4.73276">
        <ele>171</ele>
        <time>2017-08-05T14:30:39Z</time>
      </trkpt>
      <trkpt lat="45.91998" lon="4.73272">
        <ele>171</ele>
        <time>2017-08-05T14:30:41Z</time>
      </trkpt>
      <trkpt lat="45.92002" lon="4.7327">
        <ele>171</ele>
        <time>2017-08-05T14:30:42Z</time>
      </trkpt>
      <trkpt lat="45.9201" lon="4.73269">
        <ele>171</ele>
        <time>2017-08-05T14:30:45Z</time>
      </trkpt>
      <trkpt lat="45.92013" lon="4.73268">
        <ele>171</ele>
        <time>2017-08-05T14:30:46Z</time>
      </trkpt>
      <trkpt lat="45.92021" lon="4.73264">
        <ele>171</ele>
        <time>2017-08-05T14:30:48Z</time>
      </trkpt>
      <trkpt lat="45.92025" lon="4.73263">
        <ele>171</ele>
        <time>2017-08-05T14:30:49Z</time>
      </trkpt>
      <trkpt lat="45.92032" lon="4.7326">
        <ele>171</ele>
        <time>2017-08-05T14:30:51Z</time>
      </trkpt>
      <trkpt lat="45.92035" lon="4.73259">
        <ele>171</ele>
        <time>2017-08-05T14:30:52Z</time>
      </trkpt>
      <trkpt lat="45.92044" lon="4.73256">
        <ele>171</ele>
        <time>2017-08-05T14:30:55Z</time>
      </trkpt>
      <trkpt lat="45.92047" lon="4.73254">
        <ele>171</ele>
        <time>2017-08-05T14:30:56Z</time>
      </trkpt>
      <trkpt lat="45.92055" lon="4.73251">
        <ele>171</ele>
        <time>2017-08-05T14:30:58Z</time>
      </trkpt>
      <trkpt lat="45.92058" lon="4.7325">
        <ele>171</ele>
        <time>2017-08-05T14:30:59Z</time>
      </trkpt>
      <trkpt lat="45.92065" lon="4.73247">
        <ele>171</ele>
        <time>2017-08-05T14:31:01Z</time>
      </trkpt>
      <trkpt lat="45.92068" lon="4.73246">
        <ele>171</ele>
        <time>2017-08-05T14:31:02Z</time>
      </trkpt>
      <trkpt lat="45.92075" lon="4.73245">
        <ele>171</ele>
        <time>2017-08-05T14:31:04Z</time>
      </trkpt>
      <trkpt lat="45.92079" lon="4.73243">
        <ele>171</ele>
        <time>2017-08-05T14:31:05Z</time>
      </trkpt>
      <trkpt lat="45.92087" lon="4.73241">
        <ele>171</ele>
        <time>2017-08-05T14:31:07Z</time>
      </trkpt>
      <trkpt lat="45.9209" lon="4.73239">
        <ele>171</ele>
        <time>2017-08-05T14:31:08Z</time>
      </trkpt>
      <trkpt lat="45.92097" lon="4.73237">
        <ele>171</ele>
        <time>2017-08-05T14:31:10Z</time>
      </trkpt>
      <trkpt lat="45.921" lon="4.73237">
        <ele>171</ele>
        <time>2017-08-05T14:31:11Z</time>
      </trkpt>
      <trkpt lat="45.92106" lon="4.73234">
        <ele>171</ele>
        <time>2017-08-05T14:31:13Z</time>
      </trkpt>
      <trkpt lat="45.9211" lon="4.73231">
        <ele>171</ele>
        <time>2017-08-05T14:31:14Z</time>
      </trkpt>
      <trkpt lat="45.92118" lon="4.73228">
        <ele>171</ele>
        <time>2017-08-05T14:31:16Z</time>
      </trkpt>
      <trkpt lat="45.92122" lon="4.73226">
        <ele>171</ele>
        <time>2017-08-05T14:31:17Z</time>
      </trkpt>
      <trkpt lat="45.9213" lon="4.73223">
        <ele>171</ele>
        <time>2017-08-05T14:31:19Z</time>
      </trkpt>
      <trkpt lat="45.92134" lon="4.73222">
        <ele>171</ele>
        <time>2017-08-05T14:31:20Z</time>
      </trkpt>
      <trkpt lat="45.92141" lon="4.73219">
        <ele>171</ele>
        <time>2017-08-05T14:31:22Z</time>
      </trkpt>
      <trkpt lat="45.92144" lon="4.73219">
        <ele>171</ele>
        <time>2017-08-05T14:31:23Z</time>
      </trkpt>
      <trkpt lat="45.92152" lon="4.73217">
        <ele>171</ele>
        <time>2017-08-05T14:31:25Z</time>
      </trkpt>
      <trkpt lat="45.92156" lon="4.73215">
        <ele>171</ele>
        <time>2017-08-05T14:31:26Z</time>
      </trkpt>
      <trkpt lat="45.92164" lon="4.73213">
        <ele>171</ele>
        <time>2017-08-05T14:31:28Z</time>
      </trkpt>
      <trkpt lat="45.92168" lon="4.73211">
        <ele>171</ele>
        <time>2017-08-05T14:31:29Z</time>
      </trkpt>
      <trkpt lat="45.92173" lon="4.73211">
        <ele>171</ele>
        <time>2017-08-05T14:31:30Z</time>
      </trkpt>
      <trkpt lat="45.92177" lon="4.73209">
        <ele>171</ele>
        <time>2017-08-05T14:31:31Z</time>
      </trkpt>
      <trkpt lat="45.92182" lon="4.73207">
        <ele>171</ele>
        <time>2017-08-05T14:31:32Z</time>
      </trkpt>
      <trkpt lat="45.92186" lon="4.73205">
        <ele>171</ele>
        <time>2017-08-05T14:31:33Z</time>
      </trkpt>
      <trkpt lat="45.92194" lon="4.73203">
        <ele>171</ele>
        <time>2017-08-05T14:31:35Z</time>
      </trkpt>
      <trkpt lat="45.92198" lon="4.73201">
        <ele>171</ele>
        <time>2017-08-05T14:31:36Z</time>
      </trkpt>
      <trkpt lat="45.92205" lon="4.73199">
        <ele>171</ele>
        <time>2017-08-05T14:31:38Z</time>
      </trkpt>
      <trkpt lat="45.92209" lon="4.73198">
        <ele>171</ele>
        <time>2017-08-05T14:31:39Z</time>
      </trkpt>
      <trkpt lat="45.92216" lon="4.73195">
        <ele>171</ele>
        <time>2017-08-05T14:31:41Z</time>
      </trkpt>
      <trkpt lat="45.9222" lon="4.73194">
        <ele>171</ele>
        <time>2017-08-05T14:31:42Z</time>
      </trkpt>
      <trkpt lat="45.92224" lon="4.73193">
        <ele>171</ele>
        <time>2017-08-05T14:31:43Z</time>
      </trkpt>
      <trkpt lat="45.92229" lon="4.73191">
        <ele>171</ele>
        <time>2017-08-05T14:31:44Z</time>
      </trkpt>
      <trkpt lat="45.92234" lon="4.73191">
        <ele>171</ele>
        <time>2017-08-05T14:31:45Z</time>
      </trkpt>
      <trkpt lat="45.92238" lon="4.73189">
        <ele>171</ele>
        <time>2017-08-05T14:31:46Z</time>
      </trkpt>
      <trkpt lat="45.92247" lon="4.73185">
        <ele>171</ele>
        <time>2017-08-05T14:31:48Z</time>
      </trkpt>
      <trkpt lat="45.9225" lon="4.73183">
        <ele>171</ele>
        <time>2017-08-05T14:31:49Z</time>
      </trkpt>
      <trkpt lat="45.92257" lon="4.7318">
        <ele>171</ele>
        <time>2017-08-05T14:31:51Z</time>
      </trkpt>
      <trkpt lat="45.92261" lon="4.73179">
        <ele>171</ele>
        <time>2017-08-05T14:31:52Z</time>
      </trkpt>
      <trkpt lat="45.92269" lon="4.73176">
        <ele>171</ele>
        <time>2017-08-05T14:31:54Z</time>
      </trkpt>
      <trkpt lat="45.92273" lon="4.73174">
        <ele>171</ele>
        <time>2017-08-05T14:31:55Z</time>
      </trkpt>
      <trkpt lat="45.92281" lon="4.73171">
        <ele>172</ele>
        <time>2017-08-05T14:31:57Z</time>
      </trkpt>
      <trkpt lat="45.92284" lon="4.7317">
        <ele>172</ele>
        <time>2017-08-05T14:31:58Z</time>
      </trkpt>
      <trkpt lat="45.9229" lon="4.73167">
        <ele>172</ele>
        <time>2017-08-05T14:32:00Z</time>
      </trkpt>
      <trkpt lat="45.92294" lon="4.73166">
        <ele>171</ele>
        <time>2017-08-05T14:32:01Z</time>
      </trkpt>
      <trkpt lat="45.92302" lon="4.73162">
        <ele>171</ele>
        <time>2017-08-05T14:32:03Z</time>
      </trkpt>
      <trkpt lat="45.92307" lon="4.73161">
        <ele>171</ele>
        <time>2017-08-05T14:32:04Z</time>
      </trkpt>
      <trkpt lat="45.92312" lon="4.73159">
        <ele>172</ele>
        <time>2017-08-05T14:32:05Z</time>
      </trkpt>
      <trkpt lat="45.92316" lon="4.73157">
        <ele>172</ele>
        <time>2017-08-05T14:32:06Z</time>
      </trkpt>
      <trkpt lat="45.92325" lon="4.73155">
        <ele>172</ele>
        <time>2017-08-05T14:32:08Z</time>
      </trkpt>
      <trkpt lat="45.92329" lon="4.73154">
        <ele>172</ele>
        <time>2017-08-05T14:32:09Z</time>
      </trkpt>
      <trkpt lat="45.92336" lon="4.73152">
        <ele>172</ele>
        <time>2017-08-05T14:32:11Z</time>
      </trkpt>
      <trkpt lat="45.92339" lon="4.73151">
        <ele>171</ele>
        <time>2017-08-05T14:32:12Z</time>
      </trkpt>
      <trkpt lat="45.92347" lon="4.73148">
        <ele>171</ele>
        <time>2017-08-05T14:32:14Z</time>
      </trkpt>
      <trkpt lat="45.92351" lon="4.73147">
        <ele>171</ele>
        <time>2017-08-05T14:32:15Z</time>
      </trkpt>
      <trkpt lat="45.92357" lon="4.73146">
        <ele>171</ele>
        <time>2017-08-05T14:32:17Z</time>
      </trkpt>
      <trkpt lat="45.92361" lon="4.73144">
        <ele>171</ele>
        <time>2017-08-05T14:32:18Z</time>
      </trkpt>
      <trkpt lat="45.92368" lon="4.7314">
        <ele>171</ele>
        <time>2017-08-05T14:32:20Z</time>
      </trkpt>
      <trkpt lat="45.92372" lon="4.73138">
        <ele>171</ele>
        <time>2017-08-05T14:32:21Z</time>
      </trkpt>
      <trkpt lat="45.92379" lon="4.73135">
        <ele>171</ele>
        <time>2017-08-05T14:32:23Z</time>
      </trkpt>
      <trkpt lat="45.92382" lon="4.73133">
        <ele>171</ele>
        <time>2017-08-05T14:32:24Z</time>
      </trkpt>
      <trkpt lat="45.9239" lon="4.73129">
        <ele>171</ele>
        <time>2017-08-05T14:32:27Z</time>
      </trkpt>
      <trkpt lat="45.92393" lon="4.73128">
        <ele>171</ele>
        <time>2017-08-05T14:32:28Z</time>
      </trkpt>
      <trkpt lat="45.92399" lon="4.73125">
        <ele>171</ele>
        <time>2017-08-05T14:32:30Z</time>
      </trkpt>
      <trkpt lat="45.92403" lon="4.73126">
        <ele>171</ele>
        <time>2017-08-05T14:32:31Z</time>
      </trkpt>
      <trkpt lat="45.92409" lon="4.73134">
        <ele>171</ele>
        <time>2017-08-05T14:32:34Z</time>
      </trkpt>
      <trkpt lat="45.92409" lon="4.73138">
        <ele>171</ele>
        <time>2017-08-05T14:32:35Z</time>
      </trkpt>
      <trkpt lat="45.92408" lon="4.73149">
        <ele>171</ele>
        <time>2017-08-05T14:32:37Z</time>
      </trkpt>
      <trkpt lat="45.92407" lon="4.73155">
        <ele>170</ele>
        <time>2017-08-05T14:32:38Z</time>
      </trkpt>
      <trkpt lat="45.92407" lon="4.73168">
        <ele>170</ele>
        <time>2017-08-05T14:32:40Z</time>
      </trkpt>
      <trkpt lat="45.92407" lon="4.73174">
        <ele>170</ele>
        <time>2017-08-05T14:32:41Z</time>
      </trkpt>
      <trkpt lat="45.92407" lon="4.73185">
        <ele>171</ele>
        <time>2017-08-05T14:32:43Z</time>
      </trkpt>
      <trkpt lat="45.92407" lon="4.73191">
        <ele>171</ele>
        <time>2017-08-05T14:32:44Z</time>
      </trkpt>
      <trkpt lat="45.92407" lon="4.732">
        <ele>171</ele>
        <time>2017-08-05T14:32:46Z</time>
      </trkpt>
      <trkpt lat="45.92407" lon="4.73204">
        <ele>171</ele>
        <time>2017-08-05T14:32:47Z</time>
      </trkpt>
      <trkpt lat="45.92409" lon="4.73215">
        <ele>171</ele>
        <time>2017-08-05T14:32:49Z</time>
      </trkpt>
      <trkpt lat="45.92409" lon="4.73222">
        <ele>171</ele>
        <time>2017-08-05T14:32:50Z</time>
      </trkpt>
      <trkpt lat="45.92409" lon="4.73229">
        <ele>171</ele>
        <time>2017-08-05T14:32:51Z</time>
      </trkpt>
      <trkpt lat="45.9241" lon="4.73236">
        <ele>171</ele>
        <time>2017-08-05T14:32:52Z</time>
      </trkpt>
      <trkpt lat="45.9241" lon="4.73243">
        <ele>171</ele>
        <time>2017-08-05T14:32:53Z</time>
      </trkpt>
      <trkpt lat="45.9241" lon="4.73249">
        <ele>171</ele>
        <time>2017-08-05T14:32:54Z</time>
      </trkpt>
      <trkpt lat="45.92411" lon="4.73261">
        <ele>171</ele>
        <time>2017-08-05T14:32:56Z</time>
      </trkpt>
      <trkpt lat="45.92411" lon="4.73267">
        <ele>171</ele>
        <time>2017-08-05T14:32:57Z</time>
      </trkpt>
      <trkpt lat="45.92411" lon="4.73277">
        <ele>171</ele>
        <time>2017-08-05T14:32:59Z</time>
      </trkpt>
      <trkpt lat="45.92412" lon="4.73283">
        <ele>171</ele>
        <time>2017-08-05T14:33:00Z</time>
      </trkpt>
      <trkpt lat="45.92413" lon="4.73295">
        <ele>171</ele>
        <time>2017-08-05T14:33:02Z</time>
      </trkpt>
      <trkpt lat="45.92414" lon="4.73303">
        <ele>171</ele>
        <time>2017-08-05T14:33:03Z</time>
      </trkpt>
      <trkpt lat="45.92414" lon="4.7331">
        <ele>171</ele>
        <time>2017-08-05T14:33:04Z</time>
      </trkpt>
      <trkpt lat="45.92415" lon="4.73318">
        <ele>171</ele>
        <time>2017-08-05T14:33:05Z</time>
      </trkpt>
      <trkpt lat="45.92416" lon="4.73326">
        <ele>171</ele>
        <time>2017-08-05T14:33:06Z</time>
      </trkpt>
      <trkpt lat="45.92417" lon="4.73334">
        <ele>171</ele>
        <time>2017-08-05T14:33:07Z</time>
      </trkpt>
      <trkpt lat="45.92417" lon="4.73341">
        <ele>171</ele>
        <time>2017-08-05T14:33:08Z</time>
      </trkpt>
      <trkpt lat="45.92418" lon="4.73348">
        <ele>171</ele>
        <time>2017-08-05T14:33:09Z</time>
      </trkpt>
      <trkpt lat="45.92419" lon="4.73355">
        <ele>171</ele>
        <time>2017-08-05T14:33:10Z</time>
      </trkpt>
      <trkpt lat="45.92419" lon="4.73361">
        <ele>172</ele>
        <time>2017-08-05T14:33:11Z</time>
      </trkpt>
      <trkpt lat="45.92421" lon="4.73373">
        <ele>172</ele>
        <time>2017-08-05T14:33:13Z</time>
      </trkpt>
      <trkpt lat="45.92422" lon="4.73379">
        <ele>172</ele>
        <time>2017-08-05T14:33:14Z</time>
      </trkpt>
      <trkpt lat="45.92424" lon="4.73386">
        <ele>172</ele>
        <time>2017-08-05T14:33:15Z</time>
      </trkpt>
      <trkpt lat="45.92425" lon="4.73393">
        <ele>172</ele>
        <time>2017-08-05T14:33:16Z</time>
      </trkpt>
      <trkpt lat="45.92427" lon="4.73399">
        <ele>172</ele>
        <time>2017-08-05T14:33:17Z</time>
      </trkpt>
      <trkpt lat="45.92431" lon="4.73404">
        <ele>172</ele>
        <time>2017-08-05T14:33:18Z</time>
      </trkpt>
      <trkpt lat="45.92434" lon="4.73408">
        <ele>172</ele>
        <time>2017-08-05T14:33:19Z</time>
      </trkpt>
      <trkpt lat="45.92438" lon="4.73412">
        <ele>172</ele>
        <time>2017-08-05T14:33:20Z</time>
      </trkpt>
      <trkpt lat="45.92445" lon="4.73418">
        <ele>173</ele>
        <time>2017-08-05T14:33:22Z</time>
      </trkpt>
      <trkpt lat="45.92448" lon="4.73421">
        <ele>173</ele>
        <time>2017-08-05T14:33:23Z</time>
      </trkpt>
      <trkpt lat="45.92455" lon="4.73428">
        <ele>173</ele>
        <time>2017-08-05T14:33:25Z</time>
      </trkpt>
      <trkpt lat="45.92458" lon="4.73433">
        <ele>173</ele>
        <time>2017-08-05T14:33:26Z</time>
      </trkpt>
      <trkpt lat="45.92463" lon="4.73441">
        <ele>173</ele>
        <time>2017-08-05T14:33:28Z</time>
      </trkpt>
      <trkpt lat="45.92465" lon="4.73445">
        <ele>173</ele>
        <time>2017-08-05T14:33:29Z</time>
      </trkpt>
      <trkpt lat="45.92466" lon="4.73456">
        <ele>173</ele>
        <time>2017-08-05T14:33:31Z</time>
      </trkpt>
      <trkpt lat="45.92466" lon="4.73463">
        <ele>173</ele>
        <time>2017-08-05T14:33:32Z</time>
      </trkpt>
      <trkpt lat="45.92467" lon="4.73469">
        <ele>173</ele>
        <time>2017-08-05T14:33:33Z</time>
      </trkpt>
      <trkpt lat="45.92467" lon="4.73476">
        <ele>173</ele>
        <time>2017-08-05T14:33:34Z</time>
      </trkpt>
      <trkpt lat="45.92467" lon="4.73484">
        <ele>173</ele>
        <time>2017-08-05T14:33:35Z</time>
      </trkpt>
      <trkpt lat="45.92467" lon="4.73492">
        <ele>173</ele>
        <time>2017-08-05T14:33:36Z</time>
      </trkpt>
      <trkpt lat="45.92466" lon="4.73499">
        <ele>173</ele>
        <time>2017-08-05T14:33:37Z</time>
      </trkpt>
      <trkpt lat="45.92466" lon="4.73507">
        <ele>174</ele>
        <time>2017-08-05T14:33:38Z</time>
      </trkpt>
      <trkpt lat="45.92466" lon="4.73513">
        <ele>174</ele>
        <time>2017-08-05T14:33:39Z</time>
      </trkpt>
      <trkpt lat="45.92465" lon="4.7352">
        <ele>174</ele>
        <time>2017-08-05T14:33:40Z</time>
      </trkpt>
      <trkpt lat="45.92466" lon="4.73531">
        <ele>174</ele>
        <time>2017-08-05T14:33:42Z</time>
      </trkpt>
      <trkpt lat="45.92465" lon="4.73537">
        <ele>174</ele>
        <time>2017-08-05T14:33:43Z</time>
      </trkpt>
      <trkpt lat="45.92464" lon="4.73548">
        <ele>173</ele>
        <time>2017-08-05T14:33:45Z</time>
      </trkpt>
      <trkpt lat="45.92463" lon="4.73555">
        <ele>173</ele>
        <time>2017-08-05T14:33:46Z</time>
      </trkpt>
      <trkpt lat="45.92461" lon="4.73568">
        <ele>173</ele>
        <time>2017-08-05T14:33:48Z</time>
      </trkpt>
      <trkpt lat="45.92462" lon="4.73575">
        <ele>173</ele>
        <time>2017-08-05T14:33:49Z</time>
      </trkpt>
      <trkpt lat="45.92462" lon="4.73582">
        <ele>173</ele>
        <time>2017-08-05T14:33:50Z</time>
      </trkpt>
      <trkpt lat="45.92463" lon="4.73589">
        <ele>174</ele>
        <time>2017-08-05T14:33:51Z</time>
      </trkpt>
      <trkpt lat="45.92464" lon="4.73597">
        <ele>174</ele>
        <time>2017-08-05T14:33:52Z</time>
      </trkpt>
      <trkpt lat="45.92464" lon="4.73604">
        <ele>174</ele>
        <time>2017-08-05T14:33:53Z</time>
      </trkpt>
      <trkpt lat="45.92464" lon="4.73611">
        <ele>174</ele>
        <time>2017-08-05T14:33:54Z</time>
      </trkpt>
      <trkpt lat="45.92464" lon="4.73618">
        <ele>174</ele>
        <time>2017-08-05T14:33:55Z</time>
      </trkpt>
      <trkpt lat="45.92465" lon="4.73625">
        <ele>174</ele>
        <time>2017-08-05T14:33:56Z</time>
      </trkpt>
      <trkpt lat="45.92465" lon="4.73631">
        <ele>174</ele>
        <time>2017-08-05T14:33:57Z</time>
      </trkpt>
      <trkpt lat="45.92464" lon="4.73642">
        <ele>174</ele>
        <time>2017-08-05T14:33:59Z</time>
      </trkpt>
      <trkpt lat="45.92464" lon="4.73648">
        <ele>174</ele>
        <time>2017-08-05T14:34:00Z</time>
      </trkpt>
      <trkpt lat="45.92462" lon="4.73659">
        <ele>174</ele>
        <time>2017-08-05T14:34:02Z</time>
      </trkpt>
      <trkpt lat="45.92462" lon="4.73665">
        <ele>174</ele>
        <time>2017-08-05T14:34:03Z</time>
      </trkpt>
      <trkpt lat="45.92461" lon="4.73677">
        <ele>174</ele>
        <time>2017-08-05T14:34:05Z</time>
      </trkpt>
      <trkpt lat="45.92461" lon="4.73683">
        <ele>174</ele>
        <time>2017-08-05T14:34:06Z</time>
      </trkpt>
      <trkpt lat="45.9246" lon="4.73694">
        <ele>174</ele>
        <time>2017-08-05T14:34:08Z</time>
      </trkpt>
      <trkpt lat="45.9246" lon="4.73699">
        <ele>174</ele>
        <time>2017-08-05T14:34:09Z</time>
      </trkpt>
      <trkpt lat="45.9246" lon="4.73704">
        <ele>174</ele>
        <time>2017-08-05T14:34:11Z</time>
      </trkpt>
      <trkpt lat="45.9246" lon="4.73706">
        <ele>174</ele>
        <time>2017-08-05T14:34:12Z</time>
      </trkpt>
      <trkpt lat="45.92462" lon="4.73709">
        <ele>174</ele>
        <time>2017-08-05T14:34:26Z</time>
      </trkpt>
      <trkpt lat="45.92462" lon="4.73712">
        <ele>174</ele>
        <time>2017-08-05T14:34:27Z</time>
      </trkpt>
      <trkpt lat="45.92455" lon="4.73706">
        <ele>174</ele>
        <time>2017-08-05T14:34:46Z</time>
      </trkpt>
      <trkpt lat="45.92455" lon="4.73704">
        <ele>174</ele>
        <time>2017-08-05T14:34:47Z</time>
      </trkpt>
      <trkpt lat="45.92459" lon="4.73703">
        <ele>174</ele>
        <time>2017-08-05T14:35:07.024Z</time>
      </trkpt>
    </trkseg>
  </trk>
</gpx>